<?xml version="1.0" encoding="UTF-8" standalone="no" ?>
<gpx xmlns="http://www.topografix.com/GPX/1/1" xmlns:xsi="http://www.w3.org/2001/XMLSchema-instance" xsi:schemaLocation="http://www.topografix.com/GPX/1/1 http://www.topografix.com/GPX/1/1/gpx.xsd" version="1.1" creator="VisuGPX - https://www.visugpx.com">
  <metadata>
    <name>Reconnaissance de la Course Tang-Ile Réunion</name>
    <desc><![CDATA[La reconnaissance de la course Tang sur l'île de la Réunion]]></desc>
  </metadata>
  <wpt lat="-21.20376" lon="55.57278">
    <ele>1577.8776855469</ele>
    <name><![CDATA[001]]></name>
    <desc><![CDATA[07-JAN-13 13:56:05]]></desc>
    <cmt><![CDATA[07-JAN-13 13:56:05]]></cmt>
  </wpt>
  <wpt lat="-21.20537" lon="55.56841">
    <ele>1519.9584960938</ele>
    <name><![CDATA[01-départ crep]]></name>
    <desc><![CDATA[Hauteur de 1520 m]]></desc>
    <cmt><![CDATA[Hauteur de 1520 m]]></cmt>
  </wpt>
  <wpt lat="-21.19888" lon="55.57143">
    <ele>1568.5048828125</ele>
    <name><![CDATA[02-apres radie]]></name>
    <desc><![CDATA[Che Doret et Chemin et Gué/Rad]]></desc>
    <cmt><![CDATA[Che Doret et Chemin et Gué/Rad]]></cmt>
  </wpt>
  <wpt lat="-21.19677" lon="55.57893">
    <ele>1600.2282714844</ele>
    <name><![CDATA[03-pont]]></name>
    <desc><![CDATA[N3 R Maurice Et Katia Krafft e]]></desc>
    <cmt><![CDATA[N3 R Maurice Et Katia Krafft e]]></cmt>
  </wpt>
  <wpt lat="-21.19433" lon="55.5829">
    <ele>1615.3686523438</ele>
    <name><![CDATA[04-croisement]]></name>
    <desc><![CDATA[Rte Des Herbes Blanches et Rou]]></desc>
    <cmt><![CDATA[Rte Des Herbes Blanches et Rou]]></cmt>
  </wpt>
  <wpt lat="-21.19939" lon="55.58722">
    <ele>1649.9758300781</ele>
    <name><![CDATA[05-]]></name>
    <desc><![CDATA[Sentier]]></desc>
    <cmt><![CDATA[Sentier]]></cmt>
  </wpt>
  <wpt lat="-21.19552" lon="55.60126">
    <ele>1754.7590332031</ele>
    <name><![CDATA[06-Sentier]]></name>
    <desc><![CDATA[Sentier]]></desc>
    <cmt><![CDATA[Sentier]]></cmt>
  </wpt>
  <wpt lat="-21.19479" lon="55.60312">
    <ele>1784.5595703125</ele>
    <name><![CDATA[07-Sentier]]></name>
    <desc><![CDATA[Sentier]]></desc>
    <cmt><![CDATA[Sentier]]></cmt>
  </wpt>
  <wpt lat="-21.19237" lon="55.60311">
    <ele>1760.0461425781</ele>
    <name><![CDATA[08-Hauteur de]]></name>
    <desc><![CDATA[Hauteur de 1760 m]]></desc>
    <cmt><![CDATA[Hauteur de 1760 m]]></cmt>
  </wpt>
  <wpt lat="-21.1846" lon="55.59903">
    <ele>1779.9931640625</ele>
    <name><![CDATA[09-Hauteur de]]></name>
    <desc><![CDATA[Hauteur de 1780 m]]></desc>
    <cmt><![CDATA[Hauteur de 1780 m]]></cmt>
  </wpt>
  <wpt lat="-21.18678" lon="55.62857">
    <ele>2072.2319335938</ele>
    <name><![CDATA[10-Sentier]]></name>
    <desc><![CDATA[Sentier]]></desc>
    <cmt><![CDATA[Sentier]]></cmt>
  </wpt>
  <wpt lat="-21.19044" lon="55.63575">
    <ele>2154.6643066406</ele>
    <name><![CDATA[11-Allée et Se]]></name>
    <desc><![CDATA[Allée et Sentier]]></desc>
    <cmt><![CDATA[Allée et Sentier]]></cmt>
  </wpt>
  <trk>
    <name><![CDATA[ACTIVE LOG 002]]></name>
    <trkseg>
      <trkpt lat="-21.19732" lon="55.57612">
        <ele>1588.7160644531</ele>
        <time>2013-01-07T02:05:32Z</time>
      </trkpt>
      <trkpt lat="-21.19732" lon="55.57613">
        <ele>1588.2353515625</ele>
        <time>2013-01-07T02:05:33Z</time>
      </trkpt>
      <trkpt lat="-21.19726" lon="55.57615">
        <ele>1588.2353515625</ele>
        <time>2013-01-07T02:05:41Z</time>
      </trkpt>
      <trkpt lat="-21.19719" lon="55.57617">
        <ele>1589.6772460938</ele>
        <time>2013-01-07T02:05:49Z</time>
      </trkpt>
      <trkpt lat="-21.19705" lon="55.57623">
        <ele>1589.6772460938</ele>
        <time>2013-01-07T02:06:06Z</time>
      </trkpt>
      <trkpt lat="-21.19698" lon="55.57624">
        <ele>1589.6772460938</ele>
        <time>2013-01-07T02:06:12Z</time>
      </trkpt>
      <trkpt lat="-21.19689" lon="55.5763">
        <ele>1589.6772460938</ele>
        <time>2013-01-07T02:06:26Z</time>
      </trkpt>
      <trkpt lat="-21.19684" lon="55.57632">
        <ele>1590.1579589844</ele>
        <time>2013-01-07T02:06:32Z</time>
      </trkpt>
      <trkpt lat="-21.1968" lon="55.57642">
        <ele>1589.6772460938</ele>
        <time>2013-01-07T02:06:43Z</time>
      </trkpt>
      <trkpt lat="-21.19672" lon="55.57675">
        <ele>1592.5612792969</ele>
        <time>2013-01-07T02:07:10Z</time>
      </trkpt>
      <trkpt lat="-21.19671" lon="55.57675">
        <ele>1593.0417480469</ele>
        <time>2013-01-07T02:07:13Z</time>
      </trkpt>
      <trkpt lat="-21.19656" lon="55.57686">
        <ele>1595.92578125</ele>
        <time>2013-01-07T02:07:33Z</time>
      </trkpt>
      <trkpt lat="-21.19646" lon="55.57687">
        <ele>1597.8486328125</ele>
        <time>2013-01-07T02:07:45Z</time>
      </trkpt>
      <trkpt lat="-21.19634" lon="55.57697">
        <ele>1599.2905273438</ele>
        <time>2013-01-07T02:07:59Z</time>
      </trkpt>
      <trkpt lat="-21.19625" lon="55.577">
        <ele>1599.2905273438</ele>
        <time>2013-01-07T02:08:07Z</time>
      </trkpt>
      <trkpt lat="-21.19619" lon="55.57701">
        <ele>1599.7712402344</ele>
        <time>2013-01-07T02:08:11Z</time>
      </trkpt>
      <trkpt lat="-21.19607" lon="55.57706">
        <ele>1600.251953125</ele>
        <time>2013-01-07T02:08:28Z</time>
      </trkpt>
      <trkpt lat="-21.19607" lon="55.57711">
        <ele>1599.2905273438</ele>
        <time>2013-01-07T02:08:31Z</time>
      </trkpt>
      <trkpt lat="-21.19598" lon="55.57717">
        <ele>1601.6938476562</ele>
        <time>2013-01-07T02:08:37Z</time>
      </trkpt>
      <trkpt lat="-21.19595" lon="55.57721">
        <ele>1600.732421875</ele>
        <time>2013-01-07T02:08:41Z</time>
      </trkpt>
      <trkpt lat="-21.19594" lon="55.57722">
        <ele>1601.2131347656</ele>
        <time>2013-01-07T02:08:59Z</time>
      </trkpt>
      <trkpt lat="-21.19581" lon="55.57726">
        <ele>1601.2131347656</ele>
        <time>2013-01-07T02:09:12Z</time>
      </trkpt>
      <trkpt lat="-21.19579" lon="55.57726">
        <ele>1601.2131347656</ele>
        <time>2013-01-07T02:09:14Z</time>
      </trkpt>
      <trkpt lat="-21.19565" lon="55.57721">
        <ele>1601.2131347656</ele>
        <time>2013-01-07T02:09:31Z</time>
      </trkpt>
      <trkpt lat="-21.19563" lon="55.5772">
        <ele>1601.2131347656</ele>
        <time>2013-01-07T02:09:33Z</time>
      </trkpt>
      <trkpt lat="-21.19547" lon="55.57709">
        <ele>1602.6550292969</ele>
        <time>2013-01-07T02:09:54Z</time>
      </trkpt>
      <trkpt lat="-21.1952" lon="55.57697">
        <ele>1603.1357421875</ele>
        <time>2013-01-07T02:10:19Z</time>
      </trkpt>
      <trkpt lat="-21.1951" lon="55.57694">
        <ele>1602.6550292969</ele>
        <time>2013-01-07T02:10:29Z</time>
      </trkpt>
      <trkpt lat="-21.19498" lon="55.57698">
        <ele>1602.6550292969</ele>
        <time>2013-01-07T02:10:43Z</time>
      </trkpt>
      <trkpt lat="-21.19497" lon="55.57701">
        <ele>1603.1357421875</ele>
        <time>2013-01-07T02:10:55Z</time>
      </trkpt>
      <trkpt lat="-21.19501" lon="55.57715">
        <ele>1602.1743164062</ele>
        <time>2013-01-07T02:11:10Z</time>
      </trkpt>
      <trkpt lat="-21.1951" lon="55.57751">
        <ele>1602.6550292969</ele>
        <time>2013-01-07T02:11:37Z</time>
      </trkpt>
      <trkpt lat="-21.19519" lon="55.57789">
        <ele>1602.6550292969</ele>
        <time>2013-01-07T02:12:02Z</time>
      </trkpt>
      <trkpt lat="-21.19524" lon="55.57807">
        <ele>1601.6938476562</ele>
        <time>2013-01-07T02:12:15Z</time>
      </trkpt>
      <trkpt lat="-21.1953" lon="55.57835">
        <ele>1602.6550292969</ele>
        <time>2013-01-07T02:12:34Z</time>
      </trkpt>
      <trkpt lat="-21.19535" lon="55.57852">
        <ele>1602.6550292969</ele>
        <time>2013-01-07T02:12:45Z</time>
      </trkpt>
      <trkpt lat="-21.19535" lon="55.57855">
        <ele>1602.6550292969</ele>
        <time>2013-01-07T02:12:47Z</time>
      </trkpt>
      <trkpt lat="-21.19538" lon="55.57863">
        <ele>1602.6550292969</ele>
        <time>2013-01-07T02:12:52Z</time>
      </trkpt>
      <trkpt lat="-21.19538" lon="55.57871">
        <ele>1603.6164550781</ele>
        <time>2013-01-07T02:12:58Z</time>
      </trkpt>
      <trkpt lat="-21.19541" lon="55.57878">
        <ele>1603.1357421875</ele>
        <time>2013-01-07T02:13:03Z</time>
      </trkpt>
      <trkpt lat="-21.1955" lon="55.57878">
        <ele>1603.1357421875</ele>
        <time>2013-01-07T02:13:13Z</time>
      </trkpt>
      <trkpt lat="-21.19563" lon="55.57872">
        <ele>1604.0971679688</ele>
        <time>2013-01-07T02:13:26Z</time>
      </trkpt>
      <trkpt lat="-21.19564" lon="55.57875">
        <ele>1604.0971679688</ele>
        <time>2013-01-07T02:13:28Z</time>
      </trkpt>
      <trkpt lat="-21.19568" lon="55.57875">
        <ele>1604.5776367188</ele>
        <time>2013-01-07T02:13:33Z</time>
      </trkpt>
      <trkpt lat="-21.19582" lon="55.57877">
        <ele>1604.0971679688</ele>
        <time>2013-01-07T02:13:46Z</time>
      </trkpt>
      <trkpt lat="-21.19586" lon="55.5788">
        <ele>1604.5776367188</ele>
        <time>2013-01-07T02:13:52Z</time>
      </trkpt>
      <trkpt lat="-21.19591" lon="55.57879">
        <ele>1604.0971679688</ele>
        <time>2013-01-07T02:13:56Z</time>
      </trkpt>
      <trkpt lat="-21.19598" lon="55.5788">
        <ele>1603.6164550781</ele>
        <time>2013-01-07T02:14:05Z</time>
      </trkpt>
      <trkpt lat="-21.19603" lon="55.57882">
        <ele>1603.6164550781</ele>
        <time>2013-01-07T02:14:09Z</time>
      </trkpt>
      <trkpt lat="-21.19611" lon="55.57886">
        <ele>1603.6164550781</ele>
        <time>2013-01-07T02:14:22Z</time>
      </trkpt>
      <trkpt lat="-21.19614" lon="55.57891">
        <ele>1603.6164550781</ele>
        <time>2013-01-07T02:14:44Z</time>
      </trkpt>
      <trkpt lat="-21.19618" lon="55.57897">
        <ele>1603.6164550781</ele>
        <time>2013-01-07T02:15:04Z</time>
      </trkpt>
      <trkpt lat="-21.19621" lon="55.57898">
        <ele>1603.1357421875</ele>
        <time>2013-01-07T02:15:08Z</time>
      </trkpt>
      <trkpt lat="-21.19627" lon="55.57898">
        <ele>1604.0971679688</ele>
        <time>2013-01-07T02:15:12Z</time>
      </trkpt>
      <trkpt lat="-21.19632" lon="55.57897">
        <ele>1603.1357421875</ele>
        <time>2013-01-07T02:15:16Z</time>
      </trkpt>
      <trkpt lat="-21.19635" lon="55.57898">
        <ele>1603.1357421875</ele>
        <time>2013-01-07T02:15:20Z</time>
      </trkpt>
      <trkpt lat="-21.19646" lon="55.57897">
        <ele>1604.0971679688</ele>
        <time>2013-01-07T02:15:34Z</time>
      </trkpt>
      <trkpt lat="-21.19651" lon="55.57894">
        <ele>1603.6164550781</ele>
        <time>2013-01-07T02:15:51Z</time>
      </trkpt>
      <trkpt lat="-21.1966" lon="55.57894">
        <ele>1603.6164550781</ele>
        <time>2013-01-07T02:16:01Z</time>
      </trkpt>
      <trkpt lat="-21.19679" lon="55.57905">
        <ele>1604.0971679688</ele>
        <time>2013-01-07T02:16:20Z</time>
      </trkpt>
      <trkpt lat="-21.19685" lon="55.57923">
        <ele>1604.0971679688</ele>
        <time>2013-01-07T02:16:43Z</time>
      </trkpt>
      <trkpt lat="-21.19688" lon="55.57935">
        <ele>1604.0971679688</ele>
        <time>2013-01-07T02:17:03Z</time>
      </trkpt>
      <trkpt lat="-21.19695" lon="55.57959">
        <ele>1603.1357421875</ele>
        <time>2013-01-07T02:17:21Z</time>
      </trkpt>
      <trkpt lat="-21.19703" lon="55.57967">
        <ele>1604.0971679688</ele>
        <time>2013-01-07T02:17:29Z</time>
      </trkpt>
      <trkpt lat="-21.19704" lon="55.57969">
        <ele>1602.6550292969</ele>
        <time>2013-01-07T02:17:31Z</time>
      </trkpt>
      <trkpt lat="-21.19706" lon="55.57971">
        <ele>1604.5776367188</ele>
        <time>2013-01-07T02:17:33Z</time>
      </trkpt>
      <trkpt lat="-21.19707" lon="55.57972">
        <ele>1604.0971679688</ele>
        <time>2013-01-07T02:17:35Z</time>
      </trkpt>
      <trkpt lat="-21.19723" lon="55.57983">
        <ele>1603.6164550781</ele>
        <time>2013-01-07T02:17:50Z</time>
      </trkpt>
      <trkpt lat="-21.19725" lon="55.57984">
        <ele>1603.6164550781</ele>
        <time>2013-01-07T02:17:52Z</time>
      </trkpt>
      <trkpt lat="-21.19736" lon="55.57986">
        <ele>1603.6164550781</ele>
        <time>2013-01-07T02:18:00Z</time>
      </trkpt>
      <trkpt lat="-21.1975" lon="55.5799">
        <ele>1604.5776367188</ele>
        <time>2013-01-07T02:18:11Z</time>
      </trkpt>
      <trkpt lat="-21.19753" lon="55.5799">
        <ele>1603.1357421875</ele>
        <time>2013-01-07T02:18:13Z</time>
      </trkpt>
      <trkpt lat="-21.19755" lon="55.5799">
        <ele>1605.0583496094</ele>
        <time>2013-01-07T02:18:15Z</time>
      </trkpt>
      <trkpt lat="-21.19772" lon="55.5799">
        <ele>1604.5776367188</ele>
        <time>2013-01-07T02:18:37Z</time>
      </trkpt>
      <trkpt lat="-21.19786" lon="55.5799">
        <ele>1603.6164550781</ele>
        <time>2013-01-07T02:18:57Z</time>
      </trkpt>
      <trkpt lat="-21.19787" lon="55.5799">
        <ele>1604.5776367188</ele>
        <time>2013-01-07T02:19:12Z</time>
      </trkpt>
      <trkpt lat="-21.19775" lon="55.58001">
        <ele>1604.5776367188</ele>
        <time>2013-01-07T02:19:26Z</time>
      </trkpt>
      <trkpt lat="-21.19762" lon="55.58012">
        <ele>1603.6164550781</ele>
        <time>2013-01-07T02:19:38Z</time>
      </trkpt>
      <trkpt lat="-21.19756" lon="55.58017">
        <ele>1604.0971679688</ele>
        <time>2013-01-07T02:19:44Z</time>
      </trkpt>
      <trkpt lat="-21.19751" lon="55.58023">
        <ele>1604.5776367188</ele>
        <time>2013-01-07T02:19:51Z</time>
      </trkpt>
      <trkpt lat="-21.19748" lon="55.58038">
        <ele>1604.5776367188</ele>
        <time>2013-01-07T02:20:01Z</time>
      </trkpt>
      <trkpt lat="-21.19746" lon="55.58042">
        <ele>1604.5776367188</ele>
        <time>2013-01-07T02:20:04Z</time>
      </trkpt>
      <trkpt lat="-21.19745" lon="55.58044">
        <ele>1604.5776367188</ele>
        <time>2013-01-07T02:20:07Z</time>
      </trkpt>
      <trkpt lat="-21.19743" lon="55.58049">
        <ele>1605.0583496094</ele>
        <time>2013-01-07T02:20:12Z</time>
      </trkpt>
      <trkpt lat="-21.19732" lon="55.58061">
        <ele>1605.0583496094</ele>
        <time>2013-01-07T02:20:26Z</time>
      </trkpt>
      <trkpt lat="-21.19726" lon="55.58065">
        <ele>1605.5390625</ele>
        <time>2013-01-07T02:20:42Z</time>
      </trkpt>
      <trkpt lat="-21.19714" lon="55.5807">
        <ele>1605.0583496094</ele>
        <time>2013-01-07T02:21:11Z</time>
      </trkpt>
      <trkpt lat="-21.19706" lon="55.58074">
        <ele>1603.6164550781</ele>
        <time>2013-01-07T02:21:18Z</time>
      </trkpt>
      <trkpt lat="-21.19703" lon="55.58077">
        <ele>1604.5776367188</ele>
        <time>2013-01-07T02:21:22Z</time>
      </trkpt>
      <trkpt lat="-21.19699" lon="55.58081">
        <ele>1604.0971679688</ele>
        <time>2013-01-07T02:21:26Z</time>
      </trkpt>
      <trkpt lat="-21.19696" lon="55.58085">
        <ele>1604.0971679688</ele>
        <time>2013-01-07T02:21:30Z</time>
      </trkpt>
      <trkpt lat="-21.19686" lon="55.58097">
        <ele>1604.0971679688</ele>
        <time>2013-01-07T02:21:41Z</time>
      </trkpt>
      <trkpt lat="-21.19684" lon="55.58106">
        <ele>1604.0971679688</ele>
        <time>2013-01-07T02:21:56Z</time>
      </trkpt>
      <trkpt lat="-21.19686" lon="55.58109">
        <ele>1604.5776367188</ele>
        <time>2013-01-07T02:22:04Z</time>
      </trkpt>
      <trkpt lat="-21.1969" lon="55.58111">
        <ele>1604.0971679688</ele>
        <time>2013-01-07T02:22:08Z</time>
      </trkpt>
      <trkpt lat="-21.19693" lon="55.58115">
        <ele>1604.0971679688</ele>
        <time>2013-01-07T02:22:12Z</time>
      </trkpt>
      <trkpt lat="-21.19703" lon="55.58129">
        <ele>1604.5776367188</ele>
        <time>2013-01-07T02:22:29Z</time>
      </trkpt>
      <trkpt lat="-21.19707" lon="55.58139">
        <ele>1604.0971679688</ele>
        <time>2013-01-07T02:22:44Z</time>
      </trkpt>
      <trkpt lat="-21.19707" lon="55.5814">
        <ele>1604.5776367188</ele>
        <time>2013-01-07T02:22:47Z</time>
      </trkpt>
      <trkpt lat="-21.19708" lon="55.58155">
        <ele>1604.5776367188</ele>
        <time>2013-01-07T02:23:00Z</time>
      </trkpt>
      <trkpt lat="-21.19707" lon="55.58165">
        <ele>1604.0971679688</ele>
        <time>2013-01-07T02:23:12Z</time>
      </trkpt>
      <trkpt lat="-21.19706" lon="55.58168">
        <ele>1603.1357421875</ele>
        <time>2013-01-07T02:23:15Z</time>
      </trkpt>
      <trkpt lat="-21.19708" lon="55.58188">
        <ele>1605.5390625</ele>
        <time>2013-01-07T02:23:32Z</time>
      </trkpt>
      <trkpt lat="-21.1971" lon="55.58195">
        <ele>1605.5390625</ele>
        <time>2013-01-07T02:23:40Z</time>
      </trkpt>
      <trkpt lat="-21.19714" lon="55.582">
        <ele>1606.01953125</ele>
        <time>2013-01-07T02:23:46Z</time>
      </trkpt>
      <trkpt lat="-21.19719" lon="55.58208">
        <ele>1606.9809570312</ele>
        <time>2013-01-07T02:23:57Z</time>
      </trkpt>
      <trkpt lat="-21.19724" lon="55.58209">
        <ele>1608.4228515625</ele>
        <time>2013-01-07T02:24:09Z</time>
      </trkpt>
      <trkpt lat="-21.19725" lon="55.58215">
        <ele>1609.8647460938</ele>
        <time>2013-01-07T02:24:26Z</time>
      </trkpt>
      <trkpt lat="-21.19726" lon="55.58215">
        <ele>1611.3068847656</ele>
        <time>2013-01-07T02:24:34Z</time>
      </trkpt>
      <trkpt lat="-21.19732" lon="55.58215">
        <ele>1612.7490234375</ele>
        <time>2013-01-07T02:24:45Z</time>
      </trkpt>
      <trkpt lat="-21.19736" lon="55.58222">
        <ele>1613.7102050781</ele>
        <time>2013-01-07T02:24:56Z</time>
      </trkpt>
      <trkpt lat="-21.19736" lon="55.58228">
        <ele>1613.7102050781</ele>
        <time>2013-01-07T02:25:02Z</time>
      </trkpt>
      <trkpt lat="-21.19736" lon="55.58243">
        <ele>1615.15234375</ele>
        <time>2013-01-07T02:25:13Z</time>
      </trkpt>
      <trkpt lat="-21.19737" lon="55.58243">
        <ele>1615.15234375</ele>
        <time>2013-01-07T02:25:14Z</time>
      </trkpt>
      <trkpt lat="-21.19745" lon="55.5825">
        <ele>1615.15234375</ele>
        <time>2013-01-07T02:25:25Z</time>
      </trkpt>
      <trkpt lat="-21.19741" lon="55.58264">
        <ele>1616.5942382812</ele>
        <time>2013-01-07T02:25:41Z</time>
      </trkpt>
      <trkpt lat="-21.19741" lon="55.58265">
        <ele>1616.5942382812</ele>
        <time>2013-01-07T02:25:55Z</time>
      </trkpt>
      <trkpt lat="-21.19737" lon="55.58268">
        <ele>1616.5942382812</ele>
        <time>2013-01-07T02:26:00Z</time>
      </trkpt>
      <trkpt lat="-21.1973" lon="55.58274">
        <ele>1616.1135253906</ele>
        <time>2013-01-07T02:26:08Z</time>
      </trkpt>
      <trkpt lat="-21.19725" lon="55.58278">
        <ele>1616.1135253906</ele>
        <time>2013-01-07T02:26:14Z</time>
      </trkpt>
      <trkpt lat="-21.19717" lon="55.58285">
        <ele>1616.5942382812</ele>
        <time>2013-01-07T02:26:30Z</time>
      </trkpt>
      <trkpt lat="-21.19712" lon="55.58286">
        <ele>1618.0361328125</ele>
        <time>2013-01-07T02:26:58Z</time>
      </trkpt>
      <trkpt lat="-21.19705" lon="55.58294">
        <ele>1620.439453125</ele>
        <time>2013-01-07T02:27:14Z</time>
      </trkpt>
      <trkpt lat="-21.19701" lon="55.58292">
        <ele>1621.8813476562</ele>
        <time>2013-01-07T02:27:17Z</time>
      </trkpt>
      <trkpt lat="-21.19699" lon="55.58295">
        <ele>1622.8427734375</ele>
        <time>2013-01-07T02:27:34Z</time>
      </trkpt>
      <trkpt lat="-21.19698" lon="55.58296">
        <ele>1622.3620605469</ele>
        <time>2013-01-07T02:27:59Z</time>
      </trkpt>
      <trkpt lat="-21.19699" lon="55.58296">
        <ele>1623.3234863281</ele>
        <time>2013-01-07T02:28:24Z</time>
      </trkpt>
      <trkpt lat="-21.19699" lon="55.58294">
        <ele>1622.3620605469</ele>
        <time>2013-01-07T02:29:08Z</time>
      </trkpt>
      <trkpt lat="-21.19699" lon="55.58295">
        <ele>1624.2846679688</ele>
        <time>2013-01-07T02:29:12Z</time>
      </trkpt>
      <trkpt lat="-21.197" lon="55.58295">
        <ele>1622.8427734375</ele>
        <time>2013-01-07T02:29:14Z</time>
      </trkpt>
      <trkpt lat="-21.19698" lon="55.58295">
        <ele>1622.3620605469</ele>
        <time>2013-01-07T02:29:31Z</time>
      </trkpt>
      <trkpt lat="-21.19694" lon="55.58295">
        <ele>1622.3620605469</ele>
        <time>2013-01-07T02:29:50Z</time>
      </trkpt>
      <trkpt lat="-21.19688" lon="55.58292">
        <ele>1621.8813476562</ele>
        <time>2013-01-07T02:30:07Z</time>
      </trkpt>
      <trkpt lat="-21.19683" lon="55.58289">
        <ele>1621.4006347656</ele>
        <time>2013-01-07T02:30:19Z</time>
      </trkpt>
      <trkpt lat="-21.19683" lon="55.58286">
        <ele>1622.3620605469</ele>
        <time>2013-01-07T02:30:34Z</time>
      </trkpt>
      <trkpt lat="-21.19685" lon="55.58287">
        <ele>1621.8813476562</ele>
        <time>2013-01-07T02:30:38Z</time>
      </trkpt>
      <trkpt lat="-21.19683" lon="55.58291">
        <ele>1621.8813476562</ele>
        <time>2013-01-07T02:30:49Z</time>
      </trkpt>
      <trkpt lat="-21.1968" lon="55.58293">
        <ele>1621.8813476562</ele>
        <time>2013-01-07T02:30:52Z</time>
      </trkpt>
      <trkpt lat="-21.19677" lon="55.58298">
        <ele>1621.4006347656</ele>
        <time>2013-01-07T02:30:56Z</time>
      </trkpt>
      <trkpt lat="-21.19675" lon="55.58302">
        <ele>1621.8813476562</ele>
        <time>2013-01-07T02:30:59Z</time>
      </trkpt>
      <trkpt lat="-21.19674" lon="55.58303">
        <ele>1622.8427734375</ele>
        <time>2013-01-07T02:31:01Z</time>
      </trkpt>
      <trkpt lat="-21.19669" lon="55.58308">
        <ele>1623.3234863281</ele>
        <time>2013-01-07T02:31:19Z</time>
      </trkpt>
      <trkpt lat="-21.1967" lon="55.58314">
        <ele>1622.3620605469</ele>
        <time>2013-01-07T02:32:01Z</time>
      </trkpt>
      <trkpt lat="-21.19664" lon="55.58334">
        <ele>1624.2846679688</ele>
        <time>2013-01-07T02:32:23Z</time>
      </trkpt>
      <trkpt lat="-21.19648" lon="55.58346">
        <ele>1623.3234863281</ele>
        <time>2013-01-07T02:32:42Z</time>
      </trkpt>
      <trkpt lat="-21.19646" lon="55.58349">
        <ele>1622.8427734375</ele>
        <time>2013-01-07T02:32:45Z</time>
      </trkpt>
      <trkpt lat="-21.19645" lon="55.58353">
        <ele>1622.3620605469</ele>
        <time>2013-01-07T02:32:49Z</time>
      </trkpt>
      <trkpt lat="-21.19646" lon="55.58372">
        <ele>1622.8427734375</ele>
        <time>2013-01-07T02:33:09Z</time>
      </trkpt>
      <trkpt lat="-21.19646" lon="55.58372">
        <ele>1623.8039550781</ele>
        <time>2013-01-07T02:33:10Z</time>
      </trkpt>
      <trkpt lat="-21.19641" lon="55.5838">
        <ele>1622.8427734375</ele>
        <time>2013-01-07T02:33:19Z</time>
      </trkpt>
      <trkpt lat="-21.19645" lon="55.58388">
        <ele>1622.8427734375</ele>
        <time>2013-01-07T02:33:28Z</time>
      </trkpt>
      <trkpt lat="-21.19661" lon="55.58391">
        <ele>1625.2458496094</ele>
        <time>2013-01-07T02:33:43Z</time>
      </trkpt>
      <trkpt lat="-21.19664" lon="55.58391">
        <ele>1624.7653808594</ele>
        <time>2013-01-07T02:33:46Z</time>
      </trkpt>
      <trkpt lat="-21.19666" lon="55.58392">
        <ele>1625.7265625</ele>
        <time>2013-01-07T02:33:48Z</time>
      </trkpt>
      <trkpt lat="-21.19669" lon="55.58395">
        <ele>1625.7265625</ele>
        <time>2013-01-07T02:33:52Z</time>
      </trkpt>
      <trkpt lat="-21.19672" lon="55.58399">
        <ele>1625.2458496094</ele>
        <time>2013-01-07T02:33:57Z</time>
      </trkpt>
      <trkpt lat="-21.19678" lon="55.58399">
        <ele>1625.7265625</ele>
        <time>2013-01-07T02:34:02Z</time>
      </trkpt>
      <trkpt lat="-21.19683" lon="55.584">
        <ele>1625.7265625</ele>
        <time>2013-01-07T02:34:07Z</time>
      </trkpt>
      <trkpt lat="-21.1969" lon="55.58403">
        <ele>1625.7265625</ele>
        <time>2013-01-07T02:34:16Z</time>
      </trkpt>
      <trkpt lat="-21.19693" lon="55.5841">
        <ele>1625.7265625</ele>
        <time>2013-01-07T02:34:20Z</time>
      </trkpt>
      <trkpt lat="-21.19696" lon="55.58414">
        <ele>1626.2072753906</ele>
        <time>2013-01-07T02:34:23Z</time>
      </trkpt>
      <trkpt lat="-21.19705" lon="55.58418">
        <ele>1628.1301269531</ele>
        <time>2013-01-07T02:34:32Z</time>
      </trkpt>
      <trkpt lat="-21.1971" lon="55.58417">
        <ele>1627.1687011719</ele>
        <time>2013-01-07T02:34:39Z</time>
      </trkpt>
      <trkpt lat="-21.19726" lon="55.58425">
        <ele>1626.6879882812</ele>
        <time>2013-01-07T02:34:54Z</time>
      </trkpt>
      <trkpt lat="-21.19732" lon="55.58424">
        <ele>1626.6879882812</ele>
        <time>2013-01-07T02:35:00Z</time>
      </trkpt>
      <trkpt lat="-21.1974" lon="55.58433">
        <ele>1628.1301269531</ele>
        <time>2013-01-07T02:35:12Z</time>
      </trkpt>
      <trkpt lat="-21.1974" lon="55.58434">
        <ele>1628.1301269531</ele>
        <time>2013-01-07T02:35:18Z</time>
      </trkpt>
      <trkpt lat="-21.19756" lon="55.58451">
        <ele>1627.6491699219</ele>
        <time>2013-01-07T02:35:32Z</time>
      </trkpt>
      <trkpt lat="-21.19759" lon="55.58455">
        <ele>1627.1687011719</ele>
        <time>2013-01-07T02:35:36Z</time>
      </trkpt>
      <trkpt lat="-21.19762" lon="55.58455">
        <ele>1627.6491699219</ele>
        <time>2013-01-07T02:35:40Z</time>
      </trkpt>
      <trkpt lat="-21.19764" lon="55.58456">
        <ele>1629.0913085938</ele>
        <time>2013-01-07T02:35:42Z</time>
      </trkpt>
      <trkpt lat="-21.19767" lon="55.58458">
        <ele>1627.6491699219</ele>
        <time>2013-01-07T02:35:45Z</time>
      </trkpt>
      <trkpt lat="-21.19774" lon="55.58463">
        <ele>1627.6491699219</ele>
        <time>2013-01-07T02:35:56Z</time>
      </trkpt>
      <trkpt lat="-21.1978" lon="55.5847">
        <ele>1628.1301269531</ele>
        <time>2013-01-07T02:36:04Z</time>
      </trkpt>
      <trkpt lat="-21.19794" lon="55.58478">
        <ele>1629.0913085938</ele>
        <time>2013-01-07T02:36:15Z</time>
      </trkpt>
      <trkpt lat="-21.19797" lon="55.58479">
        <ele>1629.0913085938</ele>
        <time>2013-01-07T02:36:19Z</time>
      </trkpt>
      <trkpt lat="-21.19811" lon="55.58479">
        <ele>1630.052734375</ele>
        <time>2013-01-07T02:36:31Z</time>
      </trkpt>
      <trkpt lat="-21.19818" lon="55.58489">
        <ele>1630.5334472656</ele>
        <time>2013-01-07T02:36:44Z</time>
      </trkpt>
      <trkpt lat="-21.1982" lon="55.58493">
        <ele>1630.5334472656</ele>
        <time>2013-01-07T02:36:48Z</time>
      </trkpt>
      <trkpt lat="-21.19823" lon="55.58504">
        <ele>1630.052734375</ele>
        <time>2013-01-07T02:36:58Z</time>
      </trkpt>
      <trkpt lat="-21.19822" lon="55.5851">
        <ele>1630.5334472656</ele>
        <time>2013-01-07T02:37:02Z</time>
      </trkpt>
      <trkpt lat="-21.19819" lon="55.58521">
        <ele>1631.0141601562</ele>
        <time>2013-01-07T02:37:13Z</time>
      </trkpt>
      <trkpt lat="-21.19817" lon="55.58525">
        <ele>1631.4946289062</ele>
        <time>2013-01-07T02:37:17Z</time>
      </trkpt>
      <trkpt lat="-21.19814" lon="55.58529">
        <ele>1631.4946289062</ele>
        <time>2013-01-07T02:37:21Z</time>
      </trkpt>
      <trkpt lat="-21.19815" lon="55.58542">
        <ele>1632.4560546875</ele>
        <time>2013-01-07T02:37:36Z</time>
      </trkpt>
      <trkpt lat="-21.19817" lon="55.58543">
        <ele>1632.9365234375</ele>
        <time>2013-01-07T02:37:39Z</time>
      </trkpt>
      <trkpt lat="-21.19828" lon="55.58541">
        <ele>1633.8979492188</ele>
        <time>2013-01-07T02:37:50Z</time>
      </trkpt>
      <trkpt lat="-21.19832" lon="55.58539">
        <ele>1634.859375</ele>
        <time>2013-01-07T02:37:55Z</time>
      </trkpt>
      <trkpt lat="-21.19835" lon="55.58539">
        <ele>1635.33984375</ele>
        <time>2013-01-07T02:37:58Z</time>
      </trkpt>
      <trkpt lat="-21.1984" lon="55.58539">
        <ele>1636.7817382812</ele>
        <time>2013-01-07T02:38:04Z</time>
      </trkpt>
      <trkpt lat="-21.19846" lon="55.5854">
        <ele>1637.7431640625</ele>
        <time>2013-01-07T02:38:12Z</time>
      </trkpt>
      <trkpt lat="-21.19861" lon="55.58555">
        <ele>1640.146484375</ele>
        <time>2013-01-07T02:38:31Z</time>
      </trkpt>
      <trkpt lat="-21.19866" lon="55.5856">
        <ele>1640.146484375</ele>
        <time>2013-01-07T02:38:38Z</time>
      </trkpt>
      <trkpt lat="-21.19869" lon="55.5856">
        <ele>1640.626953125</ele>
        <time>2013-01-07T02:38:40Z</time>
      </trkpt>
      <trkpt lat="-21.19876" lon="55.58569">
        <ele>1641.1076660156</ele>
        <time>2013-01-07T02:38:48Z</time>
      </trkpt>
      <trkpt lat="-21.19881" lon="55.58571">
        <ele>1642.0690917969</ele>
        <time>2013-01-07T02:38:53Z</time>
      </trkpt>
      <trkpt lat="-21.19885" lon="55.58573">
        <ele>1642.5498046875</ele>
        <time>2013-01-07T02:38:59Z</time>
      </trkpt>
      <trkpt lat="-21.19891" lon="55.58579">
        <ele>1642.5498046875</ele>
        <time>2013-01-07T02:39:07Z</time>
      </trkpt>
      <trkpt lat="-21.19895" lon="55.58587">
        <ele>1643.0302734375</ele>
        <time>2013-01-07T02:39:13Z</time>
      </trkpt>
      <trkpt lat="-21.19897" lon="55.58588">
        <ele>1643.0302734375</ele>
        <time>2013-01-07T02:39:16Z</time>
      </trkpt>
      <trkpt lat="-21.19899" lon="55.58598">
        <ele>1643.0302734375</ele>
        <time>2013-01-07T02:39:25Z</time>
      </trkpt>
      <trkpt lat="-21.19907" lon="55.58612">
        <ele>1644.4724121094</ele>
        <time>2013-01-07T02:39:39Z</time>
      </trkpt>
      <trkpt lat="-21.19909" lon="55.58619">
        <ele>1643.9916992188</ele>
        <time>2013-01-07T02:39:57Z</time>
      </trkpt>
      <trkpt lat="-21.19909" lon="55.58621">
        <ele>1643.9916992188</ele>
        <time>2013-01-07T02:39:59Z</time>
      </trkpt>
      <trkpt lat="-21.19916" lon="55.58633">
        <ele>1643.9916992188</ele>
        <time>2013-01-07T02:40:10Z</time>
      </trkpt>
      <trkpt lat="-21.19924" lon="55.58655">
        <ele>1644.4724121094</ele>
        <time>2013-01-07T02:40:30Z</time>
      </trkpt>
      <trkpt lat="-21.1993" lon="55.58676">
        <ele>1645.9145507812</ele>
        <time>2013-01-07T02:40:46Z</time>
      </trkpt>
      <trkpt lat="-21.19932" lon="55.5868">
        <ele>1645.4338378906</ele>
        <time>2013-01-07T02:40:50Z</time>
      </trkpt>
      <trkpt lat="-21.19935" lon="55.58686">
        <ele>1644.953125</ele>
        <time>2013-01-07T02:40:56Z</time>
      </trkpt>
      <trkpt lat="-21.19938" lon="55.58687">
        <ele>1645.9145507812</ele>
        <time>2013-01-07T02:41:00Z</time>
      </trkpt>
      <trkpt lat="-21.19945" lon="55.58689">
        <ele>1646.8757324219</ele>
        <time>2013-01-07T02:41:07Z</time>
      </trkpt>
      <trkpt lat="-21.19948" lon="55.58689">
        <ele>1646.3952636719</ele>
        <time>2013-01-07T02:41:10Z</time>
      </trkpt>
      <trkpt lat="-21.19956" lon="55.58705">
        <ele>1646.3952636719</ele>
        <time>2013-01-07T02:41:27Z</time>
      </trkpt>
      <trkpt lat="-21.19954" lon="55.58708">
        <ele>1647.3564453125</ele>
        <time>2013-01-07T02:41:31Z</time>
      </trkpt>
      <trkpt lat="-21.19951" lon="55.58712">
        <ele>1647.8371582031</ele>
        <time>2013-01-07T02:41:36Z</time>
      </trkpt>
      <trkpt lat="-21.19947" lon="55.58715">
        <ele>1647.8371582031</ele>
        <time>2013-01-07T02:41:40Z</time>
      </trkpt>
      <trkpt lat="-21.19933" lon="55.58724">
        <ele>1649.2790527344</ele>
        <time>2013-01-07T02:41:54Z</time>
      </trkpt>
      <trkpt lat="-21.19931" lon="55.58725">
        <ele>1649.2790527344</ele>
        <time>2013-01-07T02:41:56Z</time>
      </trkpt>
      <trkpt lat="-21.19929" lon="55.58733">
        <ele>1649.759765625</ele>
        <time>2013-01-07T02:42:05Z</time>
      </trkpt>
      <trkpt lat="-21.19924" lon="55.58745">
        <ele>1650.2404785156</ele>
        <time>2013-01-07T02:42:18Z</time>
      </trkpt>
      <trkpt lat="-21.19923" lon="55.58762">
        <ele>1651.6823730469</ele>
        <time>2013-01-07T02:42:31Z</time>
      </trkpt>
      <trkpt lat="-21.19918" lon="55.58762">
        <ele>1652.6435546875</ele>
        <time>2013-01-07T02:42:48Z</time>
      </trkpt>
      <trkpt lat="-21.19911" lon="55.58765">
        <ele>1651.2016601562</ele>
        <time>2013-01-07T02:43:02Z</time>
      </trkpt>
      <trkpt lat="-21.19902" lon="55.58776">
        <ele>1651.2016601562</ele>
        <time>2013-01-07T02:43:17Z</time>
      </trkpt>
      <trkpt lat="-21.19906" lon="55.58787">
        <ele>1653.1242675781</ele>
        <time>2013-01-07T02:43:31Z</time>
      </trkpt>
      <trkpt lat="-21.19905" lon="55.58787">
        <ele>1653.6049804688</ele>
        <time>2013-01-07T02:43:33Z</time>
      </trkpt>
      <trkpt lat="-21.19904" lon="55.58792">
        <ele>1652.6435546875</ele>
        <time>2013-01-07T02:43:49Z</time>
      </trkpt>
      <trkpt lat="-21.19898" lon="55.588">
        <ele>1652.1628417969</ele>
        <time>2013-01-07T02:43:57Z</time>
      </trkpt>
      <trkpt lat="-21.19895" lon="55.588">
        <ele>1652.1628417969</ele>
        <time>2013-01-07T02:44:01Z</time>
      </trkpt>
      <trkpt lat="-21.1989" lon="55.58816">
        <ele>1652.1628417969</ele>
        <time>2013-01-07T02:44:17Z</time>
      </trkpt>
      <trkpt lat="-21.1988" lon="55.58827">
        <ele>1651.2016601562</ele>
        <time>2013-01-07T02:44:32Z</time>
      </trkpt>
      <trkpt lat="-21.19881" lon="55.58833">
        <ele>1651.2016601562</ele>
        <time>2013-01-07T02:44:45Z</time>
      </trkpt>
      <trkpt lat="-21.19876" lon="55.58842">
        <ele>1652.1628417969</ele>
        <time>2013-01-07T02:44:57Z</time>
      </trkpt>
      <trkpt lat="-21.19875" lon="55.58843">
        <ele>1652.6435546875</ele>
        <time>2013-01-07T02:44:58Z</time>
      </trkpt>
      <trkpt lat="-21.19872" lon="55.58846">
        <ele>1653.1242675781</ele>
        <time>2013-01-07T02:45:03Z</time>
      </trkpt>
      <trkpt lat="-21.19866" lon="55.58851">
        <ele>1654.0856933594</ele>
        <time>2013-01-07T02:45:10Z</time>
      </trkpt>
      <trkpt lat="-21.19865" lon="55.5886">
        <ele>1656.0080566406</ele>
        <time>2013-01-07T02:45:17Z</time>
      </trkpt>
      <trkpt lat="-21.19864" lon="55.58864">
        <ele>1656.0080566406</ele>
        <time>2013-01-07T02:45:20Z</time>
      </trkpt>
      <trkpt lat="-21.19866" lon="55.58879">
        <ele>1656.0080566406</ele>
        <time>2013-01-07T02:45:35Z</time>
      </trkpt>
      <trkpt lat="-21.19866" lon="55.5888">
        <ele>1656.0080566406</ele>
        <time>2013-01-07T02:45:36Z</time>
      </trkpt>
      <trkpt lat="-21.19867" lon="55.58884">
        <ele>1656.0080566406</ele>
        <time>2013-01-07T02:45:39Z</time>
      </trkpt>
      <trkpt lat="-21.19863" lon="55.58886">
        <ele>1655.5275878906</ele>
        <time>2013-01-07T02:45:54Z</time>
      </trkpt>
      <trkpt lat="-21.19861" lon="55.58887">
        <ele>1655.046875</ele>
        <time>2013-01-07T02:45:56Z</time>
      </trkpt>
      <trkpt lat="-21.19854" lon="55.58895">
        <ele>1653.6049804688</ele>
        <time>2013-01-07T02:46:07Z</time>
      </trkpt>
      <trkpt lat="-21.19849" lon="55.58902">
        <ele>1652.1628417969</ele>
        <time>2013-01-07T02:46:33Z</time>
      </trkpt>
      <trkpt lat="-21.19846" lon="55.58906">
        <ele>1652.1628417969</ele>
        <time>2013-01-07T02:46:41Z</time>
      </trkpt>
      <trkpt lat="-21.19844" lon="55.58907">
        <ele>1652.1628417969</ele>
        <time>2013-01-07T02:46:49Z</time>
      </trkpt>
      <trkpt lat="-21.19848" lon="55.58917">
        <ele>1653.1242675781</ele>
        <time>2013-01-07T02:47:06Z</time>
      </trkpt>
      <trkpt lat="-21.19856" lon="55.58923">
        <ele>1654.5661621094</ele>
        <time>2013-01-07T02:47:22Z</time>
      </trkpt>
      <trkpt lat="-21.19861" lon="55.58926">
        <ele>1655.046875</ele>
        <time>2013-01-07T02:47:34Z</time>
      </trkpt>
      <trkpt lat="-21.19861" lon="55.58926">
        <ele>1655.046875</ele>
        <time>2013-01-07T02:47:41Z</time>
      </trkpt>
      <trkpt lat="-21.19868" lon="55.58925">
        <ele>1655.046875</ele>
        <time>2013-01-07T02:47:56Z</time>
      </trkpt>
      <trkpt lat="-21.19867" lon="55.58926">
        <ele>1655.046875</ele>
        <time>2013-01-07T02:48:11Z</time>
      </trkpt>
      <trkpt lat="-21.19862" lon="55.58926">
        <ele>1654.5661621094</ele>
        <time>2013-01-07T02:48:18Z</time>
      </trkpt>
      <trkpt lat="-21.19858" lon="55.58925">
        <ele>1655.046875</ele>
        <time>2013-01-07T02:48:31Z</time>
      </trkpt>
      <trkpt lat="-21.19855" lon="55.58923">
        <ele>1654.5661621094</ele>
        <time>2013-01-07T02:48:36Z</time>
      </trkpt>
      <trkpt lat="-21.19848" lon="55.58914">
        <ele>1652.6435546875</ele>
        <time>2013-01-07T02:48:51Z</time>
      </trkpt>
      <trkpt lat="-21.19845" lon="55.58913">
        <ele>1653.1242675781</ele>
        <time>2013-01-07T02:49:06Z</time>
      </trkpt>
      <trkpt lat="-21.19844" lon="55.58911">
        <ele>1652.6435546875</ele>
        <time>2013-01-07T02:49:18Z</time>
      </trkpt>
      <trkpt lat="-21.19847" lon="55.58904">
        <ele>1652.6435546875</ele>
        <time>2013-01-07T02:49:28Z</time>
      </trkpt>
      <trkpt lat="-21.19857" lon="55.58896">
        <ele>1654.5661621094</ele>
        <time>2013-01-07T02:49:55Z</time>
      </trkpt>
      <trkpt lat="-21.19861" lon="55.58891">
        <ele>1656.0080566406</ele>
        <time>2013-01-07T02:50:04Z</time>
      </trkpt>
      <trkpt lat="-21.19862" lon="55.5889">
        <ele>1655.5275878906</ele>
        <time>2013-01-07T02:50:07Z</time>
      </trkpt>
      <trkpt lat="-21.19869" lon="55.58878">
        <ele>1656.9694824219</ele>
        <time>2013-01-07T02:50:19Z</time>
      </trkpt>
      <trkpt lat="-21.19874" lon="55.58877">
        <ele>1656.9694824219</ele>
        <time>2013-01-07T02:50:25Z</time>
      </trkpt>
      <trkpt lat="-21.19887" lon="55.58879">
        <ele>1659.3728027344</ele>
        <time>2013-01-07T02:50:37Z</time>
      </trkpt>
      <trkpt lat="-21.19888" lon="55.5888">
        <ele>1659.8532714844</ele>
        <time>2013-01-07T02:50:38Z</time>
      </trkpt>
      <trkpt lat="-21.19891" lon="55.58883">
        <ele>1660.3342285156</ele>
        <time>2013-01-07T02:50:42Z</time>
      </trkpt>
      <trkpt lat="-21.199" lon="55.5888">
        <ele>1661.7763671875</ele>
        <time>2013-01-07T02:50:53Z</time>
      </trkpt>
      <trkpt lat="-21.19904" lon="55.58887">
        <ele>1663.2182617188</ele>
        <time>2013-01-07T02:51:00Z</time>
      </trkpt>
      <trkpt lat="-21.19904" lon="55.58899">
        <ele>1664.1794433594</ele>
        <time>2013-01-07T02:51:11Z</time>
      </trkpt>
      <trkpt lat="-21.19907" lon="55.58921">
        <ele>1663.2182617188</ele>
        <time>2013-01-07T02:51:29Z</time>
      </trkpt>
      <trkpt lat="-21.19907" lon="55.58923">
        <ele>1662.2568359375</ele>
        <time>2013-01-07T02:51:31Z</time>
      </trkpt>
      <trkpt lat="-21.1991" lon="55.58936">
        <ele>1661.2956542969</ele>
        <time>2013-01-07T02:51:42Z</time>
      </trkpt>
      <trkpt lat="-21.19909" lon="55.58947">
        <ele>1660.8149414062</ele>
        <time>2013-01-07T02:51:51Z</time>
      </trkpt>
      <trkpt lat="-21.19908" lon="55.58953">
        <ele>1660.3342285156</ele>
        <time>2013-01-07T02:51:58Z</time>
      </trkpt>
      <trkpt lat="-21.19908" lon="55.5896">
        <ele>1660.3342285156</ele>
        <time>2013-01-07T02:52:01Z</time>
      </trkpt>
      <trkpt lat="-21.19909" lon="55.58966">
        <ele>1659.3728027344</ele>
        <time>2013-01-07T02:52:17Z</time>
      </trkpt>
      <trkpt lat="-21.1991" lon="55.58975">
        <ele>1658.8920898438</ele>
        <time>2013-01-07T02:52:30Z</time>
      </trkpt>
      <trkpt lat="-21.19915" lon="55.58978">
        <ele>1659.3728027344</ele>
        <time>2013-01-07T02:52:36Z</time>
      </trkpt>
      <trkpt lat="-21.19921" lon="55.59">
        <ele>1660.3342285156</ele>
        <time>2013-01-07T02:52:54Z</time>
      </trkpt>
      <trkpt lat="-21.19932" lon="55.59015">
        <ele>1660.8149414062</ele>
        <time>2013-01-07T02:53:08Z</time>
      </trkpt>
      <trkpt lat="-21.19939" lon="55.59023">
        <ele>1660.8149414062</ele>
        <time>2013-01-07T02:53:16Z</time>
      </trkpt>
      <trkpt lat="-21.19955" lon="55.5903">
        <ele>1662.7375488281</ele>
        <time>2013-01-07T02:53:30Z</time>
      </trkpt>
      <trkpt lat="-21.19975" lon="55.59042">
        <ele>1662.7375488281</ele>
        <time>2013-01-07T02:53:45Z</time>
      </trkpt>
      <trkpt lat="-21.19984" lon="55.59052">
        <ele>1663.2182617188</ele>
        <time>2013-01-07T02:53:57Z</time>
      </trkpt>
      <trkpt lat="-21.19986" lon="55.59056">
        <ele>1663.6987304688</ele>
        <time>2013-01-07T02:54:00Z</time>
      </trkpt>
      <trkpt lat="-21.19992" lon="55.59071">
        <ele>1664.66015625</ele>
        <time>2013-01-07T02:54:12Z</time>
      </trkpt>
      <trkpt lat="-21.19992" lon="55.59073">
        <ele>1664.66015625</ele>
        <time>2013-01-07T02:54:14Z</time>
      </trkpt>
      <trkpt lat="-21.19994" lon="55.59073">
        <ele>1664.1794433594</ele>
        <time>2013-01-07T02:54:17Z</time>
      </trkpt>
      <trkpt lat="-21.19995" lon="55.59082">
        <ele>1664.66015625</ele>
        <time>2013-01-07T02:54:22Z</time>
      </trkpt>
      <trkpt lat="-21.19993" lon="55.59092">
        <ele>1664.66015625</ele>
        <time>2013-01-07T02:54:27Z</time>
      </trkpt>
      <trkpt lat="-21.1999" lon="55.59112">
        <ele>1665.6215820312</ele>
        <time>2013-01-07T02:54:42Z</time>
      </trkpt>
      <trkpt lat="-21.1999" lon="55.59124">
        <ele>1665.6215820312</ele>
        <time>2013-01-07T02:54:49Z</time>
      </trkpt>
      <trkpt lat="-21.19992" lon="55.59129">
        <ele>1664.66015625</ele>
        <time>2013-01-07T02:54:53Z</time>
      </trkpt>
      <trkpt lat="-21.19989" lon="55.59141">
        <ele>1664.66015625</ele>
        <time>2013-01-07T02:55:02Z</time>
      </trkpt>
      <trkpt lat="-21.19991" lon="55.59146">
        <ele>1664.66015625</ele>
        <time>2013-01-07T02:55:06Z</time>
      </trkpt>
      <trkpt lat="-21.19992" lon="55.59166">
        <ele>1664.66015625</ele>
        <time>2013-01-07T02:55:20Z</time>
      </trkpt>
      <trkpt lat="-21.19991" lon="55.59176">
        <ele>1664.66015625</ele>
        <time>2013-01-07T02:55:27Z</time>
      </trkpt>
      <trkpt lat="-21.19989" lon="55.59194">
        <ele>1665.6215820312</ele>
        <time>2013-01-07T02:55:39Z</time>
      </trkpt>
      <trkpt lat="-21.19989" lon="55.59198">
        <ele>1666.1020507812</ele>
        <time>2013-01-07T02:55:51Z</time>
      </trkpt>
      <trkpt lat="-21.19989" lon="55.59202">
        <ele>1667.0634765625</ele>
        <time>2013-01-07T02:56:12Z</time>
      </trkpt>
      <trkpt lat="-21.19986" lon="55.59227">
        <ele>1668.0246582031</ele>
        <time>2013-01-07T02:56:33Z</time>
      </trkpt>
      <trkpt lat="-21.19985" lon="55.59248">
        <ele>1669.947265625</ele>
        <time>2013-01-07T02:56:50Z</time>
      </trkpt>
      <trkpt lat="-21.19986" lon="55.59257">
        <ele>1670.9086914062</ele>
        <time>2013-01-07T02:57:00Z</time>
      </trkpt>
      <trkpt lat="-21.19985" lon="55.59274">
        <ele>1671.8698730469</ele>
        <time>2013-01-07T02:57:14Z</time>
      </trkpt>
      <trkpt lat="-21.19986" lon="55.59285">
        <ele>1674.2731933594</ele>
        <time>2013-01-07T02:57:23Z</time>
      </trkpt>
      <trkpt lat="-21.19986" lon="55.5929">
        <ele>1675.7150878906</ele>
        <time>2013-01-07T02:57:30Z</time>
      </trkpt>
      <trkpt lat="-21.19982" lon="55.59301">
        <ele>1676.1960449219</ele>
        <time>2013-01-07T02:57:39Z</time>
      </trkpt>
      <trkpt lat="-21.19983" lon="55.59307">
        <ele>1676.1960449219</ele>
        <time>2013-01-07T02:57:46Z</time>
      </trkpt>
      <trkpt lat="-21.19982" lon="55.59317">
        <ele>1677.1574707031</ele>
        <time>2013-01-07T02:57:54Z</time>
      </trkpt>
      <trkpt lat="-21.19981" lon="55.59319">
        <ele>1678.1186523438</ele>
        <time>2013-01-07T02:57:56Z</time>
      </trkpt>
      <trkpt lat="-21.1998" lon="55.59328">
        <ele>1679.0798339844</ele>
        <time>2013-01-07T02:58:04Z</time>
      </trkpt>
      <trkpt lat="-21.19978" lon="55.59333">
        <ele>1680.0412597656</ele>
        <time>2013-01-07T02:58:08Z</time>
      </trkpt>
      <trkpt lat="-21.19978" lon="55.5934">
        <ele>1680.5219726562</ele>
        <time>2013-01-07T02:58:12Z</time>
      </trkpt>
      <trkpt lat="-21.19978" lon="55.59346">
        <ele>1680.5219726562</ele>
        <time>2013-01-07T02:58:17Z</time>
      </trkpt>
      <trkpt lat="-21.19976" lon="55.59357">
        <ele>1681.9638671875</ele>
        <time>2013-01-07T02:58:26Z</time>
      </trkpt>
      <trkpt lat="-21.19977" lon="55.59364">
        <ele>1683.4057617188</ele>
        <time>2013-01-07T02:58:31Z</time>
      </trkpt>
      <trkpt lat="-21.19977" lon="55.59384">
        <ele>1685.3283691406</ele>
        <time>2013-01-07T02:58:48Z</time>
      </trkpt>
      <trkpt lat="-21.19977" lon="55.59387">
        <ele>1685.3283691406</ele>
        <time>2013-01-07T02:58:50Z</time>
      </trkpt>
      <trkpt lat="-21.19977" lon="55.59388">
        <ele>1685.3283691406</ele>
        <time>2013-01-07T02:58:52Z</time>
      </trkpt>
      <trkpt lat="-21.19976" lon="55.59399">
        <ele>1687.2509765625</ele>
        <time>2013-01-07T02:59:05Z</time>
      </trkpt>
      <trkpt lat="-21.19975" lon="55.59404">
        <ele>1688.2124023438</ele>
        <time>2013-01-07T02:59:09Z</time>
      </trkpt>
      <trkpt lat="-21.19975" lon="55.59408">
        <ele>1688.6931152344</ele>
        <time>2013-01-07T02:59:13Z</time>
      </trkpt>
      <trkpt lat="-21.19975" lon="55.59413">
        <ele>1688.2124023438</ele>
        <time>2013-01-07T02:59:16Z</time>
      </trkpt>
      <trkpt lat="-21.19976" lon="55.59416">
        <ele>1688.6931152344</ele>
        <time>2013-01-07T02:59:19Z</time>
      </trkpt>
      <trkpt lat="-21.19975" lon="55.59423">
        <ele>1690.1350097656</ele>
        <time>2013-01-07T02:59:24Z</time>
      </trkpt>
      <trkpt lat="-21.19973" lon="55.59437">
        <ele>1690.6154785156</ele>
        <time>2013-01-07T02:59:35Z</time>
      </trkpt>
      <trkpt lat="-21.19974" lon="55.59448">
        <ele>1690.6154785156</ele>
        <time>2013-01-07T02:59:51Z</time>
      </trkpt>
      <trkpt lat="-21.19974" lon="55.59469">
        <ele>1692.5385742188</ele>
        <time>2013-01-07T03:00:07Z</time>
      </trkpt>
      <trkpt lat="-21.19974" lon="55.5947">
        <ele>1692.5385742188</ele>
        <time>2013-01-07T03:00:08Z</time>
      </trkpt>
      <trkpt lat="-21.19974" lon="55.59473">
        <ele>1692.5385742188</ele>
        <time>2013-01-07T03:00:11Z</time>
      </trkpt>
      <trkpt lat="-21.19972" lon="55.59482">
        <ele>1693.0190429688</ele>
        <time>2013-01-07T03:00:17Z</time>
      </trkpt>
      <trkpt lat="-21.19971" lon="55.59502">
        <ele>1693.0190429688</ele>
        <time>2013-01-07T03:00:33Z</time>
      </trkpt>
      <trkpt lat="-21.19969" lon="55.59516">
        <ele>1693.0190429688</ele>
        <time>2013-01-07T03:00:49Z</time>
      </trkpt>
      <trkpt lat="-21.19967" lon="55.59526">
        <ele>1693.0190429688</ele>
        <time>2013-01-07T03:00:58Z</time>
      </trkpt>
      <trkpt lat="-21.19982" lon="55.5953">
        <ele>1691.0961914062</ele>
        <time>2013-01-07T03:01:12Z</time>
      </trkpt>
      <trkpt lat="-21.2" lon="55.59534">
        <ele>1690.1350097656</ele>
        <time>2013-01-07T03:01:31Z</time>
      </trkpt>
      <trkpt lat="-21.20011" lon="55.59534">
        <ele>1689.1735839844</ele>
        <time>2013-01-07T03:01:46Z</time>
      </trkpt>
      <trkpt lat="-21.20024" lon="55.59542">
        <ele>1689.1735839844</ele>
        <time>2013-01-07T03:02:01Z</time>
      </trkpt>
      <trkpt lat="-21.20024" lon="55.59543">
        <ele>1689.1735839844</ele>
        <time>2013-01-07T03:02:06Z</time>
      </trkpt>
      <trkpt lat="-21.20024" lon="55.59545">
        <ele>1688.2124023438</ele>
        <time>2013-01-07T03:02:08Z</time>
      </trkpt>
      <trkpt lat="-21.20023" lon="55.59551">
        <ele>1688.2124023438</ele>
        <time>2013-01-07T03:02:17Z</time>
      </trkpt>
      <trkpt lat="-21.2002" lon="55.59563">
        <ele>1690.1350097656</ele>
        <time>2013-01-07T03:02:26Z</time>
      </trkpt>
      <trkpt lat="-21.2002" lon="55.59565">
        <ele>1689.654296875</ele>
        <time>2013-01-07T03:02:28Z</time>
      </trkpt>
      <trkpt lat="-21.20019" lon="55.59573">
        <ele>1690.1350097656</ele>
        <time>2013-01-07T03:02:40Z</time>
      </trkpt>
      <trkpt lat="-21.20021" lon="55.59582">
        <ele>1691.5769042969</ele>
        <time>2013-01-07T03:02:47Z</time>
      </trkpt>
      <trkpt lat="-21.20014" lon="55.59595">
        <ele>1693.98046875</ele>
        <time>2013-01-07T03:03:02Z</time>
      </trkpt>
      <trkpt lat="-21.20014" lon="55.5961">
        <ele>1695.9030761719</ele>
        <time>2013-01-07T03:03:13Z</time>
      </trkpt>
      <trkpt lat="-21.20012" lon="55.59625">
        <ele>1697.8256835938</ele>
        <time>2013-01-07T03:03:26Z</time>
      </trkpt>
      <trkpt lat="-21.20012" lon="55.59641">
        <ele>1699.267578125</ele>
        <time>2013-01-07T03:03:40Z</time>
      </trkpt>
      <trkpt lat="-21.20011" lon="55.59642">
        <ele>1699.7482910156</ele>
        <time>2013-01-07T03:03:42Z</time>
      </trkpt>
      <trkpt lat="-21.20008" lon="55.59652">
        <ele>1702.1513671875</ele>
        <time>2013-01-07T03:03:51Z</time>
      </trkpt>
      <trkpt lat="-21.20007" lon="55.59659">
        <ele>1702.6320800781</ele>
        <time>2013-01-07T03:03:57Z</time>
      </trkpt>
      <trkpt lat="-21.20005" lon="55.59669">
        <ele>1704.07421875</ele>
        <time>2013-01-07T03:04:05Z</time>
      </trkpt>
      <trkpt lat="-21.20001" lon="55.59686">
        <ele>1708.4001464844</ele>
        <time>2013-01-07T03:04:20Z</time>
      </trkpt>
      <trkpt lat="-21.19998" lon="55.59693">
        <ele>1709.8420410156</ele>
        <time>2013-01-07T03:04:28Z</time>
      </trkpt>
      <trkpt lat="-21.19998" lon="55.59698">
        <ele>1710.8034667969</ele>
        <time>2013-01-07T03:04:32Z</time>
      </trkpt>
      <trkpt lat="-21.19997" lon="55.597">
        <ele>1710.8034667969</ele>
        <time>2013-01-07T03:04:34Z</time>
      </trkpt>
      <trkpt lat="-21.19996" lon="55.59708">
        <ele>1713.2067871094</ele>
        <time>2013-01-07T03:04:46Z</time>
      </trkpt>
      <trkpt lat="-21.19993" lon="55.5972">
        <ele>1714.6486816406</ele>
        <time>2013-01-07T03:04:54Z</time>
      </trkpt>
      <trkpt lat="-21.19994" lon="55.59724">
        <ele>1714.6486816406</ele>
        <time>2013-01-07T03:04:57Z</time>
      </trkpt>
      <trkpt lat="-21.19992" lon="55.59745">
        <ele>1717.5324707031</ele>
        <time>2013-01-07T03:05:12Z</time>
      </trkpt>
      <trkpt lat="-21.19989" lon="55.59756">
        <ele>1719.9357910156</ele>
        <time>2013-01-07T03:05:23Z</time>
      </trkpt>
      <trkpt lat="-21.19988" lon="55.59759">
        <ele>1721.3776855469</ele>
        <time>2013-01-07T03:05:26Z</time>
      </trkpt>
      <trkpt lat="-21.19985" lon="55.59766">
        <ele>1724.2619628906</ele>
        <time>2013-01-07T03:05:36Z</time>
      </trkpt>
      <trkpt lat="-21.19984" lon="55.59767">
        <ele>1725.7038574219</ele>
        <time>2013-01-07T03:05:40Z</time>
      </trkpt>
      <trkpt lat="-21.19984" lon="55.5977">
        <ele>1726.6652832031</ele>
        <time>2013-01-07T03:05:44Z</time>
      </trkpt>
      <trkpt lat="-21.19984" lon="55.59779">
        <ele>1729.068359375</ele>
        <time>2013-01-07T03:05:55Z</time>
      </trkpt>
      <trkpt lat="-21.19983" lon="55.59783">
        <ele>1730.9912109375</ele>
        <time>2013-01-07T03:05:59Z</time>
      </trkpt>
      <trkpt lat="-21.19983" lon="55.59791">
        <ele>1734.8364257812</ele>
        <time>2013-01-07T03:06:12Z</time>
      </trkpt>
      <trkpt lat="-21.19981" lon="55.598">
        <ele>1738.2009277344</ele>
        <time>2013-01-07T03:06:25Z</time>
      </trkpt>
      <trkpt lat="-21.1998" lon="55.59801">
        <ele>1738.681640625</ele>
        <time>2013-01-07T03:06:27Z</time>
      </trkpt>
      <trkpt lat="-21.1998" lon="55.59811">
        <ele>1741.0849609375</ele>
        <time>2013-01-07T03:06:39Z</time>
      </trkpt>
      <trkpt lat="-21.19977" lon="55.59823">
        <ele>1743.9689941406</ele>
        <time>2013-01-07T03:06:53Z</time>
      </trkpt>
      <trkpt lat="-21.19977" lon="55.59831">
        <ele>1744.9301757812</ele>
        <time>2013-01-07T03:07:04Z</time>
      </trkpt>
      <trkpt lat="-21.19976" lon="55.59847">
        <ele>1745.4108886719</ele>
        <time>2013-01-07T03:07:20Z</time>
      </trkpt>
      <trkpt lat="-21.19973" lon="55.59862">
        <ele>1748.2946777344</ele>
        <time>2013-01-07T03:07:35Z</time>
      </trkpt>
      <trkpt lat="-21.19971" lon="55.59874">
        <ele>1751.6594238281</ele>
        <time>2013-01-07T03:07:49Z</time>
      </trkpt>
      <trkpt lat="-21.19968" lon="55.59882">
        <ele>1751.1787109375</ele>
        <time>2013-01-07T03:08:03Z</time>
      </trkpt>
      <trkpt lat="-21.19966" lon="55.59898">
        <ele>1748.2946777344</ele>
        <time>2013-01-07T03:08:24Z</time>
      </trkpt>
      <trkpt lat="-21.19962" lon="55.59909">
        <ele>1748.2946777344</ele>
        <time>2013-01-07T03:08:38Z</time>
      </trkpt>
      <trkpt lat="-21.19963" lon="55.59912">
        <ele>1747.3334960938</ele>
        <time>2013-01-07T03:08:54Z</time>
      </trkpt>
      <trkpt lat="-21.19961" lon="55.59923">
        <ele>1745.8916015625</ele>
        <time>2013-01-07T03:09:02Z</time>
      </trkpt>
      <trkpt lat="-21.1996" lon="55.59929">
        <ele>1746.8527832031</ele>
        <time>2013-01-07T03:09:09Z</time>
      </trkpt>
      <trkpt lat="-21.19958" lon="55.59936">
        <ele>1746.8527832031</ele>
        <time>2013-01-07T03:09:15Z</time>
      </trkpt>
      <trkpt lat="-21.19958" lon="55.59949">
        <ele>1745.8916015625</ele>
        <time>2013-01-07T03:09:26Z</time>
      </trkpt>
      <trkpt lat="-21.19955" lon="55.5995">
        <ele>1745.8916015625</ele>
        <time>2013-01-07T03:09:27Z</time>
      </trkpt>
      <trkpt lat="-21.19952" lon="55.59976">
        <ele>1745.8916015625</ele>
        <time>2013-01-07T03:09:44Z</time>
      </trkpt>
      <trkpt lat="-21.19952" lon="55.59987">
        <ele>1747.3334960938</ele>
        <time>2013-01-07T03:09:55Z</time>
      </trkpt>
      <trkpt lat="-21.19949" lon="55.60002">
        <ele>1748.2946777344</ele>
        <time>2013-01-07T03:10:11Z</time>
      </trkpt>
      <trkpt lat="-21.19946" lon="55.60014">
        <ele>1748.775390625</ele>
        <time>2013-01-07T03:10:20Z</time>
      </trkpt>
      <trkpt lat="-21.19947" lon="55.60019">
        <ele>1748.2946777344</ele>
        <time>2013-01-07T03:10:23Z</time>
      </trkpt>
      <trkpt lat="-21.19945" lon="55.60027">
        <ele>1747.8142089844</ele>
        <time>2013-01-07T03:10:33Z</time>
      </trkpt>
      <trkpt lat="-21.19945" lon="55.60031">
        <ele>1748.2946777344</ele>
        <time>2013-01-07T03:10:36Z</time>
      </trkpt>
      <trkpt lat="-21.19943" lon="55.60038">
        <ele>1748.775390625</ele>
        <time>2013-01-07T03:10:42Z</time>
      </trkpt>
      <trkpt lat="-21.19941" lon="55.60053">
        <ele>1748.775390625</ele>
        <time>2013-01-07T03:10:52Z</time>
      </trkpt>
      <trkpt lat="-21.1994" lon="55.60061">
        <ele>1748.775390625</ele>
        <time>2013-01-07T03:10:57Z</time>
      </trkpt>
      <trkpt lat="-21.19938" lon="55.60065">
        <ele>1749.2561035156</ele>
        <time>2013-01-07T03:11:00Z</time>
      </trkpt>
      <trkpt lat="-21.19933" lon="55.60085">
        <ele>1751.1787109375</ele>
        <time>2013-01-07T03:11:17Z</time>
      </trkpt>
      <trkpt lat="-21.19934" lon="55.60092">
        <ele>1752.6206054688</ele>
        <time>2013-01-07T03:11:23Z</time>
      </trkpt>
      <trkpt lat="-21.1993" lon="55.60111">
        <ele>1754.0627441406</ele>
        <time>2013-01-07T03:11:39Z</time>
      </trkpt>
      <trkpt lat="-21.1993" lon="55.60112">
        <ele>1754.0627441406</ele>
        <time>2013-01-07T03:11:40Z</time>
      </trkpt>
      <trkpt lat="-21.19929" lon="55.60115">
        <ele>1754.5432128906</ele>
        <time>2013-01-07T03:11:43Z</time>
      </trkpt>
      <trkpt lat="-21.1993" lon="55.60123">
        <ele>1755.0239257812</ele>
        <time>2013-01-07T03:11:50Z</time>
      </trkpt>
      <trkpt lat="-21.19924" lon="55.60145">
        <ele>1758.8693847656</ele>
        <time>2013-01-07T03:12:06Z</time>
      </trkpt>
      <trkpt lat="-21.19922" lon="55.60156">
        <ele>1759.8305664062</ele>
        <time>2013-01-07T03:12:18Z</time>
      </trkpt>
      <trkpt lat="-21.19919" lon="55.60164">
        <ele>1760.7919921875</ele>
        <time>2013-01-07T03:12:31Z</time>
      </trkpt>
      <trkpt lat="-21.19917" lon="55.60166">
        <ele>1761.7534179688</ele>
        <time>2013-01-07T03:12:35Z</time>
      </trkpt>
      <trkpt lat="-21.19911" lon="55.60176">
        <ele>1762.7145996094</ele>
        <time>2013-01-07T03:12:49Z</time>
      </trkpt>
      <trkpt lat="-21.1991" lon="55.60178">
        <ele>1762.7145996094</ele>
        <time>2013-01-07T03:12:53Z</time>
      </trkpt>
      <trkpt lat="-21.19904" lon="55.60193">
        <ele>1762.7145996094</ele>
        <time>2013-01-07T03:13:08Z</time>
      </trkpt>
      <trkpt lat="-21.199" lon="55.60195">
        <ele>1762.2338867188</ele>
        <time>2013-01-07T03:13:17Z</time>
      </trkpt>
      <trkpt lat="-21.19889" lon="55.60195">
        <ele>1762.7145996094</ele>
        <time>2013-01-07T03:13:30Z</time>
      </trkpt>
      <trkpt lat="-21.19875" lon="55.60193">
        <ele>1764.6372070312</ele>
        <time>2013-01-07T03:13:43Z</time>
      </trkpt>
      <trkpt lat="-21.19864" lon="55.6019">
        <ele>1766.0791015625</ele>
        <time>2013-01-07T03:14:00Z</time>
      </trkpt>
      <trkpt lat="-21.1985" lon="55.6019">
        <ele>1764.1564941406</ele>
        <time>2013-01-07T03:14:16Z</time>
      </trkpt>
      <trkpt lat="-21.19829" lon="55.60181">
        <ele>1766.5598144531</ele>
        <time>2013-01-07T03:14:40Z</time>
      </trkpt>
      <trkpt lat="-21.19818" lon="55.60185">
        <ele>1768.9631347656</ele>
        <time>2013-01-07T03:14:48Z</time>
      </trkpt>
      <trkpt lat="-21.19801" lon="55.60181">
        <ele>1768.0017089844</ele>
        <time>2013-01-07T03:15:05Z</time>
      </trkpt>
      <trkpt lat="-21.19787" lon="55.60178">
        <ele>1766.5598144531</ele>
        <time>2013-01-07T03:15:26Z</time>
      </trkpt>
      <trkpt lat="-21.19759" lon="55.60168">
        <ele>1765.1179199219</ele>
        <time>2013-01-07T03:15:52Z</time>
      </trkpt>
      <trkpt lat="-21.19735" lon="55.60164">
        <ele>1763.1953125</ele>
        <time>2013-01-07T03:16:14Z</time>
      </trkpt>
      <trkpt lat="-21.19718" lon="55.6016">
        <ele>1761.2727050781</ele>
        <time>2013-01-07T03:16:33Z</time>
      </trkpt>
      <trkpt lat="-21.19703" lon="55.60157">
        <ele>1760.3112792969</ele>
        <time>2013-01-07T03:16:44Z</time>
      </trkpt>
      <trkpt lat="-21.19697" lon="55.60159">
        <ele>1759.3500976562</ele>
        <time>2013-01-07T03:16:49Z</time>
      </trkpt>
      <trkpt lat="-21.19692" lon="55.60158">
        <ele>1758.8693847656</ele>
        <time>2013-01-07T03:16:53Z</time>
      </trkpt>
      <trkpt lat="-21.19686" lon="55.60157">
        <ele>1760.7919921875</ele>
        <time>2013-01-07T03:17:01Z</time>
      </trkpt>
      <trkpt lat="-21.19684" lon="55.60155">
        <ele>1759.3500976562</ele>
        <time>2013-01-07T03:17:03Z</time>
      </trkpt>
      <trkpt lat="-21.1967" lon="55.60151">
        <ele>1758.8693847656</ele>
        <time>2013-01-07T03:17:20Z</time>
      </trkpt>
      <trkpt lat="-21.19669" lon="55.60151">
        <ele>1758.388671875</ele>
        <time>2013-01-07T03:17:21Z</time>
      </trkpt>
      <trkpt lat="-21.19668" lon="55.60152">
        <ele>1757.908203125</ele>
        <time>2013-01-07T03:17:23Z</time>
      </trkpt>
      <trkpt lat="-21.19658" lon="55.60149">
        <ele>1757.908203125</ele>
        <time>2013-01-07T03:17:35Z</time>
      </trkpt>
      <trkpt lat="-21.1965" lon="55.60149">
        <ele>1754.5432128906</ele>
        <time>2013-01-07T03:17:50Z</time>
      </trkpt>
      <trkpt lat="-21.19644" lon="55.60148">
        <ele>1753.58203125</ele>
        <time>2013-01-07T03:18:02Z</time>
      </trkpt>
      <trkpt lat="-21.19631" lon="55.60145">
        <ele>1750.2175292969</ele>
        <time>2013-01-07T03:18:20Z</time>
      </trkpt>
      <trkpt lat="-21.19624" lon="55.60142">
        <ele>1750.2175292969</ele>
        <time>2013-01-07T03:18:30Z</time>
      </trkpt>
      <trkpt lat="-21.19619" lon="55.6014">
        <ele>1749.2561035156</ele>
        <time>2013-01-07T03:18:38Z</time>
      </trkpt>
      <trkpt lat="-21.19605" lon="55.60138">
        <ele>1747.3334960938</ele>
        <time>2013-01-07T03:18:51Z</time>
      </trkpt>
      <trkpt lat="-21.19583" lon="55.60135">
        <ele>1748.2946777344</ele>
        <time>2013-01-07T03:19:06Z</time>
      </trkpt>
      <trkpt lat="-21.19579" lon="55.60135">
        <ele>1748.2946777344</ele>
        <time>2013-01-07T03:19:08Z</time>
      </trkpt>
      <trkpt lat="-21.19566" lon="55.60134">
        <ele>1749.2561035156</ele>
        <time>2013-01-07T03:19:22Z</time>
      </trkpt>
      <trkpt lat="-21.19562" lon="55.60136">
        <ele>1749.7368164062</ele>
        <time>2013-01-07T03:19:24Z</time>
      </trkpt>
      <trkpt lat="-21.19551" lon="55.60129">
        <ele>1750.2175292969</ele>
        <time>2013-01-07T03:19:40Z</time>
      </trkpt>
      <trkpt lat="-21.19549" lon="55.60145">
        <ele>1751.6594238281</ele>
        <time>2013-01-07T03:19:58Z</time>
      </trkpt>
      <trkpt lat="-21.19549" lon="55.60157">
        <ele>1752.6206054688</ele>
        <time>2013-01-07T03:20:15Z</time>
      </trkpt>
      <trkpt lat="-21.19548" lon="55.60159">
        <ele>1752.6206054688</ele>
        <time>2013-01-07T03:20:17Z</time>
      </trkpt>
      <trkpt lat="-21.19538" lon="55.60183">
        <ele>1754.0627441406</ele>
        <time>2013-01-07T03:20:33Z</time>
      </trkpt>
      <trkpt lat="-21.19537" lon="55.60187">
        <ele>1754.0627441406</ele>
        <time>2013-01-07T03:20:38Z</time>
      </trkpt>
      <trkpt lat="-21.19529" lon="55.602">
        <ele>1755.0239257812</ele>
        <time>2013-01-07T03:20:55Z</time>
      </trkpt>
      <trkpt lat="-21.19527" lon="55.60203">
        <ele>1754.0627441406</ele>
        <time>2013-01-07T03:21:18Z</time>
      </trkpt>
      <trkpt lat="-21.19524" lon="55.60214">
        <ele>1755.9851074219</ele>
        <time>2013-01-07T03:22:02Z</time>
      </trkpt>
      <trkpt lat="-21.19522" lon="55.60216">
        <ele>1755.9851074219</ele>
        <time>2013-01-07T03:22:05Z</time>
      </trkpt>
      <trkpt lat="-21.19516" lon="55.60229">
        <ele>1758.8693847656</ele>
        <time>2013-01-07T03:22:22Z</time>
      </trkpt>
      <trkpt lat="-21.19516" lon="55.60231">
        <ele>1758.8693847656</ele>
        <time>2013-01-07T03:22:23Z</time>
      </trkpt>
      <trkpt lat="-21.19505" lon="55.60245">
        <ele>1760.3112792969</ele>
        <time>2013-01-07T03:22:35Z</time>
      </trkpt>
      <trkpt lat="-21.195" lon="55.60269">
        <ele>1762.7145996094</ele>
        <time>2013-01-07T03:22:50Z</time>
      </trkpt>
      <trkpt lat="-21.19504" lon="55.60276">
        <ele>1764.1564941406</ele>
        <time>2013-01-07T03:23:04Z</time>
      </trkpt>
      <trkpt lat="-21.19512" lon="55.60278">
        <ele>1767.0405273438</ele>
        <time>2013-01-07T03:23:17Z</time>
      </trkpt>
      <trkpt lat="-21.19508" lon="55.60289">
        <ele>1770.4050292969</ele>
        <time>2013-01-07T03:23:30Z</time>
      </trkpt>
      <trkpt lat="-21.19505" lon="55.60294">
        <ele>1770.4050292969</ele>
        <time>2013-01-07T03:23:35Z</time>
      </trkpt>
      <trkpt lat="-21.19495" lon="55.60305">
        <ele>1772.3278808594</ele>
        <time>2013-01-07T03:23:47Z</time>
      </trkpt>
      <trkpt lat="-21.19485" lon="55.60309">
        <ele>1774.2504882812</ele>
        <time>2013-01-07T03:23:56Z</time>
      </trkpt>
      <trkpt lat="-21.19481" lon="55.60311">
        <ele>1774.7312011719</ele>
        <time>2013-01-07T03:24:04Z</time>
      </trkpt>
      <trkpt lat="-21.19479" lon="55.60322">
        <ele>1776.6538085938</ele>
        <time>2013-01-07T03:24:24Z</time>
      </trkpt>
      <trkpt lat="-21.19481" lon="55.60325">
        <ele>1777.6149902344</ele>
        <time>2013-01-07T03:24:35Z</time>
      </trkpt>
      <trkpt lat="-21.19486" lon="55.60333">
        <ele>1779.0568847656</ele>
        <time>2013-01-07T03:24:47Z</time>
      </trkpt>
      <trkpt lat="-21.19489" lon="55.60335">
        <ele>1780.0183105469</ele>
        <time>2013-01-07T03:25:01Z</time>
      </trkpt>
      <trkpt lat="-21.1949" lon="55.60336">
        <ele>1779.5375976562</ele>
        <time>2013-01-07T03:25:29Z</time>
      </trkpt>
      <trkpt lat="-21.19495" lon="55.60336">
        <ele>1781.4602050781</ele>
        <time>2013-01-07T03:25:47Z</time>
      </trkpt>
      <trkpt lat="-21.19506" lon="55.60334">
        <ele>1781.9409179688</ele>
        <time>2013-01-07T03:26:14Z</time>
      </trkpt>
      <trkpt lat="-21.19517" lon="55.60335">
        <ele>1784.3442382812</ele>
        <time>2013-01-07T03:26:25Z</time>
      </trkpt>
      <trkpt lat="-21.19523" lon="55.60342">
        <ele>1786.7473144531</ele>
        <time>2013-01-07T03:26:37Z</time>
      </trkpt>
      <trkpt lat="-21.19511" lon="55.60361">
        <ele>1788.6704101562</ele>
        <time>2013-01-07T03:27:02Z</time>
      </trkpt>
      <trkpt lat="-21.19511" lon="55.60365">
        <ele>1789.6315917969</ele>
        <time>2013-01-07T03:27:11Z</time>
      </trkpt>
      <trkpt lat="-21.19511" lon="55.60366">
        <ele>1790.1123046875</ele>
        <time>2013-01-07T03:27:20Z</time>
      </trkpt>
      <trkpt lat="-21.19511" lon="55.60369">
        <ele>1790.5927734375</ele>
        <time>2013-01-07T03:27:37Z</time>
      </trkpt>
      <trkpt lat="-21.19515" lon="55.60379">
        <ele>1792.515625</ele>
        <time>2013-01-07T03:27:47Z</time>
      </trkpt>
      <trkpt lat="-21.19523" lon="55.60391">
        <ele>1794.4379882812</ele>
        <time>2013-01-07T03:28:04Z</time>
      </trkpt>
      <trkpt lat="-21.19532" lon="55.60403">
        <ele>1796.3608398438</ele>
        <time>2013-01-07T03:28:19Z</time>
      </trkpt>
      <trkpt lat="-21.19541" lon="55.60421">
        <ele>1798.7639160156</ele>
        <time>2013-01-07T03:28:34Z</time>
      </trkpt>
      <trkpt lat="-21.19543" lon="55.60431">
        <ele>1799.7253417969</ele>
        <time>2013-01-07T03:28:42Z</time>
      </trkpt>
      <trkpt lat="-21.19545" lon="55.60435">
        <ele>1799.7253417969</ele>
        <time>2013-01-07T03:28:47Z</time>
      </trkpt>
      <trkpt lat="-21.19548" lon="55.60442">
        <ele>1799.2446289062</ele>
        <time>2013-01-07T03:28:52Z</time>
      </trkpt>
      <trkpt lat="-21.19552" lon="55.60459">
        <ele>1801.6479492188</ele>
        <time>2013-01-07T03:29:06Z</time>
      </trkpt>
      <trkpt lat="-21.19557" lon="55.60466">
        <ele>1801.6479492188</ele>
        <time>2013-01-07T03:29:12Z</time>
      </trkpt>
      <trkpt lat="-21.19564" lon="55.60481">
        <ele>1803.5705566406</ele>
        <time>2013-01-07T03:29:25Z</time>
      </trkpt>
      <trkpt lat="-21.19566" lon="55.60496">
        <ele>1804.5319824219</ele>
        <time>2013-01-07T03:29:35Z</time>
      </trkpt>
      <trkpt lat="-21.1957" lon="55.60504">
        <ele>1805.4934082031</ele>
        <time>2013-01-07T03:29:41Z</time>
      </trkpt>
      <trkpt lat="-21.19576" lon="55.60514">
        <ele>1805.0126953125</ele>
        <time>2013-01-07T03:29:49Z</time>
      </trkpt>
      <trkpt lat="-21.19582" lon="55.60527">
        <ele>1805.4934082031</ele>
        <time>2013-01-07T03:30:00Z</time>
      </trkpt>
      <trkpt lat="-21.19584" lon="55.6053">
        <ele>1806.4545898438</ele>
        <time>2013-01-07T03:30:02Z</time>
      </trkpt>
      <trkpt lat="-21.19586" lon="55.60531">
        <ele>1805.9738769531</ele>
        <time>2013-01-07T03:30:04Z</time>
      </trkpt>
      <trkpt lat="-21.19589" lon="55.60532">
        <ele>1805.9738769531</ele>
        <time>2013-01-07T03:30:08Z</time>
      </trkpt>
      <trkpt lat="-21.19598" lon="55.60538">
        <ele>1807.8967285156</ele>
        <time>2013-01-07T03:30:17Z</time>
      </trkpt>
      <trkpt lat="-21.19604" lon="55.60543">
        <ele>1808.3771972656</ele>
        <time>2013-01-07T03:30:24Z</time>
      </trkpt>
      <trkpt lat="-21.19616" lon="55.60551">
        <ele>1809.8190917969</ele>
        <time>2013-01-07T03:30:35Z</time>
      </trkpt>
      <trkpt lat="-21.19626" lon="55.60557">
        <ele>1811.7419433594</ele>
        <time>2013-01-07T03:30:43Z</time>
      </trkpt>
      <trkpt lat="-21.19638" lon="55.60566">
        <ele>1813.1838378906</ele>
        <time>2013-01-07T03:30:57Z</time>
      </trkpt>
      <trkpt lat="-21.19642" lon="55.60569">
        <ele>1814.1450195312</ele>
        <time>2013-01-07T03:31:01Z</time>
      </trkpt>
      <trkpt lat="-21.19652" lon="55.60572">
        <ele>1815.1064453125</ele>
        <time>2013-01-07T03:31:08Z</time>
      </trkpt>
      <trkpt lat="-21.19664" lon="55.60576">
        <ele>1816.5483398438</ele>
        <time>2013-01-07T03:31:20Z</time>
      </trkpt>
      <trkpt lat="-21.19672" lon="55.60582">
        <ele>1818.4709472656</ele>
        <time>2013-01-07T03:31:29Z</time>
      </trkpt>
      <trkpt lat="-21.19685" lon="55.6059">
        <ele>1818.9516601562</ele>
        <time>2013-01-07T03:31:39Z</time>
      </trkpt>
      <trkpt lat="-21.19695" lon="55.60596">
        <ele>1819.9128417969</ele>
        <time>2013-01-07T03:31:46Z</time>
      </trkpt>
      <trkpt lat="-21.19696" lon="55.60597">
        <ele>1820.3937988281</ele>
        <time>2013-01-07T03:31:49Z</time>
      </trkpt>
      <trkpt lat="-21.19707" lon="55.60603">
        <ele>1822.7971191406</ele>
        <time>2013-01-07T03:32:01Z</time>
      </trkpt>
      <trkpt lat="-21.19714" lon="55.60612">
        <ele>1823.7583007812</ele>
        <time>2013-01-07T03:32:09Z</time>
      </trkpt>
      <trkpt lat="-21.19721" lon="55.6062">
        <ele>1824.7197265625</ele>
        <time>2013-01-07T03:32:24Z</time>
      </trkpt>
      <trkpt lat="-21.19726" lon="55.60623">
        <ele>1825.6809082031</ele>
        <time>2013-01-07T03:32:30Z</time>
      </trkpt>
      <trkpt lat="-21.19728" lon="55.60629">
        <ele>1825.6809082031</ele>
        <time>2013-01-07T03:32:42Z</time>
      </trkpt>
      <trkpt lat="-21.19729" lon="55.60629">
        <ele>1825.2001953125</ele>
        <time>2013-01-07T03:32:43Z</time>
      </trkpt>
      <trkpt lat="-21.19737" lon="55.60635">
        <ele>1826.6423339844</ele>
        <time>2013-01-07T03:33:01Z</time>
      </trkpt>
      <trkpt lat="-21.19734" lon="55.60637">
        <ele>1826.1616210938</ele>
        <time>2013-01-07T03:33:14Z</time>
      </trkpt>
      <trkpt lat="-21.19729" lon="55.60637">
        <ele>1825.6809082031</ele>
        <time>2013-01-07T03:33:20Z</time>
      </trkpt>
      <trkpt lat="-21.19724" lon="55.60639">
        <ele>1824.2390136719</ele>
        <time>2013-01-07T03:33:31Z</time>
      </trkpt>
      <trkpt lat="-21.19718" lon="55.6064">
        <ele>1823.7583007812</ele>
        <time>2013-01-07T03:33:43Z</time>
      </trkpt>
      <trkpt lat="-21.19716" lon="55.6064">
        <ele>1822.31640625</ele>
        <time>2013-01-07T03:33:46Z</time>
      </trkpt>
      <trkpt lat="-21.197" lon="55.60645">
        <ele>1820.3937988281</ele>
        <time>2013-01-07T03:33:58Z</time>
      </trkpt>
      <trkpt lat="-21.19693" lon="55.60649">
        <ele>1820.3937988281</ele>
        <time>2013-01-07T03:34:04Z</time>
      </trkpt>
      <trkpt lat="-21.19686" lon="55.60651">
        <ele>1819.9128417969</ele>
        <time>2013-01-07T03:34:09Z</time>
      </trkpt>
      <trkpt lat="-21.19679" lon="55.6065">
        <ele>1820.3937988281</ele>
        <time>2013-01-07T03:34:20Z</time>
      </trkpt>
      <trkpt lat="-21.19678" lon="55.60651">
        <ele>1820.3937988281</ele>
        <time>2013-01-07T03:34:22Z</time>
      </trkpt>
      <trkpt lat="-21.19676" lon="55.60648">
        <ele>1820.8745117188</ele>
        <time>2013-01-07T03:34:30Z</time>
      </trkpt>
      <trkpt lat="-21.19661" lon="55.60652">
        <ele>1819.4323730469</ele>
        <time>2013-01-07T03:34:41Z</time>
      </trkpt>
      <trkpt lat="-21.19658" lon="55.60652">
        <ele>1819.4323730469</ele>
        <time>2013-01-07T03:34:43Z</time>
      </trkpt>
      <trkpt lat="-21.19657" lon="55.60653">
        <ele>1819.4323730469</ele>
        <time>2013-01-07T03:34:47Z</time>
      </trkpt>
      <trkpt lat="-21.19652" lon="55.60652">
        <ele>1819.9128417969</ele>
        <time>2013-01-07T03:34:57Z</time>
      </trkpt>
      <trkpt lat="-21.19647" lon="55.60651">
        <ele>1820.8745117188</ele>
        <time>2013-01-07T03:35:02Z</time>
      </trkpt>
      <trkpt lat="-21.19638" lon="55.60653">
        <ele>1819.9128417969</ele>
        <time>2013-01-07T03:35:06Z</time>
      </trkpt>
      <trkpt lat="-21.19626" lon="55.6065">
        <ele>1818.4709472656</ele>
        <time>2013-01-07T03:35:20Z</time>
      </trkpt>
      <trkpt lat="-21.19611" lon="55.60644">
        <ele>1816.5483398438</ele>
        <time>2013-01-07T03:35:35Z</time>
      </trkpt>
      <trkpt lat="-21.19599" lon="55.6064">
        <ele>1816.5483398438</ele>
        <time>2013-01-07T03:35:43Z</time>
      </trkpt>
      <trkpt lat="-21.19583" lon="55.60639">
        <ele>1815.5871582031</ele>
        <time>2013-01-07T03:35:52Z</time>
      </trkpt>
      <trkpt lat="-21.19578" lon="55.60639">
        <ele>1815.1064453125</ele>
        <time>2013-01-07T03:35:56Z</time>
      </trkpt>
      <trkpt lat="-21.19572" lon="55.6064">
        <ele>1814.6257324219</ele>
        <time>2013-01-07T03:36:00Z</time>
      </trkpt>
      <trkpt lat="-21.19567" lon="55.60639">
        <ele>1814.6257324219</ele>
        <time>2013-01-07T03:36:03Z</time>
      </trkpt>
      <trkpt lat="-21.19565" lon="55.60639">
        <ele>1814.6257324219</ele>
        <time>2013-01-07T03:36:07Z</time>
      </trkpt>
      <trkpt lat="-21.19563" lon="55.60641">
        <ele>1814.1450195312</ele>
        <time>2013-01-07T03:36:10Z</time>
      </trkpt>
      <trkpt lat="-21.19545" lon="55.60634">
        <ele>1813.6643066406</ele>
        <time>2013-01-07T03:36:24Z</time>
      </trkpt>
      <trkpt lat="-21.19538" lon="55.60638">
        <ele>1813.6643066406</ele>
        <time>2013-01-07T03:36:33Z</time>
      </trkpt>
      <trkpt lat="-21.19524" lon="55.60639">
        <ele>1812.703125</ele>
        <time>2013-01-07T03:36:43Z</time>
      </trkpt>
      <trkpt lat="-21.19505" lon="55.60638">
        <ele>1812.703125</ele>
        <time>2013-01-07T03:36:57Z</time>
      </trkpt>
      <trkpt lat="-21.19502" lon="55.60635">
        <ele>1812.703125</ele>
        <time>2013-01-07T03:37:09Z</time>
      </trkpt>
      <trkpt lat="-21.19488" lon="55.60635">
        <ele>1811.7419433594</ele>
        <time>2013-01-07T03:37:25Z</time>
      </trkpt>
      <trkpt lat="-21.19481" lon="55.60636">
        <ele>1810.7805175781</ele>
        <time>2013-01-07T03:37:34Z</time>
      </trkpt>
      <trkpt lat="-21.19476" lon="55.60634">
        <ele>1809.8190917969</ele>
        <time>2013-01-07T03:37:39Z</time>
      </trkpt>
      <trkpt lat="-21.19469" lon="55.60636">
        <ele>1808.8579101562</ele>
        <time>2013-01-07T03:37:48Z</time>
      </trkpt>
      <trkpt lat="-21.1946" lon="55.60635">
        <ele>1807.8967285156</ele>
        <time>2013-01-07T03:37:57Z</time>
      </trkpt>
      <trkpt lat="-21.19455" lon="55.60638">
        <ele>1807.416015625</ele>
        <time>2013-01-07T03:38:01Z</time>
      </trkpt>
      <trkpt lat="-21.19444" lon="55.60644">
        <ele>1807.416015625</ele>
        <time>2013-01-07T03:38:12Z</time>
      </trkpt>
      <trkpt lat="-21.19441" lon="55.60645">
        <ele>1806.9353027344</ele>
        <time>2013-01-07T03:38:16Z</time>
      </trkpt>
      <trkpt lat="-21.19439" lon="55.60635">
        <ele>1805.9738769531</ele>
        <time>2013-01-07T03:38:26Z</time>
      </trkpt>
      <trkpt lat="-21.19436" lon="55.60634">
        <ele>1804.5319824219</ele>
        <time>2013-01-07T03:38:31Z</time>
      </trkpt>
      <trkpt lat="-21.19431" lon="55.60629">
        <ele>1805.0126953125</ele>
        <time>2013-01-07T03:38:35Z</time>
      </trkpt>
      <trkpt lat="-21.19422" lon="55.60624">
        <ele>1805.4934082031</ele>
        <time>2013-01-07T03:38:45Z</time>
      </trkpt>
      <trkpt lat="-21.19413" lon="55.60625">
        <ele>1805.9738769531</ele>
        <time>2013-01-07T03:39:01Z</time>
      </trkpt>
      <trkpt lat="-21.1941" lon="55.6062">
        <ele>1806.4545898438</ele>
        <time>2013-01-07T03:39:06Z</time>
      </trkpt>
      <trkpt lat="-21.19415" lon="55.60614">
        <ele>1806.9353027344</ele>
        <time>2013-01-07T03:39:16Z</time>
      </trkpt>
      <trkpt lat="-21.19414" lon="55.60612">
        <ele>1807.416015625</ele>
        <time>2013-01-07T03:39:18Z</time>
      </trkpt>
      <trkpt lat="-21.19414" lon="55.60599">
        <ele>1807.8967285156</ele>
        <time>2013-01-07T03:39:29Z</time>
      </trkpt>
      <trkpt lat="-21.19419" lon="55.60593">
        <ele>1806.9353027344</ele>
        <time>2013-01-07T03:39:34Z</time>
      </trkpt>
      <trkpt lat="-21.19424" lon="55.60584">
        <ele>1806.9353027344</ele>
        <time>2013-01-07T03:39:40Z</time>
      </trkpt>
      <trkpt lat="-21.19426" lon="55.60583">
        <ele>1806.4545898438</ele>
        <time>2013-01-07T03:39:42Z</time>
      </trkpt>
      <trkpt lat="-21.19423" lon="55.60573">
        <ele>1806.9353027344</ele>
        <time>2013-01-07T03:39:48Z</time>
      </trkpt>
      <trkpt lat="-21.19412" lon="55.60566">
        <ele>1807.8967285156</ele>
        <time>2013-01-07T03:39:59Z</time>
      </trkpt>
      <trkpt lat="-21.19408" lon="55.60564">
        <ele>1807.8967285156</ele>
        <time>2013-01-07T03:40:02Z</time>
      </trkpt>
      <trkpt lat="-21.19401" lon="55.60559">
        <ele>1808.8579101562</ele>
        <time>2013-01-07T03:40:10Z</time>
      </trkpt>
      <trkpt lat="-21.19399" lon="55.60555">
        <ele>1809.3386230469</ele>
        <time>2013-01-07T03:40:13Z</time>
      </trkpt>
      <trkpt lat="-21.19396" lon="55.60555">
        <ele>1809.3386230469</ele>
        <time>2013-01-07T03:40:15Z</time>
      </trkpt>
      <trkpt lat="-21.19386" lon="55.60557">
        <ele>1808.3771972656</ele>
        <time>2013-01-07T03:40:26Z</time>
      </trkpt>
      <trkpt lat="-21.1938" lon="55.60554">
        <ele>1808.8579101562</ele>
        <time>2013-01-07T03:40:30Z</time>
      </trkpt>
      <trkpt lat="-21.19376" lon="55.60557">
        <ele>1810.2998046875</ele>
        <time>2013-01-07T03:40:45Z</time>
      </trkpt>
      <trkpt lat="-21.19375" lon="55.60556">
        <ele>1810.7805175781</ele>
        <time>2013-01-07T03:41:28Z</time>
      </trkpt>
      <trkpt lat="-21.19374" lon="55.60555">
        <ele>1809.3386230469</ele>
        <time>2013-01-07T03:42:33Z</time>
      </trkpt>
      <trkpt lat="-21.19374" lon="55.60547">
        <ele>1807.8967285156</ele>
        <time>2013-01-07T03:42:43Z</time>
      </trkpt>
      <trkpt lat="-21.19373" lon="55.60536">
        <ele>1805.4934082031</ele>
        <time>2013-01-07T03:42:56Z</time>
      </trkpt>
      <trkpt lat="-21.19372" lon="55.60521">
        <ele>1803.08984375</ele>
        <time>2013-01-07T03:43:09Z</time>
      </trkpt>
      <trkpt lat="-21.19368" lon="55.60518">
        <ele>1803.5705566406</ele>
        <time>2013-01-07T03:43:14Z</time>
      </trkpt>
      <trkpt lat="-21.19364" lon="55.60511">
        <ele>1804.0515136719</ele>
        <time>2013-01-07T03:43:20Z</time>
      </trkpt>
      <trkpt lat="-21.19362" lon="55.60507">
        <ele>1804.5319824219</ele>
        <time>2013-01-07T03:43:25Z</time>
      </trkpt>
      <trkpt lat="-21.19361" lon="55.60499">
        <ele>1805.4934082031</ele>
        <time>2013-01-07T03:43:32Z</time>
      </trkpt>
      <trkpt lat="-21.19359" lon="55.60493">
        <ele>1804.5319824219</ele>
        <time>2013-01-07T03:43:37Z</time>
      </trkpt>
      <trkpt lat="-21.19358" lon="55.60479">
        <ele>1804.5319824219</ele>
        <time>2013-01-07T03:43:48Z</time>
      </trkpt>
      <trkpt lat="-21.19353" lon="55.60461">
        <ele>1803.08984375</ele>
        <time>2013-01-07T03:44:03Z</time>
      </trkpt>
      <trkpt lat="-21.19352" lon="55.60456">
        <ele>1802.6091308594</ele>
        <time>2013-01-07T03:44:08Z</time>
      </trkpt>
      <trkpt lat="-21.19352" lon="55.60455">
        <ele>1802.1284179688</ele>
        <time>2013-01-07T03:44:18Z</time>
      </trkpt>
      <trkpt lat="-21.19352" lon="55.60454">
        <ele>1801.6479492188</ele>
        <time>2013-01-07T03:44:19Z</time>
      </trkpt>
      <trkpt lat="-21.19349" lon="55.60439">
        <ele>1800.6865234375</ele>
        <time>2013-01-07T03:44:31Z</time>
      </trkpt>
      <trkpt lat="-21.19348" lon="55.60436">
        <ele>1798.7639160156</ele>
        <time>2013-01-07T03:44:36Z</time>
      </trkpt>
      <trkpt lat="-21.19345" lon="55.60435">
        <ele>1796.3608398438</ele>
        <time>2013-01-07T03:44:47Z</time>
      </trkpt>
      <trkpt lat="-21.19344" lon="55.6043">
        <ele>1794.9187011719</ele>
        <time>2013-01-07T03:44:52Z</time>
      </trkpt>
      <trkpt lat="-21.19344" lon="55.60425">
        <ele>1792.99609375</ele>
        <time>2013-01-07T03:44:56Z</time>
      </trkpt>
      <trkpt lat="-21.19342" lon="55.60419">
        <ele>1792.515625</ele>
        <time>2013-01-07T03:45:01Z</time>
      </trkpt>
      <trkpt lat="-21.19342" lon="55.60416">
        <ele>1791.5541992188</ele>
        <time>2013-01-07T03:45:04Z</time>
      </trkpt>
      <trkpt lat="-21.19341" lon="55.60405">
        <ele>1791.0734863281</ele>
        <time>2013-01-07T03:45:10Z</time>
      </trkpt>
      <trkpt lat="-21.19337" lon="55.6039">
        <ele>1789.6315917969</ele>
        <time>2013-01-07T03:45:21Z</time>
      </trkpt>
      <trkpt lat="-21.19336" lon="55.60371">
        <ele>1788.1896972656</ele>
        <time>2013-01-07T03:45:33Z</time>
      </trkpt>
      <trkpt lat="-21.19336" lon="55.60369">
        <ele>1787.7087402344</ele>
        <time>2013-01-07T03:45:36Z</time>
      </trkpt>
      <trkpt lat="-21.19333" lon="55.60365">
        <ele>1787.7087402344</ele>
        <time>2013-01-07T03:45:39Z</time>
      </trkpt>
      <trkpt lat="-21.19334" lon="55.60359">
        <ele>1787.7087402344</ele>
        <time>2013-01-07T03:45:44Z</time>
      </trkpt>
      <trkpt lat="-21.19334" lon="55.60357">
        <ele>1788.1896972656</ele>
        <time>2013-01-07T03:45:46Z</time>
      </trkpt>
      <trkpt lat="-21.19329" lon="55.6034">
        <ele>1786.2668457031</ele>
        <time>2013-01-07T03:46:00Z</time>
      </trkpt>
      <trkpt lat="-21.19329" lon="55.60331">
        <ele>1786.7473144531</ele>
        <time>2013-01-07T03:46:07Z</time>
      </trkpt>
      <trkpt lat="-21.19325" lon="55.60322">
        <ele>1785.3054199219</ele>
        <time>2013-01-07T03:46:19Z</time>
      </trkpt>
      <trkpt lat="-21.19324" lon="55.60313">
        <ele>1783.3828125</ele>
        <time>2013-01-07T03:46:28Z</time>
      </trkpt>
      <trkpt lat="-21.19321" lon="55.60312">
        <ele>1784.3442382812</ele>
        <time>2013-01-07T03:46:31Z</time>
      </trkpt>
      <trkpt lat="-21.19317" lon="55.60312">
        <ele>1784.8249511719</ele>
        <time>2013-01-07T03:46:36Z</time>
      </trkpt>
      <trkpt lat="-21.19313" lon="55.60309">
        <ele>1784.3442382812</ele>
        <time>2013-01-07T03:46:41Z</time>
      </trkpt>
      <trkpt lat="-21.19302" lon="55.60312">
        <ele>1784.8249511719</ele>
        <time>2013-01-07T03:46:53Z</time>
      </trkpt>
      <trkpt lat="-21.19281" lon="55.60306">
        <ele>1785.7861328125</ele>
        <time>2013-01-07T03:47:12Z</time>
      </trkpt>
      <trkpt lat="-21.19276" lon="55.60305">
        <ele>1785.7861328125</ele>
        <time>2013-01-07T03:47:17Z</time>
      </trkpt>
      <trkpt lat="-21.19269" lon="55.60304">
        <ele>1783.8635253906</ele>
        <time>2013-01-07T03:47:25Z</time>
      </trkpt>
      <trkpt lat="-21.19267" lon="55.603">
        <ele>1780.4990234375</ele>
        <time>2013-01-07T03:47:38Z</time>
      </trkpt>
      <trkpt lat="-21.19267" lon="55.603">
        <ele>1780.4990234375</ele>
        <time>2013-01-07T03:47:39Z</time>
      </trkpt>
      <trkpt lat="-21.19261" lon="55.60301">
        <ele>1778.5764160156</ele>
        <time>2013-01-07T03:47:49Z</time>
      </trkpt>
      <trkpt lat="-21.19251" lon="55.60309">
        <ele>1775.2116699219</ele>
        <time>2013-01-07T03:48:05Z</time>
      </trkpt>
      <trkpt lat="-21.19247" lon="55.60312">
        <ele>1776.6538085938</ele>
        <time>2013-01-07T03:48:09Z</time>
      </trkpt>
      <trkpt lat="-21.19246" lon="55.60312">
        <ele>1774.7312011719</ele>
        <time>2013-01-07T03:48:11Z</time>
      </trkpt>
      <trkpt lat="-21.19241" lon="55.60319">
        <ele>1774.2504882812</ele>
        <time>2013-01-07T03:48:25Z</time>
      </trkpt>
      <trkpt lat="-21.1924" lon="55.60315">
        <ele>1771.8469238281</ele>
        <time>2013-01-07T03:48:33Z</time>
      </trkpt>
      <trkpt lat="-21.19241" lon="55.60313">
        <ele>1771.3662109375</ele>
        <time>2013-01-07T03:48:35Z</time>
      </trkpt>
      <trkpt lat="-21.19242" lon="55.603">
        <ele>1768.482421875</ele>
        <time>2013-01-07T03:48:50Z</time>
      </trkpt>
      <trkpt lat="-21.19242" lon="55.60297">
        <ele>1768.0017089844</ele>
        <time>2013-01-07T03:48:53Z</time>
      </trkpt>
      <trkpt lat="-21.19245" lon="55.60289">
        <ele>1767.0405273438</ele>
        <time>2013-01-07T03:49:00Z</time>
      </trkpt>
      <trkpt lat="-21.19247" lon="55.60276">
        <ele>1764.6372070312</ele>
        <time>2013-01-07T03:49:13Z</time>
      </trkpt>
      <trkpt lat="-21.19248" lon="55.60272">
        <ele>1763.67578125</ele>
        <time>2013-01-07T03:49:22Z</time>
      </trkpt>
      <trkpt lat="-21.19249" lon="55.60268">
        <ele>1763.1953125</ele>
        <time>2013-01-07T03:49:25Z</time>
      </trkpt>
      <trkpt lat="-21.19251" lon="55.60254">
        <ele>1761.7534179688</ele>
        <time>2013-01-07T03:49:33Z</time>
      </trkpt>
      <trkpt lat="-21.19255" lon="55.60242">
        <ele>1758.388671875</ele>
        <time>2013-01-07T03:49:45Z</time>
      </trkpt>
      <trkpt lat="-21.19256" lon="55.60233">
        <ele>1757.4274902344</ele>
        <time>2013-01-07T03:49:51Z</time>
      </trkpt>
      <trkpt lat="-21.19257" lon="55.60232">
        <ele>1755.5046386719</ele>
        <time>2013-01-07T03:49:58Z</time>
      </trkpt>
      <trkpt lat="-21.19261" lon="55.60229">
        <ele>1753.58203125</ele>
        <time>2013-01-07T03:50:04Z</time>
      </trkpt>
      <trkpt lat="-21.19268" lon="55.60225">
        <ele>1751.6594238281</ele>
        <time>2013-01-07T03:50:11Z</time>
      </trkpt>
      <trkpt lat="-21.1926" lon="55.60214">
        <ele>1750.2175292969</ele>
        <time>2013-01-07T03:50:21Z</time>
      </trkpt>
      <trkpt lat="-21.19256" lon="55.60205">
        <ele>1747.3334960938</ele>
        <time>2013-01-07T03:50:31Z</time>
      </trkpt>
      <trkpt lat="-21.19256" lon="55.60201">
        <ele>1747.3334960938</ele>
        <time>2013-01-07T03:50:35Z</time>
      </trkpt>
      <trkpt lat="-21.19253" lon="55.60197">
        <ele>1746.8527832031</ele>
        <time>2013-01-07T03:50:39Z</time>
      </trkpt>
      <trkpt lat="-21.19249" lon="55.60193">
        <ele>1745.8916015625</ele>
        <time>2013-01-07T03:50:43Z</time>
      </trkpt>
      <trkpt lat="-21.19248" lon="55.60182">
        <ele>1744.4494628906</ele>
        <time>2013-01-07T03:50:51Z</time>
      </trkpt>
      <trkpt lat="-21.19244" lon="55.60178">
        <ele>1743.0075683594</ele>
        <time>2013-01-07T03:50:57Z</time>
      </trkpt>
      <trkpt lat="-21.19242" lon="55.6017">
        <ele>1741.0849609375</ele>
        <time>2013-01-07T03:51:06Z</time>
      </trkpt>
      <trkpt lat="-21.1924" lon="55.60157">
        <ele>1741.5656738281</ele>
        <time>2013-01-07T03:51:23Z</time>
      </trkpt>
      <trkpt lat="-21.19235" lon="55.60147">
        <ele>1740.6042480469</ele>
        <time>2013-01-07T03:51:38Z</time>
      </trkpt>
      <trkpt lat="-21.1924" lon="55.6014">
        <ele>1741.0849609375</ele>
        <time>2013-01-07T03:51:48Z</time>
      </trkpt>
      <trkpt lat="-21.1924" lon="55.60137">
        <ele>1740.6042480469</ele>
        <time>2013-01-07T03:51:53Z</time>
      </trkpt>
      <trkpt lat="-21.19232" lon="55.60121">
        <ele>1738.681640625</ele>
        <time>2013-01-07T03:52:06Z</time>
      </trkpt>
      <trkpt lat="-21.19232" lon="55.60101">
        <ele>1739.162109375</ele>
        <time>2013-01-07T03:52:18Z</time>
      </trkpt>
      <trkpt lat="-21.19234" lon="55.60091">
        <ele>1738.2009277344</ele>
        <time>2013-01-07T03:52:31Z</time>
      </trkpt>
      <trkpt lat="-21.19236" lon="55.60083">
        <ele>1737.2395019531</ele>
        <time>2013-01-07T03:52:44Z</time>
      </trkpt>
      <trkpt lat="-21.19229" lon="55.60068">
        <ele>1733.875</ele>
        <time>2013-01-07T03:53:00Z</time>
      </trkpt>
      <trkpt lat="-21.19229" lon="55.60057">
        <ele>1736.2783203125</ele>
        <time>2013-01-07T03:53:10Z</time>
      </trkpt>
      <trkpt lat="-21.19229" lon="55.60051">
        <ele>1735.7976074219</ele>
        <time>2013-01-07T03:53:17Z</time>
      </trkpt>
      <trkpt lat="-21.19226" lon="55.60037">
        <ele>1736.7587890625</ele>
        <time>2013-01-07T03:53:22Z</time>
      </trkpt>
      <trkpt lat="-21.19226" lon="55.60033">
        <ele>1736.2783203125</ele>
        <time>2013-01-07T03:53:25Z</time>
      </trkpt>
      <trkpt lat="-21.19225" lon="55.60028">
        <ele>1736.2783203125</ele>
        <time>2013-01-07T03:53:29Z</time>
      </trkpt>
      <trkpt lat="-21.19224" lon="55.60025">
        <ele>1736.2783203125</ele>
        <time>2013-01-07T03:53:31Z</time>
      </trkpt>
      <trkpt lat="-21.19217" lon="55.60009">
        <ele>1738.681640625</ele>
        <time>2013-01-07T03:53:44Z</time>
      </trkpt>
      <trkpt lat="-21.19217" lon="55.59993">
        <ele>1735.7976074219</ele>
        <time>2013-01-07T03:53:59Z</time>
      </trkpt>
      <trkpt lat="-21.19214" lon="55.59985">
        <ele>1732.4331054688</ele>
        <time>2013-01-07T03:54:07Z</time>
      </trkpt>
      <trkpt lat="-21.19214" lon="55.59984">
        <ele>1732.4331054688</ele>
        <time>2013-01-07T03:54:08Z</time>
      </trkpt>
      <trkpt lat="-21.19208" lon="55.59975">
        <ele>1730.5104980469</ele>
        <time>2013-01-07T03:54:15Z</time>
      </trkpt>
      <trkpt lat="-21.19202" lon="55.59968">
        <ele>1730.0297851562</ele>
        <time>2013-01-07T03:54:23Z</time>
      </trkpt>
      <trkpt lat="-21.19194" lon="55.59957">
        <ele>1728.587890625</ele>
        <time>2013-01-07T03:54:35Z</time>
      </trkpt>
      <trkpt lat="-21.19192" lon="55.59955">
        <ele>1730.0297851562</ele>
        <time>2013-01-07T03:54:38Z</time>
      </trkpt>
      <trkpt lat="-21.19192" lon="55.59953">
        <ele>1728.587890625</ele>
        <time>2013-01-07T03:54:39Z</time>
      </trkpt>
      <trkpt lat="-21.1918" lon="55.59936">
        <ele>1728.587890625</ele>
        <time>2013-01-07T03:54:55Z</time>
      </trkpt>
      <trkpt lat="-21.19173" lon="55.59931">
        <ele>1731.9523925781</ele>
        <time>2013-01-07T03:55:07Z</time>
      </trkpt>
      <trkpt lat="-21.19172" lon="55.59927">
        <ele>1732.4331054688</ele>
        <time>2013-01-07T03:55:12Z</time>
      </trkpt>
      <trkpt lat="-21.1917" lon="55.59912">
        <ele>1736.2783203125</ele>
        <time>2013-01-07T03:55:25Z</time>
      </trkpt>
      <trkpt lat="-21.19166" lon="55.59899">
        <ele>1737.7202148438</ele>
        <time>2013-01-07T03:55:38Z</time>
      </trkpt>
      <trkpt lat="-21.19166" lon="55.59893">
        <ele>1738.2009277344</ele>
        <time>2013-01-07T03:55:43Z</time>
      </trkpt>
      <trkpt lat="-21.19165" lon="55.59887">
        <ele>1738.681640625</ele>
        <time>2013-01-07T03:55:47Z</time>
      </trkpt>
      <trkpt lat="-21.19161" lon="55.59882">
        <ele>1738.681640625</ele>
        <time>2013-01-07T03:55:52Z</time>
      </trkpt>
      <trkpt lat="-21.19157" lon="55.59881">
        <ele>1739.6428222656</ele>
        <time>2013-01-07T03:56:00Z</time>
      </trkpt>
      <trkpt lat="-21.19152" lon="55.5988">
        <ele>1740.1237792969</ele>
        <time>2013-01-07T03:56:04Z</time>
      </trkpt>
      <trkpt lat="-21.19139" lon="55.59876">
        <ele>1739.6428222656</ele>
        <time>2013-01-07T03:56:13Z</time>
      </trkpt>
      <trkpt lat="-21.19133" lon="55.59874">
        <ele>1739.6428222656</ele>
        <time>2013-01-07T03:56:18Z</time>
      </trkpt>
      <trkpt lat="-21.19123" lon="55.59864">
        <ele>1739.6428222656</ele>
        <time>2013-01-07T03:56:32Z</time>
      </trkpt>
      <trkpt lat="-21.19121" lon="55.59863">
        <ele>1740.6042480469</ele>
        <time>2013-01-07T03:56:35Z</time>
      </trkpt>
      <trkpt lat="-21.19114" lon="55.59854">
        <ele>1739.6428222656</ele>
        <time>2013-01-07T03:56:46Z</time>
      </trkpt>
      <trkpt lat="-21.1911" lon="55.5985">
        <ele>1738.2009277344</ele>
        <time>2013-01-07T03:56:58Z</time>
      </trkpt>
      <trkpt lat="-21.19107" lon="55.5984">
        <ele>1736.7587890625</ele>
        <time>2013-01-07T03:57:11Z</time>
      </trkpt>
      <trkpt lat="-21.19101" lon="55.59832">
        <ele>1736.7587890625</ele>
        <time>2013-01-07T03:57:27Z</time>
      </trkpt>
      <trkpt lat="-21.19093" lon="55.59819">
        <ele>1734.8364257812</ele>
        <time>2013-01-07T03:57:38Z</time>
      </trkpt>
      <trkpt lat="-21.19082" lon="55.59802">
        <ele>1733.875</ele>
        <time>2013-01-07T03:57:52Z</time>
      </trkpt>
      <trkpt lat="-21.19076" lon="55.59791">
        <ele>1732.9135742188</ele>
        <time>2013-01-07T03:58:01Z</time>
      </trkpt>
      <trkpt lat="-21.1907" lon="55.59777">
        <ele>1734.8364257812</ele>
        <time>2013-01-07T03:58:12Z</time>
      </trkpt>
      <trkpt lat="-21.19069" lon="55.59775">
        <ele>1734.8364257812</ele>
        <time>2013-01-07T03:58:13Z</time>
      </trkpt>
      <trkpt lat="-21.19065" lon="55.59771">
        <ele>1735.3168945312</ele>
        <time>2013-01-07T03:58:17Z</time>
      </trkpt>
      <trkpt lat="-21.19062" lon="55.59768">
        <ele>1736.7587890625</ele>
        <time>2013-01-07T03:58:26Z</time>
      </trkpt>
      <trkpt lat="-21.19057" lon="55.5976">
        <ele>1737.7202148438</ele>
        <time>2013-01-07T03:58:37Z</time>
      </trkpt>
      <trkpt lat="-21.19053" lon="55.59755">
        <ele>1738.2009277344</ele>
        <time>2013-01-07T03:58:44Z</time>
      </trkpt>
      <trkpt lat="-21.19048" lon="55.59748">
        <ele>1738.681640625</ele>
        <time>2013-01-07T03:58:50Z</time>
      </trkpt>
      <trkpt lat="-21.19048" lon="55.59746">
        <ele>1739.162109375</ele>
        <time>2013-01-07T03:58:52Z</time>
      </trkpt>
      <trkpt lat="-21.19041" lon="55.5974">
        <ele>1739.6428222656</ele>
        <time>2013-01-07T03:58:59Z</time>
      </trkpt>
      <trkpt lat="-21.19038" lon="55.59732">
        <ele>1741.0849609375</ele>
        <time>2013-01-07T03:59:10Z</time>
      </trkpt>
      <trkpt lat="-21.19035" lon="55.59727">
        <ele>1741.0849609375</ele>
        <time>2013-01-07T03:59:15Z</time>
      </trkpt>
      <trkpt lat="-21.19034" lon="55.59721">
        <ele>1741.0849609375</ele>
        <time>2013-01-07T03:59:20Z</time>
      </trkpt>
      <trkpt lat="-21.19031" lon="55.59718">
        <ele>1742.5270996094</ele>
        <time>2013-01-07T03:59:25Z</time>
      </trkpt>
      <trkpt lat="-21.19026" lon="55.59713">
        <ele>1743.0075683594</ele>
        <time>2013-01-07T03:59:30Z</time>
      </trkpt>
      <trkpt lat="-21.19019" lon="55.59694">
        <ele>1742.5270996094</ele>
        <time>2013-01-07T03:59:48Z</time>
      </trkpt>
      <trkpt lat="-21.19013" lon="55.59685">
        <ele>1742.5270996094</ele>
        <time>2013-01-07T04:00:02Z</time>
      </trkpt>
      <trkpt lat="-21.19009" lon="55.59679">
        <ele>1743.9689941406</ele>
        <time>2013-01-07T04:00:07Z</time>
      </trkpt>
      <trkpt lat="-21.18998" lon="55.59661">
        <ele>1744.4494628906</ele>
        <time>2013-01-07T04:00:22Z</time>
      </trkpt>
      <trkpt lat="-21.18987" lon="55.5964">
        <ele>1744.4494628906</ele>
        <time>2013-01-07T04:00:39Z</time>
      </trkpt>
      <trkpt lat="-21.18981" lon="55.5963">
        <ele>1743.0075683594</ele>
        <time>2013-01-07T04:00:47Z</time>
      </trkpt>
      <trkpt lat="-21.18976" lon="55.59625">
        <ele>1742.5270996094</ele>
        <time>2013-01-07T04:00:52Z</time>
      </trkpt>
      <trkpt lat="-21.18964" lon="55.59601">
        <ele>1743.0075683594</ele>
        <time>2013-01-07T04:01:10Z</time>
      </trkpt>
      <trkpt lat="-21.18952" lon="55.59577">
        <ele>1742.0463867188</ele>
        <time>2013-01-07T04:01:28Z</time>
      </trkpt>
      <trkpt lat="-21.18938" lon="55.59558">
        <ele>1741.5656738281</ele>
        <time>2013-01-07T04:01:42Z</time>
      </trkpt>
      <trkpt lat="-21.18931" lon="55.59544">
        <ele>1741.0849609375</ele>
        <time>2013-01-07T04:01:54Z</time>
      </trkpt>
      <trkpt lat="-21.18916" lon="55.59517">
        <ele>1741.5656738281</ele>
        <time>2013-01-07T04:02:14Z</time>
      </trkpt>
      <trkpt lat="-21.18915" lon="55.59517">
        <ele>1741.5656738281</ele>
        <time>2013-01-07T04:02:15Z</time>
      </trkpt>
      <trkpt lat="-21.18913" lon="55.59516">
        <ele>1740.6042480469</ele>
        <time>2013-01-07T04:02:17Z</time>
      </trkpt>
      <trkpt lat="-21.18911" lon="55.59511">
        <ele>1740.6042480469</ele>
        <time>2013-01-07T04:02:21Z</time>
      </trkpt>
      <trkpt lat="-21.18899" lon="55.59496">
        <ele>1740.1237792969</ele>
        <time>2013-01-07T04:02:35Z</time>
      </trkpt>
      <trkpt lat="-21.18895" lon="55.59491">
        <ele>1740.1237792969</ele>
        <time>2013-01-07T04:02:39Z</time>
      </trkpt>
      <trkpt lat="-21.18893" lon="55.59484">
        <ele>1738.681640625</ele>
        <time>2013-01-07T04:02:42Z</time>
      </trkpt>
      <trkpt lat="-21.18892" lon="55.59484">
        <ele>1739.6428222656</ele>
        <time>2013-01-07T04:02:43Z</time>
      </trkpt>
      <trkpt lat="-21.18886" lon="55.59473">
        <ele>1737.7202148438</ele>
        <time>2013-01-07T04:02:51Z</time>
      </trkpt>
      <trkpt lat="-21.18882" lon="55.59466">
        <ele>1737.2395019531</ele>
        <time>2013-01-07T04:03:03Z</time>
      </trkpt>
      <trkpt lat="-21.18875" lon="55.59453">
        <ele>1737.2395019531</ele>
        <time>2013-01-07T04:03:14Z</time>
      </trkpt>
      <trkpt lat="-21.18869" lon="55.59441">
        <ele>1737.2395019531</ele>
        <time>2013-01-07T04:03:25Z</time>
      </trkpt>
      <trkpt lat="-21.18862" lon="55.59428">
        <ele>1733.875</ele>
        <time>2013-01-07T04:03:36Z</time>
      </trkpt>
      <trkpt lat="-21.18856" lon="55.59418">
        <ele>1733.3942871094</ele>
        <time>2013-01-07T04:03:51Z</time>
      </trkpt>
      <trkpt lat="-21.18852" lon="55.59415">
        <ele>1734.8364257812</ele>
        <time>2013-01-07T04:04:04Z</time>
      </trkpt>
      <trkpt lat="-21.18849" lon="55.59411">
        <ele>1734.8364257812</ele>
        <time>2013-01-07T04:04:22Z</time>
      </trkpt>
      <trkpt lat="-21.18849" lon="55.59408">
        <ele>1734.3557128906</ele>
        <time>2013-01-07T04:04:27Z</time>
      </trkpt>
      <trkpt lat="-21.18845" lon="55.59401">
        <ele>1733.875</ele>
        <time>2013-01-07T04:04:32Z</time>
      </trkpt>
      <trkpt lat="-21.18838" lon="55.59392">
        <ele>1736.2783203125</ele>
        <time>2013-01-07T04:04:45Z</time>
      </trkpt>
      <trkpt lat="-21.18825" lon="55.59385">
        <ele>1735.3168945312</ele>
        <time>2013-01-07T04:04:58Z</time>
      </trkpt>
      <trkpt lat="-21.18807" lon="55.5938">
        <ele>1731.9523925781</ele>
        <time>2013-01-07T04:05:14Z</time>
      </trkpt>
      <trkpt lat="-21.18789" lon="55.59379">
        <ele>1730.9912109375</ele>
        <time>2013-01-07T04:05:30Z</time>
      </trkpt>
      <trkpt lat="-21.18783" lon="55.59379">
        <ele>1730.9912109375</ele>
        <time>2013-01-07T04:05:34Z</time>
      </trkpt>
      <trkpt lat="-21.18773" lon="55.59378">
        <ele>1730.9912109375</ele>
        <time>2013-01-07T04:05:39Z</time>
      </trkpt>
      <trkpt lat="-21.18758" lon="55.59382">
        <ele>1730.0297851562</ele>
        <time>2013-01-07T04:05:53Z</time>
      </trkpt>
      <trkpt lat="-21.18756" lon="55.59385">
        <ele>1730.0297851562</ele>
        <time>2013-01-07T04:05:55Z</time>
      </trkpt>
      <trkpt lat="-21.18743" lon="55.59385">
        <ele>1730.0297851562</ele>
        <time>2013-01-07T04:06:06Z</time>
      </trkpt>
      <trkpt lat="-21.18734" lon="55.59385">
        <ele>1730.5104980469</ele>
        <time>2013-01-07T04:06:31Z</time>
      </trkpt>
      <trkpt lat="-21.18719" lon="55.59387">
        <ele>1728.587890625</ele>
        <time>2013-01-07T04:06:45Z</time>
      </trkpt>
      <trkpt lat="-21.18723" lon="55.59387">
        <ele>1727.6264648438</ele>
        <time>2013-01-07T04:07:03Z</time>
      </trkpt>
      <trkpt lat="-21.18722" lon="55.59388">
        <ele>1728.587890625</ele>
        <time>2013-01-07T04:07:19Z</time>
      </trkpt>
      <trkpt lat="-21.18721" lon="55.59387">
        <ele>1728.1071777344</ele>
        <time>2013-01-07T04:07:40Z</time>
      </trkpt>
      <trkpt lat="-21.18716" lon="55.59392">
        <ele>1726.1845703125</ele>
        <time>2013-01-07T04:07:48Z</time>
      </trkpt>
      <trkpt lat="-21.1871" lon="55.59392">
        <ele>1725.7038574219</ele>
        <time>2013-01-07T04:07:52Z</time>
      </trkpt>
      <trkpt lat="-21.187" lon="55.5939">
        <ele>1723.7810058594</ele>
        <time>2013-01-07T04:07:59Z</time>
      </trkpt>
      <trkpt lat="-21.18696" lon="55.59391">
        <ele>1721.3776855469</ele>
        <time>2013-01-07T04:08:03Z</time>
      </trkpt>
      <trkpt lat="-21.18694" lon="55.59391">
        <ele>1721.3776855469</ele>
        <time>2013-01-07T04:08:05Z</time>
      </trkpt>
      <trkpt lat="-21.18688" lon="55.59392">
        <ele>1720.8972167969</ele>
        <time>2013-01-07T04:08:14Z</time>
      </trkpt>
      <trkpt lat="-21.18694" lon="55.59403">
        <ele>1720.4165039062</ele>
        <time>2013-01-07T04:08:25Z</time>
      </trkpt>
      <trkpt lat="-21.18689" lon="55.59409">
        <ele>1720.4165039062</ele>
        <time>2013-01-07T04:08:32Z</time>
      </trkpt>
      <trkpt lat="-21.18684" lon="55.59415">
        <ele>1720.8972167969</ele>
        <time>2013-01-07T04:08:39Z</time>
      </trkpt>
      <trkpt lat="-21.18683" lon="55.59418">
        <ele>1721.8583984375</ele>
        <time>2013-01-07T04:08:42Z</time>
      </trkpt>
      <trkpt lat="-21.18683" lon="55.59427">
        <ele>1722.8198242188</ele>
        <time>2013-01-07T04:08:48Z</time>
      </trkpt>
      <trkpt lat="-21.18684" lon="55.59437">
        <ele>1723.3005371094</ele>
        <time>2013-01-07T04:08:56Z</time>
      </trkpt>
      <trkpt lat="-21.18682" lon="55.59452">
        <ele>1722.8198242188</ele>
        <time>2013-01-07T04:09:08Z</time>
      </trkpt>
      <trkpt lat="-21.18682" lon="55.59455">
        <ele>1723.3005371094</ele>
        <time>2013-01-07T04:09:10Z</time>
      </trkpt>
      <trkpt lat="-21.18684" lon="55.59462">
        <ele>1722.8198242188</ele>
        <time>2013-01-07T04:09:15Z</time>
      </trkpt>
      <trkpt lat="-21.18686" lon="55.59466">
        <ele>1723.3005371094</ele>
        <time>2013-01-07T04:09:19Z</time>
      </trkpt>
      <trkpt lat="-21.18687" lon="55.59469">
        <ele>1723.3005371094</ele>
        <time>2013-01-07T04:09:22Z</time>
      </trkpt>
      <trkpt lat="-21.1869" lon="55.59479">
        <ele>1723.7810058594</ele>
        <time>2013-01-07T04:09:30Z</time>
      </trkpt>
      <trkpt lat="-21.18695" lon="55.59483">
        <ele>1724.7426757812</ele>
        <time>2013-01-07T04:09:35Z</time>
      </trkpt>
      <trkpt lat="-21.18696" lon="55.59487">
        <ele>1723.7810058594</ele>
        <time>2013-01-07T04:09:40Z</time>
      </trkpt>
      <trkpt lat="-21.18697" lon="55.59488">
        <ele>1724.2619628906</ele>
        <time>2013-01-07T04:09:44Z</time>
      </trkpt>
      <trkpt lat="-21.18699" lon="55.59493">
        <ele>1725.7038574219</ele>
        <time>2013-01-07T04:10:02Z</time>
      </trkpt>
      <trkpt lat="-21.18698" lon="55.59492">
        <ele>1724.7426757812</ele>
        <time>2013-01-07T04:10:18Z</time>
      </trkpt>
      <trkpt lat="-21.18696" lon="55.59488">
        <ele>1724.7426757812</ele>
        <time>2013-01-07T04:10:42Z</time>
      </trkpt>
      <trkpt lat="-21.18702" lon="55.59496">
        <ele>1725.7038574219</ele>
        <time>2013-01-07T04:10:50Z</time>
      </trkpt>
      <trkpt lat="-21.18715" lon="55.59501">
        <ele>1727.1459960938</ele>
        <time>2013-01-07T04:11:00Z</time>
      </trkpt>
      <trkpt lat="-21.18718" lon="55.59501">
        <ele>1728.1071777344</ele>
        <time>2013-01-07T04:11:03Z</time>
      </trkpt>
      <trkpt lat="-21.18722" lon="55.595">
        <ele>1728.1071777344</ele>
        <time>2013-01-07T04:11:07Z</time>
      </trkpt>
      <trkpt lat="-21.18732" lon="55.59498">
        <ele>1730.5104980469</ele>
        <time>2013-01-07T04:11:16Z</time>
      </trkpt>
      <trkpt lat="-21.18753" lon="55.59491">
        <ele>1730.5104980469</ele>
        <time>2013-01-07T04:11:35Z</time>
      </trkpt>
      <trkpt lat="-21.18777" lon="55.59481">
        <ele>1730.5104980469</ele>
        <time>2013-01-07T04:11:57Z</time>
      </trkpt>
      <trkpt lat="-21.18782" lon="55.59479">
        <ele>1731.9523925781</ele>
        <time>2013-01-07T04:12:00Z</time>
      </trkpt>
      <trkpt lat="-21.18809" lon="55.59475">
        <ele>1732.4331054688</ele>
        <time>2013-01-07T04:12:22Z</time>
      </trkpt>
      <trkpt lat="-21.18821" lon="55.5948">
        <ele>1735.7976074219</ele>
        <time>2013-01-07T04:12:35Z</time>
      </trkpt>
      <trkpt lat="-21.18835" lon="55.59489">
        <ele>1736.7587890625</ele>
        <time>2013-01-07T04:12:51Z</time>
      </trkpt>
      <trkpt lat="-21.18852" lon="55.59503">
        <ele>1738.2009277344</ele>
        <time>2013-01-07T04:13:11Z</time>
      </trkpt>
      <trkpt lat="-21.1886" lon="55.59511">
        <ele>1738.2009277344</ele>
        <time>2013-01-07T04:13:19Z</time>
      </trkpt>
      <trkpt lat="-21.18863" lon="55.59515">
        <ele>1740.1237792969</ele>
        <time>2013-01-07T04:13:23Z</time>
      </trkpt>
      <trkpt lat="-21.18864" lon="55.59518">
        <ele>1737.7202148438</ele>
        <time>2013-01-07T04:13:25Z</time>
      </trkpt>
      <trkpt lat="-21.18864" lon="55.59518">
        <ele>1738.681640625</ele>
        <time>2013-01-07T04:13:26Z</time>
      </trkpt>
      <trkpt lat="-21.1888" lon="55.59528">
        <ele>1739.162109375</ele>
        <time>2013-01-07T04:13:42Z</time>
      </trkpt>
      <trkpt lat="-21.18882" lon="55.59534">
        <ele>1739.6428222656</ele>
        <time>2013-01-07T04:13:46Z</time>
      </trkpt>
      <trkpt lat="-21.18885" lon="55.59537">
        <ele>1739.6428222656</ele>
        <time>2013-01-07T04:13:50Z</time>
      </trkpt>
      <trkpt lat="-21.18887" lon="55.59546">
        <ele>1740.6042480469</ele>
        <time>2013-01-07T04:13:56Z</time>
      </trkpt>
      <trkpt lat="-21.1889" lon="55.59549">
        <ele>1738.681640625</ele>
        <time>2013-01-07T04:13:58Z</time>
      </trkpt>
      <trkpt lat="-21.18891" lon="55.59556">
        <ele>1738.681640625</ele>
        <time>2013-01-07T04:14:04Z</time>
      </trkpt>
      <trkpt lat="-21.18893" lon="55.59563">
        <ele>1742.0463867188</ele>
        <time>2013-01-07T04:14:11Z</time>
      </trkpt>
      <trkpt lat="-21.18897" lon="55.59569">
        <ele>1741.0849609375</ele>
        <time>2013-01-07T04:14:23Z</time>
      </trkpt>
      <trkpt lat="-21.18897" lon="55.59573">
        <ele>1741.0849609375</ele>
        <time>2013-01-07T04:14:28Z</time>
      </trkpt>
      <trkpt lat="-21.18896" lon="55.59579">
        <ele>1742.0463867188</ele>
        <time>2013-01-07T04:14:33Z</time>
      </trkpt>
      <trkpt lat="-21.189" lon="55.59582">
        <ele>1742.5270996094</ele>
        <time>2013-01-07T04:14:46Z</time>
      </trkpt>
      <trkpt lat="-21.18896" lon="55.59586">
        <ele>1744.9301757812</ele>
        <time>2013-01-07T04:15:05Z</time>
      </trkpt>
      <trkpt lat="-21.18896" lon="55.59586">
        <ele>1743.9689941406</ele>
        <time>2013-01-07T04:15:18Z</time>
      </trkpt>
      <trkpt lat="-21.18897" lon="55.59585">
        <ele>1743.48828125</ele>
        <time>2013-01-07T04:15:32Z</time>
      </trkpt>
      <trkpt lat="-21.18897" lon="55.59585">
        <ele>1744.4494628906</ele>
        <time>2013-01-07T04:15:46Z</time>
      </trkpt>
      <trkpt lat="-21.18897" lon="55.59585">
        <ele>1743.48828125</ele>
        <time>2013-01-07T04:15:56Z</time>
      </trkpt>
      <trkpt lat="-21.18896" lon="55.59584">
        <ele>1743.0075683594</ele>
        <time>2013-01-07T04:16:19Z</time>
      </trkpt>
      <trkpt lat="-21.18896" lon="55.59584">
        <ele>1744.4494628906</ele>
        <time>2013-01-07T04:16:21Z</time>
      </trkpt>
      <trkpt lat="-21.18892" lon="55.59585">
        <ele>1743.9689941406</ele>
        <time>2013-01-07T04:16:34Z</time>
      </trkpt>
      <trkpt lat="-21.18888" lon="55.59586">
        <ele>1745.8916015625</ele>
        <time>2013-01-07T04:16:48Z</time>
      </trkpt>
      <trkpt lat="-21.18886" lon="55.59584">
        <ele>1744.9301757812</ele>
        <time>2013-01-07T04:16:59Z</time>
      </trkpt>
      <trkpt lat="-21.18882" lon="55.59582">
        <ele>1744.4494628906</ele>
        <time>2013-01-07T04:17:05Z</time>
      </trkpt>
      <trkpt lat="-21.18872" lon="55.59574">
        <ele>1743.48828125</ele>
        <time>2013-01-07T04:17:18Z</time>
      </trkpt>
      <trkpt lat="-21.18868" lon="55.59572">
        <ele>1744.4494628906</ele>
        <time>2013-01-07T04:17:24Z</time>
      </trkpt>
      <trkpt lat="-21.18865" lon="55.5957">
        <ele>1745.4108886719</ele>
        <time>2013-01-07T04:17:30Z</time>
      </trkpt>
      <trkpt lat="-21.18861" lon="55.59574">
        <ele>1744.4494628906</ele>
        <time>2013-01-07T04:17:45Z</time>
      </trkpt>
      <trkpt lat="-21.1886" lon="55.59576">
        <ele>1745.4108886719</ele>
        <time>2013-01-07T04:17:48Z</time>
      </trkpt>
      <trkpt lat="-21.18857" lon="55.59583">
        <ele>1743.9689941406</ele>
        <time>2013-01-07T04:17:55Z</time>
      </trkpt>
      <trkpt lat="-21.18856" lon="55.59587">
        <ele>1743.0075683594</ele>
        <time>2013-01-07T04:17:59Z</time>
      </trkpt>
      <trkpt lat="-21.18855" lon="55.5959">
        <ele>1744.9301757812</ele>
        <time>2013-01-07T04:18:06Z</time>
      </trkpt>
      <trkpt lat="-21.18848" lon="55.59599">
        <ele>1743.9689941406</ele>
        <time>2013-01-07T04:18:24Z</time>
      </trkpt>
      <trkpt lat="-21.18842" lon="55.59609">
        <ele>1743.48828125</ele>
        <time>2013-01-07T04:18:36Z</time>
      </trkpt>
      <trkpt lat="-21.1884" lon="55.59611">
        <ele>1743.9689941406</ele>
        <time>2013-01-07T04:18:42Z</time>
      </trkpt>
      <trkpt lat="-21.18832" lon="55.59617">
        <ele>1744.4494628906</ele>
        <time>2013-01-07T04:19:00Z</time>
      </trkpt>
      <trkpt lat="-21.18828" lon="55.59622">
        <ele>1745.8916015625</ele>
        <time>2013-01-07T04:19:05Z</time>
      </trkpt>
      <trkpt lat="-21.18825" lon="55.59629">
        <ele>1746.3723144531</ele>
        <time>2013-01-07T04:19:22Z</time>
      </trkpt>
      <trkpt lat="-21.18828" lon="55.59641">
        <ele>1746.8527832031</ele>
        <time>2013-01-07T04:19:35Z</time>
      </trkpt>
      <trkpt lat="-21.18828" lon="55.59646">
        <ele>1745.8916015625</ele>
        <time>2013-01-07T04:19:50Z</time>
      </trkpt>
      <trkpt lat="-21.18826" lon="55.59651">
        <ele>1746.8527832031</ele>
        <time>2013-01-07T04:19:54Z</time>
      </trkpt>
      <trkpt lat="-21.18824" lon="55.5966">
        <ele>1745.8916015625</ele>
        <time>2013-01-07T04:20:01Z</time>
      </trkpt>
      <trkpt lat="-21.18823" lon="55.59671">
        <ele>1745.4108886719</ele>
        <time>2013-01-07T04:20:10Z</time>
      </trkpt>
      <trkpt lat="-21.18817" lon="55.59682">
        <ele>1745.8916015625</ele>
        <time>2013-01-07T04:20:20Z</time>
      </trkpt>
      <trkpt lat="-21.1882" lon="55.5969">
        <ele>1745.8916015625</ele>
        <time>2013-01-07T04:20:28Z</time>
      </trkpt>
      <trkpt lat="-21.18815" lon="55.59697">
        <ele>1746.3723144531</ele>
        <time>2013-01-07T04:20:36Z</time>
      </trkpt>
      <trkpt lat="-21.18804" lon="55.59722">
        <ele>1746.8527832031</ele>
        <time>2013-01-07T04:20:58Z</time>
      </trkpt>
      <trkpt lat="-21.18803" lon="55.59733">
        <ele>1746.8527832031</ele>
        <time>2013-01-07T04:21:12Z</time>
      </trkpt>
      <trkpt lat="-21.18802" lon="55.59735">
        <ele>1746.8527832031</ele>
        <time>2013-01-07T04:21:14Z</time>
      </trkpt>
      <trkpt lat="-21.18793" lon="55.59744">
        <ele>1747.8142089844</ele>
        <time>2013-01-07T04:21:29Z</time>
      </trkpt>
      <trkpt lat="-21.18787" lon="55.59755">
        <ele>1747.8142089844</ele>
        <time>2013-01-07T04:21:44Z</time>
      </trkpt>
      <trkpt lat="-21.18786" lon="55.59757">
        <ele>1747.3334960938</ele>
        <time>2013-01-07T04:21:46Z</time>
      </trkpt>
      <trkpt lat="-21.18781" lon="55.59772">
        <ele>1747.3334960938</ele>
        <time>2013-01-07T04:21:58Z</time>
      </trkpt>
      <trkpt lat="-21.18778" lon="55.59779">
        <ele>1748.2946777344</ele>
        <time>2013-01-07T04:22:04Z</time>
      </trkpt>
      <trkpt lat="-21.18771" lon="55.5979">
        <ele>1748.2946777344</ele>
        <time>2013-01-07T04:22:18Z</time>
      </trkpt>
      <trkpt lat="-21.18758" lon="55.59797">
        <ele>1748.775390625</ele>
        <time>2013-01-07T04:22:32Z</time>
      </trkpt>
      <trkpt lat="-21.18755" lon="55.59799">
        <ele>1749.2561035156</ele>
        <time>2013-01-07T04:22:38Z</time>
      </trkpt>
      <trkpt lat="-21.18748" lon="55.59815">
        <ele>1750.2175292969</ele>
        <time>2013-01-07T04:22:54Z</time>
      </trkpt>
      <trkpt lat="-21.18747" lon="55.5982">
        <ele>1749.7368164062</ele>
        <time>2013-01-07T04:22:57Z</time>
      </trkpt>
      <trkpt lat="-21.18745" lon="55.59823">
        <ele>1749.2561035156</ele>
        <time>2013-01-07T04:23:00Z</time>
      </trkpt>
      <trkpt lat="-21.18745" lon="55.59832">
        <ele>1749.7368164062</ele>
        <time>2013-01-07T04:23:10Z</time>
      </trkpt>
      <trkpt lat="-21.18746" lon="55.59837">
        <ele>1749.7368164062</ele>
        <time>2013-01-07T04:23:14Z</time>
      </trkpt>
      <trkpt lat="-21.1875" lon="55.59843">
        <ele>1750.6979980469</ele>
        <time>2013-01-07T04:23:29Z</time>
      </trkpt>
      <trkpt lat="-21.18752" lon="55.59843">
        <ele>1751.1787109375</ele>
        <time>2013-01-07T04:23:44Z</time>
      </trkpt>
      <trkpt lat="-21.18749" lon="55.59852">
        <ele>1752.1398925781</ele>
        <time>2013-01-07T04:24:09Z</time>
      </trkpt>
      <trkpt lat="-21.18748" lon="55.59854">
        <ele>1752.1398925781</ele>
        <time>2013-01-07T04:24:13Z</time>
      </trkpt>
      <trkpt lat="-21.18747" lon="55.59855">
        <ele>1752.6206054688</ele>
        <time>2013-01-07T04:24:16Z</time>
      </trkpt>
      <trkpt lat="-21.18747" lon="55.59856">
        <ele>1753.58203125</ele>
        <time>2013-01-07T04:24:29Z</time>
      </trkpt>
      <trkpt lat="-21.18749" lon="55.59857">
        <ele>1754.0627441406</ele>
        <time>2013-01-07T04:24:34Z</time>
      </trkpt>
      <trkpt lat="-21.18751" lon="55.59851">
        <ele>1753.1013183594</ele>
        <time>2013-01-07T04:24:52Z</time>
      </trkpt>
      <trkpt lat="-21.18752" lon="55.59852">
        <ele>1754.0627441406</ele>
        <time>2013-01-07T04:24:57Z</time>
      </trkpt>
      <trkpt lat="-21.18737" lon="55.59866">
        <ele>1755.0239257812</ele>
        <time>2013-01-07T04:25:08Z</time>
      </trkpt>
      <trkpt lat="-21.18735" lon="55.59871">
        <ele>1755.5046386719</ele>
        <time>2013-01-07T04:25:16Z</time>
      </trkpt>
      <trkpt lat="-21.18736" lon="55.59877">
        <ele>1756.4660644531</ele>
        <time>2013-01-07T04:25:24Z</time>
      </trkpt>
      <trkpt lat="-21.1873" lon="55.59881">
        <ele>1757.908203125</ele>
        <time>2013-01-07T04:25:35Z</time>
      </trkpt>
      <trkpt lat="-21.18725" lon="55.59884">
        <ele>1759.8305664062</ele>
        <time>2013-01-07T04:25:41Z</time>
      </trkpt>
      <trkpt lat="-21.18725" lon="55.59885">
        <ele>1758.8693847656</ele>
        <time>2013-01-07T04:25:42Z</time>
      </trkpt>
      <trkpt lat="-21.18725" lon="55.59892">
        <ele>1761.2727050781</ele>
        <time>2013-01-07T04:25:53Z</time>
      </trkpt>
      <trkpt lat="-21.1872" lon="55.59894">
        <ele>1762.7145996094</ele>
        <time>2013-01-07T04:25:58Z</time>
      </trkpt>
      <trkpt lat="-21.18717" lon="55.59901">
        <ele>1765.5986328125</ele>
        <time>2013-01-07T04:26:13Z</time>
      </trkpt>
      <trkpt lat="-21.18711" lon="55.59906">
        <ele>1768.0017089844</ele>
        <time>2013-01-07T04:26:24Z</time>
      </trkpt>
      <trkpt lat="-21.18704" lon="55.59912">
        <ele>1771.3662109375</ele>
        <time>2013-01-07T04:26:38Z</time>
      </trkpt>
      <trkpt lat="-21.18696" lon="55.59921">
        <ele>1774.2504882812</ele>
        <time>2013-01-07T04:26:53Z</time>
      </trkpt>
      <trkpt lat="-21.18694" lon="55.59923">
        <ele>1774.2504882812</ele>
        <time>2013-01-07T04:26:56Z</time>
      </trkpt>
      <trkpt lat="-21.18692" lon="55.59927">
        <ele>1775.6923828125</ele>
        <time>2013-01-07T04:27:02Z</time>
      </trkpt>
      <trkpt lat="-21.1869" lon="55.59932">
        <ele>1777.6149902344</ele>
        <time>2013-01-07T04:27:14Z</time>
      </trkpt>
      <trkpt lat="-21.1869" lon="55.59936">
        <ele>1777.1345214844</ele>
        <time>2013-01-07T04:27:31Z</time>
      </trkpt>
      <trkpt lat="-21.18687" lon="55.59942">
        <ele>1778.095703125</ele>
        <time>2013-01-07T04:27:44Z</time>
      </trkpt>
      <trkpt lat="-21.18677" lon="55.5995">
        <ele>1779.5375976562</ele>
        <time>2013-01-07T04:27:56Z</time>
      </trkpt>
      <trkpt lat="-21.18674" lon="55.59953">
        <ele>1780.0183105469</ele>
        <time>2013-01-07T04:28:05Z</time>
      </trkpt>
      <trkpt lat="-21.18671" lon="55.5996">
        <ele>1780.9797363281</ele>
        <time>2013-01-07T04:28:18Z</time>
      </trkpt>
      <trkpt lat="-21.18661" lon="55.59971">
        <ele>1780.4990234375</ele>
        <time>2013-01-07T04:28:33Z</time>
      </trkpt>
      <trkpt lat="-21.18658" lon="55.59979">
        <ele>1782.4216308594</ele>
        <time>2013-01-07T04:28:44Z</time>
      </trkpt>
      <trkpt lat="-21.18656" lon="55.5998">
        <ele>1783.8635253906</ele>
        <time>2013-01-07T04:28:58Z</time>
      </trkpt>
      <trkpt lat="-21.18657" lon="55.5998">
        <ele>1782.9020996094</ele>
        <time>2013-01-07T04:29:06Z</time>
      </trkpt>
      <trkpt lat="-21.18659" lon="55.59981">
        <ele>1784.3442382812</ele>
        <time>2013-01-07T04:29:33Z</time>
      </trkpt>
      <trkpt lat="-21.18659" lon="55.59981">
        <ele>1785.7861328125</ele>
        <time>2013-01-07T04:29:50Z</time>
      </trkpt>
      <trkpt lat="-21.18662" lon="55.59981">
        <ele>1785.3054199219</ele>
        <time>2013-01-07T04:30:14Z</time>
      </trkpt>
      <trkpt lat="-21.18665" lon="55.59982">
        <ele>1786.2668457031</ele>
        <time>2013-01-07T04:30:17Z</time>
      </trkpt>
      <trkpt lat="-21.18666" lon="55.59982">
        <ele>1787.2280273438</ele>
        <time>2013-01-07T04:30:23Z</time>
      </trkpt>
      <trkpt lat="-21.18667" lon="55.59985">
        <ele>1789.1508789062</ele>
        <time>2013-01-07T04:30:32Z</time>
      </trkpt>
      <trkpt lat="-21.18662" lon="55.59995">
        <ele>1791.5541992188</ele>
        <time>2013-01-07T04:30:41Z</time>
      </trkpt>
      <trkpt lat="-21.1866" lon="55.60002">
        <ele>1792.515625</ele>
        <time>2013-01-07T04:30:48Z</time>
      </trkpt>
      <trkpt lat="-21.1866" lon="55.60004">
        <ele>1793.9575195312</ele>
        <time>2013-01-07T04:30:51Z</time>
      </trkpt>
      <trkpt lat="-21.18664" lon="55.60011">
        <ele>1795.8801269531</ele>
        <time>2013-01-07T04:31:05Z</time>
      </trkpt>
      <trkpt lat="-21.18665" lon="55.60013">
        <ele>1796.8413085938</ele>
        <time>2013-01-07T04:31:11Z</time>
      </trkpt>
      <trkpt lat="-21.18664" lon="55.60023">
        <ele>1799.7253417969</ele>
        <time>2013-01-07T04:31:23Z</time>
      </trkpt>
      <trkpt lat="-21.18666" lon="55.60024">
        <ele>1802.1284179688</ele>
        <time>2013-01-07T04:31:30Z</time>
      </trkpt>
      <trkpt lat="-21.18669" lon="55.60024">
        <ele>1802.1284179688</ele>
        <time>2013-01-07T04:31:34Z</time>
      </trkpt>
      <trkpt lat="-21.18674" lon="55.60031">
        <ele>1803.08984375</ele>
        <time>2013-01-07T04:31:45Z</time>
      </trkpt>
      <trkpt lat="-21.18671" lon="55.60034">
        <ele>1802.6091308594</ele>
        <time>2013-01-07T04:31:51Z</time>
      </trkpt>
      <trkpt lat="-21.1867" lon="55.60034">
        <ele>1805.9738769531</ele>
        <time>2013-01-07T04:31:52Z</time>
      </trkpt>
      <trkpt lat="-21.1867" lon="55.60035">
        <ele>1805.9738769531</ele>
        <time>2013-01-07T04:31:53Z</time>
      </trkpt>
      <trkpt lat="-21.18669" lon="55.60035">
        <ele>1803.5705566406</ele>
        <time>2013-01-07T04:31:54Z</time>
      </trkpt>
      <trkpt lat="-21.18667" lon="55.60037">
        <ele>1805.0126953125</ele>
        <time>2013-01-07T04:31:57Z</time>
      </trkpt>
      <trkpt lat="-21.1867" lon="55.60043">
        <ele>1807.8967285156</ele>
        <time>2013-01-07T04:32:13Z</time>
      </trkpt>
      <trkpt lat="-21.18681" lon="55.60049">
        <ele>1810.2998046875</ele>
        <time>2013-01-07T04:32:28Z</time>
      </trkpt>
      <trkpt lat="-21.18685" lon="55.60052">
        <ele>1809.8190917969</ele>
        <time>2013-01-07T04:32:32Z</time>
      </trkpt>
      <trkpt lat="-21.18688" lon="55.60052">
        <ele>1811.7419433594</ele>
        <time>2013-01-07T04:32:37Z</time>
      </trkpt>
      <trkpt lat="-21.18698" lon="55.60058">
        <ele>1813.1838378906</ele>
        <time>2013-01-07T04:32:50Z</time>
      </trkpt>
      <trkpt lat="-21.18705" lon="55.60059">
        <ele>1815.1064453125</ele>
        <time>2013-01-07T04:33:02Z</time>
      </trkpt>
      <trkpt lat="-21.18712" lon="55.60063">
        <ele>1815.5871582031</ele>
        <time>2013-01-07T04:33:08Z</time>
      </trkpt>
      <trkpt lat="-21.18715" lon="55.60067">
        <ele>1817.5095214844</ele>
        <time>2013-01-07T04:33:12Z</time>
      </trkpt>
      <trkpt lat="-21.18723" lon="55.60073">
        <ele>1818.9516601562</ele>
        <time>2013-01-07T04:33:25Z</time>
      </trkpt>
      <trkpt lat="-21.18731" lon="55.6008">
        <ele>1821.3549804688</ele>
        <time>2013-01-07T04:33:38Z</time>
      </trkpt>
      <trkpt lat="-21.18734" lon="55.60092">
        <ele>1824.2390136719</ele>
        <time>2013-01-07T04:33:53Z</time>
      </trkpt>
      <trkpt lat="-21.18737" lon="55.60096">
        <ele>1826.1616210938</ele>
        <time>2013-01-07T04:34:01Z</time>
      </trkpt>
      <trkpt lat="-21.1874" lon="55.60096">
        <ele>1826.6423339844</ele>
        <time>2013-01-07T04:34:03Z</time>
      </trkpt>
      <trkpt lat="-21.18751" lon="55.60097">
        <ele>1828.0842285156</ele>
        <time>2013-01-07T04:34:14Z</time>
      </trkpt>
      <trkpt lat="-21.18751" lon="55.60097">
        <ele>1828.5649414062</ele>
        <time>2013-01-07T04:34:16Z</time>
      </trkpt>
      <trkpt lat="-21.18751" lon="55.60099">
        <ele>1829.0454101562</ele>
        <time>2013-01-07T04:34:18Z</time>
      </trkpt>
      <trkpt lat="-21.1876" lon="55.60109">
        <ele>1831.4487304688</ele>
        <time>2013-01-07T04:34:35Z</time>
      </trkpt>
      <trkpt lat="-21.18763" lon="55.60116">
        <ele>1834.3327636719</ele>
        <time>2013-01-07T04:34:48Z</time>
      </trkpt>
      <trkpt lat="-21.18763" lon="55.60122">
        <ele>1836.2556152344</ele>
        <time>2013-01-07T04:34:57Z</time>
      </trkpt>
      <trkpt lat="-21.18763" lon="55.60125">
        <ele>1836.2556152344</ele>
        <time>2013-01-07T04:35:03Z</time>
      </trkpt>
      <trkpt lat="-21.18756" lon="55.60139">
        <ele>1836.7360839844</ele>
        <time>2013-01-07T04:35:16Z</time>
      </trkpt>
      <trkpt lat="-21.18753" lon="55.60145">
        <ele>1837.6975097656</ele>
        <time>2013-01-07T04:35:23Z</time>
      </trkpt>
      <trkpt lat="-21.1875" lon="55.60148">
        <ele>1837.6975097656</ele>
        <time>2013-01-07T04:35:27Z</time>
      </trkpt>
      <trkpt lat="-21.18748" lon="55.60162">
        <ele>1840.1008300781</ele>
        <time>2013-01-07T04:35:41Z</time>
      </trkpt>
      <trkpt lat="-21.18746" lon="55.60169">
        <ele>1840.5812988281</ele>
        <time>2013-01-07T04:35:51Z</time>
      </trkpt>
      <trkpt lat="-21.18744" lon="55.6018">
        <ele>1841.5427246094</ele>
        <time>2013-01-07T04:36:01Z</time>
      </trkpt>
      <trkpt lat="-21.18749" lon="55.60188">
        <ele>1840.5812988281</ele>
        <time>2013-01-07T04:36:10Z</time>
      </trkpt>
      <trkpt lat="-21.18753" lon="55.60191">
        <ele>1841.0620117188</ele>
        <time>2013-01-07T04:36:15Z</time>
      </trkpt>
      <trkpt lat="-21.18754" lon="55.60193">
        <ele>1841.0620117188</ele>
        <time>2013-01-07T04:36:18Z</time>
      </trkpt>
      <trkpt lat="-21.18762" lon="55.60204">
        <ele>1842.9846191406</ele>
        <time>2013-01-07T04:36:31Z</time>
      </trkpt>
      <trkpt lat="-21.18765" lon="55.60207">
        <ele>1843.9460449219</ele>
        <time>2013-01-07T04:36:35Z</time>
      </trkpt>
      <trkpt lat="-21.18771" lon="55.60212">
        <ele>1844.4265136719</ele>
        <time>2013-01-07T04:36:42Z</time>
      </trkpt>
      <trkpt lat="-21.18778" lon="55.60211">
        <ele>1845.3879394531</ele>
        <time>2013-01-07T04:36:47Z</time>
      </trkpt>
      <trkpt lat="-21.1878" lon="55.60223">
        <ele>1846.8298339844</ele>
        <time>2013-01-07T04:37:01Z</time>
      </trkpt>
      <trkpt lat="-21.1878" lon="55.60234">
        <ele>1848.7524414062</ele>
        <time>2013-01-07T04:37:13Z</time>
      </trkpt>
      <trkpt lat="-21.1878" lon="55.60247">
        <ele>1851.1557617188</ele>
        <time>2013-01-07T04:37:30Z</time>
      </trkpt>
      <trkpt lat="-21.18781" lon="55.60255">
        <ele>1854.5205078125</ele>
        <time>2013-01-07T04:37:47Z</time>
      </trkpt>
      <trkpt lat="-21.18788" lon="55.60259">
        <ele>1857.8852539062</ele>
        <time>2013-01-07T04:38:03Z</time>
      </trkpt>
      <trkpt lat="-21.18795" lon="55.60261">
        <ele>1860.7690429688</ele>
        <time>2013-01-07T04:38:23Z</time>
      </trkpt>
      <trkpt lat="-21.18801" lon="55.60262">
        <ele>1863.6528320312</ele>
        <time>2013-01-07T04:39:01Z</time>
      </trkpt>
      <trkpt lat="-21.18808" lon="55.60262">
        <ele>1865.0949707031</ele>
        <time>2013-01-07T04:39:19Z</time>
      </trkpt>
      <trkpt lat="-21.18817" lon="55.60262">
        <ele>1867.9787597656</ele>
        <time>2013-01-07T04:39:35Z</time>
      </trkpt>
      <trkpt lat="-21.18824" lon="55.6026">
        <ele>1869.9016113281</ele>
        <time>2013-01-07T04:39:44Z</time>
      </trkpt>
      <trkpt lat="-21.18828" lon="55.60257">
        <ele>1869.9016113281</ele>
        <time>2013-01-07T04:39:51Z</time>
      </trkpt>
      <trkpt lat="-21.18838" lon="55.60246">
        <ele>1870.3823242188</ele>
        <time>2013-01-07T04:40:09Z</time>
      </trkpt>
      <trkpt lat="-21.18839" lon="55.60243">
        <ele>1870.3823242188</ele>
        <time>2013-01-07T04:40:16Z</time>
      </trkpt>
      <trkpt lat="-21.18842" lon="55.60241">
        <ele>1869.9016113281</ele>
        <time>2013-01-07T04:40:30Z</time>
      </trkpt>
      <trkpt lat="-21.18842" lon="55.6024">
        <ele>1869.4211425781</ele>
        <time>2013-01-07T04:40:33Z</time>
      </trkpt>
      <trkpt lat="-21.18842" lon="55.60232">
        <ele>1868.9404296875</ele>
        <time>2013-01-07T04:40:40Z</time>
      </trkpt>
      <trkpt lat="-21.18842" lon="55.60228">
        <ele>1868.9404296875</ele>
        <time>2013-01-07T04:40:44Z</time>
      </trkpt>
      <trkpt lat="-21.18836" lon="55.60215">
        <ele>1871.82421875</ele>
        <time>2013-01-07T04:41:00Z</time>
      </trkpt>
      <trkpt lat="-21.18835" lon="55.60213">
        <ele>1873.2663574219</ele>
        <time>2013-01-07T04:41:18Z</time>
      </trkpt>
      <trkpt lat="-21.18835" lon="55.60208">
        <ele>1873.2663574219</ele>
        <time>2013-01-07T04:41:35Z</time>
      </trkpt>
      <trkpt lat="-21.18841" lon="55.60207">
        <ele>1876.630859375</ele>
        <time>2013-01-07T04:41:48Z</time>
      </trkpt>
      <trkpt lat="-21.18848" lon="55.60211">
        <ele>1879.5146484375</ele>
        <time>2013-01-07T04:42:02Z</time>
      </trkpt>
      <trkpt lat="-21.18849" lon="55.60212">
        <ele>1879.5146484375</ele>
        <time>2013-01-07T04:42:04Z</time>
      </trkpt>
      <trkpt lat="-21.18858" lon="55.60218">
        <ele>1881.4372558594</ele>
        <time>2013-01-07T04:42:20Z</time>
      </trkpt>
      <trkpt lat="-21.18859" lon="55.60218">
        <ele>1880.9567871094</ele>
        <time>2013-01-07T04:42:32Z</time>
      </trkpt>
      <trkpt lat="-21.18863" lon="55.60223">
        <ele>1882.8791503906</ele>
        <time>2013-01-07T04:42:45Z</time>
      </trkpt>
      <trkpt lat="-21.18866" lon="55.60217">
        <ele>1886.244140625</ele>
        <time>2013-01-07T04:43:00Z</time>
      </trkpt>
      <trkpt lat="-21.18865" lon="55.60216">
        <ele>1886.244140625</ele>
        <time>2013-01-07T04:43:07Z</time>
      </trkpt>
      <trkpt lat="-21.18859" lon="55.60208">
        <ele>1887.2053222656</ele>
        <time>2013-01-07T04:43:17Z</time>
      </trkpt>
      <trkpt lat="-21.1886" lon="55.60198">
        <ele>1889.6086425781</ele>
        <time>2013-01-07T04:43:28Z</time>
      </trkpt>
      <trkpt lat="-21.18856" lon="55.60194">
        <ele>1890.0893554688</ele>
        <time>2013-01-07T04:43:35Z</time>
      </trkpt>
      <trkpt lat="-21.18853" lon="55.60191">
        <ele>1890.0893554688</ele>
        <time>2013-01-07T04:43:40Z</time>
      </trkpt>
      <trkpt lat="-21.18848" lon="55.60185">
        <ele>1890.5698242188</ele>
        <time>2013-01-07T04:43:53Z</time>
      </trkpt>
      <trkpt lat="-21.18852" lon="55.60179">
        <ele>1892.0119628906</ele>
        <time>2013-01-07T04:44:06Z</time>
      </trkpt>
      <trkpt lat="-21.18851" lon="55.60177">
        <ele>1893.4538574219</ele>
        <time>2013-01-07T04:44:12Z</time>
      </trkpt>
      <trkpt lat="-21.18858" lon="55.60179">
        <ele>1895.8571777344</ele>
        <time>2013-01-07T04:44:25Z</time>
      </trkpt>
      <trkpt lat="-21.18864" lon="55.6018">
        <ele>1899.7023925781</ele>
        <time>2013-01-07T04:44:40Z</time>
      </trkpt>
      <trkpt lat="-21.18869" lon="55.60171">
        <ele>1902.1057128906</ele>
        <time>2013-01-07T04:44:55Z</time>
      </trkpt>
      <trkpt lat="-21.18869" lon="55.60172">
        <ele>1902.5864257812</ele>
        <time>2013-01-07T04:44:57Z</time>
      </trkpt>
      <trkpt lat="-21.18871" lon="55.60179">
        <ele>1904.0285644531</ele>
        <time>2013-01-07T04:45:04Z</time>
      </trkpt>
      <trkpt lat="-21.18875" lon="55.60174">
        <ele>1906.431640625</ele>
        <time>2013-01-07T04:45:17Z</time>
      </trkpt>
      <trkpt lat="-21.18877" lon="55.60176">
        <ele>1908.8349609375</ele>
        <time>2013-01-07T04:45:25Z</time>
      </trkpt>
      <trkpt lat="-21.18882" lon="55.60174">
        <ele>1909.7961425781</ele>
        <time>2013-01-07T04:45:34Z</time>
      </trkpt>
      <trkpt lat="-21.18883" lon="55.60165">
        <ele>1912.1994628906</ele>
        <time>2013-01-07T04:45:47Z</time>
      </trkpt>
      <trkpt lat="-21.18887" lon="55.60148">
        <ele>1912.1994628906</ele>
        <time>2013-01-07T04:46:05Z</time>
      </trkpt>
      <trkpt lat="-21.18891" lon="55.60144">
        <ele>1914.1220703125</ele>
        <time>2013-01-07T04:46:20Z</time>
      </trkpt>
      <trkpt lat="-21.18896" lon="55.60148">
        <ele>1915.0834960938</ele>
        <time>2013-01-07T04:46:33Z</time>
      </trkpt>
      <trkpt lat="-21.18902" lon="55.60152">
        <ele>1917.0063476562</ele>
        <time>2013-01-07T04:46:45Z</time>
      </trkpt>
      <trkpt lat="-21.189" lon="55.60158">
        <ele>1919.8901367188</ele>
        <time>2013-01-07T04:46:57Z</time>
      </trkpt>
      <trkpt lat="-21.18899" lon="55.60162">
        <ele>1920.8515625</ele>
        <time>2013-01-07T04:47:12Z</time>
      </trkpt>
      <trkpt lat="-21.18898" lon="55.60162">
        <ele>1921.33203125</ele>
        <time>2013-01-07T04:47:13Z</time>
      </trkpt>
      <trkpt lat="-21.18898" lon="55.60163">
        <ele>1920.3708496094</ele>
        <time>2013-01-07T04:47:29Z</time>
      </trkpt>
      <trkpt lat="-21.18897" lon="55.60162">
        <ele>1920.8515625</ele>
        <time>2013-01-07T04:47:57Z</time>
      </trkpt>
      <trkpt lat="-21.18897" lon="55.60161">
        <ele>1921.33203125</ele>
        <time>2013-01-07T04:48:32Z</time>
      </trkpt>
      <trkpt lat="-21.18896" lon="55.60161">
        <ele>1921.33203125</ele>
        <time>2013-01-07T04:48:46Z</time>
      </trkpt>
      <trkpt lat="-21.18897" lon="55.60165">
        <ele>1920.3708496094</ele>
        <time>2013-01-07T04:48:54Z</time>
      </trkpt>
      <trkpt lat="-21.18904" lon="55.60169">
        <ele>1922.7741699219</ele>
        <time>2013-01-07T04:49:11Z</time>
      </trkpt>
      <trkpt lat="-21.18907" lon="55.6017">
        <ele>1923.2548828125</ele>
        <time>2013-01-07T04:49:14Z</time>
      </trkpt>
      <trkpt lat="-21.18913" lon="55.60178">
        <ele>1924.2160644531</ele>
        <time>2013-01-07T04:49:24Z</time>
      </trkpt>
      <trkpt lat="-21.18915" lon="55.60181">
        <ele>1925.6579589844</ele>
        <time>2013-01-07T04:49:28Z</time>
      </trkpt>
      <trkpt lat="-21.18923" lon="55.60192">
        <ele>1928.5419921875</ele>
        <time>2013-01-07T04:49:45Z</time>
      </trkpt>
      <trkpt lat="-21.18926" lon="55.60199">
        <ele>1930.9453125</ele>
        <time>2013-01-07T04:50:01Z</time>
      </trkpt>
      <trkpt lat="-21.18927" lon="55.60215">
        <ele>1931.42578125</ele>
        <time>2013-01-07T04:50:19Z</time>
      </trkpt>
      <trkpt lat="-21.18925" lon="55.60218">
        <ele>1930.9453125</ele>
        <time>2013-01-07T04:50:39Z</time>
      </trkpt>
      <trkpt lat="-21.18925" lon="55.60217">
        <ele>1930.9453125</ele>
        <time>2013-01-07T04:50:59Z</time>
      </trkpt>
      <trkpt lat="-21.18925" lon="55.60218">
        <ele>1930.9453125</ele>
        <time>2013-01-07T04:51:39Z</time>
      </trkpt>
      <trkpt lat="-21.18925" lon="55.60218">
        <ele>1931.42578125</ele>
        <time>2013-01-07T04:52:45Z</time>
      </trkpt>
      <trkpt lat="-21.18925" lon="55.60219">
        <ele>1929.5031738281</ele>
        <time>2013-01-07T04:52:55Z</time>
      </trkpt>
      <trkpt lat="-21.18925" lon="55.60219">
        <ele>1932.8679199219</ele>
        <time>2013-01-07T04:53:01Z</time>
      </trkpt>
      <trkpt lat="-21.18925" lon="55.60219">
        <ele>1932.8679199219</ele>
        <time>2013-01-07T04:53:02Z</time>
      </trkpt>
      <trkpt lat="-21.18925" lon="55.60219">
        <ele>1929.9838867188</ele>
        <time>2013-01-07T04:53:04Z</time>
      </trkpt>
      <trkpt lat="-21.18925" lon="55.6022">
        <ele>1931.9064941406</ele>
        <time>2013-01-07T04:53:11Z</time>
      </trkpt>
      <trkpt lat="-21.18925" lon="55.60221">
        <ele>1930.9453125</ele>
        <time>2013-01-07T04:53:12Z</time>
      </trkpt>
      <trkpt lat="-21.18923" lon="55.60225">
        <ele>1929.9838867188</ele>
        <time>2013-01-07T04:53:20Z</time>
      </trkpt>
      <trkpt lat="-21.18922" lon="55.60227">
        <ele>1931.9064941406</ele>
        <time>2013-01-07T04:53:22Z</time>
      </trkpt>
      <trkpt lat="-21.18922" lon="55.60228">
        <ele>1929.9838867188</ele>
        <time>2013-01-07T04:53:24Z</time>
      </trkpt>
      <trkpt lat="-21.1892" lon="55.60235">
        <ele>1929.5031738281</ele>
        <time>2013-01-07T04:53:29Z</time>
      </trkpt>
      <trkpt lat="-21.18919" lon="55.60241">
        <ele>1926.6193847656</ele>
        <time>2013-01-07T04:53:34Z</time>
      </trkpt>
      <trkpt lat="-21.18919" lon="55.60242">
        <ele>1928.5419921875</ele>
        <time>2013-01-07T04:53:36Z</time>
      </trkpt>
      <trkpt lat="-21.18919" lon="55.60245">
        <ele>1927.1000976562</ele>
        <time>2013-01-07T04:53:38Z</time>
      </trkpt>
      <trkpt lat="-21.18919" lon="55.60254">
        <ele>1923.7353515625</ele>
        <time>2013-01-07T04:53:47Z</time>
      </trkpt>
      <trkpt lat="-21.18921" lon="55.60262">
        <ele>1920.8515625</ele>
        <time>2013-01-07T04:53:55Z</time>
      </trkpt>
      <trkpt lat="-21.18923" lon="55.60266">
        <ele>1919.8901367188</ele>
        <time>2013-01-07T04:53:59Z</time>
      </trkpt>
      <trkpt lat="-21.18923" lon="55.60268">
        <ele>1918.4482421875</ele>
        <time>2013-01-07T04:54:01Z</time>
      </trkpt>
      <trkpt lat="-21.18921" lon="55.6027">
        <ele>1917.4868164062</ele>
        <time>2013-01-07T04:54:07Z</time>
      </trkpt>
      <trkpt lat="-21.18919" lon="55.60276">
        <ele>1918.9289550781</ele>
        <time>2013-01-07T04:54:13Z</time>
      </trkpt>
      <trkpt lat="-21.18917" lon="55.6028">
        <ele>1916.044921875</ele>
        <time>2013-01-07T04:54:16Z</time>
      </trkpt>
      <trkpt lat="-21.18917" lon="55.60283">
        <ele>1913.1608886719</ele>
        <time>2013-01-07T04:54:20Z</time>
      </trkpt>
      <trkpt lat="-21.18916" lon="55.60285">
        <ele>1915.5642089844</ele>
        <time>2013-01-07T04:54:23Z</time>
      </trkpt>
      <trkpt lat="-21.18915" lon="55.60288">
        <ele>1913.1608886719</ele>
        <time>2013-01-07T04:54:25Z</time>
      </trkpt>
      <trkpt lat="-21.18915" lon="55.60293">
        <ele>1912.1994628906</ele>
        <time>2013-01-07T04:54:30Z</time>
      </trkpt>
      <trkpt lat="-21.18914" lon="55.60294">
        <ele>1913.1608886719</ele>
        <time>2013-01-07T04:54:32Z</time>
      </trkpt>
      <trkpt lat="-21.18912" lon="55.60295">
        <ele>1912.6801757812</ele>
        <time>2013-01-07T04:54:36Z</time>
      </trkpt>
      <trkpt lat="-21.18911" lon="55.60297">
        <ele>1910.7575683594</ele>
        <time>2013-01-07T04:54:38Z</time>
      </trkpt>
      <trkpt lat="-21.18909" lon="55.603">
        <ele>1908.3542480469</ele>
        <time>2013-01-07T04:54:46Z</time>
      </trkpt>
      <trkpt lat="-21.18907" lon="55.60303">
        <ele>1906.9123535156</ele>
        <time>2013-01-07T04:54:50Z</time>
      </trkpt>
      <trkpt lat="-21.18911" lon="55.60309">
        <ele>1904.9897460938</ele>
        <time>2013-01-07T04:54:56Z</time>
      </trkpt>
      <trkpt lat="-21.18909" lon="55.60317">
        <ele>1904.9897460938</ele>
        <time>2013-01-07T04:55:04Z</time>
      </trkpt>
      <trkpt lat="-21.18913" lon="55.60321">
        <ele>1904.0285644531</ele>
        <time>2013-01-07T04:55:10Z</time>
      </trkpt>
      <trkpt lat="-21.18914" lon="55.60326">
        <ele>1902.5864257812</ele>
        <time>2013-01-07T04:55:14Z</time>
      </trkpt>
      <trkpt lat="-21.18912" lon="55.60328">
        <ele>1904.9897460938</ele>
        <time>2013-01-07T04:55:18Z</time>
      </trkpt>
      <trkpt lat="-21.18911" lon="55.6033">
        <ele>1902.5864257812</ele>
        <time>2013-01-07T04:55:20Z</time>
      </trkpt>
      <trkpt lat="-21.18912" lon="55.60336">
        <ele>1899.7023925781</ele>
        <time>2013-01-07T04:55:28Z</time>
      </trkpt>
      <trkpt lat="-21.18911" lon="55.60341">
        <ele>1899.7023925781</ele>
        <time>2013-01-07T04:55:37Z</time>
      </trkpt>
      <trkpt lat="-21.18909" lon="55.60344">
        <ele>1901.14453125</ele>
        <time>2013-01-07T04:55:41Z</time>
      </trkpt>
      <trkpt lat="-21.18908" lon="55.60345">
        <ele>1899.7023925781</ele>
        <time>2013-01-07T04:55:42Z</time>
      </trkpt>
      <trkpt lat="-21.18902" lon="55.60345">
        <ele>1898.7409667969</ele>
        <time>2013-01-07T04:55:48Z</time>
      </trkpt>
      <trkpt lat="-21.18901" lon="55.60346">
        <ele>1901.14453125</ele>
        <time>2013-01-07T04:55:50Z</time>
      </trkpt>
      <trkpt lat="-21.189" lon="55.60348">
        <ele>1899.7023925781</ele>
        <time>2013-01-07T04:55:52Z</time>
      </trkpt>
      <trkpt lat="-21.18899" lon="55.60351">
        <ele>1897.7797851562</ele>
        <time>2013-01-07T04:55:55Z</time>
      </trkpt>
      <trkpt lat="-21.18899" lon="55.60352">
        <ele>1899.2216796875</ele>
        <time>2013-01-07T04:55:56Z</time>
      </trkpt>
      <trkpt lat="-21.18899" lon="55.6036">
        <ele>1894.4150390625</ele>
        <time>2013-01-07T04:56:03Z</time>
      </trkpt>
      <trkpt lat="-21.18898" lon="55.60361">
        <ele>1894.4150390625</ele>
        <time>2013-01-07T04:56:04Z</time>
      </trkpt>
      <trkpt lat="-21.18898" lon="55.60364">
        <ele>1894.8957519531</ele>
        <time>2013-01-07T04:56:08Z</time>
      </trkpt>
      <trkpt lat="-21.18898" lon="55.60369">
        <ele>1895.8571777344</ele>
        <time>2013-01-07T04:56:13Z</time>
      </trkpt>
      <trkpt lat="-21.18902" lon="55.60376">
        <ele>1894.4150390625</ele>
        <time>2013-01-07T04:56:23Z</time>
      </trkpt>
      <trkpt lat="-21.18902" lon="55.6038">
        <ele>1894.4150390625</ele>
        <time>2013-01-07T04:56:26Z</time>
      </trkpt>
      <trkpt lat="-21.18904" lon="55.60388">
        <ele>1892.4926757812</ele>
        <time>2013-01-07T04:56:37Z</time>
      </trkpt>
      <trkpt lat="-21.18904" lon="55.60389">
        <ele>1892.4926757812</ele>
        <time>2013-01-07T04:56:38Z</time>
      </trkpt>
      <trkpt lat="-21.18903" lon="55.60396">
        <ele>1891.53125</ele>
        <time>2013-01-07T04:56:44Z</time>
      </trkpt>
      <trkpt lat="-21.18903" lon="55.60398">
        <ele>1891.53125</ele>
        <time>2013-01-07T04:56:45Z</time>
      </trkpt>
      <trkpt lat="-21.18909" lon="55.60412">
        <ele>1891.53125</ele>
        <time>2013-01-07T04:56:56Z</time>
      </trkpt>
      <trkpt lat="-21.18911" lon="55.60412">
        <ele>1890.5698242188</ele>
        <time>2013-01-07T04:56:58Z</time>
      </trkpt>
      <trkpt lat="-21.18913" lon="55.60424">
        <ele>1890.0893554688</ele>
        <time>2013-01-07T04:57:10Z</time>
      </trkpt>
      <trkpt lat="-21.18913" lon="55.60425">
        <ele>1890.0893554688</ele>
        <time>2013-01-07T04:57:15Z</time>
      </trkpt>
      <trkpt lat="-21.18915" lon="55.60426">
        <ele>1889.6086425781</ele>
        <time>2013-01-07T04:57:17Z</time>
      </trkpt>
      <trkpt lat="-21.18916" lon="55.60436">
        <ele>1887.6860351562</ele>
        <time>2013-01-07T04:57:30Z</time>
      </trkpt>
      <trkpt lat="-21.18916" lon="55.60444">
        <ele>1886.244140625</ele>
        <time>2013-01-07T04:57:39Z</time>
      </trkpt>
      <trkpt lat="-21.18914" lon="55.60452">
        <ele>1885.2827148438</ele>
        <time>2013-01-07T04:57:44Z</time>
      </trkpt>
      <trkpt lat="-21.18913" lon="55.60453">
        <ele>1884.3215332031</ele>
        <time>2013-01-07T04:57:46Z</time>
      </trkpt>
      <trkpt lat="-21.18919" lon="55.60451">
        <ele>1882.3986816406</ele>
        <time>2013-01-07T04:57:58Z</time>
      </trkpt>
      <trkpt lat="-21.1892" lon="55.60454">
        <ele>1880.9567871094</ele>
        <time>2013-01-07T04:58:06Z</time>
      </trkpt>
      <trkpt lat="-21.18916" lon="55.60457">
        <ele>1880.9567871094</ele>
        <time>2013-01-07T04:58:11Z</time>
      </trkpt>
      <trkpt lat="-21.18908" lon="55.60469">
        <ele>1878.0727539062</ele>
        <time>2013-01-07T04:58:24Z</time>
      </trkpt>
      <trkpt lat="-21.1891" lon="55.60477">
        <ele>1875.6694335938</ele>
        <time>2013-01-07T04:58:31Z</time>
      </trkpt>
      <trkpt lat="-21.18905" lon="55.60485">
        <ele>1873.7468261719</ele>
        <time>2013-01-07T04:58:39Z</time>
      </trkpt>
      <trkpt lat="-21.18896" lon="55.60489">
        <ele>1872.7856445312</ele>
        <time>2013-01-07T04:58:51Z</time>
      </trkpt>
      <trkpt lat="-21.18886" lon="55.60496">
        <ele>1869.9016113281</ele>
        <time>2013-01-07T04:59:04Z</time>
      </trkpt>
      <trkpt lat="-21.1888" lon="55.60503">
        <ele>1868.9404296875</ele>
        <time>2013-01-07T04:59:18Z</time>
      </trkpt>
      <trkpt lat="-21.18874" lon="55.60509">
        <ele>1868.9404296875</ele>
        <time>2013-01-07T04:59:30Z</time>
      </trkpt>
      <trkpt lat="-21.18867" lon="55.60511">
        <ele>1867.017578125</ele>
        <time>2013-01-07T04:59:42Z</time>
      </trkpt>
      <trkpt lat="-21.18869" lon="55.60513">
        <ele>1865.0949707031</ele>
        <time>2013-01-07T04:59:47Z</time>
      </trkpt>
      <trkpt lat="-21.18885" lon="55.60515">
        <ele>1862.2109375</ele>
        <time>2013-01-07T05:00:06Z</time>
      </trkpt>
      <trkpt lat="-21.18899" lon="55.60521">
        <ele>1859.3271484375</ele>
        <time>2013-01-07T05:00:21Z</time>
      </trkpt>
      <trkpt lat="-21.18907" lon="55.60524">
        <ele>1858.3657226562</ele>
        <time>2013-01-07T05:00:33Z</time>
      </trkpt>
      <trkpt lat="-21.18917" lon="55.60526">
        <ele>1855.9624023438</ele>
        <time>2013-01-07T05:00:44Z</time>
      </trkpt>
      <trkpt lat="-21.18915" lon="55.60536">
        <ele>1856.4431152344</ele>
        <time>2013-01-07T05:00:56Z</time>
      </trkpt>
      <trkpt lat="-21.1891" lon="55.60538">
        <ele>1855.4819335938</ele>
        <time>2013-01-07T05:01:00Z</time>
      </trkpt>
      <trkpt lat="-21.18905" lon="55.60538">
        <ele>1855.0012207031</ele>
        <time>2013-01-07T05:01:03Z</time>
      </trkpt>
      <trkpt lat="-21.189" lon="55.60543">
        <ele>1853.5593261719</ele>
        <time>2013-01-07T05:01:16Z</time>
      </trkpt>
      <trkpt lat="-21.18898" lon="55.6055">
        <ele>1853.0786132812</ele>
        <time>2013-01-07T05:01:25Z</time>
      </trkpt>
      <trkpt lat="-21.18899" lon="55.60554">
        <ele>1851.1557617188</ele>
        <time>2013-01-07T05:01:30Z</time>
      </trkpt>
      <trkpt lat="-21.189" lon="55.60566">
        <ele>1851.1557617188</ele>
        <time>2013-01-07T05:01:45Z</time>
      </trkpt>
      <trkpt lat="-21.18896" lon="55.60572">
        <ele>1851.1557617188</ele>
        <time>2013-01-07T05:01:51Z</time>
      </trkpt>
      <trkpt lat="-21.18903" lon="55.60574">
        <ele>1851.6364746094</ele>
        <time>2013-01-07T05:02:03Z</time>
      </trkpt>
      <trkpt lat="-21.18901" lon="55.60576">
        <ele>1851.6364746094</ele>
        <time>2013-01-07T05:03:00Z</time>
      </trkpt>
      <trkpt lat="-21.1889" lon="55.60586">
        <ele>1852.1171875</ele>
        <time>2013-01-07T05:03:14Z</time>
      </trkpt>
      <trkpt lat="-21.18889" lon="55.60587">
        <ele>1850.6750488281</ele>
        <time>2013-01-07T05:03:17Z</time>
      </trkpt>
      <trkpt lat="-21.18889" lon="55.60597">
        <ele>1852.5979003906</ele>
        <time>2013-01-07T05:03:31Z</time>
      </trkpt>
      <trkpt lat="-21.18893" lon="55.606">
        <ele>1851.6364746094</ele>
        <time>2013-01-07T05:03:39Z</time>
      </trkpt>
      <trkpt lat="-21.18899" lon="55.60599">
        <ele>1854.0400390625</ele>
        <time>2013-01-07T05:03:44Z</time>
      </trkpt>
      <trkpt lat="-21.18905" lon="55.60612">
        <ele>1855.0012207031</ele>
        <time>2013-01-07T05:03:58Z</time>
      </trkpt>
      <trkpt lat="-21.18905" lon="55.60612">
        <ele>1855.0012207031</ele>
        <time>2013-01-07T05:03:59Z</time>
      </trkpt>
      <trkpt lat="-21.18899" lon="55.6062">
        <ele>1855.9624023438</ele>
        <time>2013-01-07T05:04:09Z</time>
      </trkpt>
      <trkpt lat="-21.18903" lon="55.60629">
        <ele>1856.4431152344</ele>
        <time>2013-01-07T05:04:22Z</time>
      </trkpt>
      <trkpt lat="-21.18902" lon="55.60641">
        <ele>1858.3657226562</ele>
        <time>2013-01-07T05:04:38Z</time>
      </trkpt>
      <trkpt lat="-21.18902" lon="55.60646">
        <ele>1857.8852539062</ele>
        <time>2013-01-07T05:04:48Z</time>
      </trkpt>
      <trkpt lat="-21.18903" lon="55.60647">
        <ele>1859.8076171875</ele>
        <time>2013-01-07T05:04:50Z</time>
      </trkpt>
      <trkpt lat="-21.18913" lon="55.60654">
        <ele>1861.73046875</ele>
        <time>2013-01-07T05:05:07Z</time>
      </trkpt>
      <trkpt lat="-21.18917" lon="55.6066">
        <ele>1862.6916503906</ele>
        <time>2013-01-07T05:05:20Z</time>
      </trkpt>
      <trkpt lat="-21.18922" lon="55.60661">
        <ele>1863.1723632812</ele>
        <time>2013-01-07T05:05:31Z</time>
      </trkpt>
      <trkpt lat="-21.18925" lon="55.60664">
        <ele>1864.6142578125</ele>
        <time>2013-01-07T05:05:42Z</time>
      </trkpt>
      <trkpt lat="-21.18928" lon="55.60672">
        <ele>1865.5756835938</ele>
        <time>2013-01-07T05:05:53Z</time>
      </trkpt>
      <trkpt lat="-21.18932" lon="55.60682">
        <ele>1866.5368652344</ele>
        <time>2013-01-07T05:06:10Z</time>
      </trkpt>
      <trkpt lat="-21.18941" lon="55.60688">
        <ele>1868.9404296875</ele>
        <time>2013-01-07T05:06:26Z</time>
      </trkpt>
      <trkpt lat="-21.18941" lon="55.60689">
        <ele>1868.4597167969</ele>
        <time>2013-01-07T05:06:27Z</time>
      </trkpt>
      <trkpt lat="-21.18944" lon="55.60694">
        <ele>1868.4597167969</ele>
        <time>2013-01-07T05:06:33Z</time>
      </trkpt>
      <trkpt lat="-21.18948" lon="55.60699">
        <ele>1869.4211425781</ele>
        <time>2013-01-07T05:06:40Z</time>
      </trkpt>
      <trkpt lat="-21.18952" lon="55.60706">
        <ele>1869.4211425781</ele>
        <time>2013-01-07T05:06:51Z</time>
      </trkpt>
      <trkpt lat="-21.18955" lon="55.60712">
        <ele>1870.3823242188</ele>
        <time>2013-01-07T05:07:05Z</time>
      </trkpt>
      <trkpt lat="-21.18952" lon="55.60717">
        <ele>1871.82421875</ele>
        <time>2013-01-07T05:07:11Z</time>
      </trkpt>
      <trkpt lat="-21.18954" lon="55.60726">
        <ele>1872.7856445312</ele>
        <time>2013-01-07T05:07:25Z</time>
      </trkpt>
      <trkpt lat="-21.18953" lon="55.60726">
        <ele>1875.1887207031</ele>
        <time>2013-01-07T05:07:41Z</time>
      </trkpt>
      <trkpt lat="-21.18946" lon="55.60725">
        <ele>1876.1501464844</ele>
        <time>2013-01-07T05:07:45Z</time>
      </trkpt>
      <trkpt lat="-21.18939" lon="55.60729">
        <ele>1879.0339355469</ele>
        <time>2013-01-07T05:08:01Z</time>
      </trkpt>
      <trkpt lat="-21.1894" lon="55.6074">
        <ele>1880.9567871094</ele>
        <time>2013-01-07T05:08:14Z</time>
      </trkpt>
      <trkpt lat="-21.18945" lon="55.60747">
        <ele>1883.3598632812</ele>
        <time>2013-01-07T05:08:24Z</time>
      </trkpt>
      <trkpt lat="-21.18945" lon="55.6076">
        <ele>1885.2827148438</ele>
        <time>2013-01-07T05:08:40Z</time>
      </trkpt>
      <trkpt lat="-21.18949" lon="55.60765">
        <ele>1886.244140625</ele>
        <time>2013-01-07T05:08:46Z</time>
      </trkpt>
      <trkpt lat="-21.18949" lon="55.60773">
        <ele>1887.2053222656</ele>
        <time>2013-01-07T05:08:58Z</time>
      </trkpt>
      <trkpt lat="-21.18952" lon="55.60784">
        <ele>1889.6086425781</ele>
        <time>2013-01-07T05:09:14Z</time>
      </trkpt>
      <trkpt lat="-21.18949" lon="55.60783">
        <ele>1890.0893554688</ele>
        <time>2013-01-07T05:09:19Z</time>
      </trkpt>
      <trkpt lat="-21.1894" lon="55.6078">
        <ele>1890.5698242188</ele>
        <time>2013-01-07T05:09:32Z</time>
      </trkpt>
      <trkpt lat="-21.1893" lon="55.60783">
        <ele>1891.53125</ele>
        <time>2013-01-07T05:09:42Z</time>
      </trkpt>
      <trkpt lat="-21.1892" lon="55.60792">
        <ele>1894.8957519531</ele>
        <time>2013-01-07T05:10:00Z</time>
      </trkpt>
      <trkpt lat="-21.18913" lon="55.60791">
        <ele>1894.8957519531</ele>
        <time>2013-01-07T05:10:13Z</time>
      </trkpt>
      <trkpt lat="-21.18897" lon="55.60796">
        <ele>1896.818359375</ele>
        <time>2013-01-07T05:10:28Z</time>
      </trkpt>
      <trkpt lat="-21.18893" lon="55.60799">
        <ele>1898.2602539062</ele>
        <time>2013-01-07T05:10:35Z</time>
      </trkpt>
      <trkpt lat="-21.18893" lon="55.60816">
        <ele>1901.14453125</ele>
        <time>2013-01-07T05:10:51Z</time>
      </trkpt>
      <trkpt lat="-21.18896" lon="55.60809">
        <ele>1902.1057128906</ele>
        <time>2013-01-07T05:11:07Z</time>
      </trkpt>
      <trkpt lat="-21.18903" lon="55.60813">
        <ele>1904.0285644531</ele>
        <time>2013-01-07T05:11:22Z</time>
      </trkpt>
      <trkpt lat="-21.18903" lon="55.60813">
        <ele>1901.14453125</ele>
        <time>2013-01-07T05:11:27Z</time>
      </trkpt>
      <trkpt lat="-21.18903" lon="55.60813">
        <ele>1905.9509277344</ele>
        <time>2013-01-07T05:11:28Z</time>
      </trkpt>
      <trkpt lat="-21.18903" lon="55.60813">
        <ele>1905.9509277344</ele>
        <time>2013-01-07T05:11:29Z</time>
      </trkpt>
      <trkpt lat="-21.18903" lon="55.60813">
        <ele>1903.0671386719</ele>
        <time>2013-01-07T05:11:31Z</time>
      </trkpt>
      <trkpt lat="-21.18903" lon="55.60813">
        <ele>1904.0285644531</ele>
        <time>2013-01-07T05:11:38Z</time>
      </trkpt>
      <trkpt lat="-21.18901" lon="55.60815">
        <ele>1901.6252441406</ele>
        <time>2013-01-07T05:11:57Z</time>
      </trkpt>
      <trkpt lat="-21.189" lon="55.6081">
        <ele>1902.5864257812</ele>
        <time>2013-01-07T05:12:40Z</time>
      </trkpt>
      <trkpt lat="-21.18903" lon="55.60811">
        <ele>1902.5864257812</ele>
        <time>2013-01-07T05:13:11Z</time>
      </trkpt>
      <trkpt lat="-21.18909" lon="55.60817">
        <ele>1904.9897460938</ele>
        <time>2013-01-07T05:13:39Z</time>
      </trkpt>
      <trkpt lat="-21.18909" lon="55.60817">
        <ele>1902.5864257812</ele>
        <time>2013-01-07T05:13:41Z</time>
      </trkpt>
      <trkpt lat="-21.18913" lon="55.60817">
        <ele>1903.0671386719</ele>
        <time>2013-01-07T05:15:12Z</time>
      </trkpt>
      <trkpt lat="-21.18927" lon="55.60826">
        <ele>1905.4704589844</ele>
        <time>2013-01-07T05:15:33Z</time>
      </trkpt>
      <trkpt lat="-21.18932" lon="55.60826">
        <ele>1905.4704589844</ele>
        <time>2013-01-07T05:15:37Z</time>
      </trkpt>
      <trkpt lat="-21.18936" lon="55.60827">
        <ele>1906.9123535156</ele>
        <time>2013-01-07T05:15:39Z</time>
      </trkpt>
      <trkpt lat="-21.18948" lon="55.60828">
        <ele>1907.3930664062</ele>
        <time>2013-01-07T05:15:51Z</time>
      </trkpt>
      <trkpt lat="-21.18953" lon="55.6084">
        <ele>1909.7961425781</ele>
        <time>2013-01-07T05:16:05Z</time>
      </trkpt>
      <trkpt lat="-21.18962" lon="55.60845">
        <ele>1912.1994628906</ele>
        <time>2013-01-07T05:16:20Z</time>
      </trkpt>
      <trkpt lat="-21.18956" lon="55.60842">
        <ele>1912.6801757812</ele>
        <time>2013-01-07T05:16:38Z</time>
      </trkpt>
      <trkpt lat="-21.18951" lon="55.60848">
        <ele>1915.5642089844</ele>
        <time>2013-01-07T05:16:52Z</time>
      </trkpt>
      <trkpt lat="-21.18951" lon="55.60848">
        <ele>1915.5642089844</ele>
        <time>2013-01-07T05:16:53Z</time>
      </trkpt>
      <trkpt lat="-21.18945" lon="55.60865">
        <ele>1917.4868164062</ele>
        <time>2013-01-07T05:17:09Z</time>
      </trkpt>
      <trkpt lat="-21.18943" lon="55.60875">
        <ele>1918.4482421875</ele>
        <time>2013-01-07T05:17:17Z</time>
      </trkpt>
      <trkpt lat="-21.18942" lon="55.60886">
        <ele>1916.044921875</ele>
        <time>2013-01-07T05:17:28Z</time>
      </trkpt>
      <trkpt lat="-21.18943" lon="55.60887">
        <ele>1918.9289550781</ele>
        <time>2013-01-07T05:17:29Z</time>
      </trkpt>
      <trkpt lat="-21.18943" lon="55.60888">
        <ele>1918.9289550781</ele>
        <time>2013-01-07T05:17:30Z</time>
      </trkpt>
      <trkpt lat="-21.18942" lon="55.60889">
        <ele>1916.044921875</ele>
        <time>2013-01-07T05:17:32Z</time>
      </trkpt>
      <trkpt lat="-21.18942" lon="55.60889">
        <ele>1916.044921875</ele>
        <time>2013-01-07T05:17:33Z</time>
      </trkpt>
      <trkpt lat="-21.18938" lon="55.60899">
        <ele>1914.6027832031</ele>
        <time>2013-01-07T05:17:43Z</time>
      </trkpt>
      <trkpt lat="-21.1893" lon="55.60909">
        <ele>1915.0834960938</ele>
        <time>2013-01-07T05:17:58Z</time>
      </trkpt>
      <trkpt lat="-21.18926" lon="55.6091">
        <ele>1915.5642089844</ele>
        <time>2013-01-07T05:18:05Z</time>
      </trkpt>
      <trkpt lat="-21.18919" lon="55.60918">
        <ele>1915.5642089844</ele>
        <time>2013-01-07T05:18:14Z</time>
      </trkpt>
      <trkpt lat="-21.18916" lon="55.60925">
        <ele>1917.0063476562</ele>
        <time>2013-01-07T05:18:20Z</time>
      </trkpt>
      <trkpt lat="-21.18906" lon="55.60933">
        <ele>1917.0063476562</ele>
        <time>2013-01-07T05:18:35Z</time>
      </trkpt>
      <trkpt lat="-21.18898" lon="55.60938">
        <ele>1917.4868164062</ele>
        <time>2013-01-07T05:18:42Z</time>
      </trkpt>
      <trkpt lat="-21.18894" lon="55.60937">
        <ele>1917.9675292969</ele>
        <time>2013-01-07T05:18:45Z</time>
      </trkpt>
      <trkpt lat="-21.18891" lon="55.60937">
        <ele>1918.4482421875</ele>
        <time>2013-01-07T05:18:48Z</time>
      </trkpt>
      <trkpt lat="-21.18885" lon="55.6094">
        <ele>1918.9289550781</ele>
        <time>2013-01-07T05:18:54Z</time>
      </trkpt>
      <trkpt lat="-21.18881" lon="55.6094">
        <ele>1918.4482421875</ele>
        <time>2013-01-07T05:18:57Z</time>
      </trkpt>
      <trkpt lat="-21.18877" lon="55.60942">
        <ele>1918.4482421875</ele>
        <time>2013-01-07T05:19:00Z</time>
      </trkpt>
      <trkpt lat="-21.18877" lon="55.60949">
        <ele>1917.4868164062</ele>
        <time>2013-01-07T05:19:06Z</time>
      </trkpt>
      <trkpt lat="-21.18878" lon="55.60951">
        <ele>1917.9675292969</ele>
        <time>2013-01-07T05:19:08Z</time>
      </trkpt>
      <trkpt lat="-21.18876" lon="55.6096">
        <ele>1918.4482421875</ele>
        <time>2013-01-07T05:19:19Z</time>
      </trkpt>
      <trkpt lat="-21.18873" lon="55.60966">
        <ele>1918.4482421875</ele>
        <time>2013-01-07T05:19:28Z</time>
      </trkpt>
      <trkpt lat="-21.18874" lon="55.60971">
        <ele>1918.4482421875</ele>
        <time>2013-01-07T05:19:32Z</time>
      </trkpt>
      <trkpt lat="-21.18872" lon="55.60974">
        <ele>1919.4096679688</ele>
        <time>2013-01-07T05:19:36Z</time>
      </trkpt>
      <trkpt lat="-21.18871" lon="55.60975">
        <ele>1919.4096679688</ele>
        <time>2013-01-07T05:19:38Z</time>
      </trkpt>
      <trkpt lat="-21.18861" lon="55.60978">
        <ele>1920.3708496094</ele>
        <time>2013-01-07T05:19:47Z</time>
      </trkpt>
      <trkpt lat="-21.18855" lon="55.60987">
        <ele>1921.33203125</ele>
        <time>2013-01-07T05:20:03Z</time>
      </trkpt>
      <trkpt lat="-21.18857" lon="55.60992">
        <ele>1922.2934570312</ele>
        <time>2013-01-07T05:20:09Z</time>
      </trkpt>
      <trkpt lat="-21.18866" lon="55.61">
        <ele>1924.6967773438</ele>
        <time>2013-01-07T05:20:22Z</time>
      </trkpt>
      <trkpt lat="-21.18864" lon="55.61004">
        <ele>1925.1772460938</ele>
        <time>2013-01-07T05:20:27Z</time>
      </trkpt>
      <trkpt lat="-21.18864" lon="55.61011">
        <ele>1926.138671875</ele>
        <time>2013-01-07T05:20:32Z</time>
      </trkpt>
      <trkpt lat="-21.18867" lon="55.61025">
        <ele>1927.5805664062</ele>
        <time>2013-01-07T05:20:47Z</time>
      </trkpt>
      <trkpt lat="-21.18868" lon="55.61027">
        <ele>1927.1000976562</ele>
        <time>2013-01-07T05:20:51Z</time>
      </trkpt>
      <trkpt lat="-21.18866" lon="55.61047">
        <ele>1927.5805664062</ele>
        <time>2013-01-07T05:21:07Z</time>
      </trkpt>
      <trkpt lat="-21.18868" lon="55.61055">
        <ele>1928.0612792969</ele>
        <time>2013-01-07T05:21:15Z</time>
      </trkpt>
      <trkpt lat="-21.18871" lon="55.61065">
        <ele>1927.5805664062</ele>
        <time>2013-01-07T05:21:24Z</time>
      </trkpt>
      <trkpt lat="-21.18869" lon="55.61071">
        <ele>1926.6193847656</ele>
        <time>2013-01-07T05:21:29Z</time>
      </trkpt>
      <trkpt lat="-21.18872" lon="55.61083">
        <ele>1927.1000976562</ele>
        <time>2013-01-07T05:21:37Z</time>
      </trkpt>
      <trkpt lat="-21.18874" lon="55.611">
        <ele>1926.6193847656</ele>
        <time>2013-01-07T05:21:48Z</time>
      </trkpt>
      <trkpt lat="-21.18873" lon="55.61102">
        <ele>1926.6193847656</ele>
        <time>2013-01-07T05:21:50Z</time>
      </trkpt>
      <trkpt lat="-21.18866" lon="55.61116">
        <ele>1925.6579589844</ele>
        <time>2013-01-07T05:22:04Z</time>
      </trkpt>
      <trkpt lat="-21.18865" lon="55.61123">
        <ele>1926.138671875</ele>
        <time>2013-01-07T05:22:11Z</time>
      </trkpt>
      <trkpt lat="-21.18866" lon="55.6114">
        <ele>1928.0612792969</ele>
        <time>2013-01-07T05:22:29Z</time>
      </trkpt>
      <trkpt lat="-21.18863" lon="55.61154">
        <ele>1929.5031738281</ele>
        <time>2013-01-07T05:22:44Z</time>
      </trkpt>
      <trkpt lat="-21.18861" lon="55.61165">
        <ele>1929.5031738281</ele>
        <time>2013-01-07T05:22:50Z</time>
      </trkpt>
      <trkpt lat="-21.18859" lon="55.61173">
        <ele>1929.9838867188</ele>
        <time>2013-01-07T05:22:57Z</time>
      </trkpt>
      <trkpt lat="-21.18858" lon="55.61187">
        <ele>1933.3486328125</ele>
        <time>2013-01-07T05:23:10Z</time>
      </trkpt>
      <trkpt lat="-21.18856" lon="55.612">
        <ele>1936.2326660156</ele>
        <time>2013-01-07T05:23:25Z</time>
      </trkpt>
      <trkpt lat="-21.18852" lon="55.61208">
        <ele>1937.1938476562</ele>
        <time>2013-01-07T05:23:36Z</time>
      </trkpt>
      <trkpt lat="-21.18852" lon="55.61222">
        <ele>1938.1552734375</ele>
        <time>2013-01-07T05:23:42Z</time>
      </trkpt>
      <trkpt lat="-21.18851" lon="55.61226">
        <ele>1938.1552734375</ele>
        <time>2013-01-07T05:23:45Z</time>
      </trkpt>
      <trkpt lat="-21.18843" lon="55.61236">
        <ele>1937.1938476562</ele>
        <time>2013-01-07T05:23:57Z</time>
      </trkpt>
      <trkpt lat="-21.18833" lon="55.61248">
        <ele>1937.1938476562</ele>
        <time>2013-01-07T05:24:09Z</time>
      </trkpt>
      <trkpt lat="-21.18829" lon="55.61249">
        <ele>1937.1938476562</ele>
        <time>2013-01-07T05:24:13Z</time>
      </trkpt>
      <trkpt lat="-21.1882" lon="55.61254">
        <ele>1937.6745605469</ele>
        <time>2013-01-07T05:24:25Z</time>
      </trkpt>
      <trkpt lat="-21.18813" lon="55.6126">
        <ele>1939.5971679688</ele>
        <time>2013-01-07T05:24:34Z</time>
      </trkpt>
      <trkpt lat="-21.18796" lon="55.61277">
        <ele>1941.5197753906</ele>
        <time>2013-01-07T05:24:54Z</time>
      </trkpt>
      <trkpt lat="-21.18798" lon="55.61298">
        <ele>1942.9616699219</ele>
        <time>2013-01-07T05:25:18Z</time>
      </trkpt>
      <trkpt lat="-21.18798" lon="55.6131">
        <ele>1946.3264160156</ele>
        <time>2013-01-07T05:25:30Z</time>
      </trkpt>
      <trkpt lat="-21.18804" lon="55.61309">
        <ele>1947.2875976562</ele>
        <time>2013-01-07T05:25:35Z</time>
      </trkpt>
      <trkpt lat="-21.18806" lon="55.61307">
        <ele>1946.8068847656</ele>
        <time>2013-01-07T05:25:38Z</time>
      </trkpt>
      <trkpt lat="-21.18811" lon="55.61306">
        <ele>1946.8068847656</ele>
        <time>2013-01-07T05:25:42Z</time>
      </trkpt>
      <trkpt lat="-21.18814" lon="55.61306">
        <ele>1948.2490234375</ele>
        <time>2013-01-07T05:25:45Z</time>
      </trkpt>
      <trkpt lat="-21.1882" lon="55.61307">
        <ele>1947.7683105469</ele>
        <time>2013-01-07T05:25:53Z</time>
      </trkpt>
      <trkpt lat="-21.18827" lon="55.61306">
        <ele>1948.7297363281</ele>
        <time>2013-01-07T05:26:07Z</time>
      </trkpt>
      <trkpt lat="-21.18846" lon="55.61308">
        <ele>1950.65234375</ele>
        <time>2013-01-07T05:26:20Z</time>
      </trkpt>
      <trkpt lat="-21.18853" lon="55.61313">
        <ele>1951.1330566406</ele>
        <time>2013-01-07T05:26:30Z</time>
      </trkpt>
      <trkpt lat="-21.18856" lon="55.61314">
        <ele>1951.6137695312</ele>
        <time>2013-01-07T05:26:32Z</time>
      </trkpt>
      <trkpt lat="-21.18865" lon="55.61313">
        <ele>1953.0556640625</ele>
        <time>2013-01-07T05:26:42Z</time>
      </trkpt>
      <trkpt lat="-21.18868" lon="55.61314">
        <ele>1953.5363769531</ele>
        <time>2013-01-07T05:26:46Z</time>
      </trkpt>
      <trkpt lat="-21.18876" lon="55.61316">
        <ele>1955.939453125</ele>
        <time>2013-01-07T05:26:58Z</time>
      </trkpt>
      <trkpt lat="-21.18888" lon="55.61304">
        <ele>1957.3815917969</ele>
        <time>2013-01-07T05:27:15Z</time>
      </trkpt>
      <trkpt lat="-21.18898" lon="55.61307">
        <ele>1957.8623046875</ele>
        <time>2013-01-07T05:27:26Z</time>
      </trkpt>
      <trkpt lat="-21.18909" lon="55.61305">
        <ele>1957.8623046875</ele>
        <time>2013-01-07T05:27:36Z</time>
      </trkpt>
      <trkpt lat="-21.18933" lon="55.61308">
        <ele>1958.8234863281</ele>
        <time>2013-01-07T05:27:58Z</time>
      </trkpt>
      <trkpt lat="-21.18939" lon="55.61303">
        <ele>1960.74609375</ele>
        <time>2013-01-07T05:28:05Z</time>
      </trkpt>
      <trkpt lat="-21.1895" lon="55.61303">
        <ele>1961.2268066406</ele>
        <time>2013-01-07T05:28:18Z</time>
      </trkpt>
      <trkpt lat="-21.18957" lon="55.61305">
        <ele>1961.7075195312</ele>
        <time>2013-01-07T05:28:26Z</time>
      </trkpt>
      <trkpt lat="-21.18964" lon="55.61315">
        <ele>1964.1108398438</ele>
        <time>2013-01-07T05:28:30Z</time>
      </trkpt>
      <trkpt lat="-21.18971" lon="55.61318">
        <ele>1965.5529785156</ele>
        <time>2013-01-07T05:28:41Z</time>
      </trkpt>
      <trkpt lat="-21.18979" lon="55.61324">
        <ele>1966.9948730469</ele>
        <time>2013-01-07T05:28:54Z</time>
      </trkpt>
      <trkpt lat="-21.1898" lon="55.61324">
        <ele>1967.4753417969</ele>
        <time>2013-01-07T05:28:56Z</time>
      </trkpt>
      <trkpt lat="-21.18991" lon="55.61328">
        <ele>1969.3981933594</ele>
        <time>2013-01-07T05:29:06Z</time>
      </trkpt>
      <trkpt lat="-21.18993" lon="55.61343">
        <ele>1969.3981933594</ele>
        <time>2013-01-07T05:29:18Z</time>
      </trkpt>
      <trkpt lat="-21.18996" lon="55.61356">
        <ele>1969.8786621094</ele>
        <time>2013-01-07T05:29:32Z</time>
      </trkpt>
      <trkpt lat="-21.19007" lon="55.61368">
        <ele>1971.8012695312</ele>
        <time>2013-01-07T05:29:49Z</time>
      </trkpt>
      <trkpt lat="-21.19009" lon="55.61375">
        <ele>1971.8012695312</ele>
        <time>2013-01-07T05:29:55Z</time>
      </trkpt>
      <trkpt lat="-21.19014" lon="55.6138">
        <ele>1971.8012695312</ele>
        <time>2013-01-07T05:30:01Z</time>
      </trkpt>
      <trkpt lat="-21.19018" lon="55.61387">
        <ele>1971.8012695312</ele>
        <time>2013-01-07T05:30:06Z</time>
      </trkpt>
      <trkpt lat="-21.19015" lon="55.61388">
        <ele>1973.7238769531</ele>
        <time>2013-01-07T05:30:19Z</time>
      </trkpt>
      <trkpt lat="-21.19011" lon="55.61391">
        <ele>1973.7238769531</ele>
        <time>2013-01-07T05:30:28Z</time>
      </trkpt>
      <trkpt lat="-21.19007" lon="55.61383">
        <ele>1974.2045898438</ele>
        <time>2013-01-07T05:30:36Z</time>
      </trkpt>
      <trkpt lat="-21.18998" lon="55.61371">
        <ele>1976.1271972656</ele>
        <time>2013-01-07T05:30:51Z</time>
      </trkpt>
      <trkpt lat="-21.18997" lon="55.61371">
        <ele>1976.1271972656</ele>
        <time>2013-01-07T05:30:52Z</time>
      </trkpt>
      <trkpt lat="-21.18993" lon="55.61369">
        <ele>1978.0498046875</ele>
        <time>2013-01-07T05:31:00Z</time>
      </trkpt>
      <trkpt lat="-21.18986" lon="55.61362">
        <ele>1976.6079101562</ele>
        <time>2013-01-07T05:31:09Z</time>
      </trkpt>
      <trkpt lat="-21.18984" lon="55.61358">
        <ele>1977.5690917969</ele>
        <time>2013-01-07T05:31:18Z</time>
      </trkpt>
      <trkpt lat="-21.18973" lon="55.61352">
        <ele>1980.4533691406</ele>
        <time>2013-01-07T05:31:31Z</time>
      </trkpt>
      <trkpt lat="-21.18964" lon="55.61352">
        <ele>1982.8564453125</ele>
        <time>2013-01-07T05:31:43Z</time>
      </trkpt>
      <trkpt lat="-21.18956" lon="55.61356">
        <ele>1984.779296875</ele>
        <time>2013-01-07T05:31:55Z</time>
      </trkpt>
      <trkpt lat="-21.1895" lon="55.6136">
        <ele>1985.7404785156</ele>
        <time>2013-01-07T05:32:05Z</time>
      </trkpt>
      <trkpt lat="-21.18947" lon="55.61361">
        <ele>1985.259765625</ele>
        <time>2013-01-07T05:32:07Z</time>
      </trkpt>
      <trkpt lat="-21.18946" lon="55.61363">
        <ele>1986.2211914062</ele>
        <time>2013-01-07T05:32:17Z</time>
      </trkpt>
      <trkpt lat="-21.18949" lon="55.61368">
        <ele>1987.1823730469</ele>
        <time>2013-01-07T05:32:35Z</time>
      </trkpt>
      <trkpt lat="-21.18958" lon="55.6137">
        <ele>1989.1049804688</ele>
        <time>2013-01-07T05:32:48Z</time>
      </trkpt>
      <trkpt lat="-21.18973" lon="55.61381">
        <ele>1990.546875</ele>
        <time>2013-01-07T05:33:01Z</time>
      </trkpt>
      <trkpt lat="-21.18973" lon="55.61384">
        <ele>1992.4697265625</ele>
        <time>2013-01-07T05:33:10Z</time>
      </trkpt>
      <trkpt lat="-21.1897" lon="55.61385">
        <ele>1993.4309082031</ele>
        <time>2013-01-07T05:33:12Z</time>
      </trkpt>
      <trkpt lat="-21.18967" lon="55.61385">
        <ele>1993.9116210938</ele>
        <time>2013-01-07T05:33:14Z</time>
      </trkpt>
      <trkpt lat="-21.18962" lon="55.61388">
        <ele>1995.353515625</ele>
        <time>2013-01-07T05:33:21Z</time>
      </trkpt>
      <trkpt lat="-21.18963" lon="55.61397">
        <ele>1997.2763671875</ele>
        <time>2013-01-07T05:33:31Z</time>
      </trkpt>
      <trkpt lat="-21.18969" lon="55.61403">
        <ele>1999.1989746094</ele>
        <time>2013-01-07T05:33:39Z</time>
      </trkpt>
      <trkpt lat="-21.1897" lon="55.61407">
        <ele>2000.1604003906</ele>
        <time>2013-01-07T05:33:44Z</time>
      </trkpt>
      <trkpt lat="-21.18975" lon="55.61413">
        <ele>2004.0056152344</ele>
        <time>2013-01-07T05:34:02Z</time>
      </trkpt>
      <trkpt lat="-21.18975" lon="55.61411">
        <ele>2004.0056152344</ele>
        <time>2013-01-07T05:34:03Z</time>
      </trkpt>
      <trkpt lat="-21.18974" lon="55.61411">
        <ele>2002.5634765625</ele>
        <time>2013-01-07T05:34:05Z</time>
      </trkpt>
      <trkpt lat="-21.18972" lon="55.61411">
        <ele>2003.0441894531</ele>
        <time>2013-01-07T05:34:23Z</time>
      </trkpt>
      <trkpt lat="-21.18974" lon="55.61414">
        <ele>2002.5634765625</ele>
        <time>2013-01-07T05:35:21Z</time>
      </trkpt>
      <trkpt lat="-21.18976" lon="55.61419">
        <ele>2002.5634765625</ele>
        <time>2013-01-07T05:35:39Z</time>
      </trkpt>
      <trkpt lat="-21.18974" lon="55.61436">
        <ele>2003.5249023438</ele>
        <time>2013-01-07T05:35:53Z</time>
      </trkpt>
      <trkpt lat="-21.18979" lon="55.61435">
        <ele>2005.4475097656</ele>
        <time>2013-01-07T05:36:01Z</time>
      </trkpt>
      <trkpt lat="-21.18988" lon="55.61446">
        <ele>2007.3701171875</ele>
        <time>2013-01-07T05:36:17Z</time>
      </trkpt>
      <trkpt lat="-21.18987" lon="55.6146">
        <ele>2010.25390625</ele>
        <time>2013-01-07T05:36:33Z</time>
      </trkpt>
      <trkpt lat="-21.18986" lon="55.61474">
        <ele>2011.6960449219</ele>
        <time>2013-01-07T05:36:49Z</time>
      </trkpt>
      <trkpt lat="-21.18979" lon="55.61488">
        <ele>2013.6186523438</ele>
        <time>2013-01-07T05:37:03Z</time>
      </trkpt>
      <trkpt lat="-21.18972" lon="55.61497">
        <ele>2012.1767578125</ele>
        <time>2013-01-07T05:37:21Z</time>
      </trkpt>
      <trkpt lat="-21.1897" lon="55.61499">
        <ele>2012.6574707031</ele>
        <time>2013-01-07T05:37:24Z</time>
      </trkpt>
      <trkpt lat="-21.1896" lon="55.61517">
        <ele>2009.7731933594</ele>
        <time>2013-01-07T05:37:37Z</time>
      </trkpt>
      <trkpt lat="-21.1896" lon="55.61523">
        <ele>2008.8120117188</ele>
        <time>2013-01-07T05:37:49Z</time>
      </trkpt>
      <trkpt lat="-21.18962" lon="55.61529">
        <ele>2008.8120117188</ele>
        <time>2013-01-07T05:37:53Z</time>
      </trkpt>
      <trkpt lat="-21.18964" lon="55.6153">
        <ele>2007.8508300781</ele>
        <time>2013-01-07T05:37:56Z</time>
      </trkpt>
      <trkpt lat="-21.18963" lon="55.61536">
        <ele>2007.8508300781</ele>
        <time>2013-01-07T05:38:01Z</time>
      </trkpt>
      <trkpt lat="-21.18962" lon="55.6154">
        <ele>2005.9279785156</ele>
        <time>2013-01-07T05:38:05Z</time>
      </trkpt>
      <trkpt lat="-21.18962" lon="55.6155">
        <ele>2004.4860839844</ele>
        <time>2013-01-07T05:38:13Z</time>
      </trkpt>
      <trkpt lat="-21.18962" lon="55.61556">
        <ele>2002.5634765625</ele>
        <time>2013-01-07T05:38:20Z</time>
      </trkpt>
      <trkpt lat="-21.18962" lon="55.61565">
        <ele>2001.1215820312</ele>
        <time>2013-01-07T05:38:27Z</time>
      </trkpt>
      <trkpt lat="-21.18967" lon="55.61573">
        <ele>1999.1989746094</ele>
        <time>2013-01-07T05:38:35Z</time>
      </trkpt>
      <trkpt lat="-21.18966" lon="55.61582">
        <ele>1996.7956542969</ele>
        <time>2013-01-07T05:38:45Z</time>
      </trkpt>
      <trkpt lat="-21.18965" lon="55.61585">
        <ele>1996.3151855469</ele>
        <time>2013-01-07T05:38:48Z</time>
      </trkpt>
      <trkpt lat="-21.18967" lon="55.61591">
        <ele>1994.8728027344</ele>
        <time>2013-01-07T05:38:54Z</time>
      </trkpt>
      <trkpt lat="-21.18968" lon="55.61594">
        <ele>1993.4309082031</ele>
        <time>2013-01-07T05:38:57Z</time>
      </trkpt>
      <trkpt lat="-21.18968" lon="55.61595">
        <ele>1993.4309082031</ele>
        <time>2013-01-07T05:38:58Z</time>
      </trkpt>
      <trkpt lat="-21.18968" lon="55.61597">
        <ele>1991.5083007812</ele>
        <time>2013-01-07T05:39:03Z</time>
      </trkpt>
      <trkpt lat="-21.18978" lon="55.61602">
        <ele>1990.546875</ele>
        <time>2013-01-07T05:39:17Z</time>
      </trkpt>
      <trkpt lat="-21.18979" lon="55.6161">
        <ele>1988.6245117188</ele>
        <time>2013-01-07T05:39:23Z</time>
      </trkpt>
      <trkpt lat="-21.18976" lon="55.61615">
        <ele>1990.06640625</ele>
        <time>2013-01-07T05:39:27Z</time>
      </trkpt>
      <trkpt lat="-21.18974" lon="55.61616">
        <ele>1989.1049804688</ele>
        <time>2013-01-07T05:39:28Z</time>
      </trkpt>
      <trkpt lat="-21.18972" lon="55.61614">
        <ele>1988.6245117188</ele>
        <time>2013-01-07T05:39:42Z</time>
      </trkpt>
      <trkpt lat="-21.18963" lon="55.61624">
        <ele>1988.6245117188</ele>
        <time>2013-01-07T05:39:54Z</time>
      </trkpt>
      <trkpt lat="-21.18957" lon="55.61624">
        <ele>1988.6245117188</ele>
        <time>2013-01-07T05:39:58Z</time>
      </trkpt>
      <trkpt lat="-21.18954" lon="55.61624">
        <ele>1987.6630859375</ele>
        <time>2013-01-07T05:40:00Z</time>
      </trkpt>
      <trkpt lat="-21.18951" lon="55.6163">
        <ele>1987.6630859375</ele>
        <time>2013-01-07T05:40:08Z</time>
      </trkpt>
      <trkpt lat="-21.18943" lon="55.61632">
        <ele>1987.1823730469</ele>
        <time>2013-01-07T05:40:14Z</time>
      </trkpt>
      <trkpt lat="-21.18935" lon="55.61636">
        <ele>1987.6630859375</ele>
        <time>2013-01-07T05:40:21Z</time>
      </trkpt>
      <trkpt lat="-21.18931" lon="55.61639">
        <ele>1987.6630859375</ele>
        <time>2013-01-07T05:40:24Z</time>
      </trkpt>
      <trkpt lat="-21.18924" lon="55.61646">
        <ele>1987.1823730469</ele>
        <time>2013-01-07T05:40:32Z</time>
      </trkpt>
      <trkpt lat="-21.18917" lon="55.61647">
        <ele>1987.6630859375</ele>
        <time>2013-01-07T05:40:37Z</time>
      </trkpt>
      <trkpt lat="-21.18905" lon="55.6165">
        <ele>1986.2211914062</ele>
        <time>2013-01-07T05:40:47Z</time>
      </trkpt>
      <trkpt lat="-21.18899" lon="55.61653">
        <ele>1985.259765625</ele>
        <time>2013-01-07T05:40:51Z</time>
      </trkpt>
      <trkpt lat="-21.18893" lon="55.61653">
        <ele>1985.259765625</ele>
        <time>2013-01-07T05:40:55Z</time>
      </trkpt>
      <trkpt lat="-21.18891" lon="55.61655">
        <ele>1984.779296875</ele>
        <time>2013-01-07T05:40:57Z</time>
      </trkpt>
      <trkpt lat="-21.18888" lon="55.61659">
        <ele>1984.2985839844</ele>
        <time>2013-01-07T05:41:00Z</time>
      </trkpt>
      <trkpt lat="-21.18887" lon="55.61661">
        <ele>1983.8178710938</ele>
        <time>2013-01-07T05:41:02Z</time>
      </trkpt>
      <trkpt lat="-21.18884" lon="55.61665">
        <ele>1984.2985839844</ele>
        <time>2013-01-07T05:41:05Z</time>
      </trkpt>
      <trkpt lat="-21.18878" lon="55.61666">
        <ele>1983.8178710938</ele>
        <time>2013-01-07T05:41:08Z</time>
      </trkpt>
      <trkpt lat="-21.18876" lon="55.61669">
        <ele>1983.3371582031</ele>
        <time>2013-01-07T05:41:11Z</time>
      </trkpt>
      <trkpt lat="-21.18868" lon="55.61679">
        <ele>1982.3759765625</ele>
        <time>2013-01-07T05:41:26Z</time>
      </trkpt>
      <trkpt lat="-21.18858" lon="55.61691">
        <ele>1984.2985839844</ele>
        <time>2013-01-07T05:41:42Z</time>
      </trkpt>
      <trkpt lat="-21.18857" lon="55.61691">
        <ele>1984.2985839844</ele>
        <time>2013-01-07T05:41:43Z</time>
      </trkpt>
      <trkpt lat="-21.18852" lon="55.61693">
        <ele>1983.8178710938</ele>
        <time>2013-01-07T05:41:46Z</time>
      </trkpt>
      <trkpt lat="-21.1885" lon="55.61693">
        <ele>1983.8178710938</ele>
        <time>2013-01-07T05:41:48Z</time>
      </trkpt>
      <trkpt lat="-21.18846" lon="55.61696">
        <ele>1982.8564453125</ele>
        <time>2013-01-07T05:41:52Z</time>
      </trkpt>
      <trkpt lat="-21.18846" lon="55.61708">
        <ele>1984.2985839844</ele>
        <time>2013-01-07T05:42:04Z</time>
      </trkpt>
      <trkpt lat="-21.18839" lon="55.61717">
        <ele>1983.8178710938</ele>
        <time>2013-01-07T05:42:19Z</time>
      </trkpt>
      <trkpt lat="-21.18828" lon="55.61734">
        <ele>1983.3371582031</ele>
        <time>2013-01-07T05:42:36Z</time>
      </trkpt>
      <trkpt lat="-21.18827" lon="55.61747">
        <ele>1983.8178710938</ele>
        <time>2013-01-07T05:42:45Z</time>
      </trkpt>
      <trkpt lat="-21.18827" lon="55.61763">
        <ele>1983.8178710938</ele>
        <time>2013-01-07T05:42:56Z</time>
      </trkpt>
      <trkpt lat="-21.18829" lon="55.61774">
        <ele>1984.2985839844</ele>
        <time>2013-01-07T05:43:08Z</time>
      </trkpt>
      <trkpt lat="-21.18836" lon="55.61784">
        <ele>1984.779296875</ele>
        <time>2013-01-07T05:43:17Z</time>
      </trkpt>
      <trkpt lat="-21.18845" lon="55.61803">
        <ele>1985.259765625</ele>
        <time>2013-01-07T05:43:37Z</time>
      </trkpt>
      <trkpt lat="-21.18846" lon="55.61804">
        <ele>1987.1823730469</ele>
        <time>2013-01-07T05:43:42Z</time>
      </trkpt>
      <trkpt lat="-21.1885" lon="55.61822">
        <ele>1990.06640625</ele>
        <time>2013-01-07T05:44:04Z</time>
      </trkpt>
      <trkpt lat="-21.18859" lon="55.61834">
        <ele>1991.9890136719</ele>
        <time>2013-01-07T05:44:18Z</time>
      </trkpt>
      <trkpt lat="-21.18857" lon="55.61848">
        <ele>1991.9890136719</ele>
        <time>2013-01-07T05:44:28Z</time>
      </trkpt>
      <trkpt lat="-21.18856" lon="55.61867">
        <ele>1991.9890136719</ele>
        <time>2013-01-07T05:44:43Z</time>
      </trkpt>
      <trkpt lat="-21.18854" lon="55.61879">
        <ele>1992.4697265625</ele>
        <time>2013-01-07T05:44:56Z</time>
      </trkpt>
      <trkpt lat="-21.18856" lon="55.61885">
        <ele>1993.4309082031</ele>
        <time>2013-01-07T05:45:02Z</time>
      </trkpt>
      <trkpt lat="-21.18859" lon="55.6189">
        <ele>1994.3920898438</ele>
        <time>2013-01-07T05:45:05Z</time>
      </trkpt>
      <trkpt lat="-21.18865" lon="55.61894">
        <ele>1995.8342285156</ele>
        <time>2013-01-07T05:45:20Z</time>
      </trkpt>
      <trkpt lat="-21.18863" lon="55.61902">
        <ele>1996.3151855469</ele>
        <time>2013-01-07T05:45:33Z</time>
      </trkpt>
      <trkpt lat="-21.18863" lon="55.61911">
        <ele>1996.7956542969</ele>
        <time>2013-01-07T05:45:42Z</time>
      </trkpt>
      <trkpt lat="-21.18872" lon="55.61924">
        <ele>1999.1989746094</ele>
        <time>2013-01-07T05:45:55Z</time>
      </trkpt>
      <trkpt lat="-21.18883" lon="55.6194">
        <ele>1999.6796875</ele>
        <time>2013-01-07T05:46:17Z</time>
      </trkpt>
      <trkpt lat="-21.18899" lon="55.61958">
        <ele>2002.0827636719</ele>
        <time>2013-01-07T05:46:38Z</time>
      </trkpt>
      <trkpt lat="-21.18899" lon="55.61961">
        <ele>2002.0827636719</ele>
        <time>2013-01-07T05:46:41Z</time>
      </trkpt>
      <trkpt lat="-21.18904" lon="55.61968">
        <ele>2000.6408691406</ele>
        <time>2013-01-07T05:46:48Z</time>
      </trkpt>
      <trkpt lat="-21.18914" lon="55.61979">
        <ele>1999.1989746094</ele>
        <time>2013-01-07T05:47:01Z</time>
      </trkpt>
      <trkpt lat="-21.18915" lon="55.62002">
        <ele>1997.2763671875</ele>
        <time>2013-01-07T05:47:21Z</time>
      </trkpt>
      <trkpt lat="-21.18914" lon="55.62018">
        <ele>1996.3151855469</ele>
        <time>2013-01-07T05:47:31Z</time>
      </trkpt>
      <trkpt lat="-21.18914" lon="55.62034">
        <ele>1997.2763671875</ele>
        <time>2013-01-07T05:47:47Z</time>
      </trkpt>
      <trkpt lat="-21.18914" lon="55.62034">
        <ele>1997.2763671875</ele>
        <time>2013-01-07T05:47:48Z</time>
      </trkpt>
      <trkpt lat="-21.1891" lon="55.62035">
        <ele>1998.2375488281</ele>
        <time>2013-01-07T05:47:54Z</time>
      </trkpt>
      <trkpt lat="-21.18909" lon="55.62034">
        <ele>1996.7956542969</ele>
        <time>2013-01-07T05:47:56Z</time>
      </trkpt>
      <trkpt lat="-21.18908" lon="55.62037">
        <ele>1996.7956542969</ele>
        <time>2013-01-07T05:48:15Z</time>
      </trkpt>
      <trkpt lat="-21.18914" lon="55.6206">
        <ele>1998.2375488281</ele>
        <time>2013-01-07T05:48:33Z</time>
      </trkpt>
      <trkpt lat="-21.18925" lon="55.62067">
        <ele>2000.6408691406</ele>
        <time>2013-01-07T05:48:48Z</time>
      </trkpt>
      <trkpt lat="-21.18928" lon="55.62073">
        <ele>2000.1604003906</ele>
        <time>2013-01-07T05:48:53Z</time>
      </trkpt>
      <trkpt lat="-21.18935" lon="55.62084">
        <ele>2001.6022949219</ele>
        <time>2013-01-07T05:49:05Z</time>
      </trkpt>
      <trkpt lat="-21.18936" lon="55.62087">
        <ele>2001.1215820312</ele>
        <time>2013-01-07T05:49:08Z</time>
      </trkpt>
      <trkpt lat="-21.18934" lon="55.62102">
        <ele>2002.0827636719</ele>
        <time>2013-01-07T05:49:27Z</time>
      </trkpt>
      <trkpt lat="-21.18942" lon="55.62119">
        <ele>2004.0056152344</ele>
        <time>2013-01-07T05:49:45Z</time>
      </trkpt>
      <trkpt lat="-21.18943" lon="55.62122">
        <ele>2005.4475097656</ele>
        <time>2013-01-07T05:49:48Z</time>
      </trkpt>
      <trkpt lat="-21.18946" lon="55.62135">
        <ele>2005.4475097656</ele>
        <time>2013-01-07T05:50:01Z</time>
      </trkpt>
      <trkpt lat="-21.18947" lon="55.62138">
        <ele>2005.9279785156</ele>
        <time>2013-01-07T05:50:04Z</time>
      </trkpt>
      <trkpt lat="-21.18938" lon="55.62147">
        <ele>2008.8120117188</ele>
        <time>2013-01-07T05:50:19Z</time>
      </trkpt>
      <trkpt lat="-21.18923" lon="55.62144">
        <ele>2011.2153320312</ele>
        <time>2013-01-07T05:50:38Z</time>
      </trkpt>
      <trkpt lat="-21.18915" lon="55.6214">
        <ele>2012.6574707031</ele>
        <time>2013-01-07T05:50:45Z</time>
      </trkpt>
      <trkpt lat="-21.18904" lon="55.62132">
        <ele>2014.0993652344</ele>
        <time>2013-01-07T05:51:01Z</time>
      </trkpt>
      <trkpt lat="-21.18894" lon="55.62123">
        <ele>2016.9833984375</ele>
        <time>2013-01-07T05:51:19Z</time>
      </trkpt>
      <trkpt lat="-21.18888" lon="55.62122">
        <ele>2019.8671875</ele>
        <time>2013-01-07T05:51:33Z</time>
      </trkpt>
      <trkpt lat="-21.18889" lon="55.62128">
        <ele>2020.8286132812</ele>
        <time>2013-01-07T05:51:43Z</time>
      </trkpt>
      <trkpt lat="-21.18887" lon="55.62146">
        <ele>2022.7512207031</ele>
        <time>2013-01-07T05:51:55Z</time>
      </trkpt>
      <trkpt lat="-21.18892" lon="55.62158">
        <ele>2022.7512207031</ele>
        <time>2013-01-07T05:52:04Z</time>
      </trkpt>
      <trkpt lat="-21.18903" lon="55.62168">
        <ele>2025.154296875</ele>
        <time>2013-01-07T05:52:20Z</time>
      </trkpt>
      <trkpt lat="-21.18913" lon="55.62187">
        <ele>2025.154296875</ele>
        <time>2013-01-07T05:52:39Z</time>
      </trkpt>
      <trkpt lat="-21.18914" lon="55.6219">
        <ele>2025.154296875</ele>
        <time>2013-01-07T05:52:42Z</time>
      </trkpt>
      <trkpt lat="-21.18923" lon="55.62204">
        <ele>2026.5964355469</ele>
        <time>2013-01-07T05:52:57Z</time>
      </trkpt>
      <trkpt lat="-21.18922" lon="55.62208">
        <ele>2025.6350097656</ele>
        <time>2013-01-07T05:53:00Z</time>
      </trkpt>
      <trkpt lat="-21.18925" lon="55.62215">
        <ele>2025.154296875</ele>
        <time>2013-01-07T05:53:07Z</time>
      </trkpt>
      <trkpt lat="-21.18936" lon="55.62228">
        <ele>2024.1931152344</ele>
        <time>2013-01-07T05:53:20Z</time>
      </trkpt>
      <trkpt lat="-21.18939" lon="55.62231">
        <ele>2023.2319335938</ele>
        <time>2013-01-07T05:53:38Z</time>
      </trkpt>
      <trkpt lat="-21.18939" lon="55.62231">
        <ele>2023.7124023438</ele>
        <time>2013-01-07T05:54:48Z</time>
      </trkpt>
      <trkpt lat="-21.18938" lon="55.62231">
        <ele>2020.8286132812</ele>
        <time>2013-01-07T05:54:55Z</time>
      </trkpt>
      <trkpt lat="-21.18938" lon="55.62231">
        <ele>2025.6350097656</ele>
        <time>2013-01-07T05:54:56Z</time>
      </trkpt>
      <trkpt lat="-21.18938" lon="55.62231">
        <ele>2023.2319335938</ele>
        <time>2013-01-07T05:54:59Z</time>
      </trkpt>
      <trkpt lat="-21.18934" lon="55.62237">
        <ele>2022.2705078125</ele>
        <time>2013-01-07T05:55:19Z</time>
      </trkpt>
      <trkpt lat="-21.18931" lon="55.62248">
        <ele>2021.3090820312</ele>
        <time>2013-01-07T05:55:25Z</time>
      </trkpt>
      <trkpt lat="-21.18931" lon="55.62257">
        <ele>2020.3479003906</ele>
        <time>2013-01-07T05:55:30Z</time>
      </trkpt>
      <trkpt lat="-21.18927" lon="55.62262">
        <ele>2019.8671875</ele>
        <time>2013-01-07T05:55:36Z</time>
      </trkpt>
      <trkpt lat="-21.18928" lon="55.62269">
        <ele>2018.4252929688</ele>
        <time>2013-01-07T05:55:41Z</time>
      </trkpt>
      <trkpt lat="-21.18928" lon="55.62279">
        <ele>2017.9445800781</ele>
        <time>2013-01-07T05:55:47Z</time>
      </trkpt>
      <trkpt lat="-21.18924" lon="55.62291">
        <ele>2020.8286132812</ele>
        <time>2013-01-07T05:56:01Z</time>
      </trkpt>
      <trkpt lat="-21.18922" lon="55.62306">
        <ele>2021.7897949219</ele>
        <time>2013-01-07T05:56:14Z</time>
      </trkpt>
      <trkpt lat="-21.18917" lon="55.62317">
        <ele>2023.2319335938</ele>
        <time>2013-01-07T05:56:23Z</time>
      </trkpt>
      <trkpt lat="-21.18917" lon="55.62322">
        <ele>2023.7124023438</ele>
        <time>2013-01-07T05:56:27Z</time>
      </trkpt>
      <trkpt lat="-21.18912" lon="55.62329">
        <ele>2024.1931152344</ele>
        <time>2013-01-07T05:56:32Z</time>
      </trkpt>
      <trkpt lat="-21.18912" lon="55.62335">
        <ele>2023.2319335938</ele>
        <time>2013-01-07T05:56:38Z</time>
      </trkpt>
      <trkpt lat="-21.18909" lon="55.62344">
        <ele>2023.7124023438</ele>
        <time>2013-01-07T05:56:46Z</time>
      </trkpt>
      <trkpt lat="-21.18908" lon="55.62348">
        <ele>2023.7124023438</ele>
        <time>2013-01-07T05:56:48Z</time>
      </trkpt>
      <trkpt lat="-21.18907" lon="55.62353">
        <ele>2024.673828125</ele>
        <time>2013-01-07T05:56:51Z</time>
      </trkpt>
      <trkpt lat="-21.18899" lon="55.6237">
        <ele>2025.154296875</ele>
        <time>2013-01-07T05:57:06Z</time>
      </trkpt>
      <trkpt lat="-21.18898" lon="55.62375">
        <ele>2024.673828125</ele>
        <time>2013-01-07T05:57:09Z</time>
      </trkpt>
      <trkpt lat="-21.18895" lon="55.62383">
        <ele>2024.1931152344</ele>
        <time>2013-01-07T05:57:17Z</time>
      </trkpt>
      <trkpt lat="-21.18891" lon="55.6239">
        <ele>2024.1931152344</ele>
        <time>2013-01-07T05:57:21Z</time>
      </trkpt>
      <trkpt lat="-21.18891" lon="55.62398">
        <ele>2024.1931152344</ele>
        <time>2013-01-07T05:57:26Z</time>
      </trkpt>
      <trkpt lat="-21.18888" lon="55.62404">
        <ele>2024.1931152344</ele>
        <time>2013-01-07T05:57:32Z</time>
      </trkpt>
      <trkpt lat="-21.18885" lon="55.62416">
        <ele>2025.154296875</ele>
        <time>2013-01-07T05:57:41Z</time>
      </trkpt>
      <trkpt lat="-21.18885" lon="55.62423">
        <ele>2024.673828125</ele>
        <time>2013-01-07T05:57:46Z</time>
      </trkpt>
      <trkpt lat="-21.18882" lon="55.6243">
        <ele>2025.6350097656</ele>
        <time>2013-01-07T05:57:50Z</time>
      </trkpt>
      <trkpt lat="-21.1888" lon="55.62444">
        <ele>2024.673828125</ele>
        <time>2013-01-07T05:58:03Z</time>
      </trkpt>
      <trkpt lat="-21.18874" lon="55.6246">
        <ele>2027.0771484375</ele>
        <time>2013-01-07T05:58:25Z</time>
      </trkpt>
      <trkpt lat="-21.18872" lon="55.62463">
        <ele>2027.5576171875</ele>
        <time>2013-01-07T05:58:27Z</time>
      </trkpt>
      <trkpt lat="-21.18872" lon="55.62468">
        <ele>2027.5576171875</ele>
        <time>2013-01-07T05:58:31Z</time>
      </trkpt>
      <trkpt lat="-21.18868" lon="55.62485">
        <ele>2027.5576171875</ele>
        <time>2013-01-07T05:58:45Z</time>
      </trkpt>
      <trkpt lat="-21.18862" lon="55.62496">
        <ele>2029.9611816406</ele>
        <time>2013-01-07T05:58:57Z</time>
      </trkpt>
      <trkpt lat="-21.18861" lon="55.625">
        <ele>2028.0385742188</ele>
        <time>2013-01-07T05:59:03Z</time>
      </trkpt>
      <trkpt lat="-21.18863" lon="55.62518">
        <ele>2028.9997558594</ele>
        <time>2013-01-07T05:59:16Z</time>
      </trkpt>
      <trkpt lat="-21.1887" lon="55.62525">
        <ele>2030.9226074219</ele>
        <time>2013-01-07T05:59:28Z</time>
      </trkpt>
      <trkpt lat="-21.18872" lon="55.6253">
        <ele>2033.3256835938</ele>
        <time>2013-01-07T05:59:38Z</time>
      </trkpt>
      <trkpt lat="-21.18875" lon="55.62536">
        <ele>2034.7678222656</ele>
        <time>2013-01-07T05:59:44Z</time>
      </trkpt>
      <trkpt lat="-21.18875" lon="55.62553">
        <ele>2035.7290039062</ele>
        <time>2013-01-07T05:59:59Z</time>
      </trkpt>
      <trkpt lat="-21.18878" lon="55.62565">
        <ele>2038.6130371094</ele>
        <time>2013-01-07T06:00:14Z</time>
      </trkpt>
      <trkpt lat="-21.18879" lon="55.62567">
        <ele>2039.0935058594</ele>
        <time>2013-01-07T06:00:16Z</time>
      </trkpt>
      <trkpt lat="-21.1888" lon="55.62568">
        <ele>2039.0935058594</ele>
        <time>2013-01-07T06:00:18Z</time>
      </trkpt>
      <trkpt lat="-21.18881" lon="55.62572">
        <ele>2039.0935058594</ele>
        <time>2013-01-07T06:00:22Z</time>
      </trkpt>
      <trkpt lat="-21.18881" lon="55.62575">
        <ele>2039.0935058594</ele>
        <time>2013-01-07T06:00:25Z</time>
      </trkpt>
      <trkpt lat="-21.18878" lon="55.62586">
        <ele>2040.5354003906</ele>
        <time>2013-01-07T06:00:36Z</time>
      </trkpt>
      <trkpt lat="-21.18875" lon="55.62593">
        <ele>2041.9775390625</ele>
        <time>2013-01-07T06:00:49Z</time>
      </trkpt>
      <trkpt lat="-21.18874" lon="55.62593">
        <ele>2041.4968261719</ele>
        <time>2013-01-07T06:00:53Z</time>
      </trkpt>
      <trkpt lat="-21.18863" lon="55.62593">
        <ele>2041.9775390625</ele>
        <time>2013-01-07T06:01:06Z</time>
      </trkpt>
      <trkpt lat="-21.18865" lon="55.62599">
        <ele>2043.9001464844</ele>
        <time>2013-01-07T06:01:20Z</time>
      </trkpt>
      <trkpt lat="-21.18859" lon="55.62602">
        <ele>2047.2648925781</ele>
        <time>2013-01-07T06:01:32Z</time>
      </trkpt>
      <trkpt lat="-21.18851" lon="55.62603">
        <ele>2049.6682128906</ele>
        <time>2013-01-07T06:01:46Z</time>
      </trkpt>
      <trkpt lat="-21.18836" lon="55.62603">
        <ele>2049.6682128906</ele>
        <time>2013-01-07T06:02:04Z</time>
      </trkpt>
      <trkpt lat="-21.18834" lon="55.62605">
        <ele>2049.6682128906</ele>
        <time>2013-01-07T06:02:07Z</time>
      </trkpt>
      <trkpt lat="-21.18833" lon="55.62608">
        <ele>2050.1489257812</ele>
        <time>2013-01-07T06:02:10Z</time>
      </trkpt>
      <trkpt lat="-21.18832" lon="55.62619">
        <ele>2051.1101074219</ele>
        <time>2013-01-07T06:02:23Z</time>
      </trkpt>
      <trkpt lat="-21.18829" lon="55.62628">
        <ele>2052.5520019531</ele>
        <time>2013-01-07T06:02:34Z</time>
      </trkpt>
      <trkpt lat="-21.18823" lon="55.62643">
        <ele>2054.474609375</ele>
        <time>2013-01-07T06:02:47Z</time>
      </trkpt>
      <trkpt lat="-21.18822" lon="55.62644">
        <ele>2054.474609375</ele>
        <time>2013-01-07T06:02:48Z</time>
      </trkpt>
      <trkpt lat="-21.18809" lon="55.62653">
        <ele>2054.9553222656</ele>
        <time>2013-01-07T06:03:02Z</time>
      </trkpt>
      <trkpt lat="-21.18796" lon="55.62655">
        <ele>2057.8393554688</ele>
        <time>2013-01-07T06:03:16Z</time>
      </trkpt>
      <trkpt lat="-21.18786" lon="55.62652">
        <ele>2059.28125</ele>
        <time>2013-01-07T06:03:33Z</time>
      </trkpt>
      <trkpt lat="-21.18781" lon="55.62651">
        <ele>2061.2041015625</ele>
        <time>2013-01-07T06:03:38Z</time>
      </trkpt>
      <trkpt lat="-21.18779" lon="55.62646">
        <ele>2061.6848144531</ele>
        <time>2013-01-07T06:03:44Z</time>
      </trkpt>
      <trkpt lat="-21.18771" lon="55.62637">
        <ele>2063.6071777344</ele>
        <time>2013-01-07T06:03:57Z</time>
      </trkpt>
      <trkpt lat="-21.1877" lon="55.62635">
        <ele>2063.6071777344</ele>
        <time>2013-01-07T06:03:58Z</time>
      </trkpt>
      <trkpt lat="-21.18767" lon="55.62634">
        <ele>2064.087890625</ele>
        <time>2013-01-07T06:04:01Z</time>
      </trkpt>
      <trkpt lat="-21.18764" lon="55.62629">
        <ele>2065.0493164062</ele>
        <time>2013-01-07T06:04:07Z</time>
      </trkpt>
      <trkpt lat="-21.18758" lon="55.62625">
        <ele>2066.9719238281</ele>
        <time>2013-01-07T06:04:17Z</time>
      </trkpt>
      <trkpt lat="-21.18754" lon="55.62627">
        <ele>2068.4138183594</ele>
        <time>2013-01-07T06:04:23Z</time>
      </trkpt>
      <trkpt lat="-21.18747" lon="55.62626">
        <ele>2068.4138183594</ele>
        <time>2013-01-07T06:04:34Z</time>
      </trkpt>
      <trkpt lat="-21.18738" lon="55.62618">
        <ele>2070.3364257812</ele>
        <time>2013-01-07T06:04:47Z</time>
      </trkpt>
      <trkpt lat="-21.18731" lon="55.62613">
        <ele>2071.7783203125</ele>
        <time>2013-01-07T06:04:59Z</time>
      </trkpt>
      <trkpt lat="-21.18722" lon="55.62606">
        <ele>2073.7009277344</ele>
        <time>2013-01-07T06:05:11Z</time>
      </trkpt>
      <trkpt lat="-21.18717" lon="55.62602">
        <ele>2073.7009277344</ele>
        <time>2013-01-07T06:05:16Z</time>
      </trkpt>
      <trkpt lat="-21.18709" lon="55.62592">
        <ele>2075.6235351562</ele>
        <time>2013-01-07T06:05:30Z</time>
      </trkpt>
      <trkpt lat="-21.18697" lon="55.62587">
        <ele>2077.0659179688</ele>
        <time>2013-01-07T06:05:50Z</time>
      </trkpt>
      <trkpt lat="-21.18696" lon="55.62587">
        <ele>2077.0659179688</ele>
        <time>2013-01-07T06:06:29Z</time>
      </trkpt>
      <trkpt lat="-21.18694" lon="55.62587">
        <ele>2077.0659179688</ele>
        <time>2013-01-07T06:07:10Z</time>
      </trkpt>
      <trkpt lat="-21.18692" lon="55.6259">
        <ele>2077.5463867188</ele>
        <time>2013-01-07T06:07:38Z</time>
      </trkpt>
      <trkpt lat="-21.18693" lon="55.6259">
        <ele>2077.0659179688</ele>
        <time>2013-01-07T06:08:49Z</time>
      </trkpt>
      <trkpt lat="-21.18693" lon="55.62584">
        <ele>2076.1044921875</ele>
        <time>2013-01-07T06:09:05Z</time>
      </trkpt>
      <trkpt lat="-21.18692" lon="55.62582">
        <ele>2075.6235351562</ele>
        <time>2013-01-07T06:09:06Z</time>
      </trkpt>
      <trkpt lat="-21.18688" lon="55.62575">
        <ele>2073.7009277344</ele>
        <time>2013-01-07T06:09:16Z</time>
      </trkpt>
      <trkpt lat="-21.18681" lon="55.62571">
        <ele>2073.7009277344</ele>
        <time>2013-01-07T06:09:21Z</time>
      </trkpt>
      <trkpt lat="-21.18679" lon="55.62566">
        <ele>2072.2590332031</ele>
        <time>2013-01-07T06:09:25Z</time>
      </trkpt>
      <trkpt lat="-21.18678" lon="55.6256">
        <ele>2071.2976074219</ele>
        <time>2013-01-07T06:09:31Z</time>
      </trkpt>
      <trkpt lat="-21.18673" lon="55.62554">
        <ele>2069.8557128906</ele>
        <time>2013-01-07T06:09:41Z</time>
      </trkpt>
      <trkpt lat="-21.1867" lon="55.62555">
        <ele>2069.8557128906</ele>
        <time>2013-01-07T06:09:45Z</time>
      </trkpt>
      <trkpt lat="-21.18668" lon="55.62556">
        <ele>2069.3752441406</ele>
        <time>2013-01-07T06:09:47Z</time>
      </trkpt>
      <trkpt lat="-21.18669" lon="55.6256">
        <ele>2068.89453125</ele>
        <time>2013-01-07T06:09:51Z</time>
      </trkpt>
      <trkpt lat="-21.18668" lon="55.62564">
        <ele>2068.4138183594</ele>
        <time>2013-01-07T06:09:55Z</time>
      </trkpt>
      <trkpt lat="-21.18664" lon="55.62569">
        <ele>2066.9719238281</ele>
        <time>2013-01-07T06:10:00Z</time>
      </trkpt>
      <trkpt lat="-21.18663" lon="55.62578">
        <ele>2066.9719238281</ele>
        <time>2013-01-07T06:10:07Z</time>
      </trkpt>
      <trkpt lat="-21.18663" lon="55.62584">
        <ele>2066.9719238281</ele>
        <time>2013-01-07T06:10:11Z</time>
      </trkpt>
      <trkpt lat="-21.18663" lon="55.62587">
        <ele>2066.9719238281</ele>
        <time>2013-01-07T06:10:14Z</time>
      </trkpt>
      <trkpt lat="-21.18662" lon="55.62602">
        <ele>2067.4523925781</ele>
        <time>2013-01-07T06:10:24Z</time>
      </trkpt>
      <trkpt lat="-21.18658" lon="55.62615">
        <ele>2066.4912109375</ele>
        <time>2013-01-07T06:10:33Z</time>
      </trkpt>
      <trkpt lat="-21.18658" lon="55.62616">
        <ele>2066.4912109375</ele>
        <time>2013-01-07T06:10:34Z</time>
      </trkpt>
      <trkpt lat="-21.18656" lon="55.62621">
        <ele>2066.4912109375</ele>
        <time>2013-01-07T06:10:37Z</time>
      </trkpt>
      <trkpt lat="-21.18651" lon="55.62636">
        <ele>2065.0493164062</ele>
        <time>2013-01-07T06:10:49Z</time>
      </trkpt>
      <trkpt lat="-21.1865" lon="55.62637">
        <ele>2064.5686035156</ele>
        <time>2013-01-07T06:10:50Z</time>
      </trkpt>
      <trkpt lat="-21.18655" lon="55.62652">
        <ele>2066.4912109375</ele>
        <time>2013-01-07T06:11:01Z</time>
      </trkpt>
      <trkpt lat="-21.18656" lon="55.62655">
        <ele>2067.4523925781</ele>
        <time>2013-01-07T06:11:04Z</time>
      </trkpt>
      <trkpt lat="-21.18662" lon="55.62669">
        <ele>2069.3752441406</ele>
        <time>2013-01-07T06:11:16Z</time>
      </trkpt>
      <trkpt lat="-21.18663" lon="55.62674">
        <ele>2069.8557128906</ele>
        <time>2013-01-07T06:11:20Z</time>
      </trkpt>
      <trkpt lat="-21.18663" lon="55.62684">
        <ele>2070.8171386719</ele>
        <time>2013-01-07T06:11:27Z</time>
      </trkpt>
      <trkpt lat="-21.18665" lon="55.62692">
        <ele>2070.8171386719</ele>
        <time>2013-01-07T06:11:32Z</time>
      </trkpt>
      <trkpt lat="-21.18666" lon="55.62705">
        <ele>2069.8557128906</ele>
        <time>2013-01-07T06:11:42Z</time>
      </trkpt>
      <trkpt lat="-21.18668" lon="55.6271">
        <ele>2069.8557128906</ele>
        <time>2013-01-07T06:11:45Z</time>
      </trkpt>
      <trkpt lat="-21.18671" lon="55.62713">
        <ele>2070.3364257812</ele>
        <time>2013-01-07T06:11:47Z</time>
      </trkpt>
      <trkpt lat="-21.18671" lon="55.62717">
        <ele>2069.8557128906</ele>
        <time>2013-01-07T06:11:49Z</time>
      </trkpt>
      <trkpt lat="-21.18674" lon="55.62728">
        <ele>2069.3752441406</ele>
        <time>2013-01-07T06:11:58Z</time>
      </trkpt>
      <trkpt lat="-21.18674" lon="55.6273">
        <ele>2069.3752441406</ele>
        <time>2013-01-07T06:11:59Z</time>
      </trkpt>
      <trkpt lat="-21.1868" lon="55.62743">
        <ele>2069.3752441406</ele>
        <time>2013-01-07T06:12:06Z</time>
      </trkpt>
      <trkpt lat="-21.18681" lon="55.62746">
        <ele>2069.8557128906</ele>
        <time>2013-01-07T06:12:09Z</time>
      </trkpt>
      <trkpt lat="-21.18685" lon="55.62762">
        <ele>2068.89453125</ele>
        <time>2013-01-07T06:12:19Z</time>
      </trkpt>
      <trkpt lat="-21.18686" lon="55.62768">
        <ele>2070.3364257812</ele>
        <time>2013-01-07T06:12:24Z</time>
      </trkpt>
      <trkpt lat="-21.18694" lon="55.62779">
        <ele>2069.3752441406</ele>
        <time>2013-01-07T06:12:36Z</time>
      </trkpt>
      <trkpt lat="-21.18696" lon="55.62784">
        <ele>2070.3364257812</ele>
        <time>2013-01-07T06:12:39Z</time>
      </trkpt>
      <trkpt lat="-21.18698" lon="55.62795">
        <ele>2070.3364257812</ele>
        <time>2013-01-07T06:12:47Z</time>
      </trkpt>
      <trkpt lat="-21.18698" lon="55.628">
        <ele>2071.2976074219</ele>
        <time>2013-01-07T06:12:50Z</time>
      </trkpt>
      <trkpt lat="-21.18698" lon="55.6281">
        <ele>2072.2590332031</ele>
        <time>2013-01-07T06:12:59Z</time>
      </trkpt>
      <trkpt lat="-21.18695" lon="55.62832">
        <ele>2073.2204589844</ele>
        <time>2013-01-07T06:13:14Z</time>
      </trkpt>
      <trkpt lat="-21.18692" lon="55.62842">
        <ele>2072.7397460938</ele>
        <time>2013-01-07T06:13:21Z</time>
      </trkpt>
      <trkpt lat="-21.1869" lon="55.62845">
        <ele>2072.7397460938</ele>
        <time>2013-01-07T06:13:24Z</time>
      </trkpt>
      <trkpt lat="-21.18689" lon="55.62848">
        <ele>2072.7397460938</ele>
        <time>2013-01-07T06:13:27Z</time>
      </trkpt>
      <trkpt lat="-21.18688" lon="55.6285">
        <ele>2073.2204589844</ele>
        <time>2013-01-07T06:13:36Z</time>
      </trkpt>
      <trkpt lat="-21.18684" lon="55.62855">
        <ele>2074.181640625</ele>
        <time>2013-01-07T06:13:53Z</time>
      </trkpt>
      <trkpt lat="-21.1868" lon="55.62878">
        <ele>2072.2590332031</ele>
        <time>2013-01-07T06:14:14Z</time>
      </trkpt>
      <trkpt lat="-21.18683" lon="55.62884">
        <ele>2072.7397460938</ele>
        <time>2013-01-07T06:14:19Z</time>
      </trkpt>
      <trkpt lat="-21.18686" lon="55.62893">
        <ele>2072.2590332031</ele>
        <time>2013-01-07T06:14:26Z</time>
      </trkpt>
      <trkpt lat="-21.18693" lon="55.62904">
        <ele>2070.8171386719</ele>
        <time>2013-01-07T06:14:35Z</time>
      </trkpt>
      <trkpt lat="-21.18695" lon="55.62906">
        <ele>2069.8557128906</ele>
        <time>2013-01-07T06:14:38Z</time>
      </trkpt>
      <trkpt lat="-21.18698" lon="55.62918">
        <ele>2068.89453125</ele>
        <time>2013-01-07T06:14:52Z</time>
      </trkpt>
      <trkpt lat="-21.18704" lon="55.6293">
        <ele>2066.0104980469</ele>
        <time>2013-01-07T06:15:06Z</time>
      </trkpt>
      <trkpt lat="-21.18705" lon="55.62944">
        <ele>2064.5686035156</ele>
        <time>2013-01-07T06:15:18Z</time>
      </trkpt>
      <trkpt lat="-21.18708" lon="55.62952">
        <ele>2064.5686035156</ele>
        <time>2013-01-07T06:15:28Z</time>
      </trkpt>
      <trkpt lat="-21.18717" lon="55.62966">
        <ele>2064.087890625</ele>
        <time>2013-01-07T06:15:40Z</time>
      </trkpt>
      <trkpt lat="-21.18717" lon="55.6297">
        <ele>2064.5686035156</ele>
        <time>2013-01-07T06:15:42Z</time>
      </trkpt>
      <trkpt lat="-21.18718" lon="55.62974">
        <ele>2064.087890625</ele>
        <time>2013-01-07T06:15:46Z</time>
      </trkpt>
      <trkpt lat="-21.18718" lon="55.62978">
        <ele>2063.6071777344</ele>
        <time>2013-01-07T06:15:49Z</time>
      </trkpt>
      <trkpt lat="-21.18721" lon="55.62985">
        <ele>2064.5686035156</ele>
        <time>2013-01-07T06:15:56Z</time>
      </trkpt>
      <trkpt lat="-21.18723" lon="55.62992">
        <ele>2064.087890625</ele>
        <time>2013-01-07T06:16:02Z</time>
      </trkpt>
      <trkpt lat="-21.18727" lon="55.62996">
        <ele>2064.087890625</ele>
        <time>2013-01-07T06:16:07Z</time>
      </trkpt>
      <trkpt lat="-21.18726" lon="55.62998">
        <ele>2064.087890625</ele>
        <time>2013-01-07T06:16:10Z</time>
      </trkpt>
      <trkpt lat="-21.18732" lon="55.63007">
        <ele>2065.5300292969</ele>
        <time>2013-01-07T06:16:19Z</time>
      </trkpt>
      <trkpt lat="-21.18734" lon="55.63012">
        <ele>2065.0493164062</ele>
        <time>2013-01-07T06:16:23Z</time>
      </trkpt>
      <trkpt lat="-21.18737" lon="55.63022">
        <ele>2066.0104980469</ele>
        <time>2013-01-07T06:16:34Z</time>
      </trkpt>
      <trkpt lat="-21.18742" lon="55.63029">
        <ele>2066.0104980469</ele>
        <time>2013-01-07T06:16:43Z</time>
      </trkpt>
      <trkpt lat="-21.18743" lon="55.63034">
        <ele>2066.4912109375</ele>
        <time>2013-01-07T06:16:46Z</time>
      </trkpt>
      <trkpt lat="-21.18749" lon="55.63044">
        <ele>2069.3752441406</ele>
        <time>2013-01-07T06:17:01Z</time>
      </trkpt>
      <trkpt lat="-21.18754" lon="55.63054">
        <ele>2070.8171386719</ele>
        <time>2013-01-07T06:17:13Z</time>
      </trkpt>
      <trkpt lat="-21.18758" lon="55.63063">
        <ele>2071.2976074219</ele>
        <time>2013-01-07T06:17:25Z</time>
      </trkpt>
      <trkpt lat="-21.18763" lon="55.63075">
        <ele>2069.8557128906</ele>
        <time>2013-01-07T06:17:38Z</time>
      </trkpt>
      <trkpt lat="-21.18764" lon="55.6308">
        <ele>2069.3752441406</ele>
        <time>2013-01-07T06:17:53Z</time>
      </trkpt>
      <trkpt lat="-21.18765" lon="55.63087">
        <ele>2071.2976074219</ele>
        <time>2013-01-07T06:18:05Z</time>
      </trkpt>
      <trkpt lat="-21.18765" lon="55.63091">
        <ele>2071.2976074219</ele>
        <time>2013-01-07T06:18:10Z</time>
      </trkpt>
      <trkpt lat="-21.18766" lon="55.63094">
        <ele>2072.2590332031</ele>
        <time>2013-01-07T06:18:12Z</time>
      </trkpt>
      <trkpt lat="-21.18766" lon="55.631">
        <ele>2073.7009277344</ele>
        <time>2013-01-07T06:18:20Z</time>
      </trkpt>
      <trkpt lat="-21.1877" lon="55.63111">
        <ele>2075.6235351562</ele>
        <time>2013-01-07T06:18:31Z</time>
      </trkpt>
      <trkpt lat="-21.18772" lon="55.63114">
        <ele>2075.1428222656</ele>
        <time>2013-01-07T06:18:35Z</time>
      </trkpt>
      <trkpt lat="-21.18774" lon="55.63123">
        <ele>2077.0659179688</ele>
        <time>2013-01-07T06:18:43Z</time>
      </trkpt>
      <trkpt lat="-21.18773" lon="55.63127">
        <ele>2076.5852050781</ele>
        <time>2013-01-07T06:18:46Z</time>
      </trkpt>
      <trkpt lat="-21.18774" lon="55.63141">
        <ele>2078.98828125</ele>
        <time>2013-01-07T06:18:57Z</time>
      </trkpt>
      <trkpt lat="-21.18773" lon="55.6315">
        <ele>2080.9111328125</ele>
        <time>2013-01-07T06:19:10Z</time>
      </trkpt>
      <trkpt lat="-21.18776" lon="55.6316">
        <ele>2081.3916015625</ele>
        <time>2013-01-07T06:19:20Z</time>
      </trkpt>
      <trkpt lat="-21.18777" lon="55.6316">
        <ele>2081.3916015625</ele>
        <time>2013-01-07T06:19:21Z</time>
      </trkpt>
      <trkpt lat="-21.1878" lon="55.63162">
        <ele>2082.8334960938</ele>
        <time>2013-01-07T06:19:25Z</time>
      </trkpt>
      <trkpt lat="-21.18783" lon="55.63164">
        <ele>2083.3142089844</ele>
        <time>2013-01-07T06:19:29Z</time>
      </trkpt>
      <trkpt lat="-21.18788" lon="55.63165">
        <ele>2084.2756347656</ele>
        <time>2013-01-07T06:19:34Z</time>
      </trkpt>
      <trkpt lat="-21.18794" lon="55.63166">
        <ele>2085.2368164062</ele>
        <time>2013-01-07T06:19:42Z</time>
      </trkpt>
      <trkpt lat="-21.18798" lon="55.63164">
        <ele>2085.7175292969</ele>
        <time>2013-01-07T06:19:46Z</time>
      </trkpt>
      <trkpt lat="-21.18809" lon="55.63167">
        <ele>2086.1982421875</ele>
        <time>2013-01-07T06:19:58Z</time>
      </trkpt>
      <trkpt lat="-21.18808" lon="55.63179">
        <ele>2087.6401367188</ele>
        <time>2013-01-07T06:20:11Z</time>
      </trkpt>
      <trkpt lat="-21.18808" lon="55.63182">
        <ele>2087.1594238281</ele>
        <time>2013-01-07T06:20:14Z</time>
      </trkpt>
      <trkpt lat="-21.18813" lon="55.63187">
        <ele>2086.1982421875</ele>
        <time>2013-01-07T06:20:22Z</time>
      </trkpt>
      <trkpt lat="-21.18816" lon="55.63189">
        <ele>2085.7175292969</ele>
        <time>2013-01-07T06:20:26Z</time>
      </trkpt>
      <trkpt lat="-21.18825" lon="55.63196">
        <ele>2086.6787109375</ele>
        <time>2013-01-07T06:20:36Z</time>
      </trkpt>
      <trkpt lat="-21.1883" lon="55.63199">
        <ele>2087.1594238281</ele>
        <time>2013-01-07T06:20:43Z</time>
      </trkpt>
      <trkpt lat="-21.18831" lon="55.63201">
        <ele>2087.1594238281</ele>
        <time>2013-01-07T06:20:46Z</time>
      </trkpt>
      <trkpt lat="-21.18831" lon="55.6321">
        <ele>2087.1594238281</ele>
        <time>2013-01-07T06:20:54Z</time>
      </trkpt>
      <trkpt lat="-21.18834" lon="55.63218">
        <ele>2087.1594238281</ele>
        <time>2013-01-07T06:21:01Z</time>
      </trkpt>
      <trkpt lat="-21.18834" lon="55.63224">
        <ele>2088.1208496094</ele>
        <time>2013-01-07T06:21:07Z</time>
      </trkpt>
      <trkpt lat="-21.1883" lon="55.63235">
        <ele>2090.0434570312</ele>
        <time>2013-01-07T06:21:19Z</time>
      </trkpt>
      <trkpt lat="-21.18824" lon="55.63243">
        <ele>2091.4853515625</ele>
        <time>2013-01-07T06:21:30Z</time>
      </trkpt>
      <trkpt lat="-21.18823" lon="55.63247">
        <ele>2092.4470214844</ele>
        <time>2013-01-07T06:21:35Z</time>
      </trkpt>
      <trkpt lat="-21.18822" lon="55.63262">
        <ele>2091.9660644531</ele>
        <time>2013-01-07T06:21:49Z</time>
      </trkpt>
      <trkpt lat="-21.1882" lon="55.63264">
        <ele>2091.4853515625</ele>
        <time>2013-01-07T06:21:51Z</time>
      </trkpt>
      <trkpt lat="-21.18819" lon="55.63272">
        <ele>2092.4470214844</ele>
        <time>2013-01-07T06:21:58Z</time>
      </trkpt>
      <trkpt lat="-21.18818" lon="55.63279">
        <ele>2092.4470214844</ele>
        <time>2013-01-07T06:22:06Z</time>
      </trkpt>
      <trkpt lat="-21.18813" lon="55.63282">
        <ele>2093.8889160156</ele>
        <time>2013-01-07T06:22:14Z</time>
      </trkpt>
      <trkpt lat="-21.18813" lon="55.63284">
        <ele>2094.3693847656</ele>
        <time>2013-01-07T06:22:16Z</time>
      </trkpt>
      <trkpt lat="-21.1881" lon="55.63288">
        <ele>2093.408203125</ele>
        <time>2013-01-07T06:22:19Z</time>
      </trkpt>
      <trkpt lat="-21.18814" lon="55.63302">
        <ele>2095.3308105469</ele>
        <time>2013-01-07T06:22:35Z</time>
      </trkpt>
      <trkpt lat="-21.18815" lon="55.63303">
        <ele>2095.3308105469</ele>
        <time>2013-01-07T06:22:36Z</time>
      </trkpt>
      <trkpt lat="-21.18814" lon="55.63312">
        <ele>2096.2922363281</ele>
        <time>2013-01-07T06:22:47Z</time>
      </trkpt>
      <trkpt lat="-21.18813" lon="55.63311">
        <ele>2096.2922363281</ele>
        <time>2013-01-07T06:22:52Z</time>
      </trkpt>
      <trkpt lat="-21.1881" lon="55.63313">
        <ele>2096.2922363281</ele>
        <time>2013-01-07T06:22:55Z</time>
      </trkpt>
      <trkpt lat="-21.18805" lon="55.63321">
        <ele>2096.2922363281</ele>
        <time>2013-01-07T06:23:03Z</time>
      </trkpt>
      <trkpt lat="-21.18804" lon="55.63327">
        <ele>2097.2534179688</ele>
        <time>2013-01-07T06:23:11Z</time>
      </trkpt>
      <trkpt lat="-21.18803" lon="55.63334">
        <ele>2097.2534179688</ele>
        <time>2013-01-07T06:23:15Z</time>
      </trkpt>
      <trkpt lat="-21.18802" lon="55.63336">
        <ele>2098.6953125</ele>
        <time>2013-01-07T06:23:18Z</time>
      </trkpt>
      <trkpt lat="-21.18802" lon="55.63348">
        <ele>2098.6953125</ele>
        <time>2013-01-07T06:23:30Z</time>
      </trkpt>
      <trkpt lat="-21.18802" lon="55.6335">
        <ele>2099.1760253906</ele>
        <time>2013-01-07T06:23:31Z</time>
      </trkpt>
      <trkpt lat="-21.18802" lon="55.6336">
        <ele>2101.0986328125</ele>
        <time>2013-01-07T06:23:40Z</time>
      </trkpt>
      <trkpt lat="-21.18803" lon="55.63364">
        <ele>2101.5793457031</ele>
        <time>2013-01-07T06:23:47Z</time>
      </trkpt>
      <trkpt lat="-21.18797" lon="55.63376">
        <ele>2102.5405273438</ele>
        <time>2013-01-07T06:23:58Z</time>
      </trkpt>
      <trkpt lat="-21.18798" lon="55.63379">
        <ele>2103.9826660156</ele>
        <time>2013-01-07T06:24:04Z</time>
      </trkpt>
      <trkpt lat="-21.18801" lon="55.63388">
        <ele>2105.9050292969</ele>
        <time>2013-01-07T06:24:16Z</time>
      </trkpt>
      <trkpt lat="-21.18798" lon="55.63389">
        <ele>2105.9050292969</ele>
        <time>2013-01-07T06:24:20Z</time>
      </trkpt>
      <trkpt lat="-21.18794" lon="55.63398">
        <ele>2108.30859375</ele>
        <time>2013-01-07T06:24:29Z</time>
      </trkpt>
      <trkpt lat="-21.18792" lon="55.63399">
        <ele>2108.30859375</ele>
        <time>2013-01-07T06:24:31Z</time>
      </trkpt>
      <trkpt lat="-21.18783" lon="55.63405">
        <ele>2108.7893066406</ele>
        <time>2013-01-07T06:24:41Z</time>
      </trkpt>
      <trkpt lat="-21.18779" lon="55.63415">
        <ele>2110.2312011719</ele>
        <time>2013-01-07T06:24:54Z</time>
      </trkpt>
      <trkpt lat="-21.18774" lon="55.63424">
        <ele>2113.595703125</ele>
        <time>2013-01-07T06:25:07Z</time>
      </trkpt>
      <trkpt lat="-21.18777" lon="55.63426">
        <ele>2114.0764160156</ele>
        <time>2013-01-07T06:25:14Z</time>
      </trkpt>
      <trkpt lat="-21.18789" lon="55.63427">
        <ele>2116.4797363281</ele>
        <time>2013-01-07T06:25:29Z</time>
      </trkpt>
      <trkpt lat="-21.18799" lon="55.63425">
        <ele>2117.4409179688</ele>
        <time>2013-01-07T06:25:39Z</time>
      </trkpt>
      <trkpt lat="-21.18804" lon="55.63426">
        <ele>2117.9216308594</ele>
        <time>2013-01-07T06:25:46Z</time>
      </trkpt>
      <trkpt lat="-21.18801" lon="55.6343">
        <ele>2120.3249511719</ele>
        <time>2013-01-07T06:25:57Z</time>
      </trkpt>
      <trkpt lat="-21.18787" lon="55.63435">
        <ele>2120.8056640625</ele>
        <time>2013-01-07T06:26:09Z</time>
      </trkpt>
      <trkpt lat="-21.18776" lon="55.63441">
        <ele>2120.3249511719</ele>
        <time>2013-01-07T06:26:19Z</time>
      </trkpt>
      <trkpt lat="-21.18772" lon="55.63442">
        <ele>2120.8056640625</ele>
        <time>2013-01-07T06:26:24Z</time>
      </trkpt>
      <trkpt lat="-21.1877" lon="55.63444">
        <ele>2121.2861328125</ele>
        <time>2013-01-07T06:26:26Z</time>
      </trkpt>
      <trkpt lat="-21.18771" lon="55.63449">
        <ele>2122.7282714844</ele>
        <time>2013-01-07T06:26:34Z</time>
      </trkpt>
      <trkpt lat="-21.18782" lon="55.63451">
        <ele>2125.6123046875</ele>
        <time>2013-01-07T06:26:50Z</time>
      </trkpt>
      <trkpt lat="-21.18799" lon="55.63454">
        <ele>2128.015625</ele>
        <time>2013-01-07T06:27:08Z</time>
      </trkpt>
      <trkpt lat="-21.18815" lon="55.63456">
        <ele>2130.4189453125</ele>
        <time>2013-01-07T06:27:26Z</time>
      </trkpt>
      <trkpt lat="-21.1883" lon="55.63457">
        <ele>2131.8608398438</ele>
        <time>2013-01-07T06:27:43Z</time>
      </trkpt>
      <trkpt lat="-21.18838" lon="55.6346">
        <ele>2133.302734375</ele>
        <time>2013-01-07T06:27:53Z</time>
      </trkpt>
      <trkpt lat="-21.18838" lon="55.63463">
        <ele>2134.2641601562</ele>
        <time>2013-01-07T06:27:58Z</time>
      </trkpt>
      <trkpt lat="-21.18831" lon="55.63467">
        <ele>2136.1867675781</ele>
        <time>2013-01-07T06:28:08Z</time>
      </trkpt>
      <trkpt lat="-21.18828" lon="55.63467">
        <ele>2135.7060546875</ele>
        <time>2013-01-07T06:28:12Z</time>
      </trkpt>
      <trkpt lat="-21.18825" lon="55.63469">
        <ele>2136.1867675781</ele>
        <time>2013-01-07T06:28:18Z</time>
      </trkpt>
      <trkpt lat="-21.18816" lon="55.63479">
        <ele>2139.0705566406</ele>
        <time>2013-01-07T06:28:32Z</time>
      </trkpt>
      <trkpt lat="-21.18812" lon="55.63482">
        <ele>2139.0705566406</ele>
        <time>2013-01-07T06:28:35Z</time>
      </trkpt>
      <trkpt lat="-21.18816" lon="55.63487">
        <ele>2140.5126953125</ele>
        <time>2013-01-07T06:28:45Z</time>
      </trkpt>
      <trkpt lat="-21.18818" lon="55.63492">
        <ele>2143.8774414062</ele>
        <time>2013-01-07T06:28:59Z</time>
      </trkpt>
      <trkpt lat="-21.18816" lon="55.63494">
        <ele>2145.8000488281</ele>
        <time>2013-01-07T06:29:11Z</time>
      </trkpt>
      <trkpt lat="-21.18822" lon="55.63492">
        <ele>2145.8000488281</ele>
        <time>2013-01-07T06:29:22Z</time>
      </trkpt>
      <trkpt lat="-21.18826" lon="55.63491">
        <ele>2145.3193359375</ele>
        <time>2013-01-07T06:29:33Z</time>
      </trkpt>
      <trkpt lat="-21.18833" lon="55.63491">
        <ele>2147.2419433594</ele>
        <time>2013-01-07T06:29:41Z</time>
      </trkpt>
      <trkpt lat="-21.18845" lon="55.63492">
        <ele>2146.7612304688</ele>
        <time>2013-01-07T06:29:54Z</time>
      </trkpt>
      <trkpt lat="-21.18858" lon="55.63491">
        <ele>2147.2419433594</ele>
        <time>2013-01-07T06:30:14Z</time>
      </trkpt>
      <trkpt lat="-21.1887" lon="55.63493">
        <ele>2147.72265625</ele>
        <time>2013-01-07T06:30:29Z</time>
      </trkpt>
      <trkpt lat="-21.18883" lon="55.63494">
        <ele>2149.1645507812</ele>
        <time>2013-01-07T06:30:47Z</time>
      </trkpt>
      <trkpt lat="-21.18886" lon="55.63494">
        <ele>2149.1645507812</ele>
        <time>2013-01-07T06:31:19Z</time>
      </trkpt>
      <trkpt lat="-21.18885" lon="55.63495">
        <ele>2148.6838378906</ele>
        <time>2013-01-07T06:31:31Z</time>
      </trkpt>
      <trkpt lat="-21.18884" lon="55.63494">
        <ele>2149.1645507812</ele>
        <time>2013-01-07T06:31:52Z</time>
      </trkpt>
      <trkpt lat="-21.18883" lon="55.63494">
        <ele>2149.1645507812</ele>
        <time>2013-01-07T06:32:58Z</time>
      </trkpt>
      <trkpt lat="-21.18881" lon="55.63491">
        <ele>2149.6452636719</ele>
        <time>2013-01-07T06:34:27Z</time>
      </trkpt>
      <trkpt lat="-21.18882" lon="55.63494">
        <ele>2150.1259765625</ele>
        <time>2013-01-07T06:34:56Z</time>
      </trkpt>
      <trkpt lat="-21.18882" lon="55.63494">
        <ele>2150.1259765625</ele>
        <time>2013-01-07T06:35:11Z</time>
      </trkpt>
      <trkpt lat="-21.18877" lon="55.63493">
        <ele>2150.1259765625</ele>
        <time>2013-01-07T06:35:25Z</time>
      </trkpt>
      <trkpt lat="-21.18877" lon="55.63493">
        <ele>2150.1259765625</ele>
        <time>2013-01-07T06:35:27Z</time>
      </trkpt>
      <trkpt lat="-21.18871" lon="55.63491">
        <ele>2150.1259765625</ele>
        <time>2013-01-07T06:35:41Z</time>
      </trkpt>
      <trkpt lat="-21.18865" lon="55.6349">
        <ele>2149.6452636719</ele>
        <time>2013-01-07T06:36:01Z</time>
      </trkpt>
      <trkpt lat="-21.18865" lon="55.63491">
        <ele>2147.72265625</ele>
        <time>2013-01-07T06:36:03Z</time>
      </trkpt>
      <trkpt lat="-21.18865" lon="55.63491">
        <ele>2152.5290527344</ele>
        <time>2013-01-07T06:36:04Z</time>
      </trkpt>
      <trkpt lat="-21.18865" lon="55.6349">
        <ele>2152.5290527344</ele>
        <time>2013-01-07T06:36:05Z</time>
      </trkpt>
      <trkpt lat="-21.18865" lon="55.63489">
        <ele>2149.6452636719</ele>
        <time>2013-01-07T06:36:07Z</time>
      </trkpt>
      <trkpt lat="-21.18866" lon="55.63489">
        <ele>2150.1259765625</ele>
        <time>2013-01-07T06:36:25Z</time>
      </trkpt>
      <trkpt lat="-21.18866" lon="55.63488">
        <ele>2150.6064453125</ele>
        <time>2013-01-07T06:36:47Z</time>
      </trkpt>
      <trkpt lat="-21.18868" lon="55.6349">
        <ele>2149.1645507812</ele>
        <time>2013-01-07T06:36:52Z</time>
      </trkpt>
      <trkpt lat="-21.18878" lon="55.63493">
        <ele>2150.6064453125</ele>
        <time>2013-01-07T06:37:04Z</time>
      </trkpt>
      <trkpt lat="-21.18906" lon="55.63497">
        <ele>2152.0483398438</ele>
        <time>2013-01-07T06:37:30Z</time>
      </trkpt>
      <trkpt lat="-21.18911" lon="55.63497">
        <ele>2152.5290527344</ele>
        <time>2013-01-07T06:37:34Z</time>
      </trkpt>
      <trkpt lat="-21.18921" lon="55.63497">
        <ele>2152.5290527344</ele>
        <time>2013-01-07T06:37:44Z</time>
      </trkpt>
      <trkpt lat="-21.18924" lon="55.63502">
        <ele>2153.4904785156</ele>
        <time>2013-01-07T06:37:48Z</time>
      </trkpt>
      <trkpt lat="-21.18938" lon="55.63507">
        <ele>2153.9711914062</ele>
        <time>2013-01-07T06:38:00Z</time>
      </trkpt>
      <trkpt lat="-21.18946" lon="55.63509">
        <ele>2153.9711914062</ele>
        <time>2013-01-07T06:38:07Z</time>
      </trkpt>
      <trkpt lat="-21.18954" lon="55.6351">
        <ele>2154.4516601562</ele>
        <time>2013-01-07T06:38:13Z</time>
      </trkpt>
      <trkpt lat="-21.18958" lon="55.63517">
        <ele>2154.9323730469</ele>
        <time>2013-01-07T06:38:18Z</time>
      </trkpt>
      <trkpt lat="-21.18966" lon="55.63519">
        <ele>2154.9323730469</ele>
        <time>2013-01-07T06:38:25Z</time>
      </trkpt>
      <trkpt lat="-21.1897" lon="55.63522">
        <ele>2155.4130859375</ele>
        <time>2013-01-07T06:38:30Z</time>
      </trkpt>
      <trkpt lat="-21.18978" lon="55.63526">
        <ele>2155.8935546875</ele>
        <time>2013-01-07T06:38:38Z</time>
      </trkpt>
      <trkpt lat="-21.18982" lon="55.63529">
        <ele>2155.8935546875</ele>
        <time>2013-01-07T06:38:41Z</time>
      </trkpt>
      <trkpt lat="-21.18983" lon="55.63532">
        <ele>2155.8935546875</ele>
        <time>2013-01-07T06:38:44Z</time>
      </trkpt>
      <trkpt lat="-21.18985" lon="55.63534">
        <ele>2156.3745117188</ele>
        <time>2013-01-07T06:38:46Z</time>
      </trkpt>
      <trkpt lat="-21.18987" lon="55.63536">
        <ele>2156.8552246094</ele>
        <time>2013-01-07T06:38:49Z</time>
      </trkpt>
      <trkpt lat="-21.18997" lon="55.63542">
        <ele>2156.3745117188</ele>
        <time>2013-01-07T06:39:00Z</time>
      </trkpt>
      <trkpt lat="-21.19002" lon="55.63545">
        <ele>2157.3359375</ele>
        <time>2013-01-07T06:39:05Z</time>
      </trkpt>
      <trkpt lat="-21.19006" lon="55.63547">
        <ele>2157.3359375</ele>
        <time>2013-01-07T06:39:08Z</time>
      </trkpt>
      <trkpt lat="-21.1901" lon="55.63552">
        <ele>2158.2971191406</ele>
        <time>2013-01-07T06:39:14Z</time>
      </trkpt>
      <trkpt lat="-21.1902" lon="55.63555">
        <ele>2158.2971191406</ele>
        <time>2013-01-07T06:39:24Z</time>
      </trkpt>
      <trkpt lat="-21.19028" lon="55.63555">
        <ele>2159.2585449219</ele>
        <time>2013-01-07T06:39:31Z</time>
      </trkpt>
      <trkpt lat="-21.19034" lon="55.63558">
        <ele>2159.2585449219</ele>
        <time>2013-01-07T06:39:36Z</time>
      </trkpt>
      <trkpt lat="-21.19036" lon="55.63561">
        <ele>2158.7778320312</ele>
        <time>2013-01-07T06:39:39Z</time>
      </trkpt>
      <trkpt lat="-21.19036" lon="55.63563">
        <ele>2158.7778320312</ele>
        <time>2013-01-07T06:39:41Z</time>
      </trkpt>
      <trkpt lat="-21.19041" lon="55.63566">
        <ele>2159.7390136719</ele>
        <time>2013-01-07T06:39:53Z</time>
      </trkpt>
      <trkpt lat="-21.19053" lon="55.63562">
        <ele>2159.2585449219</ele>
        <time>2013-01-07T06:40:02Z</time>
      </trkpt>
      <trkpt lat="-21.19066" lon="55.63562">
        <ele>2159.2585449219</ele>
        <time>2013-01-07T06:40:16Z</time>
      </trkpt>
      <trkpt lat="-21.19072" lon="55.63564">
        <ele>2160.7004394531</ele>
        <time>2013-01-07T06:40:22Z</time>
      </trkpt>
      <trkpt lat="-21.19072" lon="55.63564">
        <ele>2160.7004394531</ele>
        <time>2013-01-07T06:40:23Z</time>
      </trkpt>
      <trkpt lat="-21.1908" lon="55.63566">
        <ele>2160.7004394531</ele>
        <time>2013-01-07T06:40:29Z</time>
      </trkpt>
      <trkpt lat="-21.19092" lon="55.63566">
        <ele>2160.7004394531</ele>
        <time>2013-01-07T06:40:40Z</time>
      </trkpt>
      <trkpt lat="-21.19103" lon="55.63558">
        <ele>2160.7004394531</ele>
        <time>2013-01-07T06:40:50Z</time>
      </trkpt>
      <trkpt lat="-21.19114" lon="55.63551">
        <ele>2161.6618652344</ele>
        <time>2013-01-07T06:41:09Z</time>
      </trkpt>
      <trkpt lat="-21.19122" lon="55.6354">
        <ele>2162.1423339844</ele>
        <time>2013-01-07T06:41:27Z</time>
      </trkpt>
      <trkpt lat="-21.19124" lon="55.63538">
        <ele>2162.1423339844</ele>
        <time>2013-01-07T06:41:30Z</time>
      </trkpt>
      <trkpt lat="-21.19126" lon="55.63534">
        <ele>2162.623046875</ele>
        <time>2013-01-07T06:41:34Z</time>
      </trkpt>
      <trkpt lat="-21.19141" lon="55.63531">
        <ele>2162.623046875</ele>
        <time>2013-01-07T06:41:53Z</time>
      </trkpt>
      <trkpt lat="-21.19146" lon="55.63532">
        <ele>2162.1423339844</ele>
        <time>2013-01-07T06:41:57Z</time>
      </trkpt>
      <trkpt lat="-21.19149" lon="55.63533">
        <ele>2163.1037597656</ele>
        <time>2013-01-07T06:41:59Z</time>
      </trkpt>
      <trkpt lat="-21.19153" lon="55.63535">
        <ele>2163.1037597656</ele>
        <time>2013-01-07T06:42:12Z</time>
      </trkpt>
      <trkpt lat="-21.19153" lon="55.63534">
        <ele>2164.0649414062</ele>
        <time>2013-01-07T06:44:17Z</time>
      </trkpt>
      <trkpt lat="-21.19152" lon="55.63534">
        <ele>2165.5070800781</ele>
        <time>2013-01-07T06:44:42Z</time>
      </trkpt>
      <trkpt lat="-21.19152" lon="55.63534">
        <ele>2163.5842285156</ele>
        <time>2013-01-07T06:44:44Z</time>
      </trkpt>
      <trkpt lat="-21.19152" lon="55.63534">
        <ele>2164.0649414062</ele>
        <time>2013-01-07T06:45:41Z</time>
      </trkpt>
      <trkpt lat="-21.19153" lon="55.63534">
        <ele>2164.5456542969</ele>
        <time>2013-01-07T06:46:54Z</time>
      </trkpt>
      <trkpt lat="-21.19152" lon="55.63534">
        <ele>2165.0263671875</ele>
        <time>2013-01-07T06:47:13Z</time>
      </trkpt>
      <trkpt lat="-21.19152" lon="55.63534">
        <ele>2164.5456542969</ele>
        <time>2013-01-07T06:48:01Z</time>
      </trkpt>
      <trkpt lat="-21.19152" lon="55.63534">
        <ele>2166.4682617188</ele>
        <time>2013-01-07T06:48:20Z</time>
      </trkpt>
      <trkpt lat="-21.19152" lon="55.63534">
        <ele>2164.5456542969</ele>
        <time>2013-01-07T06:48:22Z</time>
      </trkpt>
      <trkpt lat="-21.19152" lon="55.63532">
        <ele>2165.0263671875</ele>
        <time>2013-01-07T06:51:40Z</time>
      </trkpt>
      <trkpt lat="-21.19153" lon="55.63533">
        <ele>2165.0263671875</ele>
        <time>2013-01-07T06:52:03Z</time>
      </trkpt>
      <trkpt lat="-21.19151" lon="55.63533">
        <ele>2165.5070800781</ele>
        <time>2013-01-07T06:52:20Z</time>
      </trkpt>
      <trkpt lat="-21.19152" lon="55.63533">
        <ele>2165.5070800781</ele>
        <time>2013-01-07T06:52:39Z</time>
      </trkpt>
      <trkpt lat="-21.19151" lon="55.63533">
        <ele>2165.9875488281</ele>
        <time>2013-01-07T06:52:51Z</time>
      </trkpt>
      <trkpt lat="-21.1915" lon="55.63534">
        <ele>2165.5070800781</ele>
        <time>2013-01-07T06:53:10Z</time>
      </trkpt>
      <trkpt lat="-21.19152" lon="55.63536">
        <ele>2165.0263671875</ele>
        <time>2013-01-07T06:53:53Z</time>
      </trkpt>
      <trkpt lat="-21.19156" lon="55.63534">
        <ele>2165.9875488281</ele>
        <time>2013-01-07T06:54:23Z</time>
      </trkpt>
      <trkpt lat="-21.19156" lon="55.63533">
        <ele>2164.5456542969</ele>
        <time>2013-01-07T06:54:26Z</time>
      </trkpt>
      <trkpt lat="-21.19156" lon="55.63533">
        <ele>2165.9875488281</ele>
        <time>2013-01-07T06:54:35Z</time>
      </trkpt>
      <trkpt lat="-21.19153" lon="55.63533">
        <ele>2165.5070800781</ele>
        <time>2013-01-07T06:54:53Z</time>
      </trkpt>
      <trkpt lat="-21.19154" lon="55.63534">
        <ele>2165.9875488281</ele>
        <time>2013-01-07T06:55:26Z</time>
      </trkpt>
      <trkpt lat="-21.19152" lon="55.63534">
        <ele>2165.9875488281</ele>
        <time>2013-01-07T06:56:20Z</time>
      </trkpt>
      <trkpt lat="-21.19152" lon="55.63533">
        <ele>2166.4682617188</ele>
        <time>2013-01-07T06:56:44Z</time>
      </trkpt>
      <trkpt lat="-21.19153" lon="55.63533">
        <ele>2165.9875488281</ele>
        <time>2013-01-07T06:57:11Z</time>
      </trkpt>
      <trkpt lat="-21.19153" lon="55.63534">
        <ele>2166.4682617188</ele>
        <time>2013-01-07T06:57:57Z</time>
      </trkpt>
      <trkpt lat="-21.19153" lon="55.63532">
        <ele>2165.9875488281</ele>
        <time>2013-01-07T06:58:20Z</time>
      </trkpt>
      <trkpt lat="-21.19154" lon="55.6353">
        <ele>2165.5070800781</ele>
        <time>2013-01-07T06:58:39Z</time>
      </trkpt>
      <trkpt lat="-21.19154" lon="55.63529">
        <ele>2164.0649414062</ele>
        <time>2013-01-07T06:58:50Z</time>
      </trkpt>
      <trkpt lat="-21.19153" lon="55.63529">
        <ele>2168.3908691406</ele>
        <time>2013-01-07T06:58:51Z</time>
      </trkpt>
      <trkpt lat="-21.19153" lon="55.63529">
        <ele>2168.3908691406</ele>
        <time>2013-01-07T06:58:52Z</time>
      </trkpt>
      <trkpt lat="-21.19152" lon="55.6353">
        <ele>2166.4682617188</ele>
        <time>2013-01-07T06:58:56Z</time>
      </trkpt>
      <trkpt lat="-21.19154" lon="55.6353">
        <ele>2166.9489746094</ele>
        <time>2013-01-07T06:59:07Z</time>
      </trkpt>
      <trkpt lat="-21.19154" lon="55.63533">
        <ele>2166.9489746094</ele>
        <time>2013-01-07T06:59:37Z</time>
      </trkpt>
      <trkpt lat="-21.19154" lon="55.63531">
        <ele>2165.9875488281</ele>
        <time>2013-01-07T07:00:00Z</time>
      </trkpt>
      <trkpt lat="-21.19153" lon="55.63532">
        <ele>2167.4294433594</ele>
        <time>2013-01-07T07:00:33Z</time>
      </trkpt>
      <trkpt lat="-21.19151" lon="55.63533">
        <ele>2167.4294433594</ele>
        <time>2013-01-07T07:00:49Z</time>
      </trkpt>
      <trkpt lat="-21.19153" lon="55.63532">
        <ele>2166.9489746094</ele>
        <time>2013-01-07T07:03:19Z</time>
      </trkpt>
      <trkpt lat="-21.19149" lon="55.63527">
        <ele>2166.4682617188</ele>
        <time>2013-01-07T07:03:30Z</time>
      </trkpt>
      <trkpt lat="-21.19144" lon="55.63524">
        <ele>2166.4682617188</ele>
        <time>2013-01-07T07:03:35Z</time>
      </trkpt>
      <trkpt lat="-21.19137" lon="55.63526">
        <ele>2166.9489746094</ele>
        <time>2013-01-07T07:03:42Z</time>
      </trkpt>
      <trkpt lat="-21.19128" lon="55.63524">
        <ele>2166.4682617188</ele>
        <time>2013-01-07T07:03:49Z</time>
      </trkpt>
      <trkpt lat="-21.19128" lon="55.63518">
        <ele>2165.9875488281</ele>
        <time>2013-01-07T07:03:52Z</time>
      </trkpt>
      <trkpt lat="-21.19127" lon="55.63513">
        <ele>2166.4682617188</ele>
        <time>2013-01-07T07:03:56Z</time>
      </trkpt>
      <trkpt lat="-21.19126" lon="55.63506">
        <ele>2165.9875488281</ele>
        <time>2013-01-07T07:04:02Z</time>
      </trkpt>
      <trkpt lat="-21.19123" lon="55.63499">
        <ele>2165.9875488281</ele>
        <time>2013-01-07T07:04:12Z</time>
      </trkpt>
      <trkpt lat="-21.1912" lon="55.63488">
        <ele>2165.5070800781</ele>
        <time>2013-01-07T07:04:19Z</time>
      </trkpt>
      <trkpt lat="-21.19121" lon="55.63483">
        <ele>2165.0263671875</ele>
        <time>2013-01-07T07:04:25Z</time>
      </trkpt>
      <trkpt lat="-21.1912" lon="55.63475">
        <ele>2164.5456542969</ele>
        <time>2013-01-07T07:04:29Z</time>
      </trkpt>
      <trkpt lat="-21.19116" lon="55.63457">
        <ele>2164.5456542969</ele>
        <time>2013-01-07T07:04:41Z</time>
      </trkpt>
      <trkpt lat="-21.19115" lon="55.63449">
        <ele>2163.5842285156</ele>
        <time>2013-01-07T07:04:50Z</time>
      </trkpt>
      <trkpt lat="-21.19112" lon="55.63442">
        <ele>2163.1037597656</ele>
        <time>2013-01-07T07:04:55Z</time>
      </trkpt>
      <trkpt lat="-21.19112" lon="55.63437">
        <ele>2163.1037597656</ele>
        <time>2013-01-07T07:04:58Z</time>
      </trkpt>
      <trkpt lat="-21.19112" lon="55.63435">
        <ele>2163.1037597656</ele>
        <time>2013-01-07T07:05:01Z</time>
      </trkpt>
      <trkpt lat="-21.19118" lon="55.63412">
        <ele>2161.1811523438</ele>
        <time>2013-01-07T07:05:15Z</time>
      </trkpt>
      <trkpt lat="-21.19124" lon="55.63403">
        <ele>2160.2197265625</ele>
        <time>2013-01-07T07:05:24Z</time>
      </trkpt>
      <trkpt lat="-21.19129" lon="55.63394">
        <ele>2159.7390136719</ele>
        <time>2013-01-07T07:05:35Z</time>
      </trkpt>
      <trkpt lat="-21.19132" lon="55.63392">
        <ele>2159.7390136719</ele>
        <time>2013-01-07T07:05:38Z</time>
      </trkpt>
      <trkpt lat="-21.19134" lon="55.63389">
        <ele>2159.2585449219</ele>
        <time>2013-01-07T07:05:41Z</time>
      </trkpt>
      <trkpt lat="-21.19138" lon="55.63384">
        <ele>2159.2585449219</ele>
        <time>2013-01-07T07:05:45Z</time>
      </trkpt>
      <trkpt lat="-21.19142" lon="55.63373">
        <ele>2158.2971191406</ele>
        <time>2013-01-07T07:05:53Z</time>
      </trkpt>
      <trkpt lat="-21.19146" lon="55.63364">
        <ele>2157.8166503906</ele>
        <time>2013-01-07T07:05:58Z</time>
      </trkpt>
      <trkpt lat="-21.19151" lon="55.63364">
        <ele>2157.3359375</ele>
        <time>2013-01-07T07:06:04Z</time>
      </trkpt>
      <trkpt lat="-21.19156" lon="55.63357">
        <ele>2156.8552246094</ele>
        <time>2013-01-07T07:06:09Z</time>
      </trkpt>
      <trkpt lat="-21.19167" lon="55.63343">
        <ele>2155.4130859375</ele>
        <time>2013-01-07T07:06:20Z</time>
      </trkpt>
      <trkpt lat="-21.19175" lon="55.63334">
        <ele>2154.4516601562</ele>
        <time>2013-01-07T07:06:28Z</time>
      </trkpt>
      <trkpt lat="-21.19175" lon="55.63334">
        <ele>2154.4516601562</ele>
        <time>2013-01-07T07:06:31Z</time>
      </trkpt>
      <trkpt lat="-21.19179" lon="55.63331">
        <ele>2153.9711914062</ele>
        <time>2013-01-07T07:06:36Z</time>
      </trkpt>
      <trkpt lat="-21.19183" lon="55.63326">
        <ele>2153.4904785156</ele>
        <time>2013-01-07T07:06:43Z</time>
      </trkpt>
      <trkpt lat="-21.19186" lon="55.63322">
        <ele>2153.4904785156</ele>
        <time>2013-01-07T07:06:45Z</time>
      </trkpt>
      <trkpt lat="-21.19196" lon="55.63308">
        <ele>2151.5678710938</ele>
        <time>2013-01-07T07:06:57Z</time>
      </trkpt>
      <trkpt lat="-21.192" lon="55.63305">
        <ele>2151.0871582031</ele>
        <time>2013-01-07T07:07:01Z</time>
      </trkpt>
      <trkpt lat="-21.19208" lon="55.63294">
        <ele>2150.6064453125</ele>
        <time>2013-01-07T07:07:08Z</time>
      </trkpt>
      <trkpt lat="-21.19214" lon="55.63292">
        <ele>2150.1259765625</ele>
        <time>2013-01-07T07:07:11Z</time>
      </trkpt>
      <trkpt lat="-21.19221" lon="55.63289">
        <ele>2149.1645507812</ele>
        <time>2013-01-07T07:07:19Z</time>
      </trkpt>
      <trkpt lat="-21.19236" lon="55.6329">
        <ele>2148.203125</ele>
        <time>2013-01-07T07:07:29Z</time>
      </trkpt>
      <trkpt lat="-21.19246" lon="55.63298">
        <ele>2146.7612304688</ele>
        <time>2013-01-07T07:07:39Z</time>
      </trkpt>
      <trkpt lat="-21.19266" lon="55.63298">
        <ele>2145.3193359375</ele>
        <time>2013-01-07T07:07:54Z</time>
      </trkpt>
      <trkpt lat="-21.19276" lon="55.633">
        <ele>2144.3579101562</ele>
        <time>2013-01-07T07:08:09Z</time>
      </trkpt>
      <trkpt lat="-21.19288" lon="55.63307">
        <ele>2143.3967285156</ele>
        <time>2013-01-07T07:08:24Z</time>
      </trkpt>
      <trkpt lat="-21.19289" lon="55.63309">
        <ele>2142.916015625</ele>
        <time>2013-01-07T07:08:26Z</time>
      </trkpt>
      <trkpt lat="-21.19292" lon="55.63314">
        <ele>2142.916015625</ele>
        <time>2013-01-07T07:08:36Z</time>
      </trkpt>
      <trkpt lat="-21.19293" lon="55.63314">
        <ele>2142.916015625</ele>
        <time>2013-01-07T07:08:59Z</time>
      </trkpt>
      <trkpt lat="-21.19305" lon="55.63317">
        <ele>2141.4741210938</ele>
        <time>2013-01-07T07:09:12Z</time>
      </trkpt>
      <trkpt lat="-21.19306" lon="55.63317">
        <ele>2141.4741210938</ele>
        <time>2013-01-07T07:09:13Z</time>
      </trkpt>
      <trkpt lat="-21.19309" lon="55.63321">
        <ele>2140.9934082031</ele>
        <time>2013-01-07T07:09:18Z</time>
      </trkpt>
      <trkpt lat="-21.19315" lon="55.63324">
        <ele>2140.9934082031</ele>
        <time>2013-01-07T07:09:22Z</time>
      </trkpt>
      <trkpt lat="-21.1932" lon="55.63325">
        <ele>2140.0322265625</ele>
        <time>2013-01-07T07:09:26Z</time>
      </trkpt>
      <trkpt lat="-21.19325" lon="55.63327">
        <ele>2139.5512695312</ele>
        <time>2013-01-07T07:09:30Z</time>
      </trkpt>
      <trkpt lat="-21.19332" lon="55.63328">
        <ele>2139.5512695312</ele>
        <time>2013-01-07T07:09:34Z</time>
      </trkpt>
      <trkpt lat="-21.19338" lon="55.63332">
        <ele>2138.5900878906</ele>
        <time>2013-01-07T07:09:42Z</time>
      </trkpt>
      <trkpt lat="-21.19342" lon="55.63338">
        <ele>2137.6286621094</ele>
        <time>2013-01-07T07:09:47Z</time>
      </trkpt>
      <trkpt lat="-21.19346" lon="55.63339">
        <ele>2137.1479492188</ele>
        <time>2013-01-07T07:09:50Z</time>
      </trkpt>
      <trkpt lat="-21.19358" lon="55.63341">
        <ele>2136.1867675781</ele>
        <time>2013-01-07T07:09:59Z</time>
      </trkpt>
      <trkpt lat="-21.19368" lon="55.63346">
        <ele>2134.7448730469</ele>
        <time>2013-01-07T07:10:16Z</time>
      </trkpt>
      <trkpt lat="-21.1938" lon="55.6335">
        <ele>2133.7834472656</ele>
        <time>2013-01-07T07:10:32Z</time>
      </trkpt>
      <trkpt lat="-21.19389" lon="55.63351">
        <ele>2132.3415527344</ele>
        <time>2013-01-07T07:10:39Z</time>
      </trkpt>
      <trkpt lat="-21.19397" lon="55.63356">
        <ele>2132.3415527344</ele>
        <time>2013-01-07T07:10:44Z</time>
      </trkpt>
      <trkpt lat="-21.19402" lon="55.63367">
        <ele>2131.3801269531</ele>
        <time>2013-01-07T07:10:51Z</time>
      </trkpt>
      <trkpt lat="-21.19404" lon="55.63368">
        <ele>2131.3801269531</ele>
        <time>2013-01-07T07:10:53Z</time>
      </trkpt>
      <trkpt lat="-21.19407" lon="55.63368">
        <ele>2130.4189453125</ele>
        <time>2013-01-07T07:10:55Z</time>
      </trkpt>
      <trkpt lat="-21.19407" lon="55.63371">
        <ele>2130.8996582031</ele>
        <time>2013-01-07T07:10:57Z</time>
      </trkpt>
      <trkpt lat="-21.1942" lon="55.63374">
        <ele>2130.4189453125</ele>
        <time>2013-01-07T07:11:08Z</time>
      </trkpt>
      <trkpt lat="-21.19423" lon="55.63376">
        <ele>2129.9382324219</ele>
        <time>2013-01-07T07:11:10Z</time>
      </trkpt>
      <trkpt lat="-21.19434" lon="55.63382">
        <ele>2128.9768066406</ele>
        <time>2013-01-07T07:11:17Z</time>
      </trkpt>
      <trkpt lat="-21.19436" lon="55.63386">
        <ele>2128.015625</ele>
        <time>2013-01-07T07:11:21Z</time>
      </trkpt>
      <trkpt lat="-21.19438" lon="55.63389">
        <ele>2128.4963378906</ele>
        <time>2013-01-07T07:11:25Z</time>
      </trkpt>
      <trkpt lat="-21.19442" lon="55.63394">
        <ele>2127.5349121094</ele>
        <time>2013-01-07T07:11:29Z</time>
      </trkpt>
      <trkpt lat="-21.19445" lon="55.634">
        <ele>2128.015625</ele>
        <time>2013-01-07T07:11:32Z</time>
      </trkpt>
      <trkpt lat="-21.19446" lon="55.63407">
        <ele>2127.5349121094</ele>
        <time>2013-01-07T07:11:35Z</time>
      </trkpt>
      <trkpt lat="-21.19449" lon="55.6341">
        <ele>2127.0544433594</ele>
        <time>2013-01-07T07:11:38Z</time>
      </trkpt>
      <trkpt lat="-21.19451" lon="55.6341">
        <ele>2127.0544433594</ele>
        <time>2013-01-07T07:11:40Z</time>
      </trkpt>
      <trkpt lat="-21.19466" lon="55.63411">
        <ele>2126.0930175781</ele>
        <time>2013-01-07T07:11:51Z</time>
      </trkpt>
      <trkpt lat="-21.19468" lon="55.63408">
        <ele>2125.6123046875</ele>
        <time>2013-01-07T07:11:54Z</time>
      </trkpt>
      <trkpt lat="-21.19469" lon="55.63404">
        <ele>2125.1315917969</ele>
        <time>2013-01-07T07:11:58Z</time>
      </trkpt>
      <trkpt lat="-21.19469" lon="55.63401">
        <ele>2125.1315917969</ele>
        <time>2013-01-07T07:12:00Z</time>
      </trkpt>
      <trkpt lat="-21.19461" lon="55.63384">
        <ele>2122.2475585938</ele>
        <time>2013-01-07T07:12:11Z</time>
      </trkpt>
      <trkpt lat="-21.19455" lon="55.63372">
        <ele>2121.2861328125</ele>
        <time>2013-01-07T07:12:23Z</time>
      </trkpt>
      <trkpt lat="-21.19452" lon="55.63368">
        <ele>2121.2861328125</ele>
        <time>2013-01-07T07:12:28Z</time>
      </trkpt>
      <trkpt lat="-21.19435" lon="55.63352">
        <ele>2119.8442382812</ele>
        <time>2013-01-07T07:12:43Z</time>
      </trkpt>
      <trkpt lat="-21.19433" lon="55.63345">
        <ele>2119.3637695312</ele>
        <time>2013-01-07T07:12:50Z</time>
      </trkpt>
      <trkpt lat="-21.1942" lon="55.6333">
        <ele>2117.4409179688</ele>
        <time>2013-01-07T07:13:02Z</time>
      </trkpt>
      <trkpt lat="-21.19411" lon="55.63315">
        <ele>2116.9604492188</ele>
        <time>2013-01-07T07:13:13Z</time>
      </trkpt>
      <trkpt lat="-21.19396" lon="55.63301">
        <ele>2115.0378417969</ele>
        <time>2013-01-07T07:13:28Z</time>
      </trkpt>
      <trkpt lat="-21.19387" lon="55.63294">
        <ele>2114.5571289062</ele>
        <time>2013-01-07T07:13:36Z</time>
      </trkpt>
      <trkpt lat="-21.19385" lon="55.6329">
        <ele>2114.0764160156</ele>
        <time>2013-01-07T07:13:40Z</time>
      </trkpt>
      <trkpt lat="-21.19371" lon="55.63275">
        <ele>2112.1538085938</ele>
        <time>2013-01-07T07:13:54Z</time>
      </trkpt>
      <trkpt lat="-21.19368" lon="55.63271">
        <ele>2112.1538085938</ele>
        <time>2013-01-07T07:13:57Z</time>
      </trkpt>
      <trkpt lat="-21.19364" lon="55.63259">
        <ele>2111.1926269531</ele>
        <time>2013-01-07T07:14:08Z</time>
      </trkpt>
      <trkpt lat="-21.19362" lon="55.63251">
        <ele>2110.2312011719</ele>
        <time>2013-01-07T07:14:12Z</time>
      </trkpt>
      <trkpt lat="-21.19357" lon="55.6323">
        <ele>2109.2700195312</ele>
        <time>2013-01-07T07:14:25Z</time>
      </trkpt>
      <trkpt lat="-21.19356" lon="55.63223">
        <ele>2109.7504882812</ele>
        <time>2013-01-07T07:14:30Z</time>
      </trkpt>
      <trkpt lat="-21.19354" lon="55.63207">
        <ele>2108.30859375</ele>
        <time>2013-01-07T07:14:42Z</time>
      </trkpt>
      <trkpt lat="-21.19362" lon="55.632">
        <ele>2106.8664550781</ele>
        <time>2013-01-07T07:14:58Z</time>
      </trkpt>
      <trkpt lat="-21.19366" lon="55.63198">
        <ele>2105.9050292969</ele>
        <time>2013-01-07T07:15:05Z</time>
      </trkpt>
      <trkpt lat="-21.19385" lon="55.63203">
        <ele>2104.9438476562</ele>
        <time>2013-01-07T07:15:24Z</time>
      </trkpt>
      <trkpt lat="-21.19385" lon="55.63204">
        <ele>2104.9438476562</ele>
        <time>2013-01-07T07:15:25Z</time>
      </trkpt>
      <trkpt lat="-21.19392" lon="55.63215">
        <ele>2104.4631347656</ele>
        <time>2013-01-07T07:15:42Z</time>
      </trkpt>
      <trkpt lat="-21.19392" lon="55.63216">
        <ele>2104.9438476562</ele>
        <time>2013-01-07T07:15:43Z</time>
      </trkpt>
      <trkpt lat="-21.19395" lon="55.63219">
        <ele>2104.4631347656</ele>
        <time>2013-01-07T07:15:47Z</time>
      </trkpt>
      <trkpt lat="-21.19397" lon="55.63221">
        <ele>2104.4631347656</ele>
        <time>2013-01-07T07:15:50Z</time>
      </trkpt>
      <trkpt lat="-21.19398" lon="55.63238">
        <ele>2105.4245605469</ele>
        <time>2013-01-07T07:16:04Z</time>
      </trkpt>
      <trkpt lat="-21.19411" lon="55.63253">
        <ele>2104.9438476562</ele>
        <time>2013-01-07T07:16:22Z</time>
      </trkpt>
      <trkpt lat="-21.19416" lon="55.63256">
        <ele>2105.9050292969</ele>
        <time>2013-01-07T07:16:30Z</time>
      </trkpt>
      <trkpt lat="-21.19425" lon="55.63268">
        <ele>2105.9050292969</ele>
        <time>2013-01-07T07:16:41Z</time>
      </trkpt>
      <trkpt lat="-21.19434" lon="55.63275">
        <ele>2107.3471679688</ele>
        <time>2013-01-07T07:16:54Z</time>
      </trkpt>
      <trkpt lat="-21.1944" lon="55.63288">
        <ele>2107.3471679688</ele>
        <time>2013-01-07T07:17:09Z</time>
      </trkpt>
      <trkpt lat="-21.19448" lon="55.63299">
        <ele>2106.8664550781</ele>
        <time>2013-01-07T07:17:22Z</time>
      </trkpt>
      <trkpt lat="-21.19449" lon="55.63315">
        <ele>2108.30859375</ele>
        <time>2013-01-07T07:17:40Z</time>
      </trkpt>
      <trkpt lat="-21.1947" lon="55.63319">
        <ele>2108.7893066406</ele>
        <time>2013-01-07T07:17:57Z</time>
      </trkpt>
      <trkpt lat="-21.19479" lon="55.63314">
        <ele>2108.7893066406</ele>
        <time>2013-01-07T07:18:05Z</time>
      </trkpt>
      <trkpt lat="-21.19489" lon="55.63308">
        <ele>2110.2312011719</ele>
        <time>2013-01-07T07:18:19Z</time>
      </trkpt>
      <trkpt lat="-21.19498" lon="55.63313">
        <ele>2112.1538085938</ele>
        <time>2013-01-07T07:18:29Z</time>
      </trkpt>
      <trkpt lat="-21.19505" lon="55.63312">
        <ele>2112.6345214844</ele>
        <time>2013-01-07T07:18:36Z</time>
      </trkpt>
      <trkpt lat="-21.19511" lon="55.63304">
        <ele>2111.6733398438</ele>
        <time>2013-01-07T07:18:43Z</time>
      </trkpt>
      <trkpt lat="-21.19513" lon="55.63303">
        <ele>2111.1926269531</ele>
        <time>2013-01-07T07:18:45Z</time>
      </trkpt>
      <trkpt lat="-21.19528" lon="55.63299">
        <ele>2110.7119140625</ele>
        <time>2013-01-07T07:18:57Z</time>
      </trkpt>
      <trkpt lat="-21.19535" lon="55.63295">
        <ele>2109.2700195312</ele>
        <time>2013-01-07T07:19:09Z</time>
      </trkpt>
      <trkpt lat="-21.1954" lon="55.63289">
        <ele>2109.7504882812</ele>
        <time>2013-01-07T07:19:14Z</time>
      </trkpt>
      <trkpt lat="-21.19541" lon="55.63287">
        <ele>2107.8278808594</ele>
        <time>2013-01-07T07:19:16Z</time>
      </trkpt>
      <trkpt lat="-21.19541" lon="55.63273">
        <ele>2107.8278808594</ele>
        <time>2013-01-07T07:19:25Z</time>
      </trkpt>
      <trkpt lat="-21.19545" lon="55.63253">
        <ele>2106.8664550781</ele>
        <time>2013-01-07T07:19:41Z</time>
      </trkpt>
      <trkpt lat="-21.19547" lon="55.6325">
        <ele>2106.3857421875</ele>
        <time>2013-01-07T07:19:45Z</time>
      </trkpt>
      <trkpt lat="-21.19546" lon="55.63239">
        <ele>2105.4245605469</ele>
        <time>2013-01-07T07:19:54Z</time>
      </trkpt>
      <trkpt lat="-21.19549" lon="55.63234">
        <ele>2104.9438476562</ele>
        <time>2013-01-07T07:19:58Z</time>
      </trkpt>
      <trkpt lat="-21.19555" lon="55.63228">
        <ele>2103.9826660156</ele>
        <time>2013-01-07T07:20:05Z</time>
      </trkpt>
      <trkpt lat="-21.19555" lon="55.63226">
        <ele>2103.9826660156</ele>
        <time>2013-01-07T07:20:07Z</time>
      </trkpt>
      <trkpt lat="-21.19548" lon="55.63217">
        <ele>2102.5405273438</ele>
        <time>2013-01-07T07:20:20Z</time>
      </trkpt>
      <trkpt lat="-21.19543" lon="55.63213">
        <ele>2101.5793457031</ele>
        <time>2013-01-07T07:20:24Z</time>
      </trkpt>
      <trkpt lat="-21.19542" lon="55.63203">
        <ele>2102.5405273438</ele>
        <time>2013-01-07T07:20:30Z</time>
      </trkpt>
      <trkpt lat="-21.19546" lon="55.63196">
        <ele>2101.5793457031</ele>
        <time>2013-01-07T07:20:36Z</time>
      </trkpt>
      <trkpt lat="-21.19556" lon="55.6319">
        <ele>2101.0986328125</ele>
        <time>2013-01-07T07:20:43Z</time>
      </trkpt>
      <trkpt lat="-21.19569" lon="55.63189">
        <ele>2100.1374511719</ele>
        <time>2013-01-07T07:20:54Z</time>
      </trkpt>
      <trkpt lat="-21.19572" lon="55.63189">
        <ele>2100.6179199219</ele>
        <time>2013-01-07T07:20:56Z</time>
      </trkpt>
      <trkpt lat="-21.19575" lon="55.6319">
        <ele>2100.6179199219</ele>
        <time>2013-01-07T07:20:59Z</time>
      </trkpt>
      <trkpt lat="-21.19578" lon="55.63189">
        <ele>2101.0986328125</ele>
        <time>2013-01-07T07:21:01Z</time>
      </trkpt>
      <trkpt lat="-21.19586" lon="55.63191">
        <ele>2100.6179199219</ele>
        <time>2013-01-07T07:21:10Z</time>
      </trkpt>
      <trkpt lat="-21.19591" lon="55.63192">
        <ele>2100.6179199219</ele>
        <time>2013-01-07T07:21:15Z</time>
      </trkpt>
      <trkpt lat="-21.19597" lon="55.63196">
        <ele>2100.6179199219</ele>
        <time>2013-01-07T07:21:20Z</time>
      </trkpt>
      <trkpt lat="-21.19602" lon="55.63194">
        <ele>2100.1374511719</ele>
        <time>2013-01-07T07:21:26Z</time>
      </trkpt>
      <trkpt lat="-21.19604" lon="55.63192">
        <ele>2099.6567382812</ele>
        <time>2013-01-07T07:21:31Z</time>
      </trkpt>
      <trkpt lat="-21.19603" lon="55.63185">
        <ele>2100.1374511719</ele>
        <time>2013-01-07T07:21:34Z</time>
      </trkpt>
      <trkpt lat="-21.19603" lon="55.63179">
        <ele>2099.1760253906</ele>
        <time>2013-01-07T07:21:39Z</time>
      </trkpt>
      <trkpt lat="-21.19606" lon="55.63168">
        <ele>2099.1760253906</ele>
        <time>2013-01-07T07:21:45Z</time>
      </trkpt>
      <trkpt lat="-21.19611" lon="55.6316">
        <ele>2098.6953125</ele>
        <time>2013-01-07T07:21:52Z</time>
      </trkpt>
      <trkpt lat="-21.19612" lon="55.63142">
        <ele>2098.2145996094</ele>
        <time>2013-01-07T07:22:06Z</time>
      </trkpt>
      <trkpt lat="-21.19612" lon="55.63141">
        <ele>2097.7341308594</ele>
        <time>2013-01-07T07:22:07Z</time>
      </trkpt>
      <trkpt lat="-21.19617" lon="55.63128">
        <ele>2097.2534179688</ele>
        <time>2013-01-07T07:22:18Z</time>
      </trkpt>
      <trkpt lat="-21.19623" lon="55.63117">
        <ele>2096.7727050781</ele>
        <time>2013-01-07T07:22:29Z</time>
      </trkpt>
      <trkpt lat="-21.19623" lon="55.63114">
        <ele>2096.7727050781</ele>
        <time>2013-01-07T07:22:31Z</time>
      </trkpt>
      <trkpt lat="-21.19627" lon="55.63105">
        <ele>2095.8115234375</ele>
        <time>2013-01-07T07:22:36Z</time>
      </trkpt>
      <trkpt lat="-21.1964" lon="55.63101">
        <ele>2095.8115234375</ele>
        <time>2013-01-07T07:22:47Z</time>
      </trkpt>
      <trkpt lat="-21.19641" lon="55.63101">
        <ele>2095.3308105469</ele>
        <time>2013-01-07T07:22:48Z</time>
      </trkpt>
      <trkpt lat="-21.19644" lon="55.63094">
        <ele>2095.3308105469</ele>
        <time>2013-01-07T07:22:55Z</time>
      </trkpt>
      <trkpt lat="-21.19648" lon="55.63086">
        <ele>2094.3693847656</ele>
        <time>2013-01-07T07:23:00Z</time>
      </trkpt>
      <trkpt lat="-21.19652" lon="55.63078">
        <ele>2093.408203125</ele>
        <time>2013-01-07T07:23:06Z</time>
      </trkpt>
      <trkpt lat="-21.19652" lon="55.63076">
        <ele>2093.408203125</ele>
        <time>2013-01-07T07:23:08Z</time>
      </trkpt>
      <trkpt lat="-21.19657" lon="55.63057">
        <ele>2093.408203125</ele>
        <time>2013-01-07T07:23:21Z</time>
      </trkpt>
      <trkpt lat="-21.19658" lon="55.63054">
        <ele>2092.9274902344</ele>
        <time>2013-01-07T07:23:24Z</time>
      </trkpt>
      <trkpt lat="-21.1966" lon="55.6305">
        <ele>2092.4470214844</ele>
        <time>2013-01-07T07:23:27Z</time>
      </trkpt>
      <trkpt lat="-21.19662" lon="55.63049">
        <ele>2092.4470214844</ele>
        <time>2013-01-07T07:23:29Z</time>
      </trkpt>
      <trkpt lat="-21.19667" lon="55.63046">
        <ele>2091.9660644531</ele>
        <time>2013-01-07T07:23:33Z</time>
      </trkpt>
      <trkpt lat="-21.19673" lon="55.63042">
        <ele>2091.4853515625</ele>
        <time>2013-01-07T07:23:38Z</time>
      </trkpt>
      <trkpt lat="-21.19677" lon="55.63038">
        <ele>2091.0046386719</ele>
        <time>2013-01-07T07:23:42Z</time>
      </trkpt>
      <trkpt lat="-21.19686" lon="55.63033">
        <ele>2091.9660644531</ele>
        <time>2013-01-07T07:23:52Z</time>
      </trkpt>
      <trkpt lat="-21.19687" lon="55.63032">
        <ele>2091.4853515625</ele>
        <time>2013-01-07T07:23:53Z</time>
      </trkpt>
      <trkpt lat="-21.19691" lon="55.63025">
        <ele>2092.4470214844</ele>
        <time>2013-01-07T07:24:01Z</time>
      </trkpt>
      <trkpt lat="-21.19693" lon="55.63024">
        <ele>2091.9660644531</ele>
        <time>2013-01-07T07:24:03Z</time>
      </trkpt>
      <trkpt lat="-21.19696" lon="55.63024">
        <ele>2091.9660644531</ele>
        <time>2013-01-07T07:24:05Z</time>
      </trkpt>
      <trkpt lat="-21.19701" lon="55.63024">
        <ele>2091.9660644531</ele>
        <time>2013-01-07T07:24:09Z</time>
      </trkpt>
      <trkpt lat="-21.19706" lon="55.63018">
        <ele>2092.4470214844</ele>
        <time>2013-01-07T07:24:15Z</time>
      </trkpt>
      <trkpt lat="-21.19714" lon="55.63018">
        <ele>2091.9660644531</ele>
        <time>2013-01-07T07:24:21Z</time>
      </trkpt>
      <trkpt lat="-21.19725" lon="55.63015">
        <ele>2091.4853515625</ele>
        <time>2013-01-07T07:24:30Z</time>
      </trkpt>
      <trkpt lat="-21.19726" lon="55.63003">
        <ele>2091.9660644531</ele>
        <time>2013-01-07T07:24:39Z</time>
      </trkpt>
      <trkpt lat="-21.19735" lon="55.62989">
        <ele>2091.9660644531</ele>
        <time>2013-01-07T07:24:51Z</time>
      </trkpt>
      <trkpt lat="-21.19738" lon="55.62984">
        <ele>2091.4853515625</ele>
        <time>2013-01-07T07:24:55Z</time>
      </trkpt>
      <trkpt lat="-21.19742" lon="55.6298">
        <ele>2091.4853515625</ele>
        <time>2013-01-07T07:25:00Z</time>
      </trkpt>
      <trkpt lat="-21.19746" lon="55.62972">
        <ele>2091.0046386719</ele>
        <time>2013-01-07T07:25:06Z</time>
      </trkpt>
      <trkpt lat="-21.19753" lon="55.62968">
        <ele>2090.5239257812</ele>
        <time>2013-01-07T07:25:13Z</time>
      </trkpt>
      <trkpt lat="-21.19767" lon="55.62959">
        <ele>2089.08203125</ele>
        <time>2013-01-07T07:25:25Z</time>
      </trkpt>
      <trkpt lat="-21.19772" lon="55.62954">
        <ele>2089.5627441406</ele>
        <time>2013-01-07T07:25:31Z</time>
      </trkpt>
      <trkpt lat="-21.1978" lon="55.62944">
        <ele>2089.5627441406</ele>
        <time>2013-01-07T07:25:43Z</time>
      </trkpt>
      <trkpt lat="-21.19784" lon="55.62938">
        <ele>2089.5627441406</ele>
        <time>2013-01-07T07:25:48Z</time>
      </trkpt>
      <trkpt lat="-21.1979" lon="55.62933">
        <ele>2089.08203125</ele>
        <time>2013-01-07T07:25:54Z</time>
      </trkpt>
      <trkpt lat="-21.19797" lon="55.62928">
        <ele>2088.6015625</ele>
        <time>2013-01-07T07:26:00Z</time>
      </trkpt>
      <trkpt lat="-21.19803" lon="55.62919">
        <ele>2088.6015625</ele>
        <time>2013-01-07T07:26:08Z</time>
      </trkpt>
      <trkpt lat="-21.19803" lon="55.62904">
        <ele>2087.6401367188</ele>
        <time>2013-01-07T07:26:21Z</time>
      </trkpt>
      <trkpt lat="-21.19812" lon="55.62896">
        <ele>2086.6787109375</ele>
        <time>2013-01-07T07:26:30Z</time>
      </trkpt>
      <trkpt lat="-21.19819" lon="55.62889">
        <ele>2085.2368164062</ele>
        <time>2013-01-07T07:26:37Z</time>
      </trkpt>
      <trkpt lat="-21.19826" lon="55.62876">
        <ele>2085.7175292969</ele>
        <time>2013-01-07T07:26:50Z</time>
      </trkpt>
      <trkpt lat="-21.19828" lon="55.62873">
        <ele>2086.1982421875</ele>
        <time>2013-01-07T07:26:53Z</time>
      </trkpt>
      <trkpt lat="-21.19833" lon="55.6287">
        <ele>2084.7563476562</ele>
        <time>2013-01-07T07:26:59Z</time>
      </trkpt>
      <trkpt lat="-21.19837" lon="55.62868">
        <ele>2084.2756347656</ele>
        <time>2013-01-07T07:27:03Z</time>
      </trkpt>
      <trkpt lat="-21.19845" lon="55.62856">
        <ele>2085.2368164062</ele>
        <time>2013-01-07T07:27:12Z</time>
      </trkpt>
      <trkpt lat="-21.19847" lon="55.62853">
        <ele>2084.2756347656</ele>
        <time>2013-01-07T07:27:16Z</time>
      </trkpt>
      <trkpt lat="-21.19851" lon="55.62852">
        <ele>2083.794921875</ele>
        <time>2013-01-07T07:27:19Z</time>
      </trkpt>
      <trkpt lat="-21.19857" lon="55.62851">
        <ele>2084.7563476562</ele>
        <time>2013-01-07T07:27:24Z</time>
      </trkpt>
      <trkpt lat="-21.19868" lon="55.62846">
        <ele>2083.794921875</ele>
        <time>2013-01-07T07:27:34Z</time>
      </trkpt>
      <trkpt lat="-21.19875" lon="55.62836">
        <ele>2083.3142089844</ele>
        <time>2013-01-07T07:27:43Z</time>
      </trkpt>
      <trkpt lat="-21.19876" lon="55.62833">
        <ele>2083.3142089844</ele>
        <time>2013-01-07T07:27:46Z</time>
      </trkpt>
      <trkpt lat="-21.19878" lon="55.62826">
        <ele>2083.3142089844</ele>
        <time>2013-01-07T07:27:54Z</time>
      </trkpt>
      <trkpt lat="-21.19884" lon="55.62819">
        <ele>2082.8334960938</ele>
        <time>2013-01-07T07:28:01Z</time>
      </trkpt>
      <trkpt lat="-21.19887" lon="55.62819">
        <ele>2081.8723144531</ele>
        <time>2013-01-07T07:28:04Z</time>
      </trkpt>
      <trkpt lat="-21.19894" lon="55.62817">
        <ele>2082.8334960938</ele>
        <time>2013-01-07T07:28:10Z</time>
      </trkpt>
      <trkpt lat="-21.19906" lon="55.62818">
        <ele>2081.3916015625</ele>
        <time>2013-01-07T07:28:20Z</time>
      </trkpt>
      <trkpt lat="-21.1991" lon="55.62817">
        <ele>2080.9111328125</ele>
        <time>2013-01-07T07:28:22Z</time>
      </trkpt>
      <trkpt lat="-21.19921" lon="55.62814">
        <ele>2080.4304199219</ele>
        <time>2013-01-07T07:28:32Z</time>
      </trkpt>
      <trkpt lat="-21.19925" lon="55.62806">
        <ele>2079.4689941406</ele>
        <time>2013-01-07T07:28:37Z</time>
      </trkpt>
      <trkpt lat="-21.1993" lon="55.62803">
        <ele>2079.4689941406</ele>
        <time>2013-01-07T07:28:43Z</time>
      </trkpt>
      <trkpt lat="-21.19933" lon="55.62803">
        <ele>2079.4689941406</ele>
        <time>2013-01-07T07:28:45Z</time>
      </trkpt>
      <trkpt lat="-21.19946" lon="55.628">
        <ele>2078.98828125</ele>
        <time>2013-01-07T07:28:56Z</time>
      </trkpt>
      <trkpt lat="-21.19962" lon="55.628">
        <ele>2078.98828125</ele>
        <time>2013-01-07T07:29:08Z</time>
      </trkpt>
      <trkpt lat="-21.19965" lon="55.62798">
        <ele>2077.5463867188</ele>
        <time>2013-01-07T07:29:11Z</time>
      </trkpt>
      <trkpt lat="-21.19967" lon="55.62797">
        <ele>2077.0659179688</ele>
        <time>2013-01-07T07:29:13Z</time>
      </trkpt>
      <trkpt lat="-21.19981" lon="55.62794">
        <ele>2076.5852050781</ele>
        <time>2013-01-07T07:29:25Z</time>
      </trkpt>
      <trkpt lat="-21.19991" lon="55.62785">
        <ele>2076.1044921875</ele>
        <time>2013-01-07T07:29:35Z</time>
      </trkpt>
      <trkpt lat="-21.19991" lon="55.62783">
        <ele>2075.6235351562</ele>
        <time>2013-01-07T07:29:37Z</time>
      </trkpt>
      <trkpt lat="-21.20002" lon="55.62771">
        <ele>2075.1428222656</ele>
        <time>2013-01-07T07:29:49Z</time>
      </trkpt>
      <trkpt lat="-21.20004" lon="55.62769">
        <ele>2075.1428222656</ele>
        <time>2013-01-07T07:29:51Z</time>
      </trkpt>
      <trkpt lat="-21.20018" lon="55.62757">
        <ele>2074.6623535156</ele>
        <time>2013-01-07T07:30:05Z</time>
      </trkpt>
      <trkpt lat="-21.20026" lon="55.62755">
        <ele>2074.6623535156</ele>
        <time>2013-01-07T07:30:14Z</time>
      </trkpt>
      <trkpt lat="-21.20033" lon="55.62757">
        <ele>2074.181640625</ele>
        <time>2013-01-07T07:30:19Z</time>
      </trkpt>
      <trkpt lat="-21.20044" lon="55.62751">
        <ele>2073.2204589844</ele>
        <time>2013-01-07T07:30:30Z</time>
      </trkpt>
      <trkpt lat="-21.20047" lon="55.62749">
        <ele>2073.2204589844</ele>
        <time>2013-01-07T07:30:33Z</time>
      </trkpt>
      <trkpt lat="-21.20056" lon="55.6275">
        <ele>2072.2590332031</ele>
        <time>2013-01-07T07:30:43Z</time>
      </trkpt>
      <trkpt lat="-21.20062" lon="55.6275">
        <ele>2071.2976074219</ele>
        <time>2013-01-07T07:30:47Z</time>
      </trkpt>
      <trkpt lat="-21.20072" lon="55.62742">
        <ele>2071.2976074219</ele>
        <time>2013-01-07T07:30:59Z</time>
      </trkpt>
      <trkpt lat="-21.20077" lon="55.62733">
        <ele>2070.8171386719</ele>
        <time>2013-01-07T07:31:11Z</time>
      </trkpt>
      <trkpt lat="-21.20082" lon="55.62721">
        <ele>2070.3364257812</ele>
        <time>2013-01-07T07:31:23Z</time>
      </trkpt>
      <trkpt lat="-21.20082" lon="55.62707">
        <ele>2071.2976074219</ele>
        <time>2013-01-07T07:31:34Z</time>
      </trkpt>
      <trkpt lat="-21.20082" lon="55.62687">
        <ele>2071.2976074219</ele>
        <time>2013-01-07T07:31:51Z</time>
      </trkpt>
      <trkpt lat="-21.20083" lon="55.62674">
        <ele>2070.3364257812</ele>
        <time>2013-01-07T07:32:01Z</time>
      </trkpt>
      <trkpt lat="-21.20087" lon="55.62664">
        <ele>2069.8557128906</ele>
        <time>2013-01-07T07:32:11Z</time>
      </trkpt>
      <trkpt lat="-21.20091" lon="55.62653">
        <ele>2068.89453125</ele>
        <time>2013-01-07T07:32:21Z</time>
      </trkpt>
      <trkpt lat="-21.20097" lon="55.62637">
        <ele>2067.9331054688</ele>
        <time>2013-01-07T07:32:32Z</time>
      </trkpt>
      <trkpt lat="-21.20101" lon="55.62632">
        <ele>2068.4138183594</ele>
        <time>2013-01-07T07:32:36Z</time>
      </trkpt>
      <trkpt lat="-21.20111" lon="55.62625">
        <ele>2067.4523925781</ele>
        <time>2013-01-07T07:32:48Z</time>
      </trkpt>
      <trkpt lat="-21.20115" lon="55.62621">
        <ele>2067.4523925781</ele>
        <time>2013-01-07T07:32:54Z</time>
      </trkpt>
      <trkpt lat="-21.20117" lon="55.62618">
        <ele>2067.4523925781</ele>
        <time>2013-01-07T07:32:56Z</time>
      </trkpt>
      <trkpt lat="-21.20125" lon="55.62606">
        <ele>2067.4523925781</ele>
        <time>2013-01-07T07:33:09Z</time>
      </trkpt>
      <trkpt lat="-21.20126" lon="55.62604">
        <ele>2066.9719238281</ele>
        <time>2013-01-07T07:33:12Z</time>
      </trkpt>
      <trkpt lat="-21.20126" lon="55.62602">
        <ele>2066.9719238281</ele>
        <time>2013-01-07T07:33:14Z</time>
      </trkpt>
      <trkpt lat="-21.20126" lon="55.62596">
        <ele>2066.9719238281</ele>
        <time>2013-01-07T07:33:18Z</time>
      </trkpt>
      <trkpt lat="-21.20127" lon="55.62593">
        <ele>2066.4912109375</ele>
        <time>2013-01-07T07:33:23Z</time>
      </trkpt>
      <trkpt lat="-21.20144" lon="55.62582">
        <ele>2066.0104980469</ele>
        <time>2013-01-07T07:33:37Z</time>
      </trkpt>
      <trkpt lat="-21.2015" lon="55.62574">
        <ele>2066.0104980469</ele>
        <time>2013-01-07T07:33:46Z</time>
      </trkpt>
      <trkpt lat="-21.20153" lon="55.62566">
        <ele>2066.4912109375</ele>
        <time>2013-01-07T07:33:52Z</time>
      </trkpt>
      <trkpt lat="-21.20154" lon="55.62565">
        <ele>2066.0104980469</ele>
        <time>2013-01-07T07:33:54Z</time>
      </trkpt>
      <trkpt lat="-21.20156" lon="55.6256">
        <ele>2066.0104980469</ele>
        <time>2013-01-07T07:33:59Z</time>
      </trkpt>
      <trkpt lat="-21.20162" lon="55.62557">
        <ele>2063.6071777344</ele>
        <time>2013-01-07T07:34:05Z</time>
      </trkpt>
      <trkpt lat="-21.20172" lon="55.62549">
        <ele>2063.1267089844</ele>
        <time>2013-01-07T07:34:14Z</time>
      </trkpt>
      <trkpt lat="-21.20175" lon="55.62548">
        <ele>2063.1267089844</ele>
        <time>2013-01-07T07:34:17Z</time>
      </trkpt>
      <trkpt lat="-21.20178" lon="55.62548">
        <ele>2063.1267089844</ele>
        <time>2013-01-07T07:34:32Z</time>
      </trkpt>
      <trkpt lat="-21.20179" lon="55.62547">
        <ele>2064.5686035156</ele>
        <time>2013-01-07T07:34:38Z</time>
      </trkpt>
      <trkpt lat="-21.20179" lon="55.62547">
        <ele>2063.6071777344</ele>
        <time>2013-01-07T07:34:43Z</time>
      </trkpt>
      <trkpt lat="-21.2018" lon="55.62544">
        <ele>2063.6071777344</ele>
        <time>2013-01-07T07:34:47Z</time>
      </trkpt>
      <trkpt lat="-21.20183" lon="55.62541">
        <ele>2062.6459960938</ele>
        <time>2013-01-07T07:34:51Z</time>
      </trkpt>
      <trkpt lat="-21.20196" lon="55.62531">
        <ele>2062.6459960938</ele>
        <time>2013-01-07T07:35:04Z</time>
      </trkpt>
      <trkpt lat="-21.20197" lon="55.62527">
        <ele>2062.6459960938</ele>
        <time>2013-01-07T07:35:07Z</time>
      </trkpt>
      <trkpt lat="-21.20202" lon="55.62521">
        <ele>2062.6459960938</ele>
        <time>2013-01-07T07:35:14Z</time>
      </trkpt>
      <trkpt lat="-21.20212" lon="55.62503">
        <ele>2063.1267089844</ele>
        <time>2013-01-07T07:35:29Z</time>
      </trkpt>
      <trkpt lat="-21.2022" lon="55.62489">
        <ele>2062.6459960938</ele>
        <time>2013-01-07T07:35:41Z</time>
      </trkpt>
      <trkpt lat="-21.20227" lon="55.62475">
        <ele>2062.1652832031</ele>
        <time>2013-01-07T07:35:53Z</time>
      </trkpt>
      <trkpt lat="-21.20231" lon="55.62469">
        <ele>2062.1652832031</ele>
        <time>2013-01-07T07:35:59Z</time>
      </trkpt>
      <trkpt lat="-21.20237" lon="55.62457">
        <ele>2062.6459960938</ele>
        <time>2013-01-07T07:36:10Z</time>
      </trkpt>
      <trkpt lat="-21.20243" lon="55.62449">
        <ele>2063.6071777344</ele>
        <time>2013-01-07T07:36:25Z</time>
      </trkpt>
      <trkpt lat="-21.2025" lon="55.62445">
        <ele>2062.6459960938</ele>
        <time>2013-01-07T07:36:37Z</time>
      </trkpt>
      <trkpt lat="-21.2026" lon="55.62433">
        <ele>2062.1652832031</ele>
        <time>2013-01-07T07:36:49Z</time>
      </trkpt>
      <trkpt lat="-21.20271" lon="55.62424">
        <ele>2062.6459960938</ele>
        <time>2013-01-07T07:36:59Z</time>
      </trkpt>
      <trkpt lat="-21.20273" lon="55.62422">
        <ele>2061.6848144531</ele>
        <time>2013-01-07T07:37:02Z</time>
      </trkpt>
      <trkpt lat="-21.20273" lon="55.62421">
        <ele>2062.1652832031</ele>
        <time>2013-01-07T07:37:03Z</time>
      </trkpt>
      <trkpt lat="-21.20282" lon="55.62407">
        <ele>2061.6848144531</ele>
        <time>2013-01-07T07:37:15Z</time>
      </trkpt>
      <trkpt lat="-21.20294" lon="55.62396">
        <ele>2060.7233886719</ele>
        <time>2013-01-07T07:37:27Z</time>
      </trkpt>
      <trkpt lat="-21.20301" lon="55.62391">
        <ele>2060.2426757812</ele>
        <time>2013-01-07T07:37:34Z</time>
      </trkpt>
      <trkpt lat="-21.20319" lon="55.62368">
        <ele>2060.2426757812</ele>
        <time>2013-01-07T07:37:56Z</time>
      </trkpt>
      <trkpt lat="-21.20333" lon="55.62354">
        <ele>2061.2041015625</ele>
        <time>2013-01-07T07:38:10Z</time>
      </trkpt>
      <trkpt lat="-21.20339" lon="55.62351">
        <ele>2060.7233886719</ele>
        <time>2013-01-07T07:38:14Z</time>
      </trkpt>
      <trkpt lat="-21.20343" lon="55.62349">
        <ele>2060.2426757812</ele>
        <time>2013-01-07T07:38:18Z</time>
      </trkpt>
      <trkpt lat="-21.20345" lon="55.62349">
        <ele>2061.2041015625</ele>
        <time>2013-01-07T07:38:20Z</time>
      </trkpt>
      <trkpt lat="-21.20347" lon="55.62343">
        <ele>2061.6848144531</ele>
        <time>2013-01-07T07:38:24Z</time>
      </trkpt>
      <trkpt lat="-21.20352" lon="55.62339">
        <ele>2060.7233886719</ele>
        <time>2013-01-07T07:38:28Z</time>
      </trkpt>
      <trkpt lat="-21.20356" lon="55.62335">
        <ele>2060.2426757812</ele>
        <time>2013-01-07T07:38:32Z</time>
      </trkpt>
      <trkpt lat="-21.20359" lon="55.62332">
        <ele>2060.7233886719</ele>
        <time>2013-01-07T07:38:35Z</time>
      </trkpt>
      <trkpt lat="-21.20368" lon="55.62325">
        <ele>2060.7233886719</ele>
        <time>2013-01-07T07:38:46Z</time>
      </trkpt>
      <trkpt lat="-21.20376" lon="55.62319">
        <ele>2059.28125</ele>
        <time>2013-01-07T07:38:53Z</time>
      </trkpt>
      <trkpt lat="-21.20382" lon="55.62314">
        <ele>2059.28125</ele>
        <time>2013-01-07T07:38:58Z</time>
      </trkpt>
      <trkpt lat="-21.20385" lon="55.62311">
        <ele>2059.28125</ele>
        <time>2013-01-07T07:39:01Z</time>
      </trkpt>
      <trkpt lat="-21.20395" lon="55.62305">
        <ele>2058.8005371094</ele>
        <time>2013-01-07T07:39:10Z</time>
      </trkpt>
      <trkpt lat="-21.20396" lon="55.62304">
        <ele>2058.8005371094</ele>
        <time>2013-01-07T07:39:11Z</time>
      </trkpt>
      <trkpt lat="-21.20408" lon="55.62297">
        <ele>2059.28125</ele>
        <time>2013-01-07T07:39:22Z</time>
      </trkpt>
      <trkpt lat="-21.20408" lon="55.62297">
        <ele>2059.28125</ele>
        <time>2013-01-07T07:39:23Z</time>
      </trkpt>
      <trkpt lat="-21.20413" lon="55.62296">
        <ele>2058.3198242188</ele>
        <time>2013-01-07T07:39:27Z</time>
      </trkpt>
      <trkpt lat="-21.2042" lon="55.62288">
        <ele>2058.3198242188</ele>
        <time>2013-01-07T07:39:37Z</time>
      </trkpt>
      <trkpt lat="-21.20435" lon="55.62281">
        <ele>2058.3198242188</ele>
        <time>2013-01-07T07:39:49Z</time>
      </trkpt>
      <trkpt lat="-21.20439" lon="55.62279">
        <ele>2058.8005371094</ele>
        <time>2013-01-07T07:39:53Z</time>
      </trkpt>
      <trkpt lat="-21.20445" lon="55.62275">
        <ele>2058.8005371094</ele>
        <time>2013-01-07T07:40:06Z</time>
      </trkpt>
      <trkpt lat="-21.20446" lon="55.62275">
        <ele>2058.8005371094</ele>
        <time>2013-01-07T07:40:07Z</time>
      </trkpt>
      <trkpt lat="-21.20451" lon="55.62273">
        <ele>2056.3972167969</ele>
        <time>2013-01-07T07:40:14Z</time>
      </trkpt>
      <trkpt lat="-21.20463" lon="55.62264">
        <ele>2054.474609375</ele>
        <time>2013-01-07T07:40:23Z</time>
      </trkpt>
      <trkpt lat="-21.20472" lon="55.62251">
        <ele>2053.0327148438</ele>
        <time>2013-01-07T07:40:31Z</time>
      </trkpt>
      <trkpt lat="-21.20478" lon="55.62247">
        <ele>2053.5134277344</ele>
        <time>2013-01-07T07:40:37Z</time>
      </trkpt>
      <trkpt lat="-21.20486" lon="55.62237">
        <ele>2053.5134277344</ele>
        <time>2013-01-07T07:40:46Z</time>
      </trkpt>
      <trkpt lat="-21.20486" lon="55.62235">
        <ele>2053.0327148438</ele>
        <time>2013-01-07T07:40:48Z</time>
      </trkpt>
      <trkpt lat="-21.20492" lon="55.62215">
        <ele>2052.5520019531</ele>
        <time>2013-01-07T07:41:02Z</time>
      </trkpt>
      <trkpt lat="-21.20493" lon="55.62213">
        <ele>2052.5520019531</ele>
        <time>2013-01-07T07:41:05Z</time>
      </trkpt>
      <trkpt lat="-21.20494" lon="55.62208">
        <ele>2051.5908203125</ele>
        <time>2013-01-07T07:41:09Z</time>
      </trkpt>
      <trkpt lat="-21.20497" lon="55.622">
        <ele>2050.6293945312</ele>
        <time>2013-01-07T07:41:17Z</time>
      </trkpt>
      <trkpt lat="-21.2049" lon="55.62186">
        <ele>2049.6682128906</ele>
        <time>2013-01-07T07:41:26Z</time>
      </trkpt>
      <trkpt lat="-21.20486" lon="55.62177">
        <ele>2049.1875</ele>
        <time>2013-01-07T07:41:32Z</time>
      </trkpt>
      <trkpt lat="-21.20475" lon="55.62158">
        <ele>2048.2260742188</ele>
        <time>2013-01-07T07:41:46Z</time>
      </trkpt>
      <trkpt lat="-21.20468" lon="55.62148">
        <ele>2047.7456054688</ele>
        <time>2013-01-07T07:41:53Z</time>
      </trkpt>
      <trkpt lat="-21.20465" lon="55.62147">
        <ele>2047.7456054688</ele>
        <time>2013-01-07T07:41:55Z</time>
      </trkpt>
      <trkpt lat="-21.20459" lon="55.62134">
        <ele>2047.7456054688</ele>
        <time>2013-01-07T07:42:06Z</time>
      </trkpt>
      <trkpt lat="-21.20451" lon="55.6212">
        <ele>2047.2648925781</ele>
        <time>2013-01-07T07:42:17Z</time>
      </trkpt>
      <trkpt lat="-21.20445" lon="55.62113">
        <ele>2047.7456054688</ele>
        <time>2013-01-07T07:42:29Z</time>
      </trkpt>
      <trkpt lat="-21.20443" lon="55.62113">
        <ele>2047.2648925781</ele>
        <time>2013-01-07T07:42:35Z</time>
      </trkpt>
      <trkpt lat="-21.20442" lon="55.62107">
        <ele>2048.2260742188</ele>
        <time>2013-01-07T07:42:43Z</time>
      </trkpt>
      <trkpt lat="-21.20436" lon="55.621">
        <ele>2049.1875</ele>
        <time>2013-01-07T07:42:50Z</time>
      </trkpt>
      <trkpt lat="-21.20433" lon="55.62088">
        <ele>2052.5520019531</ele>
        <time>2013-01-07T07:43:02Z</time>
      </trkpt>
      <trkpt lat="-21.20432" lon="55.62082">
        <ele>2053.994140625</ele>
        <time>2013-01-07T07:43:08Z</time>
      </trkpt>
      <trkpt lat="-21.2043" lon="55.6208">
        <ele>2053.994140625</ele>
        <time>2013-01-07T07:43:12Z</time>
      </trkpt>
      <trkpt lat="-21.20425" lon="55.62073">
        <ele>2055.4360351562</ele>
        <time>2013-01-07T07:43:20Z</time>
      </trkpt>
      <trkpt lat="-21.2042" lon="55.62066">
        <ele>2056.3972167969</ele>
        <time>2013-01-07T07:43:26Z</time>
      </trkpt>
      <trkpt lat="-21.20405" lon="55.6206">
        <ele>2057.8393554688</ele>
        <time>2013-01-07T07:43:41Z</time>
      </trkpt>
      <trkpt lat="-21.20399" lon="55.62057">
        <ele>2058.8005371094</ele>
        <time>2013-01-07T07:43:48Z</time>
      </trkpt>
      <trkpt lat="-21.20395" lon="55.62052">
        <ele>2059.76171875</ele>
        <time>2013-01-07T07:43:53Z</time>
      </trkpt>
      <trkpt lat="-21.20389" lon="55.62048">
        <ele>2060.2426757812</ele>
        <time>2013-01-07T07:43:57Z</time>
      </trkpt>
      <trkpt lat="-21.20384" lon="55.62043">
        <ele>2060.2426757812</ele>
        <time>2013-01-07T07:44:03Z</time>
      </trkpt>
      <trkpt lat="-21.20377" lon="55.62041">
        <ele>2060.7233886719</ele>
        <time>2013-01-07T07:44:13Z</time>
      </trkpt>
      <trkpt lat="-21.20371" lon="55.62038">
        <ele>2060.7233886719</ele>
        <time>2013-01-07T07:44:18Z</time>
      </trkpt>
      <trkpt lat="-21.20367" lon="55.62035">
        <ele>2060.7233886719</ele>
        <time>2013-01-07T07:44:22Z</time>
      </trkpt>
      <trkpt lat="-21.20355" lon="55.62028">
        <ele>2063.6071777344</ele>
        <time>2013-01-07T07:44:33Z</time>
      </trkpt>
      <trkpt lat="-21.20351" lon="55.62029">
        <ele>2064.087890625</ele>
        <time>2013-01-07T07:44:37Z</time>
      </trkpt>
      <trkpt lat="-21.2035" lon="55.62028">
        <ele>2064.5686035156</ele>
        <time>2013-01-07T07:44:39Z</time>
      </trkpt>
      <trkpt lat="-21.20343" lon="55.62028">
        <ele>2065.0493164062</ele>
        <time>2013-01-07T07:44:44Z</time>
      </trkpt>
      <trkpt lat="-21.20329" lon="55.6202">
        <ele>2066.4912109375</ele>
        <time>2013-01-07T07:44:57Z</time>
      </trkpt>
      <trkpt lat="-21.20327" lon="55.62018">
        <ele>2066.9719238281</ele>
        <time>2013-01-07T07:45:01Z</time>
      </trkpt>
      <trkpt lat="-21.20324" lon="55.62014">
        <ele>2068.89453125</ele>
        <time>2013-01-07T07:45:06Z</time>
      </trkpt>
      <trkpt lat="-21.20317" lon="55.62009">
        <ele>2070.8171386719</ele>
        <time>2013-01-07T07:45:17Z</time>
      </trkpt>
      <trkpt lat="-21.20316" lon="55.62008">
        <ele>2072.2590332031</ele>
        <time>2013-01-07T07:45:19Z</time>
      </trkpt>
      <trkpt lat="-21.20316" lon="55.62007">
        <ele>2072.2590332031</ele>
        <time>2013-01-07T07:45:20Z</time>
      </trkpt>
      <trkpt lat="-21.20316" lon="55.6199">
        <ele>2071.2976074219</ele>
        <time>2013-01-07T07:45:35Z</time>
      </trkpt>
      <trkpt lat="-21.20316" lon="55.61968">
        <ele>2069.3752441406</ele>
        <time>2013-01-07T07:45:51Z</time>
      </trkpt>
      <trkpt lat="-21.20312" lon="55.61956">
        <ele>2068.4138183594</ele>
        <time>2013-01-07T07:45:58Z</time>
      </trkpt>
      <trkpt lat="-21.20312" lon="55.61948">
        <ele>2067.9331054688</ele>
        <time>2013-01-07T07:46:04Z</time>
      </trkpt>
      <trkpt lat="-21.20311" lon="55.61946">
        <ele>2067.4523925781</ele>
        <time>2013-01-07T07:46:06Z</time>
      </trkpt>
      <trkpt lat="-21.20311" lon="55.6194">
        <ele>2066.9719238281</ele>
        <time>2013-01-07T07:46:11Z</time>
      </trkpt>
      <trkpt lat="-21.20307" lon="55.61935">
        <ele>2065.0493164062</ele>
        <time>2013-01-07T07:46:25Z</time>
      </trkpt>
      <trkpt lat="-21.20304" lon="55.61933">
        <ele>2064.5686035156</ele>
        <time>2013-01-07T07:46:29Z</time>
      </trkpt>
      <trkpt lat="-21.20297" lon="55.61931">
        <ele>2062.1652832031</ele>
        <time>2013-01-07T07:46:34Z</time>
      </trkpt>
      <trkpt lat="-21.20294" lon="55.6193">
        <ele>2062.1652832031</ele>
        <time>2013-01-07T07:46:36Z</time>
      </trkpt>
      <trkpt lat="-21.2029" lon="55.61925">
        <ele>2061.2041015625</ele>
        <time>2013-01-07T07:46:40Z</time>
      </trkpt>
      <trkpt lat="-21.20288" lon="55.61922">
        <ele>2061.2041015625</ele>
        <time>2013-01-07T07:46:43Z</time>
      </trkpt>
      <trkpt lat="-21.20282" lon="55.61921">
        <ele>2059.76171875</ele>
        <time>2013-01-07T07:46:49Z</time>
      </trkpt>
      <trkpt lat="-21.20266" lon="55.61926">
        <ele>2059.28125</ele>
        <time>2013-01-07T07:47:03Z</time>
      </trkpt>
      <trkpt lat="-21.20255" lon="55.61928">
        <ele>2057.3586425781</ele>
        <time>2013-01-07T07:47:16Z</time>
      </trkpt>
      <trkpt lat="-21.20249" lon="55.61934">
        <ele>2057.3586425781</ele>
        <time>2013-01-07T07:47:21Z</time>
      </trkpt>
      <trkpt lat="-21.20239" lon="55.61927">
        <ele>2055.9165039062</ele>
        <time>2013-01-07T07:47:31Z</time>
      </trkpt>
      <trkpt lat="-21.20239" lon="55.61925">
        <ele>2054.474609375</ele>
        <time>2013-01-07T07:47:38Z</time>
      </trkpt>
      <trkpt lat="-21.20237" lon="55.61923">
        <ele>2053.994140625</ele>
        <time>2013-01-07T07:47:48Z</time>
      </trkpt>
      <trkpt lat="-21.20236" lon="55.61914">
        <ele>2053.994140625</ele>
        <time>2013-01-07T07:47:57Z</time>
      </trkpt>
      <trkpt lat="-21.20233" lon="55.61911">
        <ele>2053.994140625</ele>
        <time>2013-01-07T07:48:13Z</time>
      </trkpt>
      <trkpt lat="-21.20229" lon="55.61907">
        <ele>2053.0327148438</ele>
        <time>2013-01-07T07:48:22Z</time>
      </trkpt>
      <trkpt lat="-21.20225" lon="55.61903">
        <ele>2050.6293945312</ele>
        <time>2013-01-07T07:48:27Z</time>
      </trkpt>
      <trkpt lat="-21.20218" lon="55.61899">
        <ele>2049.1875</ele>
        <time>2013-01-07T07:48:34Z</time>
      </trkpt>
      <trkpt lat="-21.20209" lon="55.61896">
        <ele>2048.7067871094</ele>
        <time>2013-01-07T07:48:44Z</time>
      </trkpt>
      <trkpt lat="-21.20209" lon="55.61895">
        <ele>2047.7456054688</ele>
        <time>2013-01-07T07:48:45Z</time>
      </trkpt>
      <trkpt lat="-21.202" lon="55.61888">
        <ele>2045.3422851562</ele>
        <time>2013-01-07T07:48:53Z</time>
      </trkpt>
      <trkpt lat="-21.20195" lon="55.61883">
        <ele>2043.9001464844</ele>
        <time>2013-01-07T07:48:59Z</time>
      </trkpt>
      <trkpt lat="-21.20194" lon="55.6188">
        <ele>2043.4194335938</ele>
        <time>2013-01-07T07:49:01Z</time>
      </trkpt>
      <trkpt lat="-21.20189" lon="55.61878">
        <ele>2041.9775390625</ele>
        <time>2013-01-07T07:49:04Z</time>
      </trkpt>
      <trkpt lat="-21.20185" lon="55.61874">
        <ele>2041.0161132812</ele>
        <time>2013-01-07T07:49:09Z</time>
      </trkpt>
      <trkpt lat="-21.20178" lon="55.6187">
        <ele>2038.6130371094</ele>
        <time>2013-01-07T07:49:15Z</time>
      </trkpt>
      <trkpt lat="-21.20172" lon="55.61862">
        <ele>2037.6516113281</ele>
        <time>2013-01-07T07:49:24Z</time>
      </trkpt>
      <trkpt lat="-21.20166" lon="55.61859">
        <ele>2036.2097167969</ele>
        <time>2013-01-07T07:49:31Z</time>
      </trkpt>
      <trkpt lat="-21.20164" lon="55.61858">
        <ele>2035.7290039062</ele>
        <time>2013-01-07T07:49:37Z</time>
      </trkpt>
      <trkpt lat="-21.2016" lon="55.61854">
        <ele>2034.287109375</ele>
        <time>2013-01-07T07:49:42Z</time>
      </trkpt>
      <trkpt lat="-21.20146" lon="55.61844">
        <ele>2030.9226074219</ele>
        <time>2013-01-07T07:49:54Z</time>
      </trkpt>
      <trkpt lat="-21.20134" lon="55.61836">
        <ele>2028.0385742188</ele>
        <time>2013-01-07T07:50:08Z</time>
      </trkpt>
      <trkpt lat="-21.20132" lon="55.61834">
        <ele>2028.0385742188</ele>
        <time>2013-01-07T07:50:10Z</time>
      </trkpt>
      <trkpt lat="-21.20132" lon="55.6183">
        <ele>2027.5576171875</ele>
        <time>2013-01-07T07:50:22Z</time>
      </trkpt>
      <trkpt lat="-21.20134" lon="55.61826">
        <ele>2026.5964355469</ele>
        <time>2013-01-07T07:50:30Z</time>
      </trkpt>
      <trkpt lat="-21.20145" lon="55.61818">
        <ele>2024.673828125</ele>
        <time>2013-01-07T07:50:43Z</time>
      </trkpt>
      <trkpt lat="-21.20148" lon="55.61814">
        <ele>2024.1931152344</ele>
        <time>2013-01-07T07:50:47Z</time>
      </trkpt>
      <trkpt lat="-21.20148" lon="55.61811">
        <ele>2024.1931152344</ele>
        <time>2013-01-07T07:50:49Z</time>
      </trkpt>
      <trkpt lat="-21.20159" lon="55.61801">
        <ele>2024.1931152344</ele>
        <time>2013-01-07T07:51:02Z</time>
      </trkpt>
      <trkpt lat="-21.20162" lon="55.61796">
        <ele>2023.7124023438</ele>
        <time>2013-01-07T07:51:06Z</time>
      </trkpt>
      <trkpt lat="-21.20162" lon="55.61786">
        <ele>2023.2319335938</ele>
        <time>2013-01-07T07:51:20Z</time>
      </trkpt>
      <trkpt lat="-21.2016" lon="55.6178">
        <ele>2024.673828125</ele>
        <time>2013-01-07T07:51:26Z</time>
      </trkpt>
      <trkpt lat="-21.20163" lon="55.61771">
        <ele>2024.673828125</ele>
        <time>2013-01-07T07:51:34Z</time>
      </trkpt>
      <trkpt lat="-21.20163" lon="55.61762">
        <ele>2022.2705078125</ele>
        <time>2013-01-07T07:51:41Z</time>
      </trkpt>
      <trkpt lat="-21.20162" lon="55.61757">
        <ele>2021.3090820312</ele>
        <time>2013-01-07T07:51:45Z</time>
      </trkpt>
      <trkpt lat="-21.20161" lon="55.61748">
        <ele>2019.8671875</ele>
        <time>2013-01-07T07:51:53Z</time>
      </trkpt>
      <trkpt lat="-21.20153" lon="55.6174">
        <ele>2017.4638671875</ele>
        <time>2013-01-07T07:52:07Z</time>
      </trkpt>
      <trkpt lat="-21.20153" lon="55.61736">
        <ele>2017.4638671875</ele>
        <time>2013-01-07T07:52:21Z</time>
      </trkpt>
      <trkpt lat="-21.20152" lon="55.61735">
        <ele>2016.9833984375</ele>
        <time>2013-01-07T07:52:42Z</time>
      </trkpt>
      <trkpt lat="-21.20158" lon="55.61727">
        <ele>2015.5415039062</ele>
        <time>2013-01-07T07:53:42Z</time>
      </trkpt>
      <trkpt lat="-21.20163" lon="55.61725">
        <ele>2014.580078125</ele>
        <time>2013-01-07T07:53:46Z</time>
      </trkpt>
      <trkpt lat="-21.20163" lon="55.6172">
        <ele>2014.580078125</ele>
        <time>2013-01-07T07:53:50Z</time>
      </trkpt>
      <trkpt lat="-21.2016" lon="55.61706">
        <ele>2016.5026855469</ele>
        <time>2013-01-07T07:54:04Z</time>
      </trkpt>
      <trkpt lat="-21.20158" lon="55.61703">
        <ele>2017.9445800781</ele>
        <time>2013-01-07T07:54:07Z</time>
      </trkpt>
      <trkpt lat="-21.20155" lon="55.61696">
        <ele>2017.9445800781</ele>
        <time>2013-01-07T07:54:15Z</time>
      </trkpt>
      <trkpt lat="-21.20157" lon="55.61679">
        <ele>2019.8671875</ele>
        <time>2013-01-07T07:54:35Z</time>
      </trkpt>
      <trkpt lat="-21.20161" lon="55.61676">
        <ele>2018.9060058594</ele>
        <time>2013-01-07T07:54:45Z</time>
      </trkpt>
      <trkpt lat="-21.20166" lon="55.61673">
        <ele>2019.8671875</ele>
        <time>2013-01-07T07:54:50Z</time>
      </trkpt>
      <trkpt lat="-21.20177" lon="55.61673">
        <ele>2020.8286132812</ele>
        <time>2013-01-07T07:54:59Z</time>
      </trkpt>
      <trkpt lat="-21.20187" lon="55.61669">
        <ele>2022.2705078125</ele>
        <time>2013-01-07T07:55:11Z</time>
      </trkpt>
      <trkpt lat="-21.20199" lon="55.61667">
        <ele>2023.7124023438</ele>
        <time>2013-01-07T07:55:23Z</time>
      </trkpt>
      <trkpt lat="-21.20201" lon="55.61664">
        <ele>2024.1931152344</ele>
        <time>2013-01-07T07:55:26Z</time>
      </trkpt>
      <trkpt lat="-21.20202" lon="55.61662">
        <ele>2024.1931152344</ele>
        <time>2013-01-07T07:55:29Z</time>
      </trkpt>
      <trkpt lat="-21.20208" lon="55.61663">
        <ele>2025.6350097656</ele>
        <time>2013-01-07T07:55:42Z</time>
      </trkpt>
      <trkpt lat="-21.20214" lon="55.61669">
        <ele>2028.5192871094</ele>
        <time>2013-01-07T07:55:54Z</time>
      </trkpt>
      <trkpt lat="-21.20214" lon="55.61674">
        <ele>2028.9997558594</ele>
        <time>2013-01-07T07:55:59Z</time>
      </trkpt>
      <trkpt lat="-21.20216" lon="55.6168">
        <ele>2031.8837890625</ele>
        <time>2013-01-07T07:56:09Z</time>
      </trkpt>
      <trkpt lat="-21.20221" lon="55.61679">
        <ele>2033.3256835938</ele>
        <time>2013-01-07T07:56:23Z</time>
      </trkpt>
      <trkpt lat="-21.20222" lon="55.61677">
        <ele>2033.3256835938</ele>
        <time>2013-01-07T07:56:26Z</time>
      </trkpt>
      <trkpt lat="-21.20225" lon="55.6167">
        <ele>2034.287109375</ele>
        <time>2013-01-07T07:56:33Z</time>
      </trkpt>
      <trkpt lat="-21.20226" lon="55.61668">
        <ele>2034.287109375</ele>
        <time>2013-01-07T07:56:36Z</time>
      </trkpt>
      <trkpt lat="-21.20229" lon="55.61657">
        <ele>2034.7678222656</ele>
        <time>2013-01-07T07:56:46Z</time>
      </trkpt>
      <trkpt lat="-21.20228" lon="55.61651">
        <ele>2034.7678222656</ele>
        <time>2013-01-07T07:56:51Z</time>
      </trkpt>
      <trkpt lat="-21.20232" lon="55.61643">
        <ele>2035.2482910156</ele>
        <time>2013-01-07T07:56:59Z</time>
      </trkpt>
      <trkpt lat="-21.20235" lon="55.61637">
        <ele>2036.2097167969</ele>
        <time>2013-01-07T07:57:07Z</time>
      </trkpt>
      <trkpt lat="-21.20239" lon="55.61637">
        <ele>2036.6901855469</ele>
        <time>2013-01-07T07:57:10Z</time>
      </trkpt>
      <trkpt lat="-21.20246" lon="55.61636">
        <ele>2034.7678222656</ele>
        <time>2013-01-07T07:57:18Z</time>
      </trkpt>
      <trkpt lat="-21.20258" lon="55.61643">
        <ele>2034.287109375</ele>
        <time>2013-01-07T07:57:30Z</time>
      </trkpt>
      <trkpt lat="-21.20263" lon="55.61643">
        <ele>2032.8449707031</ele>
        <time>2013-01-07T07:57:35Z</time>
      </trkpt>
      <trkpt lat="-21.20276" lon="55.61635">
        <ele>2030.4418945312</ele>
        <time>2013-01-07T07:57:46Z</time>
      </trkpt>
      <trkpt lat="-21.20283" lon="55.61625">
        <ele>2028.0385742188</ele>
        <time>2013-01-07T07:57:55Z</time>
      </trkpt>
      <trkpt lat="-21.20302" lon="55.61619">
        <ele>2028.5192871094</ele>
        <time>2013-01-07T07:58:09Z</time>
      </trkpt>
      <trkpt lat="-21.2032" lon="55.61597">
        <ele>2028.0385742188</ele>
        <time>2013-01-07T07:58:28Z</time>
      </trkpt>
      <trkpt lat="-21.20323" lon="55.61592">
        <ele>2027.0771484375</ele>
        <time>2013-01-07T07:58:32Z</time>
      </trkpt>
      <trkpt lat="-21.20324" lon="55.61589">
        <ele>2027.5576171875</ele>
        <time>2013-01-07T07:58:35Z</time>
      </trkpt>
      <trkpt lat="-21.20327" lon="55.61584">
        <ele>2025.154296875</ele>
        <time>2013-01-07T07:58:38Z</time>
      </trkpt>
      <trkpt lat="-21.2033" lon="55.61582">
        <ele>2028.0385742188</ele>
        <time>2013-01-07T07:58:41Z</time>
      </trkpt>
      <trkpt lat="-21.20333" lon="55.61581">
        <ele>2026.1157226562</ele>
        <time>2013-01-07T07:58:44Z</time>
      </trkpt>
      <trkpt lat="-21.20337" lon="55.6158">
        <ele>2027.5576171875</ele>
        <time>2013-01-07T07:58:48Z</time>
      </trkpt>
      <trkpt lat="-21.20338" lon="55.6158">
        <ele>2025.6350097656</ele>
        <time>2013-01-07T07:58:49Z</time>
      </trkpt>
      <trkpt lat="-21.20341" lon="55.61577">
        <ele>2026.1157226562</ele>
        <time>2013-01-07T07:58:53Z</time>
      </trkpt>
      <trkpt lat="-21.20343" lon="55.6157">
        <ele>2024.673828125</ele>
        <time>2013-01-07T07:59:01Z</time>
      </trkpt>
      <trkpt lat="-21.20341" lon="55.61565">
        <ele>2023.2319335938</ele>
        <time>2013-01-07T07:59:05Z</time>
      </trkpt>
      <trkpt lat="-21.20344" lon="55.61556">
        <ele>2020.3479003906</ele>
        <time>2013-01-07T07:59:15Z</time>
      </trkpt>
      <trkpt lat="-21.20344" lon="55.61556">
        <ele>2020.3479003906</ele>
        <time>2013-01-07T07:59:16Z</time>
      </trkpt>
      <trkpt lat="-21.20345" lon="55.61555">
        <ele>2020.8286132812</ele>
        <time>2013-01-07T07:59:17Z</time>
      </trkpt>
      <trkpt lat="-21.20349" lon="55.61552">
        <ele>2017.9445800781</ele>
        <time>2013-01-07T07:59:20Z</time>
      </trkpt>
      <trkpt lat="-21.2035" lon="55.61551">
        <ele>2017.9445800781</ele>
        <time>2013-01-07T07:59:21Z</time>
      </trkpt>
      <trkpt lat="-21.20352" lon="55.61551">
        <ele>2016.5026855469</ele>
        <time>2013-01-07T07:59:28Z</time>
      </trkpt>
      <trkpt lat="-21.20353" lon="55.61551">
        <ele>2016.0219726562</ele>
        <time>2013-01-07T07:59:31Z</time>
      </trkpt>
      <trkpt lat="-21.20359" lon="55.61552">
        <ele>2014.0993652344</ele>
        <time>2013-01-07T07:59:35Z</time>
      </trkpt>
      <trkpt lat="-21.20362" lon="55.61551">
        <ele>2017.4638671875</ele>
        <time>2013-01-07T07:59:37Z</time>
      </trkpt>
      <trkpt lat="-21.20366" lon="55.61549">
        <ele>2015.5415039062</ele>
        <time>2013-01-07T07:59:42Z</time>
      </trkpt>
      <trkpt lat="-21.20368" lon="55.61548">
        <ele>2016.9833984375</ele>
        <time>2013-01-07T07:59:44Z</time>
      </trkpt>
      <trkpt lat="-21.20371" lon="55.61546">
        <ele>2018.9060058594</ele>
        <time>2013-01-07T07:59:49Z</time>
      </trkpt>
      <trkpt lat="-21.20376" lon="55.61542">
        <ele>2020.3479003906</ele>
        <time>2013-01-07T07:59:56Z</time>
      </trkpt>
      <trkpt lat="-21.20382" lon="55.61529">
        <ele>2018.9060058594</ele>
        <time>2013-01-07T08:00:08Z</time>
      </trkpt>
      <trkpt lat="-21.20384" lon="55.61524">
        <ele>2017.4638671875</ele>
        <time>2013-01-07T08:00:12Z</time>
      </trkpt>
      <trkpt lat="-21.20386" lon="55.61519">
        <ele>2017.4638671875</ele>
        <time>2013-01-07T08:00:17Z</time>
      </trkpt>
      <trkpt lat="-21.20393" lon="55.61513">
        <ele>2013.1381835938</ele>
        <time>2013-01-07T08:00:27Z</time>
      </trkpt>
      <trkpt lat="-21.20393" lon="55.61513">
        <ele>2013.1381835938</ele>
        <time>2013-01-07T08:00:28Z</time>
      </trkpt>
      <trkpt lat="-21.20399" lon="55.615">
        <ele>2010.7346191406</ele>
        <time>2013-01-07T08:00:40Z</time>
      </trkpt>
      <trkpt lat="-21.20409" lon="55.61485">
        <ele>2009.2927246094</ele>
        <time>2013-01-07T08:00:54Z</time>
      </trkpt>
      <trkpt lat="-21.20409" lon="55.61475">
        <ele>2006.8894042969</ele>
        <time>2013-01-07T08:01:03Z</time>
      </trkpt>
      <trkpt lat="-21.20412" lon="55.61467">
        <ele>2005.4475097656</ele>
        <time>2013-01-07T08:01:10Z</time>
      </trkpt>
      <trkpt lat="-21.20414" lon="55.61465">
        <ele>2004.4860839844</ele>
        <time>2013-01-07T08:01:12Z</time>
      </trkpt>
      <trkpt lat="-21.20419" lon="55.61454">
        <ele>2003.0441894531</ele>
        <time>2013-01-07T08:01:21Z</time>
      </trkpt>
      <trkpt lat="-21.2043" lon="55.61443">
        <ele>2001.6022949219</ele>
        <time>2013-01-07T08:01:32Z</time>
      </trkpt>
      <trkpt lat="-21.20436" lon="55.61442">
        <ele>2001.1215820312</ele>
        <time>2013-01-07T08:01:38Z</time>
      </trkpt>
      <trkpt lat="-21.2044" lon="55.61442">
        <ele>1999.6796875</ele>
        <time>2013-01-07T08:01:47Z</time>
      </trkpt>
      <trkpt lat="-21.2044" lon="55.61432">
        <ele>1999.1989746094</ele>
        <time>2013-01-07T08:02:00Z</time>
      </trkpt>
      <trkpt lat="-21.2044" lon="55.61427">
        <ele>1998.2375488281</ele>
        <time>2013-01-07T08:02:03Z</time>
      </trkpt>
      <trkpt lat="-21.2044" lon="55.61425">
        <ele>2000.1604003906</ele>
        <time>2013-01-07T08:02:05Z</time>
      </trkpt>
      <trkpt lat="-21.20444" lon="55.61418">
        <ele>1999.1989746094</ele>
        <time>2013-01-07T08:02:11Z</time>
      </trkpt>
      <trkpt lat="-21.20447" lon="55.61416">
        <ele>1997.7570800781</ele>
        <time>2013-01-07T08:02:14Z</time>
      </trkpt>
      <trkpt lat="-21.20453" lon="55.61416">
        <ele>1996.7956542969</ele>
        <time>2013-01-07T08:02:20Z</time>
      </trkpt>
      <trkpt lat="-21.20464" lon="55.61409">
        <ele>1996.7956542969</ele>
        <time>2013-01-07T08:02:33Z</time>
      </trkpt>
      <trkpt lat="-21.20469" lon="55.61407">
        <ele>1996.7956542969</ele>
        <time>2013-01-07T08:02:38Z</time>
      </trkpt>
      <trkpt lat="-21.2047" lon="55.61407">
        <ele>1996.3151855469</ele>
        <time>2013-01-07T08:02:40Z</time>
      </trkpt>
      <trkpt lat="-21.20475" lon="55.614">
        <ele>1996.7956542969</ele>
        <time>2013-01-07T08:02:47Z</time>
      </trkpt>
      <trkpt lat="-21.20477" lon="55.61399">
        <ele>1996.7956542969</ele>
        <time>2013-01-07T08:02:49Z</time>
      </trkpt>
      <trkpt lat="-21.20484" lon="55.61387">
        <ele>1994.3920898438</ele>
        <time>2013-01-07T08:03:03Z</time>
      </trkpt>
      <trkpt lat="-21.20486" lon="55.61385">
        <ele>1993.4309082031</ele>
        <time>2013-01-07T08:03:05Z</time>
      </trkpt>
      <trkpt lat="-21.20493" lon="55.61371">
        <ele>1991.5083007812</ele>
        <time>2013-01-07T08:03:17Z</time>
      </trkpt>
      <trkpt lat="-21.20495" lon="55.61361">
        <ele>1990.06640625</ele>
        <time>2013-01-07T08:03:26Z</time>
      </trkpt>
      <trkpt lat="-21.20491" lon="55.61351">
        <ele>1987.1823730469</ele>
        <time>2013-01-07T08:03:38Z</time>
      </trkpt>
      <trkpt lat="-21.20496" lon="55.61339">
        <ele>1984.2985839844</ele>
        <time>2013-01-07T08:03:52Z</time>
      </trkpt>
      <trkpt lat="-21.20498" lon="55.61336">
        <ele>1983.8178710938</ele>
        <time>2013-01-07T08:04:05Z</time>
      </trkpt>
      <trkpt lat="-21.20498" lon="55.61327">
        <ele>1982.3759765625</ele>
        <time>2013-01-07T08:04:18Z</time>
      </trkpt>
      <trkpt lat="-21.20483" lon="55.6132">
        <ele>1979.4916992188</ele>
        <time>2013-01-07T08:04:33Z</time>
      </trkpt>
      <trkpt lat="-21.20481" lon="55.61319">
        <ele>1978.0498046875</ele>
        <time>2013-01-07T08:04:49Z</time>
      </trkpt>
      <trkpt lat="-21.20481" lon="55.61318">
        <ele>1978.0498046875</ele>
        <time>2013-01-07T08:04:50Z</time>
      </trkpt>
      <trkpt lat="-21.20481" lon="55.61311">
        <ele>1976.6079101562</ele>
        <time>2013-01-07T08:04:56Z</time>
      </trkpt>
      <trkpt lat="-21.20481" lon="55.61306">
        <ele>1975.646484375</ele>
        <time>2013-01-07T08:05:02Z</time>
      </trkpt>
      <trkpt lat="-21.20471" lon="55.61284">
        <ele>1973.7238769531</ele>
        <time>2013-01-07T08:05:22Z</time>
      </trkpt>
      <trkpt lat="-21.20468" lon="55.61282">
        <ele>1973.7238769531</ele>
        <time>2013-01-07T08:05:24Z</time>
      </trkpt>
      <trkpt lat="-21.20463" lon="55.61278">
        <ele>1973.2434082031</ele>
        <time>2013-01-07T08:05:29Z</time>
      </trkpt>
      <trkpt lat="-21.20458" lon="55.61271">
        <ele>1972.7626953125</ele>
        <time>2013-01-07T08:05:38Z</time>
      </trkpt>
      <trkpt lat="-21.20447" lon="55.61261">
        <ele>1972.7626953125</ele>
        <time>2013-01-07T08:05:49Z</time>
      </trkpt>
      <trkpt lat="-21.2044" lon="55.61247">
        <ele>1972.2819824219</ele>
        <time>2013-01-07T08:06:05Z</time>
      </trkpt>
      <trkpt lat="-21.20436" lon="55.6124">
        <ele>1972.2819824219</ele>
        <time>2013-01-07T08:06:19Z</time>
      </trkpt>
      <trkpt lat="-21.20435" lon="55.61239">
        <ele>1972.2819824219</ele>
        <time>2013-01-07T08:06:20Z</time>
      </trkpt>
      <trkpt lat="-21.20429" lon="55.61229">
        <ele>1970.8400878906</ele>
        <time>2013-01-07T08:06:32Z</time>
      </trkpt>
      <trkpt lat="-21.20422" lon="55.61212">
        <ele>1969.3981933594</ele>
        <time>2013-01-07T08:06:46Z</time>
      </trkpt>
      <trkpt lat="-21.2042" lon="55.61201">
        <ele>1967.9560546875</ele>
        <time>2013-01-07T08:06:56Z</time>
      </trkpt>
      <trkpt lat="-21.20417" lon="55.61189">
        <ele>1966.5141601562</ele>
        <time>2013-01-07T08:07:08Z</time>
      </trkpt>
      <trkpt lat="-21.20403" lon="55.61176">
        <ele>1965.072265625</ele>
        <time>2013-01-07T08:07:22Z</time>
      </trkpt>
      <trkpt lat="-21.20392" lon="55.61166">
        <ele>1965.5529785156</ele>
        <time>2013-01-07T08:07:32Z</time>
      </trkpt>
      <trkpt lat="-21.20383" lon="55.6116">
        <ele>1964.5915527344</ele>
        <time>2013-01-07T08:07:42Z</time>
      </trkpt>
      <trkpt lat="-21.20372" lon="55.61153">
        <ele>1963.1494140625</ele>
        <time>2013-01-07T08:07:51Z</time>
      </trkpt>
      <trkpt lat="-21.20362" lon="55.61145">
        <ele>1962.1879882812</ele>
        <time>2013-01-07T08:08:02Z</time>
      </trkpt>
      <trkpt lat="-21.20359" lon="55.61144">
        <ele>1961.7075195312</ele>
        <time>2013-01-07T08:08:04Z</time>
      </trkpt>
      <trkpt lat="-21.2035" lon="55.61137">
        <ele>1961.7075195312</ele>
        <time>2013-01-07T08:08:14Z</time>
      </trkpt>
      <trkpt lat="-21.20345" lon="55.61132">
        <ele>1960.74609375</ele>
        <time>2013-01-07T08:08:20Z</time>
      </trkpt>
      <trkpt lat="-21.20345" lon="55.6113">
        <ele>1962.1879882812</ele>
        <time>2013-01-07T08:08:22Z</time>
      </trkpt>
      <trkpt lat="-21.20341" lon="55.6112">
        <ele>1960.2653808594</ele>
        <time>2013-01-07T08:08:35Z</time>
      </trkpt>
      <trkpt lat="-21.20339" lon="55.61118">
        <ele>1959.3041992188</ele>
        <time>2013-01-07T08:08:38Z</time>
      </trkpt>
      <trkpt lat="-21.20335" lon="55.61109">
        <ele>1958.3427734375</ele>
        <time>2013-01-07T08:08:49Z</time>
      </trkpt>
      <trkpt lat="-21.20332" lon="55.61107">
        <ele>1956.9008789062</ele>
        <time>2013-01-07T08:08:52Z</time>
      </trkpt>
      <trkpt lat="-21.20331" lon="55.61104">
        <ele>1956.4201660156</ele>
        <time>2013-01-07T08:09:05Z</time>
      </trkpt>
      <trkpt lat="-21.20329" lon="55.61103">
        <ele>1955.939453125</ele>
        <time>2013-01-07T08:09:34Z</time>
      </trkpt>
      <trkpt lat="-21.2033" lon="55.61103">
        <ele>1956.4201660156</ele>
        <time>2013-01-07T08:09:41Z</time>
      </trkpt>
      <trkpt lat="-21.20321" lon="55.61101">
        <ele>1954.9782714844</ele>
        <time>2013-01-07T08:09:50Z</time>
      </trkpt>
      <trkpt lat="-21.20314" lon="55.61107">
        <ele>1953.5363769531</ele>
        <time>2013-01-07T08:10:01Z</time>
      </trkpt>
      <trkpt lat="-21.20308" lon="55.61113">
        <ele>1952.0942382812</ele>
        <time>2013-01-07T08:10:10Z</time>
      </trkpt>
      <trkpt lat="-21.20305" lon="55.61116">
        <ele>1952.0942382812</ele>
        <time>2013-01-07T08:10:12Z</time>
      </trkpt>
      <trkpt lat="-21.20295" lon="55.6112">
        <ele>1950.65234375</ele>
        <time>2013-01-07T08:10:22Z</time>
      </trkpt>
      <trkpt lat="-21.20291" lon="55.61122">
        <ele>1950.171875</ele>
        <time>2013-01-07T08:10:25Z</time>
      </trkpt>
      <trkpt lat="-21.20283" lon="55.61133">
        <ele>1949.6911621094</ele>
        <time>2013-01-07T08:10:33Z</time>
      </trkpt>
      <trkpt lat="-21.20277" lon="55.61137">
        <ele>1948.2490234375</ele>
        <time>2013-01-07T08:10:39Z</time>
      </trkpt>
      <trkpt lat="-21.20279" lon="55.61146">
        <ele>1947.7683105469</ele>
        <time>2013-01-07T08:10:44Z</time>
      </trkpt>
      <trkpt lat="-21.20285" lon="55.61153">
        <ele>1947.2875976562</ele>
        <time>2013-01-07T08:10:52Z</time>
      </trkpt>
      <trkpt lat="-21.20286" lon="55.61157">
        <ele>1946.8068847656</ele>
        <time>2013-01-07T08:10:55Z</time>
      </trkpt>
      <trkpt lat="-21.20288" lon="55.6116">
        <ele>1945.845703125</ele>
        <time>2013-01-07T08:10:58Z</time>
      </trkpt>
      <trkpt lat="-21.2029" lon="55.61168">
        <ele>1943.4423828125</ele>
        <time>2013-01-07T08:11:05Z</time>
      </trkpt>
      <trkpt lat="-21.20294" lon="55.61177">
        <ele>1942.0004882812</ele>
        <time>2013-01-07T08:11:11Z</time>
      </trkpt>
      <trkpt lat="-21.20297" lon="55.61185">
        <ele>1940.5583496094</ele>
        <time>2013-01-07T08:11:19Z</time>
      </trkpt>
      <trkpt lat="-21.20288" lon="55.61194">
        <ele>1938.6359863281</ele>
        <time>2013-01-07T08:11:30Z</time>
      </trkpt>
      <trkpt lat="-21.20283" lon="55.61193">
        <ele>1937.1938476562</ele>
        <time>2013-01-07T08:11:34Z</time>
      </trkpt>
      <trkpt lat="-21.20275" lon="55.61195">
        <ele>1935.751953125</ele>
        <time>2013-01-07T08:11:42Z</time>
      </trkpt>
      <trkpt lat="-21.20269" lon="55.61194">
        <ele>1933.8293457031</ele>
        <time>2013-01-07T08:11:49Z</time>
      </trkpt>
      <trkpt lat="-21.20259" lon="55.61176">
        <ele>1932.3874511719</ele>
        <time>2013-01-07T08:12:04Z</time>
      </trkpt>
      <trkpt lat="-21.20245" lon="55.6117">
        <ele>1929.9838867188</ele>
        <time>2013-01-07T08:12:16Z</time>
      </trkpt>
      <trkpt lat="-21.20242" lon="55.6117">
        <ele>1928.5419921875</ele>
        <time>2013-01-07T08:12:19Z</time>
      </trkpt>
      <trkpt lat="-21.20241" lon="55.61169">
        <ele>1928.0612792969</ele>
        <time>2013-01-07T08:12:21Z</time>
      </trkpt>
      <trkpt lat="-21.20237" lon="55.61167">
        <ele>1926.6193847656</ele>
        <time>2013-01-07T08:12:25Z</time>
      </trkpt>
      <trkpt lat="-21.20233" lon="55.61164">
        <ele>1925.6579589844</ele>
        <time>2013-01-07T08:12:30Z</time>
      </trkpt>
      <trkpt lat="-21.20226" lon="55.6116">
        <ele>1923.2548828125</ele>
        <time>2013-01-07T08:12:38Z</time>
      </trkpt>
      <trkpt lat="-21.20223" lon="55.61157">
        <ele>1921.8127441406</ele>
        <time>2013-01-07T08:12:42Z</time>
      </trkpt>
      <trkpt lat="-21.20217" lon="55.61159">
        <ele>1919.8901367188</ele>
        <time>2013-01-07T08:12:47Z</time>
      </trkpt>
      <trkpt lat="-21.20214" lon="55.6116">
        <ele>1919.4096679688</ele>
        <time>2013-01-07T08:12:51Z</time>
      </trkpt>
      <trkpt lat="-21.20212" lon="55.61163">
        <ele>1917.9675292969</ele>
        <time>2013-01-07T08:12:54Z</time>
      </trkpt>
      <trkpt lat="-21.20206" lon="55.61168">
        <ele>1916.5256347656</ele>
        <time>2013-01-07T08:13:00Z</time>
      </trkpt>
      <trkpt lat="-21.20204" lon="55.6117">
        <ele>1917.0063476562</ele>
        <time>2013-01-07T08:13:02Z</time>
      </trkpt>
      <trkpt lat="-21.20196" lon="55.61164">
        <ele>1914.6027832031</ele>
        <time>2013-01-07T08:13:17Z</time>
      </trkpt>
      <trkpt lat="-21.20194" lon="55.61162">
        <ele>1912.6801757812</ele>
        <time>2013-01-07T08:13:19Z</time>
      </trkpt>
      <trkpt lat="-21.20191" lon="55.61158">
        <ele>1912.6801757812</ele>
        <time>2013-01-07T08:13:29Z</time>
      </trkpt>
      <trkpt lat="-21.20187" lon="55.61154">
        <ele>1910.2768554688</ele>
        <time>2013-01-07T08:13:34Z</time>
      </trkpt>
      <trkpt lat="-21.20174" lon="55.61148">
        <ele>1909.7961425781</ele>
        <time>2013-01-07T08:13:44Z</time>
      </trkpt>
      <trkpt lat="-21.20172" lon="55.61143">
        <ele>1908.8349609375</ele>
        <time>2013-01-07T08:13:48Z</time>
      </trkpt>
      <trkpt lat="-21.20169" lon="55.61142">
        <ele>1908.8349609375</ele>
        <time>2013-01-07T08:13:50Z</time>
      </trkpt>
      <trkpt lat="-21.20162" lon="55.6114">
        <ele>1907.3930664062</ele>
        <time>2013-01-07T08:13:56Z</time>
      </trkpt>
      <trkpt lat="-21.2015" lon="55.61136">
        <ele>1906.431640625</ele>
        <time>2013-01-07T08:14:07Z</time>
      </trkpt>
      <trkpt lat="-21.2015" lon="55.61135">
        <ele>1906.431640625</ele>
        <time>2013-01-07T08:14:08Z</time>
      </trkpt>
      <trkpt lat="-21.20146" lon="55.61129">
        <ele>1906.431640625</ele>
        <time>2013-01-07T08:14:14Z</time>
      </trkpt>
      <trkpt lat="-21.20146" lon="55.61121">
        <ele>1905.4704589844</ele>
        <time>2013-01-07T08:14:19Z</time>
      </trkpt>
      <trkpt lat="-21.20146" lon="55.61117">
        <ele>1904.9897460938</ele>
        <time>2013-01-07T08:14:21Z</time>
      </trkpt>
      <trkpt lat="-21.20138" lon="55.61107">
        <ele>1902.5864257812</ele>
        <time>2013-01-07T08:14:36Z</time>
      </trkpt>
      <trkpt lat="-21.20133" lon="55.61103">
        <ele>1902.5864257812</ele>
        <time>2013-01-07T08:14:42Z</time>
      </trkpt>
      <trkpt lat="-21.20129" lon="55.61099">
        <ele>1900.6638183594</ele>
        <time>2013-01-07T08:14:46Z</time>
      </trkpt>
      <trkpt lat="-21.20126" lon="55.61093">
        <ele>1901.6252441406</ele>
        <time>2013-01-07T08:14:51Z</time>
      </trkpt>
      <trkpt lat="-21.20116" lon="55.61077">
        <ele>1900.1833496094</ele>
        <time>2013-01-07T08:15:04Z</time>
      </trkpt>
      <trkpt lat="-21.20114" lon="55.61074">
        <ele>1900.1833496094</ele>
        <time>2013-01-07T08:15:08Z</time>
      </trkpt>
      <trkpt lat="-21.20106" lon="55.61063">
        <ele>1899.7023925781</ele>
        <time>2013-01-07T08:15:22Z</time>
      </trkpt>
      <trkpt lat="-21.20105" lon="55.61064">
        <ele>1900.6638183594</ele>
        <time>2013-01-07T08:15:26Z</time>
      </trkpt>
      <trkpt lat="-21.20104" lon="55.61062">
        <ele>1899.2216796875</ele>
        <time>2013-01-07T08:15:28Z</time>
      </trkpt>
      <trkpt lat="-21.20093" lon="55.61055">
        <ele>1898.7409667969</ele>
        <time>2013-01-07T08:15:40Z</time>
      </trkpt>
      <trkpt lat="-21.20088" lon="55.61047">
        <ele>1896.337890625</ele>
        <time>2013-01-07T08:15:45Z</time>
      </trkpt>
      <trkpt lat="-21.20084" lon="55.61044">
        <ele>1897.7797851562</ele>
        <time>2013-01-07T08:15:47Z</time>
      </trkpt>
      <trkpt lat="-21.20083" lon="55.61042">
        <ele>1896.818359375</ele>
        <time>2013-01-07T08:15:49Z</time>
      </trkpt>
      <trkpt lat="-21.20076" lon="55.61038">
        <ele>1895.3764648438</ele>
        <time>2013-01-07T08:15:55Z</time>
      </trkpt>
      <trkpt lat="-21.20067" lon="55.61031">
        <ele>1894.8957519531</ele>
        <time>2013-01-07T08:16:07Z</time>
      </trkpt>
      <trkpt lat="-21.20056" lon="55.61027">
        <ele>1894.4150390625</ele>
        <time>2013-01-07T08:16:14Z</time>
      </trkpt>
      <trkpt lat="-21.20058" lon="55.61014">
        <ele>1893.4538574219</ele>
        <time>2013-01-07T08:16:20Z</time>
      </trkpt>
      <trkpt lat="-21.20056" lon="55.60995">
        <ele>1891.53125</ele>
        <time>2013-01-07T08:16:34Z</time>
      </trkpt>
      <trkpt lat="-21.20056" lon="55.60986">
        <ele>1890.0893554688</ele>
        <time>2013-01-07T08:16:42Z</time>
      </trkpt>
      <trkpt lat="-21.20059" lon="55.60974">
        <ele>1889.1279296875</ele>
        <time>2013-01-07T08:16:55Z</time>
      </trkpt>
      <trkpt lat="-21.20058" lon="55.60969">
        <ele>1889.1279296875</ele>
        <time>2013-01-07T08:17:00Z</time>
      </trkpt>
      <trkpt lat="-21.20054" lon="55.60964">
        <ele>1889.1279296875</ele>
        <time>2013-01-07T08:17:02Z</time>
      </trkpt>
      <trkpt lat="-21.20053" lon="55.60963">
        <ele>1889.6086425781</ele>
        <time>2013-01-07T08:17:22Z</time>
      </trkpt>
      <trkpt lat="-21.20052" lon="55.60963">
        <ele>1888.6474609375</ele>
        <time>2013-01-07T08:17:24Z</time>
      </trkpt>
      <trkpt lat="-21.20045" lon="55.60965">
        <ele>1889.6086425781</ele>
        <time>2013-01-07T08:17:35Z</time>
      </trkpt>
      <trkpt lat="-21.20049" lon="55.6096">
        <ele>1888.6474609375</ele>
        <time>2013-01-07T08:17:40Z</time>
      </trkpt>
      <trkpt lat="-21.20041" lon="55.6095">
        <ele>1888.1667480469</ele>
        <time>2013-01-07T08:17:57Z</time>
      </trkpt>
      <trkpt lat="-21.20038" lon="55.60927">
        <ele>1885.7634277344</ele>
        <time>2013-01-07T08:18:14Z</time>
      </trkpt>
      <trkpt lat="-21.20036" lon="55.60923">
        <ele>1884.3215332031</ele>
        <time>2013-01-07T08:18:24Z</time>
      </trkpt>
      <trkpt lat="-21.20026" lon="55.60903">
        <ele>1881.91796875</ele>
        <time>2013-01-07T08:18:42Z</time>
      </trkpt>
      <trkpt lat="-21.20026" lon="55.60901">
        <ele>1881.91796875</ele>
        <time>2013-01-07T08:18:50Z</time>
      </trkpt>
      <trkpt lat="-21.20021" lon="55.60893">
        <ele>1880.4760742188</ele>
        <time>2013-01-07T08:19:06Z</time>
      </trkpt>
      <trkpt lat="-21.20026" lon="55.60898">
        <ele>1881.91796875</ele>
        <time>2013-01-07T08:19:26Z</time>
      </trkpt>
      <trkpt lat="-21.20023" lon="55.60887">
        <ele>1880.4760742188</ele>
        <time>2013-01-07T08:19:35Z</time>
      </trkpt>
      <trkpt lat="-21.20019" lon="55.6088">
        <ele>1880.9567871094</ele>
        <time>2013-01-07T08:19:42Z</time>
      </trkpt>
      <trkpt lat="-21.20017" lon="55.60878">
        <ele>1879.5146484375</ele>
        <time>2013-01-07T08:19:44Z</time>
      </trkpt>
      <trkpt lat="-21.20015" lon="55.60876">
        <ele>1880.4760742188</ele>
        <time>2013-01-07T08:19:52Z</time>
      </trkpt>
      <trkpt lat="-21.20008" lon="55.60876">
        <ele>1880.4760742188</ele>
        <time>2013-01-07T08:19:59Z</time>
      </trkpt>
      <trkpt lat="-21.20006" lon="55.60876">
        <ele>1880.9567871094</ele>
        <time>2013-01-07T08:20:01Z</time>
      </trkpt>
      <trkpt lat="-21.19987" lon="55.60873">
        <ele>1878.5534667969</ele>
        <time>2013-01-07T08:20:15Z</time>
      </trkpt>
      <trkpt lat="-21.19977" lon="55.60861">
        <ele>1877.5920410156</ele>
        <time>2013-01-07T08:20:27Z</time>
      </trkpt>
      <trkpt lat="-21.19957" lon="55.60846">
        <ele>1875.6694335938</ele>
        <time>2013-01-07T08:20:46Z</time>
      </trkpt>
      <trkpt lat="-21.19942" lon="55.60835">
        <ele>1873.7468261719</ele>
        <time>2013-01-07T08:21:00Z</time>
      </trkpt>
      <trkpt lat="-21.19935" lon="55.60829">
        <ele>1873.2663574219</ele>
        <time>2013-01-07T08:21:06Z</time>
      </trkpt>
      <trkpt lat="-21.1993" lon="55.60827">
        <ele>1872.7856445312</ele>
        <time>2013-01-07T08:21:10Z</time>
      </trkpt>
      <trkpt lat="-21.19928" lon="55.60824">
        <ele>1872.7856445312</ele>
        <time>2013-01-07T08:21:14Z</time>
      </trkpt>
      <trkpt lat="-21.19906" lon="55.6082">
        <ele>1870.3823242188</ele>
        <time>2013-01-07T08:21:34Z</time>
      </trkpt>
      <trkpt lat="-21.1989" lon="55.60819">
        <ele>1869.4211425781</ele>
        <time>2013-01-07T08:21:47Z</time>
      </trkpt>
      <trkpt lat="-21.19882" lon="55.60796">
        <ele>1865.5756835938</ele>
        <time>2013-01-07T08:22:04Z</time>
      </trkpt>
      <trkpt lat="-21.19882" lon="55.60778">
        <ele>1865.0949707031</ele>
        <time>2013-01-07T08:22:17Z</time>
      </trkpt>
      <trkpt lat="-21.19882" lon="55.60756">
        <ele>1864.1335449219</ele>
        <time>2013-01-07T08:22:32Z</time>
      </trkpt>
      <trkpt lat="-21.19883" lon="55.60733">
        <ele>1864.6142578125</ele>
        <time>2013-01-07T08:22:49Z</time>
      </trkpt>
      <trkpt lat="-21.1988" lon="55.60697">
        <ele>1863.6528320312</ele>
        <time>2013-01-07T08:23:13Z</time>
      </trkpt>
      <trkpt lat="-21.19868" lon="55.6069">
        <ele>1861.2497558594</ele>
        <time>2013-01-07T08:23:29Z</time>
      </trkpt>
      <trkpt lat="-21.19867" lon="55.60691">
        <ele>1860.7690429688</ele>
        <time>2013-01-07T08:23:30Z</time>
      </trkpt>
      <trkpt lat="-21.19864" lon="55.60704">
        <ele>1859.3271484375</ele>
        <time>2013-01-07T08:23:42Z</time>
      </trkpt>
      <trkpt lat="-21.1985" lon="55.6073">
        <ele>1859.3271484375</ele>
        <time>2013-01-07T08:24:01Z</time>
      </trkpt>
      <trkpt lat="-21.19837" lon="55.60738">
        <ele>1857.8852539062</ele>
        <time>2013-01-07T08:24:13Z</time>
      </trkpt>
      <trkpt lat="-21.19832" lon="55.60738">
        <ele>1857.4045410156</ele>
        <time>2013-01-07T08:24:15Z</time>
      </trkpt>
      <trkpt lat="-21.19826" lon="55.60738">
        <ele>1857.8852539062</ele>
        <time>2013-01-07T08:24:19Z</time>
      </trkpt>
      <trkpt lat="-21.19822" lon="55.60737">
        <ele>1857.4045410156</ele>
        <time>2013-01-07T08:24:22Z</time>
      </trkpt>
      <trkpt lat="-21.19811" lon="55.60722">
        <ele>1855.9624023438</ele>
        <time>2013-01-07T08:24:35Z</time>
      </trkpt>
      <trkpt lat="-21.19809" lon="55.60717">
        <ele>1855.4819335938</ele>
        <time>2013-01-07T08:24:39Z</time>
      </trkpt>
      <trkpt lat="-21.19808" lon="55.60714">
        <ele>1855.9624023438</ele>
        <time>2013-01-07T08:24:43Z</time>
      </trkpt>
      <trkpt lat="-21.19805" lon="55.60705">
        <ele>1855.0012207031</ele>
        <time>2013-01-07T08:24:50Z</time>
      </trkpt>
      <trkpt lat="-21.19796" lon="55.60681">
        <ele>1853.0786132812</ele>
        <time>2013-01-07T08:25:08Z</time>
      </trkpt>
      <trkpt lat="-21.19795" lon="55.60658">
        <ele>1853.0786132812</ele>
        <time>2013-01-07T08:25:24Z</time>
      </trkpt>
      <trkpt lat="-21.19797" lon="55.60644">
        <ele>1852.5979003906</ele>
        <time>2013-01-07T08:25:36Z</time>
      </trkpt>
      <trkpt lat="-21.19791" lon="55.60644">
        <ele>1852.5979003906</ele>
        <time>2013-01-07T08:25:53Z</time>
      </trkpt>
      <trkpt lat="-21.19777" lon="55.60642">
        <ele>1852.5979003906</ele>
        <time>2013-01-07T08:26:07Z</time>
      </trkpt>
      <trkpt lat="-21.1977" lon="55.60643">
        <ele>1851.6364746094</ele>
        <time>2013-01-07T08:26:13Z</time>
      </trkpt>
      <trkpt lat="-21.19764" lon="55.60643">
        <ele>1851.1557617188</ele>
        <time>2013-01-07T08:26:17Z</time>
      </trkpt>
      <trkpt lat="-21.19753" lon="55.6064">
        <ele>1851.1557617188</ele>
        <time>2013-01-07T08:26:29Z</time>
      </trkpt>
      <trkpt lat="-21.19744" lon="55.60634">
        <ele>1850.6750488281</ele>
        <time>2013-01-07T08:26:45Z</time>
      </trkpt>
      <trkpt lat="-21.19741" lon="55.6063">
        <ele>1850.1945800781</ele>
        <time>2013-01-07T08:26:59Z</time>
      </trkpt>
      <trkpt lat="-21.19733" lon="55.60627">
        <ele>1849.7138671875</ele>
        <time>2013-01-07T08:27:19Z</time>
      </trkpt>
      <trkpt lat="-21.19726" lon="55.60624">
        <ele>1849.2331542969</ele>
        <time>2013-01-07T08:27:39Z</time>
      </trkpt>
      <trkpt lat="-21.19711" lon="55.6061">
        <ele>1846.8298339844</ele>
        <time>2013-01-07T08:27:56Z</time>
      </trkpt>
      <trkpt lat="-21.1969" lon="55.60596">
        <ele>1844.4265136719</ele>
        <time>2013-01-07T08:28:22Z</time>
      </trkpt>
      <trkpt lat="-21.19671" lon="55.6058">
        <ele>1842.5041503906</ele>
        <time>2013-01-07T08:28:45Z</time>
      </trkpt>
      <trkpt lat="-21.19647" lon="55.60568">
        <ele>1839.6201171875</ele>
        <time>2013-01-07T08:29:05Z</time>
      </trkpt>
      <trkpt lat="-21.19621" lon="55.60557">
        <ele>1836.7360839844</ele>
        <time>2013-01-07T08:29:28Z</time>
      </trkpt>
      <trkpt lat="-21.19594" lon="55.60539">
        <ele>1834.8134765625</ele>
        <time>2013-01-07T08:29:49Z</time>
      </trkpt>
      <trkpt lat="-21.19579" lon="55.60526">
        <ele>1833.8520507812</ele>
        <time>2013-01-07T08:30:08Z</time>
      </trkpt>
      <trkpt lat="-21.1957" lon="55.60514">
        <ele>1833.3713378906</ele>
        <time>2013-01-07T08:30:22Z</time>
      </trkpt>
      <trkpt lat="-21.19558" lon="55.60485">
        <ele>1830.4875488281</ele>
        <time>2013-01-07T08:30:47Z</time>
      </trkpt>
      <trkpt lat="-21.19543" lon="55.60456">
        <ele>1828.5649414062</ele>
        <time>2013-01-07T08:31:09Z</time>
      </trkpt>
      <trkpt lat="-21.19534" lon="55.60426">
        <ele>1826.1616210938</ele>
        <time>2013-01-07T08:31:39Z</time>
      </trkpt>
      <trkpt lat="-21.19519" lon="55.60401">
        <ele>1823.2778320312</ele>
        <time>2013-01-07T08:32:02Z</time>
      </trkpt>
      <trkpt lat="-21.19511" lon="55.60384">
        <ele>1820.3937988281</ele>
        <time>2013-01-07T08:32:20Z</time>
      </trkpt>
      <trkpt lat="-21.19511" lon="55.60367">
        <ele>1818.4709472656</ele>
        <time>2013-01-07T08:32:35Z</time>
      </trkpt>
      <trkpt lat="-21.19512" lon="55.60352">
        <ele>1818.4709472656</ele>
        <time>2013-01-07T08:32:49Z</time>
      </trkpt>
      <trkpt lat="-21.19513" lon="55.60351">
        <ele>1816.5483398438</ele>
        <time>2013-01-07T08:32:51Z</time>
      </trkpt>
      <trkpt lat="-21.19521" lon="55.60335">
        <ele>1814.1450195312</ele>
        <time>2013-01-07T08:33:07Z</time>
      </trkpt>
      <trkpt lat="-21.19521" lon="55.60335">
        <ele>1814.1450195312</ele>
        <time>2013-01-07T08:33:08Z</time>
      </trkpt>
      <trkpt lat="-21.19507" lon="55.60332">
        <ele>1811.2612304688</ele>
        <time>2013-01-07T08:33:26Z</time>
      </trkpt>
      <trkpt lat="-21.19484" lon="55.60327">
        <ele>1809.3386230469</ele>
        <time>2013-01-07T08:33:46Z</time>
      </trkpt>
      <trkpt lat="-21.19473" lon="55.60316">
        <ele>1804.5319824219</ele>
        <time>2013-01-07T08:34:02Z</time>
      </trkpt>
      <trkpt lat="-21.19472" lon="55.60314">
        <ele>1804.5319824219</ele>
        <time>2013-01-07T08:34:03Z</time>
      </trkpt>
      <trkpt lat="-21.19487" lon="55.60303">
        <ele>1802.6091308594</ele>
        <time>2013-01-07T08:34:19Z</time>
      </trkpt>
      <trkpt lat="-21.19497" lon="55.6029">
        <ele>1801.1672363281</ele>
        <time>2013-01-07T08:34:35Z</time>
      </trkpt>
      <trkpt lat="-21.19501" lon="55.60276">
        <ele>1798.283203125</ele>
        <time>2013-01-07T08:34:49Z</time>
      </trkpt>
      <trkpt lat="-21.195" lon="55.60274">
        <ele>1795.3994140625</ele>
        <time>2013-01-07T08:35:01Z</time>
      </trkpt>
      <trkpt lat="-21.19494" lon="55.6027">
        <ele>1794.9187011719</ele>
        <time>2013-01-07T08:35:10Z</time>
      </trkpt>
      <trkpt lat="-21.19491" lon="55.60264">
        <ele>1794.4379882812</ele>
        <time>2013-01-07T08:35:14Z</time>
      </trkpt>
      <trkpt lat="-21.19495" lon="55.60253">
        <ele>1792.515625</ele>
        <time>2013-01-07T08:35:31Z</time>
      </trkpt>
      <trkpt lat="-21.19503" lon="55.60245">
        <ele>1789.1508789062</ele>
        <time>2013-01-07T08:35:49Z</time>
      </trkpt>
      <trkpt lat="-21.19518" lon="55.60222">
        <ele>1787.2280273438</ele>
        <time>2013-01-07T08:36:18Z</time>
      </trkpt>
      <trkpt lat="-21.19529" lon="55.602">
        <ele>1785.3054199219</ele>
        <time>2013-01-07T08:36:37Z</time>
      </trkpt>
      <trkpt lat="-21.19536" lon="55.60184">
        <ele>1784.3442382812</ele>
        <time>2013-01-07T08:36:47Z</time>
      </trkpt>
      <trkpt lat="-21.19541" lon="55.60175">
        <ele>1784.8249511719</ele>
        <time>2013-01-07T08:36:55Z</time>
      </trkpt>
      <trkpt lat="-21.19545" lon="55.60166">
        <ele>1784.3442382812</ele>
        <time>2013-01-07T08:37:00Z</time>
      </trkpt>
      <trkpt lat="-21.19549" lon="55.60154">
        <ele>1783.8635253906</ele>
        <time>2013-01-07T08:37:09Z</time>
      </trkpt>
      <trkpt lat="-21.19548" lon="55.6015">
        <ele>1781.9409179688</ele>
        <time>2013-01-07T08:37:17Z</time>
      </trkpt>
      <trkpt lat="-21.19559" lon="55.60128">
        <ele>1780.9797363281</ele>
        <time>2013-01-07T08:37:36Z</time>
      </trkpt>
      <trkpt lat="-21.19561" lon="55.60128">
        <ele>1780.4990234375</ele>
        <time>2013-01-07T08:37:38Z</time>
      </trkpt>
      <trkpt lat="-21.1958" lon="55.60132">
        <ele>1780.0183105469</ele>
        <time>2013-01-07T08:37:52Z</time>
      </trkpt>
      <trkpt lat="-21.19593" lon="55.60134">
        <ele>1780.0183105469</ele>
        <time>2013-01-07T08:38:02Z</time>
      </trkpt>
      <trkpt lat="-21.19597" lon="55.60135">
        <ele>1779.0568847656</ele>
        <time>2013-01-07T08:38:05Z</time>
      </trkpt>
      <trkpt lat="-21.19605" lon="55.60135">
        <ele>1779.0568847656</ele>
        <time>2013-01-07T08:38:09Z</time>
      </trkpt>
      <trkpt lat="-21.19626" lon="55.60143">
        <ele>1780.0183105469</ele>
        <time>2013-01-07T08:38:25Z</time>
      </trkpt>
      <trkpt lat="-21.19632" lon="55.60142">
        <ele>1780.4990234375</ele>
        <time>2013-01-07T08:38:30Z</time>
      </trkpt>
      <trkpt lat="-21.1964" lon="55.60144">
        <ele>1782.9020996094</ele>
        <time>2013-01-07T08:38:43Z</time>
      </trkpt>
      <trkpt lat="-21.1965" lon="55.60146">
        <ele>1786.2668457031</ele>
        <time>2013-01-07T08:38:58Z</time>
      </trkpt>
      <trkpt lat="-21.1966" lon="55.60149">
        <ele>1789.1508789062</ele>
        <time>2013-01-07T08:39:10Z</time>
      </trkpt>
      <trkpt lat="-21.19672" lon="55.6015">
        <ele>1789.6315917969</ele>
        <time>2013-01-07T08:39:23Z</time>
      </trkpt>
      <trkpt lat="-21.19677" lon="55.60153">
        <ele>1789.6315917969</ele>
        <time>2013-01-07T08:39:27Z</time>
      </trkpt>
      <trkpt lat="-21.19683" lon="55.60153">
        <ele>1790.1123046875</ele>
        <time>2013-01-07T08:39:30Z</time>
      </trkpt>
      <trkpt lat="-21.19686" lon="55.60156">
        <ele>1789.6315917969</ele>
        <time>2013-01-07T08:39:33Z</time>
      </trkpt>
      <trkpt lat="-21.19694" lon="55.60158">
        <ele>1789.1508789062</ele>
        <time>2013-01-07T08:39:41Z</time>
      </trkpt>
      <trkpt lat="-21.197" lon="55.60159">
        <ele>1790.1123046875</ele>
        <time>2013-01-07T08:39:46Z</time>
      </trkpt>
      <trkpt lat="-21.1971" lon="55.60162">
        <ele>1791.5541992188</ele>
        <time>2013-01-07T08:39:57Z</time>
      </trkpt>
      <trkpt lat="-21.19713" lon="55.60164">
        <ele>1792.0349121094</ele>
        <time>2013-01-07T08:40:03Z</time>
      </trkpt>
      <trkpt lat="-21.19729" lon="55.60166">
        <ele>1792.99609375</ele>
        <time>2013-01-07T08:40:14Z</time>
      </trkpt>
      <trkpt lat="-21.1974" lon="55.60169">
        <ele>1793.9575195312</ele>
        <time>2013-01-07T08:40:24Z</time>
      </trkpt>
      <trkpt lat="-21.1975" lon="55.60171">
        <ele>1795.3994140625</ele>
        <time>2013-01-07T08:40:34Z</time>
      </trkpt>
      <trkpt lat="-21.19759" lon="55.6017">
        <ele>1796.8413085938</ele>
        <time>2013-01-07T08:40:43Z</time>
      </trkpt>
      <trkpt lat="-21.19773" lon="55.60175">
        <ele>1796.8413085938</ele>
        <time>2013-01-07T08:40:55Z</time>
      </trkpt>
      <trkpt lat="-21.19785" lon="55.60182">
        <ele>1797.802734375</ele>
        <time>2013-01-07T08:41:10Z</time>
      </trkpt>
      <trkpt lat="-21.198" lon="55.60187">
        <ele>1799.7253417969</ele>
        <time>2013-01-07T08:41:23Z</time>
      </trkpt>
      <trkpt lat="-21.1981" lon="55.60188">
        <ele>1800.2060546875</ele>
        <time>2013-01-07T08:41:28Z</time>
      </trkpt>
      <trkpt lat="-21.19811" lon="55.60188">
        <ele>1801.1672363281</ele>
        <time>2013-01-07T08:41:32Z</time>
      </trkpt>
      <trkpt lat="-21.19813" lon="55.60191">
        <ele>1799.7253417969</ele>
        <time>2013-01-07T08:41:34Z</time>
      </trkpt>
      <trkpt lat="-21.19825" lon="55.60192">
        <ele>1798.7639160156</ele>
        <time>2013-01-07T08:41:47Z</time>
      </trkpt>
      <trkpt lat="-21.19833" lon="55.60188">
        <ele>1795.8801269531</ele>
        <time>2013-01-07T08:41:55Z</time>
      </trkpt>
      <trkpt lat="-21.19852" lon="55.60189">
        <ele>1796.3608398438</ele>
        <time>2013-01-07T08:42:14Z</time>
      </trkpt>
      <trkpt lat="-21.19868" lon="55.60188">
        <ele>1794.4379882812</ele>
        <time>2013-01-07T08:42:29Z</time>
      </trkpt>
      <trkpt lat="-21.19869" lon="55.60188">
        <ele>1794.4379882812</ele>
        <time>2013-01-07T08:42:30Z</time>
      </trkpt>
      <trkpt lat="-21.19871" lon="55.60189">
        <ele>1795.8801269531</ele>
        <time>2013-01-07T08:42:32Z</time>
      </trkpt>
      <trkpt lat="-21.19877" lon="55.60188">
        <ele>1794.4379882812</ele>
        <time>2013-01-07T08:42:37Z</time>
      </trkpt>
      <trkpt lat="-21.19879" lon="55.60189">
        <ele>1792.515625</ele>
        <time>2013-01-07T08:42:40Z</time>
      </trkpt>
      <trkpt lat="-21.19892" lon="55.60197">
        <ele>1792.515625</ele>
        <time>2013-01-07T08:42:55Z</time>
      </trkpt>
      <trkpt lat="-21.199" lon="55.60196">
        <ele>1791.0734863281</ele>
        <time>2013-01-07T08:43:00Z</time>
      </trkpt>
      <trkpt lat="-21.19906" lon="55.60177">
        <ele>1792.0349121094</ele>
        <time>2013-01-07T08:43:14Z</time>
      </trkpt>
      <trkpt lat="-21.19907" lon="55.60173">
        <ele>1792.515625</ele>
        <time>2013-01-07T08:43:17Z</time>
      </trkpt>
      <trkpt lat="-21.19908" lon="55.60172">
        <ele>1791.0734863281</ele>
        <time>2013-01-07T08:43:19Z</time>
      </trkpt>
      <trkpt lat="-21.19909" lon="55.60171">
        <ele>1791.5541992188</ele>
        <time>2013-01-07T08:43:20Z</time>
      </trkpt>
      <trkpt lat="-21.19914" lon="55.60171">
        <ele>1791.0734863281</ele>
        <time>2013-01-07T08:43:26Z</time>
      </trkpt>
      <trkpt lat="-21.19916" lon="55.60166">
        <ele>1790.5927734375</ele>
        <time>2013-01-07T08:43:30Z</time>
      </trkpt>
      <trkpt lat="-21.19916" lon="55.60164">
        <ele>1790.5927734375</ele>
        <time>2013-01-07T08:43:32Z</time>
      </trkpt>
      <trkpt lat="-21.19925" lon="55.60147">
        <ele>1787.7087402344</ele>
        <time>2013-01-07T08:43:47Z</time>
      </trkpt>
      <trkpt lat="-21.19929" lon="55.6012">
        <ele>1784.3442382812</ele>
        <time>2013-01-07T08:44:06Z</time>
      </trkpt>
      <trkpt lat="-21.19931" lon="55.60103">
        <ele>1782.9020996094</ele>
        <time>2013-01-07T08:44:20Z</time>
      </trkpt>
      <trkpt lat="-21.19931" lon="55.601">
        <ele>1782.9020996094</ele>
        <time>2013-01-07T08:44:22Z</time>
      </trkpt>
      <trkpt lat="-21.19934" lon="55.60091">
        <ele>1781.9409179688</ele>
        <time>2013-01-07T08:44:32Z</time>
      </trkpt>
      <trkpt lat="-21.19936" lon="55.6008">
        <ele>1779.5375976562</ele>
        <time>2013-01-07T08:44:47Z</time>
      </trkpt>
      <trkpt lat="-21.19935" lon="55.60075">
        <ele>1778.5764160156</ele>
        <time>2013-01-07T08:45:13Z</time>
      </trkpt>
      <trkpt lat="-21.19937" lon="55.60075">
        <ele>1777.1345214844</ele>
        <time>2013-01-07T08:46:37Z</time>
      </trkpt>
      <trkpt lat="-21.19936" lon="55.60074">
        <ele>1777.1345214844</ele>
        <time>2013-01-07T08:46:38Z</time>
      </trkpt>
      <trkpt lat="-21.19937" lon="55.60072">
        <ele>1779.0568847656</ele>
        <time>2013-01-07T08:46:40Z</time>
      </trkpt>
      <trkpt lat="-21.1994" lon="55.60059">
        <ele>1778.095703125</ele>
        <time>2013-01-07T08:46:54Z</time>
      </trkpt>
      <trkpt lat="-21.1994" lon="55.60055">
        <ele>1777.1345214844</ele>
        <time>2013-01-07T08:46:57Z</time>
      </trkpt>
      <trkpt lat="-21.19943" lon="55.60049">
        <ele>1777.1345214844</ele>
        <time>2013-01-07T08:47:02Z</time>
      </trkpt>
      <trkpt lat="-21.19944" lon="55.60028">
        <ele>1777.1345214844</ele>
        <time>2013-01-07T08:47:16Z</time>
      </trkpt>
      <trkpt lat="-21.19944" lon="55.60015">
        <ele>1776.6538085938</ele>
        <time>2013-01-07T08:47:24Z</time>
      </trkpt>
      <trkpt lat="-21.19945" lon="55.60012">
        <ele>1777.1345214844</ele>
        <time>2013-01-07T08:47:27Z</time>
      </trkpt>
      <trkpt lat="-21.19946" lon="55.60001">
        <ele>1776.1730957031</ele>
        <time>2013-01-07T08:47:33Z</time>
      </trkpt>
      <trkpt lat="-21.1995" lon="55.59988">
        <ele>1775.2116699219</ele>
        <time>2013-01-07T08:47:43Z</time>
      </trkpt>
      <trkpt lat="-21.1995" lon="55.59987">
        <ele>1776.6538085938</ele>
        <time>2013-01-07T08:47:44Z</time>
      </trkpt>
      <trkpt lat="-21.1995" lon="55.59982">
        <ele>1775.6923828125</ele>
        <time>2013-01-07T08:47:47Z</time>
      </trkpt>
      <trkpt lat="-21.19952" lon="55.59975">
        <ele>1774.7312011719</ele>
        <time>2013-01-07T08:47:51Z</time>
      </trkpt>
      <trkpt lat="-21.19954" lon="55.59959">
        <ele>1773.7697753906</ele>
        <time>2013-01-07T08:48:04Z</time>
      </trkpt>
      <trkpt lat="-21.19956" lon="55.59952">
        <ele>1773.7697753906</ele>
        <time>2013-01-07T08:48:09Z</time>
      </trkpt>
      <trkpt lat="-21.19957" lon="55.59942">
        <ele>1773.7697753906</ele>
        <time>2013-01-07T08:48:15Z</time>
      </trkpt>
      <trkpt lat="-21.19963" lon="55.59934">
        <ele>1775.2116699219</ele>
        <time>2013-01-07T08:48:30Z</time>
      </trkpt>
      <trkpt lat="-21.19966" lon="55.59924">
        <ele>1774.2504882812</ele>
        <time>2013-01-07T08:48:39Z</time>
      </trkpt>
      <trkpt lat="-21.19964" lon="55.59915">
        <ele>1774.2504882812</ele>
        <time>2013-01-07T08:48:52Z</time>
      </trkpt>
      <trkpt lat="-21.19964" lon="55.59912">
        <ele>1776.1730957031</ele>
        <time>2013-01-07T08:48:54Z</time>
      </trkpt>
      <trkpt lat="-21.19965" lon="55.59907">
        <ele>1775.6923828125</ele>
        <time>2013-01-07T08:48:57Z</time>
      </trkpt>
      <trkpt lat="-21.19966" lon="55.59901">
        <ele>1775.6923828125</ele>
        <time>2013-01-07T08:49:02Z</time>
      </trkpt>
      <trkpt lat="-21.19964" lon="55.59893">
        <ele>1776.1730957031</ele>
        <time>2013-01-07T08:49:07Z</time>
      </trkpt>
      <trkpt lat="-21.19967" lon="55.59881">
        <ele>1779.0568847656</ele>
        <time>2013-01-07T08:49:18Z</time>
      </trkpt>
      <trkpt lat="-21.19972" lon="55.59873">
        <ele>1777.1345214844</ele>
        <time>2013-01-07T08:49:34Z</time>
      </trkpt>
      <trkpt lat="-21.19972" lon="55.59871">
        <ele>1777.1345214844</ele>
        <time>2013-01-07T08:49:37Z</time>
      </trkpt>
      <trkpt lat="-21.19973" lon="55.59857">
        <ele>1772.80859375</ele>
        <time>2013-01-07T08:49:51Z</time>
      </trkpt>
      <trkpt lat="-21.19973" lon="55.59856">
        <ele>1772.80859375</ele>
        <time>2013-01-07T08:49:52Z</time>
      </trkpt>
      <trkpt lat="-21.19974" lon="55.59844">
        <ele>1772.3278808594</ele>
        <time>2013-01-07T08:49:59Z</time>
      </trkpt>
      <trkpt lat="-21.19977" lon="55.59834">
        <ele>1771.8469238281</ele>
        <time>2013-01-07T08:50:06Z</time>
      </trkpt>
      <trkpt lat="-21.19979" lon="55.59826">
        <ele>1770.8857421875</ele>
        <time>2013-01-07T08:50:11Z</time>
      </trkpt>
      <trkpt lat="-21.19979" lon="55.59825">
        <ele>1771.3662109375</ele>
        <time>2013-01-07T08:50:13Z</time>
      </trkpt>
      <trkpt lat="-21.1998" lon="55.59812">
        <ele>1768.9631347656</ele>
        <time>2013-01-07T08:50:26Z</time>
      </trkpt>
      <trkpt lat="-21.19979" lon="55.59808">
        <ele>1768.482421875</ele>
        <time>2013-01-07T08:50:30Z</time>
      </trkpt>
      <trkpt lat="-21.19981" lon="55.59796">
        <ele>1764.1564941406</ele>
        <time>2013-01-07T08:50:44Z</time>
      </trkpt>
      <trkpt lat="-21.19982" lon="55.59786">
        <ele>1761.2727050781</ele>
        <time>2013-01-07T08:50:58Z</time>
      </trkpt>
      <trkpt lat="-21.19984" lon="55.5978">
        <ele>1758.388671875</ele>
        <time>2013-01-07T08:51:12Z</time>
      </trkpt>
      <trkpt lat="-21.19984" lon="55.59776">
        <ele>1757.908203125</ele>
        <time>2013-01-07T08:51:16Z</time>
      </trkpt>
      <trkpt lat="-21.19985" lon="55.59776">
        <ele>1756.4660644531</ele>
        <time>2013-01-07T08:51:18Z</time>
      </trkpt>
      <trkpt lat="-21.19984" lon="55.59774">
        <ele>1755.9851074219</ele>
        <time>2013-01-07T08:51:19Z</time>
      </trkpt>
      <trkpt lat="-21.19986" lon="55.59769">
        <ele>1754.5432128906</ele>
        <time>2013-01-07T08:51:25Z</time>
      </trkpt>
      <trkpt lat="-21.19986" lon="55.5976">
        <ele>1750.6979980469</ele>
        <time>2013-01-07T08:51:36Z</time>
      </trkpt>
      <trkpt lat="-21.19987" lon="55.59754">
        <ele>1748.775390625</ele>
        <time>2013-01-07T08:51:44Z</time>
      </trkpt>
      <trkpt lat="-21.1999" lon="55.59745">
        <ele>1745.8916015625</ele>
        <time>2013-01-07T08:51:50Z</time>
      </trkpt>
      <trkpt lat="-21.19992" lon="55.59731">
        <ele>1743.48828125</ele>
        <time>2013-01-07T08:52:03Z</time>
      </trkpt>
      <trkpt lat="-21.19993" lon="55.59725">
        <ele>1742.0463867188</ele>
        <time>2013-01-07T08:52:08Z</time>
      </trkpt>
      <trkpt lat="-21.19994" lon="55.59717">
        <ele>1741.5656738281</ele>
        <time>2013-01-07T08:52:14Z</time>
      </trkpt>
      <trkpt lat="-21.19995" lon="55.59711">
        <ele>1742.0463867188</ele>
        <time>2013-01-07T08:52:18Z</time>
      </trkpt>
      <trkpt lat="-21.19996" lon="55.59709">
        <ele>1740.1237792969</ele>
        <time>2013-01-07T08:52:20Z</time>
      </trkpt>
      <trkpt lat="-21.19996" lon="55.59707">
        <ele>1740.1237792969</ele>
        <time>2013-01-07T08:52:21Z</time>
      </trkpt>
      <trkpt lat="-21.19999" lon="55.59697">
        <ele>1738.2009277344</ele>
        <time>2013-01-07T08:52:28Z</time>
      </trkpt>
      <trkpt lat="-21.20001" lon="55.59688">
        <ele>1736.2783203125</ele>
        <time>2013-01-07T08:52:35Z</time>
      </trkpt>
      <trkpt lat="-21.20002" lon="55.59683">
        <ele>1735.7976074219</ele>
        <time>2013-01-07T08:52:41Z</time>
      </trkpt>
      <trkpt lat="-21.20003" lon="55.5968">
        <ele>1734.3557128906</ele>
        <time>2013-01-07T08:52:44Z</time>
      </trkpt>
      <trkpt lat="-21.20005" lon="55.59666">
        <ele>1730.9912109375</ele>
        <time>2013-01-07T08:52:54Z</time>
      </trkpt>
      <trkpt lat="-21.20008" lon="55.59648">
        <ele>1729.068359375</ele>
        <time>2013-01-07T08:53:07Z</time>
      </trkpt>
      <trkpt lat="-21.20008" lon="55.59645">
        <ele>1728.587890625</ele>
        <time>2013-01-07T08:53:10Z</time>
      </trkpt>
      <trkpt lat="-21.20009" lon="55.59643">
        <ele>1727.6264648438</ele>
        <time>2013-01-07T08:53:12Z</time>
      </trkpt>
      <trkpt lat="-21.20009" lon="55.59639">
        <ele>1727.6264648438</ele>
        <time>2013-01-07T08:53:16Z</time>
      </trkpt>
      <trkpt lat="-21.20009" lon="55.59636">
        <ele>1725.2231445312</ele>
        <time>2013-01-07T08:53:19Z</time>
      </trkpt>
      <trkpt lat="-21.20009" lon="55.5963">
        <ele>1724.7426757812</ele>
        <time>2013-01-07T08:53:25Z</time>
      </trkpt>
      <trkpt lat="-21.20009" lon="55.59625">
        <ele>1724.2619628906</ele>
        <time>2013-01-07T08:53:28Z</time>
      </trkpt>
      <trkpt lat="-21.20014" lon="55.5961">
        <ele>1722.3391113281</ele>
        <time>2013-01-07T08:53:42Z</time>
      </trkpt>
      <trkpt lat="-21.2002" lon="55.59585">
        <ele>1718.4938964844</ele>
        <time>2013-01-07T08:54:01Z</time>
      </trkpt>
      <trkpt lat="-21.20019" lon="55.59566">
        <ele>1717.0520019531</ele>
        <time>2013-01-07T08:54:16Z</time>
      </trkpt>
      <trkpt lat="-21.20019" lon="55.59563">
        <ele>1716.5712890625</ele>
        <time>2013-01-07T08:54:20Z</time>
      </trkpt>
      <trkpt lat="-21.20023" lon="55.59545">
        <ele>1715.1293945312</ele>
        <time>2013-01-07T08:54:32Z</time>
      </trkpt>
      <trkpt lat="-21.2002" lon="55.59539">
        <ele>1716.0905761719</ele>
        <time>2013-01-07T08:54:39Z</time>
      </trkpt>
      <trkpt lat="-21.20011" lon="55.59536">
        <ele>1716.0905761719</ele>
        <time>2013-01-07T08:54:48Z</time>
      </trkpt>
      <trkpt lat="-21.20001" lon="55.59535">
        <ele>1718.0131835938</ele>
        <time>2013-01-07T08:54:56Z</time>
      </trkpt>
      <trkpt lat="-21.19999" lon="55.59534">
        <ele>1717.0520019531</ele>
        <time>2013-01-07T08:54:58Z</time>
      </trkpt>
      <trkpt lat="-21.19996" lon="55.59534">
        <ele>1716.5712890625</ele>
        <time>2013-01-07T08:55:01Z</time>
      </trkpt>
      <trkpt lat="-21.19991" lon="55.59533">
        <ele>1717.0520019531</ele>
        <time>2013-01-07T08:55:06Z</time>
      </trkpt>
      <trkpt lat="-21.19982" lon="55.5953">
        <ele>1717.0520019531</ele>
        <time>2013-01-07T08:55:13Z</time>
      </trkpt>
      <trkpt lat="-21.19979" lon="55.59528">
        <ele>1718.0131835938</ele>
        <time>2013-01-07T08:55:17Z</time>
      </trkpt>
      <trkpt lat="-21.19971" lon="55.59526">
        <ele>1718.974609375</ele>
        <time>2013-01-07T08:55:24Z</time>
      </trkpt>
      <trkpt lat="-21.19969" lon="55.59517">
        <ele>1719.9357910156</ele>
        <time>2013-01-07T08:55:32Z</time>
      </trkpt>
      <trkpt lat="-21.1997" lon="55.59513">
        <ele>1719.9357910156</ele>
        <time>2013-01-07T08:55:34Z</time>
      </trkpt>
      <trkpt lat="-21.19969" lon="55.59507">
        <ele>1719.9357910156</ele>
        <time>2013-01-07T08:55:38Z</time>
      </trkpt>
      <trkpt lat="-21.1997" lon="55.59504">
        <ele>1719.9357910156</ele>
        <time>2013-01-07T08:55:41Z</time>
      </trkpt>
      <trkpt lat="-21.1997" lon="55.5949">
        <ele>1719.9357910156</ele>
        <time>2013-01-07T08:55:51Z</time>
      </trkpt>
      <trkpt lat="-21.19972" lon="55.5948">
        <ele>1719.9357910156</ele>
        <time>2013-01-07T08:55:59Z</time>
      </trkpt>
      <trkpt lat="-21.19973" lon="55.59473">
        <ele>1719.9357910156</ele>
        <time>2013-01-07T08:56:03Z</time>
      </trkpt>
      <trkpt lat="-21.19973" lon="55.59463">
        <ele>1718.974609375</ele>
        <time>2013-01-07T08:56:09Z</time>
      </trkpt>
      <trkpt lat="-21.19973" lon="55.5945">
        <ele>1718.0131835938</ele>
        <time>2013-01-07T08:56:19Z</time>
      </trkpt>
      <trkpt lat="-21.19975" lon="55.59446">
        <ele>1718.0131835938</ele>
        <time>2013-01-07T08:56:22Z</time>
      </trkpt>
      <trkpt lat="-21.19974" lon="55.59442">
        <ele>1717.5324707031</ele>
        <time>2013-01-07T08:56:25Z</time>
      </trkpt>
      <trkpt lat="-21.19974" lon="55.59436">
        <ele>1717.0520019531</ele>
        <time>2013-01-07T08:56:29Z</time>
      </trkpt>
      <trkpt lat="-21.19978" lon="55.59426">
        <ele>1716.0905761719</ele>
        <time>2013-01-07T08:56:37Z</time>
      </trkpt>
      <trkpt lat="-21.19977" lon="55.5942">
        <ele>1716.0905761719</ele>
        <time>2013-01-07T08:56:41Z</time>
      </trkpt>
      <trkpt lat="-21.19978" lon="55.59414">
        <ele>1715.6101074219</ele>
        <time>2013-01-07T08:56:44Z</time>
      </trkpt>
      <trkpt lat="-21.19977" lon="55.59408">
        <ele>1715.1293945312</ele>
        <time>2013-01-07T08:56:48Z</time>
      </trkpt>
      <trkpt lat="-21.19977" lon="55.59404">
        <ele>1714.6486816406</ele>
        <time>2013-01-07T08:56:51Z</time>
      </trkpt>
      <trkpt lat="-21.19977" lon="55.59394">
        <ele>1713.2067871094</ele>
        <time>2013-01-07T08:57:01Z</time>
      </trkpt>
      <trkpt lat="-21.19977" lon="55.5939">
        <ele>1713.2067871094</ele>
        <time>2013-01-07T08:57:04Z</time>
      </trkpt>
      <trkpt lat="-21.19978" lon="55.59384">
        <ele>1711.7648925781</ele>
        <time>2013-01-07T08:57:08Z</time>
      </trkpt>
      <trkpt lat="-21.19977" lon="55.59381">
        <ele>1711.7648925781</ele>
        <time>2013-01-07T08:57:11Z</time>
      </trkpt>
      <trkpt lat="-21.19979" lon="55.59376">
        <ele>1710.8034667969</ele>
        <time>2013-01-07T08:57:15Z</time>
      </trkpt>
      <trkpt lat="-21.19976" lon="55.59374">
        <ele>1711.2841796875</ele>
        <time>2013-01-07T08:57:17Z</time>
      </trkpt>
      <trkpt lat="-21.19977" lon="55.5937">
        <ele>1710.3227539062</ele>
        <time>2013-01-07T08:57:20Z</time>
      </trkpt>
      <trkpt lat="-21.19978" lon="55.59363">
        <ele>1709.3615722656</ele>
        <time>2013-01-07T08:57:24Z</time>
      </trkpt>
      <trkpt lat="-21.19978" lon="55.59356">
        <ele>1709.3615722656</ele>
        <time>2013-01-07T08:57:29Z</time>
      </trkpt>
      <trkpt lat="-21.19978" lon="55.59347">
        <ele>1707.9194335938</ele>
        <time>2013-01-07T08:57:36Z</time>
      </trkpt>
      <trkpt lat="-21.1998" lon="55.5934">
        <ele>1707.4387207031</ele>
        <time>2013-01-07T08:57:41Z</time>
      </trkpt>
      <trkpt lat="-21.19983" lon="55.59333">
        <ele>1705.5161132812</ele>
        <time>2013-01-07T08:57:46Z</time>
      </trkpt>
      <trkpt lat="-21.19983" lon="55.59331">
        <ele>1705.9965820312</ele>
        <time>2013-01-07T08:57:48Z</time>
      </trkpt>
      <trkpt lat="-21.19982" lon="55.59315">
        <ele>1703.5935058594</ele>
        <time>2013-01-07T08:57:58Z</time>
      </trkpt>
      <trkpt lat="-21.19981" lon="55.59303">
        <ele>1703.1127929688</ele>
        <time>2013-01-07T08:58:06Z</time>
      </trkpt>
      <trkpt lat="-21.19981" lon="55.593">
        <ele>1702.1513671875</ele>
        <time>2013-01-07T08:58:09Z</time>
      </trkpt>
      <trkpt lat="-21.19986" lon="55.59285">
        <ele>1701.1901855469</ele>
        <time>2013-01-07T08:58:19Z</time>
      </trkpt>
      <trkpt lat="-21.19986" lon="55.59283">
        <ele>1701.1901855469</ele>
        <time>2013-01-07T08:58:20Z</time>
      </trkpt>
      <trkpt lat="-21.19986" lon="55.59267">
        <ele>1698.7868652344</ele>
        <time>2013-01-07T08:58:32Z</time>
      </trkpt>
      <trkpt lat="-21.19986" lon="55.59259">
        <ele>1697.8256835938</ele>
        <time>2013-01-07T08:58:37Z</time>
      </trkpt>
      <trkpt lat="-21.19986" lon="55.59254">
        <ele>1697.8256835938</ele>
        <time>2013-01-07T08:58:40Z</time>
      </trkpt>
      <trkpt lat="-21.19985" lon="55.59241">
        <ele>1695.4223632812</ele>
        <time>2013-01-07T08:58:53Z</time>
      </trkpt>
      <trkpt lat="-21.19986" lon="55.5923">
        <ele>1693.4997558594</ele>
        <time>2013-01-07T08:59:02Z</time>
      </trkpt>
      <trkpt lat="-21.19987" lon="55.5922">
        <ele>1693.98046875</ele>
        <time>2013-01-07T08:59:07Z</time>
      </trkpt>
      <trkpt lat="-21.19987" lon="55.59208">
        <ele>1692.5385742188</ele>
        <time>2013-01-07T08:59:17Z</time>
      </trkpt>
      <trkpt lat="-21.19987" lon="55.59197">
        <ele>1692.5385742188</ele>
        <time>2013-01-07T08:59:23Z</time>
      </trkpt>
      <trkpt lat="-21.1999" lon="55.59179">
        <ele>1690.6154785156</ele>
        <time>2013-01-07T08:59:34Z</time>
      </trkpt>
      <trkpt lat="-21.19993" lon="55.59169">
        <ele>1690.6154785156</ele>
        <time>2013-01-07T08:59:43Z</time>
      </trkpt>
      <trkpt lat="-21.19994" lon="55.59163">
        <ele>1692.0578613281</ele>
        <time>2013-01-07T08:59:53Z</time>
      </trkpt>
      <trkpt lat="-21.19994" lon="55.59162">
        <ele>1692.0578613281</ele>
        <time>2013-01-07T08:59:54Z</time>
      </trkpt>
      <trkpt lat="-21.19993" lon="55.5916">
        <ele>1694.4609375</ele>
        <time>2013-01-07T08:59:58Z</time>
      </trkpt>
      <trkpt lat="-21.19993" lon="55.5916">
        <ele>1694.4609375</ele>
        <time>2013-01-07T08:59:59Z</time>
      </trkpt>
      <trkpt lat="-21.19993" lon="55.59159">
        <ele>1693.98046875</ele>
        <time>2013-01-07T09:00:00Z</time>
      </trkpt>
      <trkpt lat="-21.19992" lon="55.59156">
        <ele>1690.1350097656</ele>
        <time>2013-01-07T09:00:03Z</time>
      </trkpt>
      <trkpt lat="-21.19992" lon="55.59155">
        <ele>1690.1350097656</ele>
        <time>2013-01-07T09:00:04Z</time>
      </trkpt>
      <trkpt lat="-21.19991" lon="55.59143">
        <ele>1691.0961914062</ele>
        <time>2013-01-07T09:00:13Z</time>
      </trkpt>
      <trkpt lat="-21.1999" lon="55.5913">
        <ele>1690.6154785156</ele>
        <time>2013-01-07T09:00:22Z</time>
      </trkpt>
      <trkpt lat="-21.19989" lon="55.59126">
        <ele>1690.6154785156</ele>
        <time>2013-01-07T09:00:25Z</time>
      </trkpt>
      <trkpt lat="-21.19991" lon="55.59109">
        <ele>1689.1735839844</ele>
        <time>2013-01-07T09:00:34Z</time>
      </trkpt>
      <trkpt lat="-21.19995" lon="55.59091">
        <ele>1690.1350097656</ele>
        <time>2013-01-07T09:00:45Z</time>
      </trkpt>
      <trkpt lat="-21.19997" lon="55.59083">
        <ele>1689.654296875</ele>
        <time>2013-01-07T09:00:50Z</time>
      </trkpt>
      <trkpt lat="-21.19999" lon="55.59067">
        <ele>1690.1350097656</ele>
        <time>2013-01-07T09:01:02Z</time>
      </trkpt>
      <trkpt lat="-21.19998" lon="55.59058">
        <ele>1690.1350097656</ele>
        <time>2013-01-07T09:01:09Z</time>
      </trkpt>
      <trkpt lat="-21.19991" lon="55.59048">
        <ele>1690.6154785156</ele>
        <time>2013-01-07T09:01:15Z</time>
      </trkpt>
      <trkpt lat="-21.19985" lon="55.59043">
        <ele>1690.1350097656</ele>
        <time>2013-01-07T09:01:21Z</time>
      </trkpt>
      <trkpt lat="-21.19974" lon="55.59033">
        <ele>1689.654296875</ele>
        <time>2013-01-07T09:01:34Z</time>
      </trkpt>
      <trkpt lat="-21.19967" lon="55.59031">
        <ele>1689.654296875</ele>
        <time>2013-01-07T09:01:39Z</time>
      </trkpt>
      <trkpt lat="-21.19964" lon="55.59029">
        <ele>1690.1350097656</ele>
        <time>2013-01-07T09:01:42Z</time>
      </trkpt>
      <trkpt lat="-21.19959" lon="55.59028">
        <ele>1688.2124023438</ele>
        <time>2013-01-07T09:01:45Z</time>
      </trkpt>
      <trkpt lat="-21.19954" lon="55.59026">
        <ele>1687.2509765625</ele>
        <time>2013-01-07T09:01:48Z</time>
      </trkpt>
      <trkpt lat="-21.19936" lon="55.59014">
        <ele>1686.2897949219</ele>
        <time>2013-01-07T09:02:01Z</time>
      </trkpt>
      <trkpt lat="-21.19927" lon="55.58999">
        <ele>1686.2897949219</ele>
        <time>2013-01-07T09:02:15Z</time>
      </trkpt>
      <trkpt lat="-21.19924" lon="55.5899">
        <ele>1685.8090820312</ele>
        <time>2013-01-07T09:02:22Z</time>
      </trkpt>
      <trkpt lat="-21.19916" lon="55.58976">
        <ele>1685.8090820312</ele>
        <time>2013-01-07T09:02:31Z</time>
      </trkpt>
      <trkpt lat="-21.19913" lon="55.58972">
        <ele>1685.3283691406</ele>
        <time>2013-01-07T09:02:34Z</time>
      </trkpt>
      <trkpt lat="-21.19909" lon="55.58963">
        <ele>1685.3283691406</ele>
        <time>2013-01-07T09:02:39Z</time>
      </trkpt>
      <trkpt lat="-21.19907" lon="55.58957">
        <ele>1685.8090820312</ele>
        <time>2013-01-07T09:02:43Z</time>
      </trkpt>
      <trkpt lat="-21.19908" lon="55.58954">
        <ele>1686.2897949219</ele>
        <time>2013-01-07T09:02:46Z</time>
      </trkpt>
      <trkpt lat="-21.19913" lon="55.58938">
        <ele>1688.2124023438</ele>
        <time>2013-01-07T09:02:59Z</time>
      </trkpt>
      <trkpt lat="-21.19912" lon="55.58924">
        <ele>1688.6931152344</ele>
        <time>2013-01-07T09:03:13Z</time>
      </trkpt>
      <trkpt lat="-21.19912" lon="55.5892">
        <ele>1688.6931152344</ele>
        <time>2013-01-07T09:03:16Z</time>
      </trkpt>
      <trkpt lat="-21.19911" lon="55.58916">
        <ele>1688.6931152344</ele>
        <time>2013-01-07T09:03:19Z</time>
      </trkpt>
      <trkpt lat="-21.19911" lon="55.5891">
        <ele>1689.1735839844</ele>
        <time>2013-01-07T09:03:23Z</time>
      </trkpt>
      <trkpt lat="-21.19912" lon="55.58906">
        <ele>1689.654296875</ele>
        <time>2013-01-07T09:03:25Z</time>
      </trkpt>
      <trkpt lat="-21.1991" lon="55.58895">
        <ele>1689.654296875</ele>
        <time>2013-01-07T09:03:34Z</time>
      </trkpt>
      <trkpt lat="-21.19909" lon="55.58888">
        <ele>1689.1735839844</ele>
        <time>2013-01-07T09:03:38Z</time>
      </trkpt>
      <trkpt lat="-21.19906" lon="55.58886">
        <ele>1688.6931152344</ele>
        <time>2013-01-07T09:03:40Z</time>
      </trkpt>
      <trkpt lat="-21.19904" lon="55.5888">
        <ele>1688.2124023438</ele>
        <time>2013-01-07T09:03:44Z</time>
      </trkpt>
      <trkpt lat="-21.19903" lon="55.58876">
        <ele>1687.7316894531</ele>
        <time>2013-01-07T09:03:48Z</time>
      </trkpt>
      <trkpt lat="-21.19893" lon="55.58878">
        <ele>1686.7702636719</ele>
        <time>2013-01-07T09:03:56Z</time>
      </trkpt>
      <trkpt lat="-21.19889" lon="55.58878">
        <ele>1686.2897949219</ele>
        <time>2013-01-07T09:04:01Z</time>
      </trkpt>
      <trkpt lat="-21.19882" lon="55.58878">
        <ele>1684.3671875</ele>
        <time>2013-01-07T09:04:05Z</time>
      </trkpt>
      <trkpt lat="-21.1988" lon="55.5888">
        <ele>1684.3671875</ele>
        <time>2013-01-07T09:04:07Z</time>
      </trkpt>
      <trkpt lat="-21.19877" lon="55.58881">
        <ele>1684.3671875</ele>
        <time>2013-01-07T09:04:09Z</time>
      </trkpt>
      <trkpt lat="-21.19873" lon="55.5888">
        <ele>1683.8864746094</ele>
        <time>2013-01-07T09:04:11Z</time>
      </trkpt>
      <trkpt lat="-21.19867" lon="55.58872">
        <ele>1682.9250488281</ele>
        <time>2013-01-07T09:04:17Z</time>
      </trkpt>
      <trkpt lat="-21.19868" lon="55.58867">
        <ele>1682.4445800781</ele>
        <time>2013-01-07T09:04:22Z</time>
      </trkpt>
      <trkpt lat="-21.1987" lon="55.58857">
        <ele>1681.4831542969</ele>
        <time>2013-01-07T09:04:31Z</time>
      </trkpt>
      <trkpt lat="-21.19872" lon="55.58853">
        <ele>1681.0026855469</ele>
        <time>2013-01-07T09:04:34Z</time>
      </trkpt>
      <trkpt lat="-21.19871" lon="55.58849">
        <ele>1680.5219726562</ele>
        <time>2013-01-07T09:04:38Z</time>
      </trkpt>
      <trkpt lat="-21.19872" lon="55.58844">
        <ele>1678.5993652344</ele>
        <time>2013-01-07T09:04:42Z</time>
      </trkpt>
      <trkpt lat="-21.19872" lon="55.58835">
        <ele>1677.6379394531</ele>
        <time>2013-01-07T09:04:58Z</time>
      </trkpt>
      <trkpt lat="-21.1987" lon="55.58835">
        <ele>1677.1574707031</ele>
        <time>2013-01-07T09:05:08Z</time>
      </trkpt>
      <trkpt lat="-21.19866" lon="55.58836">
        <ele>1676.1960449219</ele>
        <time>2013-01-07T09:05:11Z</time>
      </trkpt>
      <trkpt lat="-21.19861" lon="55.58836">
        <ele>1675.234375</ele>
        <time>2013-01-07T09:05:15Z</time>
      </trkpt>
      <trkpt lat="-21.19858" lon="55.58836">
        <ele>1675.234375</ele>
        <time>2013-01-07T09:05:18Z</time>
      </trkpt>
      <trkpt lat="-21.19854" lon="55.58834">
        <ele>1675.234375</ele>
        <time>2013-01-07T09:05:21Z</time>
      </trkpt>
      <trkpt lat="-21.19854" lon="55.58827">
        <ele>1675.7150878906</ele>
        <time>2013-01-07T09:05:28Z</time>
      </trkpt>
      <trkpt lat="-21.19856" lon="55.58822">
        <ele>1675.7150878906</ele>
        <time>2013-01-07T09:05:32Z</time>
      </trkpt>
      <trkpt lat="-21.19854" lon="55.5881">
        <ele>1675.234375</ele>
        <time>2013-01-07T09:05:41Z</time>
      </trkpt>
      <trkpt lat="-21.19848" lon="55.58802">
        <ele>1675.234375</ele>
        <time>2013-01-07T09:05:48Z</time>
      </trkpt>
      <trkpt lat="-21.19843" lon="55.58795">
        <ele>1674.2731933594</ele>
        <time>2013-01-07T09:05:55Z</time>
      </trkpt>
      <trkpt lat="-21.1984" lon="55.58792">
        <ele>1674.2731933594</ele>
        <time>2013-01-07T09:05:58Z</time>
      </trkpt>
      <trkpt lat="-21.19828" lon="55.58786">
        <ele>1673.7924804688</ele>
        <time>2013-01-07T09:06:10Z</time>
      </trkpt>
      <trkpt lat="-21.19827" lon="55.58785">
        <ele>1673.7924804688</ele>
        <time>2013-01-07T09:06:11Z</time>
      </trkpt>
      <trkpt lat="-21.19823" lon="55.58768">
        <ele>1673.3120117188</ele>
        <time>2013-01-07T09:06:24Z</time>
      </trkpt>
      <trkpt lat="-21.19821" lon="55.58765">
        <ele>1674.75390625</ele>
        <time>2013-01-07T09:06:28Z</time>
      </trkpt>
      <trkpt lat="-21.19821" lon="55.58762">
        <ele>1673.3120117188</ele>
        <time>2013-01-07T09:06:30Z</time>
      </trkpt>
      <trkpt lat="-21.19817" lon="55.58757">
        <ele>1673.7924804688</ele>
        <time>2013-01-07T09:06:40Z</time>
      </trkpt>
      <trkpt lat="-21.19818" lon="55.58749">
        <ele>1673.3120117188</ele>
        <time>2013-01-07T09:06:45Z</time>
      </trkpt>
      <trkpt lat="-21.19817" lon="55.58747">
        <ele>1672.8312988281</ele>
        <time>2013-01-07T09:06:47Z</time>
      </trkpt>
      <trkpt lat="-21.19815" lon="55.58739">
        <ele>1672.3505859375</ele>
        <time>2013-01-07T09:06:54Z</time>
      </trkpt>
      <trkpt lat="-21.19814" lon="55.58737">
        <ele>1672.3505859375</ele>
        <time>2013-01-07T09:06:56Z</time>
      </trkpt>
      <trkpt lat="-21.19815" lon="55.58734">
        <ele>1672.3505859375</ele>
        <time>2013-01-07T09:06:59Z</time>
      </trkpt>
      <trkpt lat="-21.19817" lon="55.58728">
        <ele>1670.9086914062</ele>
        <time>2013-01-07T09:07:03Z</time>
      </trkpt>
      <trkpt lat="-21.19818" lon="55.58721">
        <ele>1670.9086914062</ele>
        <time>2013-01-07T09:07:07Z</time>
      </trkpt>
      <trkpt lat="-21.19822" lon="55.58717">
        <ele>1670.9086914062</ele>
        <time>2013-01-07T09:07:11Z</time>
      </trkpt>
      <trkpt lat="-21.19825" lon="55.58712">
        <ele>1670.9086914062</ele>
        <time>2013-01-07T09:07:15Z</time>
      </trkpt>
      <trkpt lat="-21.19825" lon="55.58711">
        <ele>1671.3891601562</ele>
        <time>2013-01-07T09:07:17Z</time>
      </trkpt>
      <trkpt lat="-21.19822" lon="55.58705">
        <ele>1672.8312988281</ele>
        <time>2013-01-07T09:07:22Z</time>
      </trkpt>
      <trkpt lat="-21.19821" lon="55.58703">
        <ele>1672.8312988281</ele>
        <time>2013-01-07T09:07:24Z</time>
      </trkpt>
      <trkpt lat="-21.19823" lon="55.58697">
        <ele>1671.8698730469</ele>
        <time>2013-01-07T09:07:28Z</time>
      </trkpt>
      <trkpt lat="-21.19821" lon="55.58688">
        <ele>1673.3120117188</ele>
        <time>2013-01-07T09:07:37Z</time>
      </trkpt>
      <trkpt lat="-21.19821" lon="55.58683">
        <ele>1673.3120117188</ele>
        <time>2013-01-07T09:07:40Z</time>
      </trkpt>
      <trkpt lat="-21.19821" lon="55.58679">
        <ele>1673.3120117188</ele>
        <time>2013-01-07T09:07:47Z</time>
      </trkpt>
      <trkpt lat="-21.19819" lon="55.58673">
        <ele>1672.3505859375</ele>
        <time>2013-01-07T09:07:51Z</time>
      </trkpt>
      <trkpt lat="-21.19817" lon="55.58672">
        <ele>1670.9086914062</ele>
        <time>2013-01-07T09:07:53Z</time>
      </trkpt>
      <trkpt lat="-21.19811" lon="55.5866">
        <ele>1667.5439453125</ele>
        <time>2013-01-07T09:08:04Z</time>
      </trkpt>
      <trkpt lat="-21.19807" lon="55.58656">
        <ele>1666.1020507812</ele>
        <time>2013-01-07T09:08:15Z</time>
      </trkpt>
      <trkpt lat="-21.19805" lon="55.58655">
        <ele>1664.66015625</ele>
        <time>2013-01-07T09:08:22Z</time>
      </trkpt>
      <trkpt lat="-21.19801" lon="55.58648">
        <ele>1663.6987304688</ele>
        <time>2013-01-07T09:08:36Z</time>
      </trkpt>
      <trkpt lat="-21.19795" lon="55.5864">
        <ele>1661.7763671875</ele>
        <time>2013-01-07T09:08:47Z</time>
      </trkpt>
      <trkpt lat="-21.19794" lon="55.58635">
        <ele>1661.2956542969</ele>
        <time>2013-01-07T09:08:51Z</time>
      </trkpt>
      <trkpt lat="-21.19791" lon="55.58634">
        <ele>1661.2956542969</ele>
        <time>2013-01-07T09:08:54Z</time>
      </trkpt>
      <trkpt lat="-21.1979" lon="55.58628">
        <ele>1661.7763671875</ele>
        <time>2013-01-07T09:09:00Z</time>
      </trkpt>
      <trkpt lat="-21.19782" lon="55.58622">
        <ele>1662.2568359375</ele>
        <time>2013-01-07T09:09:13Z</time>
      </trkpt>
      <trkpt lat="-21.19778" lon="55.58617">
        <ele>1662.2568359375</ele>
        <time>2013-01-07T09:09:29Z</time>
      </trkpt>
      <trkpt lat="-21.19778" lon="55.58613">
        <ele>1661.7763671875</ele>
        <time>2013-01-07T09:09:44Z</time>
      </trkpt>
      <trkpt lat="-21.19769" lon="55.58611">
        <ele>1662.2568359375</ele>
        <time>2013-01-07T09:10:13Z</time>
      </trkpt>
      <trkpt lat="-21.19762" lon="55.58608">
        <ele>1659.3728027344</ele>
        <time>2013-01-07T09:10:31Z</time>
      </trkpt>
      <trkpt lat="-21.19756" lon="55.58602">
        <ele>1658.8920898438</ele>
        <time>2013-01-07T09:10:47Z</time>
      </trkpt>
      <trkpt lat="-21.19754" lon="55.586">
        <ele>1657.4501953125</ele>
        <time>2013-01-07T09:11:04Z</time>
      </trkpt>
      <trkpt lat="-21.19747" lon="55.58596">
        <ele>1657.4501953125</ele>
        <time>2013-01-07T09:11:15Z</time>
      </trkpt>
      <trkpt lat="-21.19735" lon="55.58593">
        <ele>1656.9694824219</ele>
        <time>2013-01-07T09:11:31Z</time>
      </trkpt>
      <trkpt lat="-21.19733" lon="55.58588">
        <ele>1657.4501953125</ele>
        <time>2013-01-07T09:11:36Z</time>
      </trkpt>
      <trkpt lat="-21.19732" lon="55.58586">
        <ele>1656.9694824219</ele>
        <time>2013-01-07T09:11:38Z</time>
      </trkpt>
      <trkpt lat="-21.19733" lon="55.58577">
        <ele>1656.4887695312</ele>
        <time>2013-01-07T09:11:50Z</time>
      </trkpt>
      <trkpt lat="-21.19733" lon="55.58575">
        <ele>1656.9694824219</ele>
        <time>2013-01-07T09:11:53Z</time>
      </trkpt>
      <trkpt lat="-21.19732" lon="55.58572">
        <ele>1656.9694824219</ele>
        <time>2013-01-07T09:11:55Z</time>
      </trkpt>
      <trkpt lat="-21.19721" lon="55.58569">
        <ele>1656.4887695312</ele>
        <time>2013-01-07T09:12:08Z</time>
      </trkpt>
      <trkpt lat="-21.19717" lon="55.58563">
        <ele>1656.4887695312</ele>
        <time>2013-01-07T09:12:15Z</time>
      </trkpt>
      <trkpt lat="-21.19721" lon="55.58555">
        <ele>1656.9694824219</ele>
        <time>2013-01-07T09:12:27Z</time>
      </trkpt>
      <trkpt lat="-21.1972" lon="55.58552">
        <ele>1656.9694824219</ele>
        <time>2013-01-07T09:12:33Z</time>
      </trkpt>
      <trkpt lat="-21.19721" lon="55.5855">
        <ele>1656.4887695312</ele>
        <time>2013-01-07T09:12:35Z</time>
      </trkpt>
      <trkpt lat="-21.19721" lon="55.58543">
        <ele>1657.9309082031</ele>
        <time>2013-01-07T09:12:42Z</time>
      </trkpt>
      <trkpt lat="-21.19721" lon="55.58534">
        <ele>1657.9309082031</ele>
        <time>2013-01-07T09:12:50Z</time>
      </trkpt>
      <trkpt lat="-21.19727" lon="55.58525">
        <ele>1659.8532714844</ele>
        <time>2013-01-07T09:13:04Z</time>
      </trkpt>
      <trkpt lat="-21.19727" lon="55.5852">
        <ele>1659.3728027344</ele>
        <time>2013-01-07T09:13:08Z</time>
      </trkpt>
      <trkpt lat="-21.19717" lon="55.58512">
        <ele>1658.4113769531</ele>
        <time>2013-01-07T09:13:21Z</time>
      </trkpt>
      <trkpt lat="-21.19714" lon="55.58499">
        <ele>1657.4501953125</ele>
        <time>2013-01-07T09:13:34Z</time>
      </trkpt>
      <trkpt lat="-21.19707" lon="55.58484">
        <ele>1656.0080566406</ele>
        <time>2013-01-07T09:13:49Z</time>
      </trkpt>
      <trkpt lat="-21.19708" lon="55.58479">
        <ele>1656.4887695312</ele>
        <time>2013-01-07T09:14:04Z</time>
      </trkpt>
      <trkpt lat="-21.19706" lon="55.58473">
        <ele>1656.4887695312</ele>
        <time>2013-01-07T09:14:11Z</time>
      </trkpt>
      <trkpt lat="-21.19706" lon="55.58468">
        <ele>1656.4887695312</ele>
        <time>2013-01-07T09:14:15Z</time>
      </trkpt>
      <trkpt lat="-21.19706" lon="55.58453">
        <ele>1656.4887695312</ele>
        <time>2013-01-07T09:14:29Z</time>
      </trkpt>
      <trkpt lat="-21.19702" lon="55.58444">
        <ele>1655.5275878906</ele>
        <time>2013-01-07T09:14:38Z</time>
      </trkpt>
      <trkpt lat="-21.19702" lon="55.58438">
        <ele>1654.5661621094</ele>
        <time>2013-01-07T09:14:42Z</time>
      </trkpt>
      <trkpt lat="-21.197" lon="55.58435">
        <ele>1655.046875</ele>
        <time>2013-01-07T09:14:46Z</time>
      </trkpt>
      <trkpt lat="-21.19703" lon="55.58427">
        <ele>1655.5275878906</ele>
        <time>2013-01-07T09:14:56Z</time>
      </trkpt>
      <trkpt lat="-21.19705" lon="55.58421">
        <ele>1653.6049804688</ele>
        <time>2013-01-07T09:15:06Z</time>
      </trkpt>
      <trkpt lat="-21.19705" lon="55.58416">
        <ele>1653.6049804688</ele>
        <time>2013-01-07T09:15:10Z</time>
      </trkpt>
      <trkpt lat="-21.19699" lon="55.58412">
        <ele>1652.6435546875</ele>
        <time>2013-01-07T09:15:25Z</time>
      </trkpt>
      <trkpt lat="-21.19696" lon="55.58408">
        <ele>1652.1628417969</ele>
        <time>2013-01-07T09:15:34Z</time>
      </trkpt>
      <trkpt lat="-21.19685" lon="55.58401">
        <ele>1650.2404785156</ele>
        <time>2013-01-07T09:15:45Z</time>
      </trkpt>
      <trkpt lat="-21.19676" lon="55.58398">
        <ele>1651.2016601562</ele>
        <time>2013-01-07T09:15:53Z</time>
      </trkpt>
      <trkpt lat="-21.19672" lon="55.58396">
        <ele>1650.7209472656</ele>
        <time>2013-01-07T09:15:55Z</time>
      </trkpt>
      <trkpt lat="-21.19655" lon="55.58391">
        <ele>1650.2404785156</ele>
        <time>2013-01-07T09:16:13Z</time>
      </trkpt>
      <trkpt lat="-21.19652" lon="55.58391">
        <ele>1649.759765625</ele>
        <time>2013-01-07T09:16:15Z</time>
      </trkpt>
      <trkpt lat="-21.1965" lon="55.58391">
        <ele>1649.759765625</ele>
        <time>2013-01-07T09:16:17Z</time>
      </trkpt>
      <trkpt lat="-21.19648" lon="55.58389">
        <ele>1649.2790527344</ele>
        <time>2013-01-07T09:16:19Z</time>
      </trkpt>
      <trkpt lat="-21.19645" lon="55.5839">
        <ele>1648.7983398438</ele>
        <time>2013-01-07T09:16:22Z</time>
      </trkpt>
      <trkpt lat="-21.19643" lon="55.58379">
        <ele>1648.3176269531</ele>
        <time>2013-01-07T09:16:32Z</time>
      </trkpt>
      <trkpt lat="-21.19653" lon="55.58366">
        <ele>1648.7983398438</ele>
        <time>2013-01-07T09:16:45Z</time>
      </trkpt>
      <trkpt lat="-21.19651" lon="55.58359">
        <ele>1648.7983398438</ele>
        <time>2013-01-07T09:16:49Z</time>
      </trkpt>
      <trkpt lat="-21.19654" lon="55.58345">
        <ele>1648.7983398438</ele>
        <time>2013-01-07T09:17:05Z</time>
      </trkpt>
      <trkpt lat="-21.19655" lon="55.58345">
        <ele>1649.2790527344</ele>
        <time>2013-01-07T09:17:13Z</time>
      </trkpt>
      <trkpt lat="-21.1966" lon="55.5834">
        <ele>1649.2790527344</ele>
        <time>2013-01-07T09:17:19Z</time>
      </trkpt>
      <trkpt lat="-21.19664" lon="55.58338">
        <ele>1648.7983398438</ele>
        <time>2013-01-07T09:17:24Z</time>
      </trkpt>
      <trkpt lat="-21.19669" lon="55.58332">
        <ele>1649.2790527344</ele>
        <time>2013-01-07T09:17:31Z</time>
      </trkpt>
      <trkpt lat="-21.19671" lon="55.58325">
        <ele>1648.3176269531</ele>
        <time>2013-01-07T09:17:35Z</time>
      </trkpt>
      <trkpt lat="-21.19672" lon="55.58322">
        <ele>1648.3176269531</ele>
        <time>2013-01-07T09:17:38Z</time>
      </trkpt>
      <trkpt lat="-21.19671" lon="55.58313">
        <ele>1648.7983398438</ele>
        <time>2013-01-07T09:17:46Z</time>
      </trkpt>
      <trkpt lat="-21.19669" lon="55.58303">
        <ele>1648.3176269531</ele>
        <time>2013-01-07T09:17:52Z</time>
      </trkpt>
      <trkpt lat="-21.19669" lon="55.583">
        <ele>1648.3176269531</ele>
        <time>2013-01-07T09:17:54Z</time>
      </trkpt>
      <trkpt lat="-21.19663" lon="55.58291">
        <ele>1648.7983398438</ele>
        <time>2013-01-07T09:18:04Z</time>
      </trkpt>
      <trkpt lat="-21.19661" lon="55.58289">
        <ele>1649.2790527344</ele>
        <time>2013-01-07T09:18:06Z</time>
      </trkpt>
      <trkpt lat="-21.19662" lon="55.58283">
        <ele>1648.7983398438</ele>
        <time>2013-01-07T09:18:13Z</time>
      </trkpt>
      <trkpt lat="-21.19666" lon="55.58271">
        <ele>1647.3564453125</ele>
        <time>2013-01-07T09:18:24Z</time>
      </trkpt>
      <trkpt lat="-21.19663" lon="55.58261">
        <ele>1646.8757324219</ele>
        <time>2013-01-07T09:18:32Z</time>
      </trkpt>
      <trkpt lat="-21.19666" lon="55.58256">
        <ele>1645.9145507812</ele>
        <time>2013-01-07T09:18:37Z</time>
      </trkpt>
      <trkpt lat="-21.19684" lon="55.5825">
        <ele>1644.953125</ele>
        <time>2013-01-07T09:18:51Z</time>
      </trkpt>
      <trkpt lat="-21.19687" lon="55.58251">
        <ele>1644.4724121094</ele>
        <time>2013-01-07T09:18:54Z</time>
      </trkpt>
      <trkpt lat="-21.19695" lon="55.58258">
        <ele>1645.9145507812</ele>
        <time>2013-01-07T09:19:03Z</time>
      </trkpt>
      <trkpt lat="-21.19702" lon="55.58265">
        <ele>1643.5109863281</ele>
        <time>2013-01-07T09:19:16Z</time>
      </trkpt>
      <trkpt lat="-21.19714" lon="55.58272">
        <ele>1641.5883789062</ele>
        <time>2013-01-07T09:19:34Z</time>
      </trkpt>
      <trkpt lat="-21.19716" lon="55.58273">
        <ele>1641.1076660156</ele>
        <time>2013-01-07T09:19:36Z</time>
      </trkpt>
      <trkpt lat="-21.1972" lon="55.58277">
        <ele>1641.5883789062</ele>
        <time>2013-01-07T09:19:43Z</time>
      </trkpt>
      <trkpt lat="-21.19727" lon="55.58278">
        <ele>1643.5109863281</ele>
        <time>2013-01-07T09:19:52Z</time>
      </trkpt>
      <trkpt lat="-21.19728" lon="55.58277">
        <ele>1642.5498046875</ele>
        <time>2013-01-07T09:19:54Z</time>
      </trkpt>
      <trkpt lat="-21.1973" lon="55.58278">
        <ele>1642.5498046875</ele>
        <time>2013-01-07T09:19:56Z</time>
      </trkpt>
      <trkpt lat="-21.19733" lon="55.58275">
        <ele>1642.5498046875</ele>
        <time>2013-01-07T09:20:03Z</time>
      </trkpt>
      <trkpt lat="-21.19737" lon="55.58271">
        <ele>1643.0302734375</ele>
        <time>2013-01-07T09:20:08Z</time>
      </trkpt>
      <trkpt lat="-21.1974" lon="55.58266">
        <ele>1642.0690917969</ele>
        <time>2013-01-07T09:20:12Z</time>
      </trkpt>
      <trkpt lat="-21.19743" lon="55.58263">
        <ele>1641.5883789062</ele>
        <time>2013-01-07T09:20:14Z</time>
      </trkpt>
      <trkpt lat="-21.19746" lon="55.58261">
        <ele>1641.5883789062</ele>
        <time>2013-01-07T09:20:18Z</time>
      </trkpt>
      <trkpt lat="-21.19759" lon="55.58249">
        <ele>1641.5883789062</ele>
        <time>2013-01-07T09:20:34Z</time>
      </trkpt>
      <trkpt lat="-21.19763" lon="55.58247">
        <ele>1641.5883789062</ele>
        <time>2013-01-07T09:20:40Z</time>
      </trkpt>
      <trkpt lat="-21.19771" lon="55.58244">
        <ele>1641.1076660156</ele>
        <time>2013-01-07T09:20:47Z</time>
      </trkpt>
      <trkpt lat="-21.19777" lon="55.58244">
        <ele>1640.626953125</ele>
        <time>2013-01-07T09:20:52Z</time>
      </trkpt>
      <trkpt lat="-21.19783" lon="55.58251">
        <ele>1639.1850585938</ele>
        <time>2013-01-07T09:20:59Z</time>
      </trkpt>
      <trkpt lat="-21.19784" lon="55.58251">
        <ele>1640.626953125</ele>
        <time>2013-01-07T09:21:01Z</time>
      </trkpt>
      <trkpt lat="-21.19792" lon="55.58255">
        <ele>1638.7045898438</ele>
        <time>2013-01-07T09:21:11Z</time>
      </trkpt>
      <trkpt lat="-21.19797" lon="55.58257">
        <ele>1641.5883789062</ele>
        <time>2013-01-07T09:21:15Z</time>
      </trkpt>
      <trkpt lat="-21.198" lon="55.58257">
        <ele>1639.6657714844</ele>
        <time>2013-01-07T09:21:17Z</time>
      </trkpt>
      <trkpt lat="-21.19805" lon="55.58256">
        <ele>1640.626953125</ele>
        <time>2013-01-07T09:21:22Z</time>
      </trkpt>
      <trkpt lat="-21.19817" lon="55.5824">
        <ele>1640.626953125</ele>
        <time>2013-01-07T09:21:38Z</time>
      </trkpt>
      <trkpt lat="-21.19823" lon="55.5823">
        <ele>1641.1076660156</ele>
        <time>2013-01-07T09:21:51Z</time>
      </trkpt>
      <trkpt lat="-21.19828" lon="55.58225">
        <ele>1639.1850585938</ele>
        <time>2013-01-07T09:21:57Z</time>
      </trkpt>
      <trkpt lat="-21.19833" lon="55.58217">
        <ele>1636.7817382812</ele>
        <time>2013-01-07T09:22:05Z</time>
      </trkpt>
      <trkpt lat="-21.19834" lon="55.58213">
        <ele>1635.8205566406</ele>
        <time>2013-01-07T09:22:08Z</time>
      </trkpt>
      <trkpt lat="-21.19834" lon="55.5821">
        <ele>1636.3012695312</ele>
        <time>2013-01-07T09:22:12Z</time>
      </trkpt>
      <trkpt lat="-21.19836" lon="55.58208">
        <ele>1638.2238769531</ele>
        <time>2013-01-07T09:22:15Z</time>
      </trkpt>
      <trkpt lat="-21.19836" lon="55.58207">
        <ele>1638.2238769531</ele>
        <time>2013-01-07T09:22:16Z</time>
      </trkpt>
      <trkpt lat="-21.19837" lon="55.58204">
        <ele>1634.3786621094</ele>
        <time>2013-01-07T09:22:19Z</time>
      </trkpt>
      <trkpt lat="-21.19837" lon="55.58204">
        <ele>1634.3786621094</ele>
        <time>2013-01-07T09:22:20Z</time>
      </trkpt>
      <trkpt lat="-21.19838" lon="55.58204">
        <ele>1635.8205566406</ele>
        <time>2013-01-07T09:22:22Z</time>
      </trkpt>
      <trkpt lat="-21.19838" lon="55.58204">
        <ele>1638.7045898438</ele>
        <time>2013-01-07T09:22:24Z</time>
      </trkpt>
      <trkpt lat="-21.19838" lon="55.58204">
        <ele>1634.859375</ele>
        <time>2013-01-07T09:22:26Z</time>
      </trkpt>
      <trkpt lat="-21.19839" lon="55.58203">
        <ele>1634.859375</ele>
        <time>2013-01-07T09:22:27Z</time>
      </trkpt>
      <trkpt lat="-21.19839" lon="55.58202">
        <ele>1638.2238769531</ele>
        <time>2013-01-07T09:22:28Z</time>
      </trkpt>
      <trkpt lat="-21.19839" lon="55.58201">
        <ele>1638.2238769531</ele>
        <time>2013-01-07T09:22:29Z</time>
      </trkpt>
      <trkpt lat="-21.19842" lon="55.58197">
        <ele>1637.7431640625</ele>
        <time>2013-01-07T09:22:33Z</time>
      </trkpt>
      <trkpt lat="-21.19844" lon="55.58194">
        <ele>1635.8205566406</ele>
        <time>2013-01-07T09:22:38Z</time>
      </trkpt>
      <trkpt lat="-21.19842" lon="55.58182">
        <ele>1635.8205566406</ele>
        <time>2013-01-07T09:22:50Z</time>
      </trkpt>
      <trkpt lat="-21.19841" lon="55.58181">
        <ele>1635.33984375</ele>
        <time>2013-01-07T09:22:51Z</time>
      </trkpt>
      <trkpt lat="-21.1984" lon="55.58178">
        <ele>1634.859375</ele>
        <time>2013-01-07T09:22:53Z</time>
      </trkpt>
      <trkpt lat="-21.19838" lon="55.58174">
        <ele>1634.3786621094</ele>
        <time>2013-01-07T09:22:57Z</time>
      </trkpt>
      <trkpt lat="-21.19837" lon="55.58172">
        <ele>1632.9365234375</ele>
        <time>2013-01-07T09:22:59Z</time>
      </trkpt>
      <trkpt lat="-21.19833" lon="55.58167">
        <ele>1633.8979492188</ele>
        <time>2013-01-07T09:23:04Z</time>
      </trkpt>
      <trkpt lat="-21.19829" lon="55.58161">
        <ele>1633.4172363281</ele>
        <time>2013-01-07T09:23:16Z</time>
      </trkpt>
      <trkpt lat="-21.19829" lon="55.58161">
        <ele>1633.4172363281</ele>
        <time>2013-01-07T09:23:17Z</time>
      </trkpt>
      <trkpt lat="-21.19827" lon="55.58152">
        <ele>1634.3786621094</ele>
        <time>2013-01-07T09:23:25Z</time>
      </trkpt>
      <trkpt lat="-21.19825" lon="55.58149">
        <ele>1631.4946289062</ele>
        <time>2013-01-07T09:23:29Z</time>
      </trkpt>
      <trkpt lat="-21.19817" lon="55.58135">
        <ele>1630.5334472656</ele>
        <time>2013-01-07T09:23:40Z</time>
      </trkpt>
      <trkpt lat="-21.19815" lon="55.58126">
        <ele>1633.4172363281</ele>
        <time>2013-01-07T09:23:50Z</time>
      </trkpt>
      <trkpt lat="-21.19815" lon="55.58126">
        <ele>1631.4946289062</ele>
        <time>2013-01-07T09:23:52Z</time>
      </trkpt>
      <trkpt lat="-21.19809" lon="55.58108">
        <ele>1631.0141601562</ele>
        <time>2013-01-07T09:24:05Z</time>
      </trkpt>
      <trkpt lat="-21.1981" lon="55.58107">
        <ele>1631.0141601562</ele>
        <time>2013-01-07T09:24:06Z</time>
      </trkpt>
      <trkpt lat="-21.19809" lon="55.58094">
        <ele>1629.5720214844</ele>
        <time>2013-01-07T09:24:17Z</time>
      </trkpt>
      <trkpt lat="-21.19808" lon="55.58065">
        <ele>1628.6108398438</ele>
        <time>2013-01-07T09:24:40Z</time>
      </trkpt>
      <trkpt lat="-21.19806" lon="55.58053">
        <ele>1628.1301269531</ele>
        <time>2013-01-07T09:24:50Z</time>
      </trkpt>
      <trkpt lat="-21.19805" lon="55.58038">
        <ele>1627.1687011719</ele>
        <time>2013-01-07T09:25:01Z</time>
      </trkpt>
      <trkpt lat="-21.19805" lon="55.58029">
        <ele>1626.2072753906</ele>
        <time>2013-01-07T09:25:08Z</time>
      </trkpt>
      <trkpt lat="-21.19804" lon="55.58023">
        <ele>1626.6879882812</ele>
        <time>2013-01-07T09:25:13Z</time>
      </trkpt>
      <trkpt lat="-21.19794" lon="55.58005">
        <ele>1626.6879882812</ele>
        <time>2013-01-07T09:25:25Z</time>
      </trkpt>
      <trkpt lat="-21.19791" lon="55.57998">
        <ele>1626.6879882812</ele>
        <time>2013-01-07T09:25:35Z</time>
      </trkpt>
      <trkpt lat="-21.19786" lon="55.57992">
        <ele>1627.6491699219</ele>
        <time>2013-01-07T09:25:39Z</time>
      </trkpt>
      <trkpt lat="-21.19781" lon="55.5799">
        <ele>1626.6879882812</ele>
        <time>2013-01-07T09:25:44Z</time>
      </trkpt>
      <trkpt lat="-21.19774" lon="55.57982">
        <ele>1626.2072753906</ele>
        <time>2013-01-07T09:25:53Z</time>
      </trkpt>
      <trkpt lat="-21.19761" lon="55.57983">
        <ele>1626.2072753906</ele>
        <time>2013-01-07T09:26:02Z</time>
      </trkpt>
      <trkpt lat="-21.19749" lon="55.57983">
        <ele>1626.2072753906</ele>
        <time>2013-01-07T09:26:14Z</time>
      </trkpt>
      <trkpt lat="-21.19741" lon="55.57983">
        <ele>1625.7265625</ele>
        <time>2013-01-07T09:26:18Z</time>
      </trkpt>
      <trkpt lat="-21.1973" lon="55.57977">
        <ele>1625.2458496094</ele>
        <time>2013-01-07T09:26:30Z</time>
      </trkpt>
      <trkpt lat="-21.19729" lon="55.57977">
        <ele>1625.7265625</ele>
        <time>2013-01-07T09:26:31Z</time>
      </trkpt>
      <trkpt lat="-21.1971" lon="55.57964">
        <ele>1625.2458496094</ele>
        <time>2013-01-07T09:26:45Z</time>
      </trkpt>
      <trkpt lat="-21.19702" lon="55.57952">
        <ele>1626.2072753906</ele>
        <time>2013-01-07T09:26:55Z</time>
      </trkpt>
      <trkpt lat="-21.19702" lon="55.57948">
        <ele>1624.2846679688</ele>
        <time>2013-01-07T09:26:58Z</time>
      </trkpt>
      <trkpt lat="-21.19701" lon="55.57942">
        <ele>1624.2846679688</ele>
        <time>2013-01-07T09:27:01Z</time>
      </trkpt>
      <trkpt lat="-21.19697" lon="55.57927">
        <ele>1624.7653808594</ele>
        <time>2013-01-07T09:27:13Z</time>
      </trkpt>
      <trkpt lat="-21.19694" lon="55.57922">
        <ele>1624.7653808594</ele>
        <time>2013-01-07T09:27:18Z</time>
      </trkpt>
      <trkpt lat="-21.19686" lon="55.57923">
        <ele>1626.2072753906</ele>
        <time>2013-01-07T09:27:33Z</time>
      </trkpt>
      <trkpt lat="-21.19687" lon="55.5792">
        <ele>1626.2072753906</ele>
        <time>2013-01-07T09:27:40Z</time>
      </trkpt>
      <trkpt lat="-21.19685" lon="55.57913">
        <ele>1625.2458496094</ele>
        <time>2013-01-07T09:27:47Z</time>
      </trkpt>
      <trkpt lat="-21.19684" lon="55.57908">
        <ele>1626.2072753906</ele>
        <time>2013-01-07T09:28:02Z</time>
      </trkpt>
      <trkpt lat="-21.19682" lon="55.57906">
        <ele>1627.1687011719</ele>
        <time>2013-01-07T09:28:12Z</time>
      </trkpt>
      <trkpt lat="-21.19681" lon="55.57903">
        <ele>1625.2458496094</ele>
        <time>2013-01-07T09:28:14Z</time>
      </trkpt>
      <trkpt lat="-21.1968" lon="55.57902">
        <ele>1626.6879882812</ele>
        <time>2013-01-07T09:28:16Z</time>
      </trkpt>
      <trkpt lat="-21.19676" lon="55.57898">
        <ele>1626.2072753906</ele>
        <time>2013-01-07T09:28:19Z</time>
      </trkpt>
      <trkpt lat="-21.1967" lon="55.57891">
        <ele>1625.7265625</ele>
        <time>2013-01-07T09:28:25Z</time>
      </trkpt>
      <trkpt lat="-21.19657" lon="55.57896">
        <ele>1626.2072753906</ele>
        <time>2013-01-07T09:28:37Z</time>
      </trkpt>
      <trkpt lat="-21.19652" lon="55.57897">
        <ele>1626.6879882812</ele>
        <time>2013-01-07T09:28:59Z</time>
      </trkpt>
      <trkpt lat="-21.19641" lon="55.57897">
        <ele>1626.2072753906</ele>
        <time>2013-01-07T09:29:17Z</time>
      </trkpt>
      <trkpt lat="-21.19641" lon="55.57899">
        <ele>1625.7265625</ele>
        <time>2013-01-07T09:29:37Z</time>
      </trkpt>
      <trkpt lat="-21.1963" lon="55.57898">
        <ele>1625.7265625</ele>
        <time>2013-01-07T09:30:03Z</time>
      </trkpt>
      <trkpt lat="-21.19621" lon="55.57897">
        <ele>1625.2458496094</ele>
        <time>2013-01-07T09:30:12Z</time>
      </trkpt>
      <trkpt lat="-21.19611" lon="55.57896">
        <ele>1625.2458496094</ele>
        <time>2013-01-07T09:30:25Z</time>
      </trkpt>
      <trkpt lat="-21.19611" lon="55.57896">
        <ele>1625.7265625</ele>
        <time>2013-01-07T09:30:32Z</time>
      </trkpt>
      <trkpt lat="-21.196" lon="55.57895">
        <ele>1625.2458496094</ele>
        <time>2013-01-07T09:30:44Z</time>
      </trkpt>
      <trkpt lat="-21.19589" lon="55.57899">
        <ele>1625.2458496094</ele>
        <time>2013-01-07T09:30:52Z</time>
      </trkpt>
      <trkpt lat="-21.19576" lon="55.57898">
        <ele>1626.2072753906</ele>
        <time>2013-01-07T09:31:04Z</time>
      </trkpt>
      <trkpt lat="-21.19571" lon="55.57898">
        <ele>1626.2072753906</ele>
        <time>2013-01-07T09:31:08Z</time>
      </trkpt>
      <trkpt lat="-21.1956" lon="55.57899">
        <ele>1626.2072753906</ele>
        <time>2013-01-07T09:31:18Z</time>
      </trkpt>
      <trkpt lat="-21.19558" lon="55.57899">
        <ele>1626.2072753906</ele>
        <time>2013-01-07T09:31:20Z</time>
      </trkpt>
      <trkpt lat="-21.19552" lon="55.57898">
        <ele>1627.1687011719</ele>
        <time>2013-01-07T09:31:26Z</time>
      </trkpt>
      <trkpt lat="-21.19548" lon="55.57894">
        <ele>1626.6879882812</ele>
        <time>2013-01-07T09:31:31Z</time>
      </trkpt>
      <trkpt lat="-21.19546" lon="55.57882">
        <ele>1625.2458496094</ele>
        <time>2013-01-07T09:31:49Z</time>
      </trkpt>
      <trkpt lat="-21.19546" lon="55.5788">
        <ele>1625.7265625</ele>
        <time>2013-01-07T09:32:04Z</time>
      </trkpt>
      <trkpt lat="-21.19565" lon="55.57874">
        <ele>1625.7265625</ele>
        <time>2013-01-07T09:32:22Z</time>
      </trkpt>
      <trkpt lat="-21.1957" lon="55.57874">
        <ele>1625.7265625</ele>
        <time>2013-01-07T09:32:27Z</time>
      </trkpt>
      <trkpt lat="-21.19582" lon="55.57877">
        <ele>1625.7265625</ele>
        <time>2013-01-07T09:32:37Z</time>
      </trkpt>
      <trkpt lat="-21.19588" lon="55.57877">
        <ele>1625.7265625</ele>
        <time>2013-01-07T09:32:47Z</time>
      </trkpt>
      <trkpt lat="-21.19593" lon="55.57878">
        <ele>1625.2458496094</ele>
        <time>2013-01-07T09:32:58Z</time>
      </trkpt>
      <trkpt lat="-21.19611" lon="55.57882">
        <ele>1624.7653808594</ele>
        <time>2013-01-07T09:33:16Z</time>
      </trkpt>
      <trkpt lat="-21.19614" lon="55.57887">
        <ele>1624.2846679688</ele>
        <time>2013-01-07T09:33:51Z</time>
      </trkpt>
      <trkpt lat="-21.19614" lon="55.57892">
        <ele>1625.2458496094</ele>
        <time>2013-01-07T09:34:17Z</time>
      </trkpt>
      <trkpt lat="-21.19614" lon="55.57899">
        <ele>1624.7653808594</ele>
        <time>2013-01-07T09:34:26Z</time>
      </trkpt>
      <trkpt lat="-21.19619" lon="55.57901">
        <ele>1624.7653808594</ele>
        <time>2013-01-07T09:34:32Z</time>
      </trkpt>
      <trkpt lat="-21.19627" lon="55.57903">
        <ele>1624.2846679688</ele>
        <time>2013-01-07T09:34:37Z</time>
      </trkpt>
      <trkpt lat="-21.19629" lon="55.57905">
        <ele>1624.2846679688</ele>
        <time>2013-01-07T09:34:41Z</time>
      </trkpt>
      <trkpt lat="-21.19643" lon="55.57908">
        <ele>1625.7265625</ele>
        <time>2013-01-07T09:34:53Z</time>
      </trkpt>
      <trkpt lat="-21.19648" lon="55.57907">
        <ele>1626.2072753906</ele>
        <time>2013-01-07T09:34:57Z</time>
      </trkpt>
      <trkpt lat="-21.19649" lon="55.57906">
        <ele>1624.7653808594</ele>
        <time>2013-01-07T09:34:59Z</time>
      </trkpt>
      <trkpt lat="-21.19653" lon="55.57907">
        <ele>1624.7653808594</ele>
        <time>2013-01-07T09:35:03Z</time>
      </trkpt>
      <trkpt lat="-21.19669" lon="55.57909">
        <ele>1625.2458496094</ele>
        <time>2013-01-07T09:35:16Z</time>
      </trkpt>
      <trkpt lat="-21.19678" lon="55.57917">
        <ele>1624.7653808594</ele>
        <time>2013-01-07T09:35:29Z</time>
      </trkpt>
      <trkpt lat="-21.19678" lon="55.57918">
        <ele>1623.8039550781</ele>
        <time>2013-01-07T09:35:30Z</time>
      </trkpt>
      <trkpt lat="-21.19678" lon="55.57924">
        <ele>1623.3234863281</ele>
        <time>2013-01-07T09:35:33Z</time>
      </trkpt>
      <trkpt lat="-21.19666" lon="55.57928">
        <ele>1624.7653808594</ele>
        <time>2013-01-07T09:35:43Z</time>
      </trkpt>
      <trkpt lat="-21.19658" lon="55.57928">
        <ele>1624.2846679688</ele>
        <time>2013-01-07T09:35:49Z</time>
      </trkpt>
      <trkpt lat="-21.1965" lon="55.57921">
        <ele>1623.8039550781</ele>
        <time>2013-01-07T09:35:59Z</time>
      </trkpt>
      <trkpt lat="-21.19646" lon="55.57917">
        <ele>1621.8813476562</ele>
        <time>2013-01-07T09:36:07Z</time>
      </trkpt>
      <trkpt lat="-21.19645" lon="55.57914">
        <ele>1620.9201660156</ele>
        <time>2013-01-07T09:36:09Z</time>
      </trkpt>
      <trkpt lat="-21.19645" lon="55.5791">
        <ele>1619.4782714844</ele>
        <time>2013-01-07T09:36:16Z</time>
      </trkpt>
      <trkpt lat="-21.19638" lon="55.57892">
        <ele>1619.4782714844</ele>
        <time>2013-01-07T09:36:38Z</time>
      </trkpt>
      <trkpt lat="-21.19634" lon="55.57885">
        <ele>1620.9201660156</ele>
        <time>2013-01-07T09:36:51Z</time>
      </trkpt>
      <trkpt lat="-21.19638" lon="55.57876">
        <ele>1620.9201660156</ele>
        <time>2013-01-07T09:36:56Z</time>
      </trkpt>
      <trkpt lat="-21.1964" lon="55.57875">
        <ele>1620.9201660156</ele>
        <time>2013-01-07T09:36:58Z</time>
      </trkpt>
      <trkpt lat="-21.19639" lon="55.57871">
        <ele>1620.439453125</ele>
        <time>2013-01-07T09:37:01Z</time>
      </trkpt>
      <trkpt lat="-21.19641" lon="55.57865">
        <ele>1620.439453125</ele>
        <time>2013-01-07T09:37:05Z</time>
      </trkpt>
      <trkpt lat="-21.19642" lon="55.57863">
        <ele>1620.9201660156</ele>
        <time>2013-01-07T09:37:07Z</time>
      </trkpt>
      <trkpt lat="-21.19644" lon="55.57856">
        <ele>1619.9587402344</ele>
        <time>2013-01-07T09:37:13Z</time>
      </trkpt>
      <trkpt lat="-21.19645" lon="55.57852">
        <ele>1620.439453125</ele>
        <time>2013-01-07T09:37:16Z</time>
      </trkpt>
      <trkpt lat="-21.19651" lon="55.57843">
        <ele>1620.9201660156</ele>
        <time>2013-01-07T09:37:26Z</time>
      </trkpt>
      <trkpt lat="-21.19654" lon="55.57838">
        <ele>1621.4006347656</ele>
        <time>2013-01-07T09:37:30Z</time>
      </trkpt>
      <trkpt lat="-21.19657" lon="55.57832">
        <ele>1622.3620605469</ele>
        <time>2013-01-07T09:37:35Z</time>
      </trkpt>
      <trkpt lat="-21.1966" lon="55.57824">
        <ele>1621.8813476562</ele>
        <time>2013-01-07T09:37:42Z</time>
      </trkpt>
      <trkpt lat="-21.19662" lon="55.5782">
        <ele>1620.9201660156</ele>
        <time>2013-01-07T09:37:48Z</time>
      </trkpt>
      <trkpt lat="-21.19665" lon="55.57815">
        <ele>1620.9201660156</ele>
        <time>2013-01-07T09:37:52Z</time>
      </trkpt>
      <trkpt lat="-21.19675" lon="55.578">
        <ele>1620.9201660156</ele>
        <time>2013-01-07T09:38:05Z</time>
      </trkpt>
      <trkpt lat="-21.19679" lon="55.57793">
        <ele>1619.4782714844</ele>
        <time>2013-01-07T09:38:11Z</time>
      </trkpt>
      <trkpt lat="-21.19686" lon="55.57786">
        <ele>1618.0361328125</ele>
        <time>2013-01-07T09:38:19Z</time>
      </trkpt>
      <trkpt lat="-21.19689" lon="55.57779">
        <ele>1617.5554199219</ele>
        <time>2013-01-07T09:38:24Z</time>
      </trkpt>
      <trkpt lat="-21.19696" lon="55.57764">
        <ele>1617.5554199219</ele>
        <time>2013-01-07T09:38:37Z</time>
      </trkpt>
      <trkpt lat="-21.19709" lon="55.57739">
        <ele>1615.6330566406</ele>
        <time>2013-01-07T09:39:00Z</time>
      </trkpt>
      <trkpt lat="-21.19717" lon="55.57715">
        <ele>1614.1909179688</ele>
        <time>2013-01-07T09:39:16Z</time>
      </trkpt>
      <trkpt lat="-21.19718" lon="55.57711">
        <ele>1613.7102050781</ele>
        <time>2013-01-07T09:39:19Z</time>
      </trkpt>
      <trkpt lat="-21.19721" lon="55.57706">
        <ele>1613.2297363281</ele>
        <time>2013-01-07T09:39:24Z</time>
      </trkpt>
      <trkpt lat="-21.19723" lon="55.57702">
        <ele>1613.2297363281</ele>
        <time>2013-01-07T09:39:28Z</time>
      </trkpt>
      <trkpt lat="-21.19723" lon="55.57689">
        <ele>1611.7875976562</ele>
        <time>2013-01-07T09:39:38Z</time>
      </trkpt>
      <trkpt lat="-21.19728" lon="55.5768">
        <ele>1611.3068847656</ele>
        <time>2013-01-07T09:39:45Z</time>
      </trkpt>
      <trkpt lat="-21.19732" lon="55.57667">
        <ele>1610.3454589844</ele>
        <time>2013-01-07T09:39:56Z</time>
      </trkpt>
      <trkpt lat="-21.19733" lon="55.57663">
        <ele>1610.3454589844</ele>
        <time>2013-01-07T09:39:58Z</time>
      </trkpt>
      <trkpt lat="-21.19733" lon="55.57652">
        <ele>1610.826171875</ele>
        <time>2013-01-07T09:40:05Z</time>
      </trkpt>
      <trkpt lat="-21.19742" lon="55.57638">
        <ele>1610.3454589844</ele>
        <time>2013-01-07T09:40:16Z</time>
      </trkpt>
      <trkpt lat="-21.19745" lon="55.57634">
        <ele>1610.3454589844</ele>
        <time>2013-01-07T09:40:20Z</time>
      </trkpt>
      <trkpt lat="-21.19748" lon="55.57629">
        <ele>1610.3454589844</ele>
        <time>2013-01-07T09:40:24Z</time>
      </trkpt>
      <trkpt lat="-21.19752" lon="55.57625">
        <ele>1609.8647460938</ele>
        <time>2013-01-07T09:40:28Z</time>
      </trkpt>
      <trkpt lat="-21.19752" lon="55.57621">
        <ele>1609.3842773438</ele>
        <time>2013-01-07T09:40:30Z</time>
      </trkpt>
      <trkpt lat="-21.19758" lon="55.57612">
        <ele>1608.4228515625</ele>
        <time>2013-01-07T09:40:39Z</time>
      </trkpt>
      <trkpt lat="-21.1976" lon="55.57605">
        <ele>1607.4616699219</ele>
        <time>2013-01-07T09:40:43Z</time>
      </trkpt>
      <trkpt lat="-21.19764" lon="55.57602">
        <ele>1606.9809570312</ele>
        <time>2013-01-07T09:40:47Z</time>
      </trkpt>
      <trkpt lat="-21.19768" lon="55.57587">
        <ele>1606.9809570312</ele>
        <time>2013-01-07T09:40:57Z</time>
      </trkpt>
      <trkpt lat="-21.1977" lon="55.57581">
        <ele>1606.5002441406</ele>
        <time>2013-01-07T09:41:02Z</time>
      </trkpt>
      <trkpt lat="-21.19773" lon="55.57576">
        <ele>1605.5390625</ele>
        <time>2013-01-07T09:41:06Z</time>
      </trkpt>
      <trkpt lat="-21.19779" lon="55.57565">
        <ele>1605.5390625</ele>
        <time>2013-01-07T09:41:17Z</time>
      </trkpt>
      <trkpt lat="-21.19783" lon="55.5755">
        <ele>1604.0971679688</ele>
        <time>2013-01-07T09:41:29Z</time>
      </trkpt>
      <trkpt lat="-21.19784" lon="55.57546">
        <ele>1604.5776367188</ele>
        <time>2013-01-07T09:41:32Z</time>
      </trkpt>
      <trkpt lat="-21.19784" lon="55.57543">
        <ele>1604.0971679688</ele>
        <time>2013-01-07T09:41:34Z</time>
      </trkpt>
      <trkpt lat="-21.19792" lon="55.57534">
        <ele>1603.1357421875</ele>
        <time>2013-01-07T09:41:43Z</time>
      </trkpt>
      <trkpt lat="-21.19794" lon="55.57524">
        <ele>1601.6938476562</ele>
        <time>2013-01-07T09:41:52Z</time>
      </trkpt>
      <trkpt lat="-21.19799" lon="55.57509">
        <ele>1600.732421875</ele>
        <time>2013-01-07T09:42:03Z</time>
      </trkpt>
      <trkpt lat="-21.19795" lon="55.57497">
        <ele>1599.7712402344</ele>
        <time>2013-01-07T09:42:10Z</time>
      </trkpt>
      <trkpt lat="-21.19797" lon="55.57495">
        <ele>1600.251953125</ele>
        <time>2013-01-07T09:42:12Z</time>
      </trkpt>
      <trkpt lat="-21.19794" lon="55.57489">
        <ele>1596.8872070312</ele>
        <time>2013-01-07T09:42:21Z</time>
      </trkpt>
      <trkpt lat="-21.19789" lon="55.57469">
        <ele>1595.92578125</ele>
        <time>2013-01-07T09:42:33Z</time>
      </trkpt>
      <trkpt lat="-21.19788" lon="55.57462">
        <ele>1596.4067382812</ele>
        <time>2013-01-07T09:42:41Z</time>
      </trkpt>
      <trkpt lat="-21.1978" lon="55.57449">
        <ele>1594.9643554688</ele>
        <time>2013-01-07T09:42:50Z</time>
      </trkpt>
      <trkpt lat="-21.19779" lon="55.57441">
        <ele>1594.4836425781</ele>
        <time>2013-01-07T09:42:55Z</time>
      </trkpt>
      <trkpt lat="-21.19773" lon="55.57421">
        <ele>1593.0417480469</ele>
        <time>2013-01-07T09:43:12Z</time>
      </trkpt>
      <trkpt lat="-21.19771" lon="55.57416">
        <ele>1593.5224609375</ele>
        <time>2013-01-07T09:43:16Z</time>
      </trkpt>
      <trkpt lat="-21.19771" lon="55.57414">
        <ele>1594.0031738281</ele>
        <time>2013-01-07T09:43:18Z</time>
      </trkpt>
      <trkpt lat="-21.19771" lon="55.57405">
        <ele>1594.4836425781</ele>
        <time>2013-01-07T09:43:23Z</time>
      </trkpt>
      <trkpt lat="-21.1977" lon="55.57382">
        <ele>1594.4836425781</ele>
        <time>2013-01-07T09:43:40Z</time>
      </trkpt>
      <trkpt lat="-21.1977" lon="55.57379">
        <ele>1594.4836425781</ele>
        <time>2013-01-07T09:43:42Z</time>
      </trkpt>
      <trkpt lat="-21.19773" lon="55.57371">
        <ele>1592.0805664062</ele>
        <time>2013-01-07T09:43:49Z</time>
      </trkpt>
      <trkpt lat="-21.19778" lon="55.57359">
        <ele>1593.0417480469</ele>
        <time>2013-01-07T09:44:01Z</time>
      </trkpt>
      <trkpt lat="-21.19781" lon="55.57351">
        <ele>1594.4836425781</ele>
        <time>2013-01-07T09:44:06Z</time>
      </trkpt>
      <trkpt lat="-21.19778" lon="55.5734">
        <ele>1594.9643554688</ele>
        <time>2013-01-07T09:44:19Z</time>
      </trkpt>
      <trkpt lat="-21.19781" lon="55.57337">
        <ele>1593.5224609375</ele>
        <time>2013-01-07T09:44:22Z</time>
      </trkpt>
      <trkpt lat="-21.19785" lon="55.57323">
        <ele>1593.5224609375</ele>
        <time>2013-01-07T09:44:35Z</time>
      </trkpt>
      <trkpt lat="-21.19791" lon="55.57314">
        <ele>1590.6384277344</ele>
        <time>2013-01-07T09:44:45Z</time>
      </trkpt>
      <trkpt lat="-21.19792" lon="55.57311">
        <ele>1592.0805664062</ele>
        <time>2013-01-07T09:44:47Z</time>
      </trkpt>
      <trkpt lat="-21.19794" lon="55.57307">
        <ele>1593.0417480469</ele>
        <time>2013-01-07T09:44:49Z</time>
      </trkpt>
      <trkpt lat="-21.19796" lon="55.57303">
        <ele>1592.5612792969</ele>
        <time>2013-01-07T09:44:52Z</time>
      </trkpt>
      <trkpt lat="-21.19798" lon="55.573">
        <ele>1592.5612792969</ele>
        <time>2013-01-07T09:44:55Z</time>
      </trkpt>
      <trkpt lat="-21.19799" lon="55.57296">
        <ele>1591.119140625</ele>
        <time>2013-01-07T09:44:58Z</time>
      </trkpt>
      <trkpt lat="-21.19803" lon="55.57292">
        <ele>1593.0417480469</ele>
        <time>2013-01-07T09:45:01Z</time>
      </trkpt>
      <trkpt lat="-21.19804" lon="55.5729">
        <ele>1591.5998535156</ele>
        <time>2013-01-07T09:45:03Z</time>
      </trkpt>
      <trkpt lat="-21.19806" lon="55.57284">
        <ele>1592.5612792969</ele>
        <time>2013-01-07T09:45:10Z</time>
      </trkpt>
      <trkpt lat="-21.19813" lon="55.57278">
        <ele>1591.119140625</ele>
        <time>2013-01-07T09:45:16Z</time>
      </trkpt>
      <trkpt lat="-21.19816" lon="55.57275">
        <ele>1592.5612792969</ele>
        <time>2013-01-07T09:45:19Z</time>
      </trkpt>
      <trkpt lat="-21.19817" lon="55.57274">
        <ele>1592.5612792969</ele>
        <time>2013-01-07T09:45:20Z</time>
      </trkpt>
      <trkpt lat="-21.1982" lon="55.57272">
        <ele>1594.0031738281</ele>
        <time>2013-01-07T09:45:22Z</time>
      </trkpt>
      <trkpt lat="-21.19822" lon="55.57271">
        <ele>1593.0417480469</ele>
        <time>2013-01-07T09:45:24Z</time>
      </trkpt>
      <trkpt lat="-21.19834" lon="55.57262">
        <ele>1591.5998535156</ele>
        <time>2013-01-07T09:45:37Z</time>
      </trkpt>
      <trkpt lat="-21.19851" lon="55.57249">
        <ele>1590.6384277344</ele>
        <time>2013-01-07T09:45:54Z</time>
      </trkpt>
      <trkpt lat="-21.19862" lon="55.5724">
        <ele>1590.1579589844</ele>
        <time>2013-01-07T09:46:05Z</time>
      </trkpt>
      <trkpt lat="-21.19876" lon="55.57229">
        <ele>1589.6772460938</ele>
        <time>2013-01-07T09:46:18Z</time>
      </trkpt>
      <trkpt lat="-21.19884" lon="55.57218">
        <ele>1588.7160644531</ele>
        <time>2013-01-07T09:46:29Z</time>
      </trkpt>
      <trkpt lat="-21.19888" lon="55.57212">
        <ele>1588.7160644531</ele>
        <time>2013-01-07T09:46:34Z</time>
      </trkpt>
      <trkpt lat="-21.1989" lon="55.57209">
        <ele>1588.7160644531</ele>
        <time>2013-01-07T09:46:38Z</time>
      </trkpt>
      <trkpt lat="-21.19897" lon="55.57199">
        <ele>1588.7160644531</ele>
        <time>2013-01-07T09:46:45Z</time>
      </trkpt>
      <trkpt lat="-21.19897" lon="55.57195">
        <ele>1588.7160644531</ele>
        <time>2013-01-07T09:46:48Z</time>
      </trkpt>
      <trkpt lat="-21.19898" lon="55.57185">
        <ele>1588.7160644531</ele>
        <time>2013-01-07T09:46:55Z</time>
      </trkpt>
      <trkpt lat="-21.19894" lon="55.57174">
        <ele>1588.2353515625</ele>
        <time>2013-01-07T09:47:02Z</time>
      </trkpt>
      <trkpt lat="-21.19893" lon="55.57169">
        <ele>1588.7160644531</ele>
        <time>2013-01-07T09:47:06Z</time>
      </trkpt>
      <trkpt lat="-21.19889" lon="55.57161">
        <ele>1588.2353515625</ele>
        <time>2013-01-07T09:47:12Z</time>
      </trkpt>
      <trkpt lat="-21.19888" lon="55.57153">
        <ele>1588.2353515625</ele>
        <time>2013-01-07T09:47:19Z</time>
      </trkpt>
      <trkpt lat="-21.19889" lon="55.57149">
        <ele>1588.2353515625</ele>
        <time>2013-01-07T09:47:26Z</time>
      </trkpt>
      <trkpt lat="-21.19891" lon="55.57148">
        <ele>1588.2353515625</ele>
        <time>2013-01-07T09:47:35Z</time>
      </trkpt>
      <trkpt lat="-21.19895" lon="55.57146">
        <ele>1587.7546386719</ele>
        <time>2013-01-07T09:47:42Z</time>
      </trkpt>
      <trkpt lat="-21.19902" lon="55.57145">
        <ele>1587.7546386719</ele>
        <time>2013-01-07T09:47:48Z</time>
      </trkpt>
      <trkpt lat="-21.19909" lon="55.57147">
        <ele>1586.3127441406</ele>
        <time>2013-01-07T09:47:54Z</time>
      </trkpt>
      <trkpt lat="-21.19923" lon="55.5715">
        <ele>1585.83203125</ele>
        <time>2013-01-07T09:48:05Z</time>
      </trkpt>
      <trkpt lat="-21.19932" lon="55.57154">
        <ele>1587.2739257812</ele>
        <time>2013-01-07T09:48:13Z</time>
      </trkpt>
      <trkpt lat="-21.19945" lon="55.5716">
        <ele>1588.7160644531</ele>
        <time>2013-01-07T09:48:25Z</time>
      </trkpt>
      <trkpt lat="-21.19965" lon="55.57163">
        <ele>1588.2353515625</ele>
        <time>2013-01-07T09:48:39Z</time>
      </trkpt>
      <trkpt lat="-21.19974" lon="55.57165">
        <ele>1588.7160644531</ele>
        <time>2013-01-07T09:48:46Z</time>
      </trkpt>
      <trkpt lat="-21.19987" lon="55.57168">
        <ele>1588.7160644531</ele>
        <time>2013-01-07T09:48:58Z</time>
      </trkpt>
      <trkpt lat="-21.19992" lon="55.5717">
        <ele>1588.2353515625</ele>
        <time>2013-01-07T09:49:02Z</time>
      </trkpt>
      <trkpt lat="-21.20011" lon="55.57175">
        <ele>1587.7546386719</ele>
        <time>2013-01-07T09:49:17Z</time>
      </trkpt>
      <trkpt lat="-21.20027" lon="55.57179">
        <ele>1586.7932128906</ele>
        <time>2013-01-07T09:49:31Z</time>
      </trkpt>
      <trkpt lat="-21.20037" lon="55.57181">
        <ele>1585.83203125</ele>
        <time>2013-01-07T09:49:40Z</time>
      </trkpt>
      <trkpt lat="-21.20057" lon="55.57187">
        <ele>1584.8708496094</ele>
        <time>2013-01-07T09:49:56Z</time>
      </trkpt>
      <trkpt lat="-21.20077" lon="55.57192">
        <ele>1584.3901367188</ele>
        <time>2013-01-07T09:50:09Z</time>
      </trkpt>
      <trkpt lat="-21.20084" lon="55.57193">
        <ele>1583.4287109375</ele>
        <time>2013-01-07T09:50:14Z</time>
      </trkpt>
      <trkpt lat="-21.20093" lon="55.57195">
        <ele>1583.4287109375</ele>
        <time>2013-01-07T09:50:23Z</time>
      </trkpt>
      <trkpt lat="-21.2011" lon="55.57197">
        <ele>1583.4287109375</ele>
        <time>2013-01-07T09:50:34Z</time>
      </trkpt>
      <trkpt lat="-21.2011" lon="55.57198">
        <ele>1582.9479980469</ele>
        <time>2013-01-07T09:50:37Z</time>
      </trkpt>
      <trkpt lat="-21.20113" lon="55.57199">
        <ele>1583.9094238281</ele>
        <time>2013-01-07T09:50:39Z</time>
      </trkpt>
      <trkpt lat="-21.20121" lon="55.57201">
        <ele>1583.4287109375</ele>
        <time>2013-01-07T09:50:45Z</time>
      </trkpt>
      <trkpt lat="-21.20142" lon="55.57206">
        <ele>1582.9479980469</ele>
        <time>2013-01-07T09:51:01Z</time>
      </trkpt>
      <trkpt lat="-21.20143" lon="55.57206">
        <ele>1582.9479980469</ele>
        <time>2013-01-07T09:51:02Z</time>
      </trkpt>
      <trkpt lat="-21.20156" lon="55.57208">
        <ele>1582.9479980469</ele>
        <time>2013-01-07T09:51:11Z</time>
      </trkpt>
      <trkpt lat="-21.20161" lon="55.57209">
        <ele>1585.3513183594</ele>
        <time>2013-01-07T09:51:14Z</time>
      </trkpt>
      <trkpt lat="-21.20162" lon="55.5721">
        <ele>1584.8708496094</ele>
        <time>2013-01-07T09:51:15Z</time>
      </trkpt>
      <trkpt lat="-21.2017" lon="55.57216">
        <ele>1584.3901367188</ele>
        <time>2013-01-07T09:51:24Z</time>
      </trkpt>
      <trkpt lat="-21.20173" lon="55.57216">
        <ele>1583.9094238281</ele>
        <time>2013-01-07T09:51:29Z</time>
      </trkpt>
      <trkpt lat="-21.20185" lon="55.5723">
        <ele>1584.8708496094</ele>
        <time>2013-01-07T09:51:43Z</time>
      </trkpt>
      <trkpt lat="-21.20187" lon="55.57232">
        <ele>1584.3901367188</ele>
        <time>2013-01-07T09:51:45Z</time>
      </trkpt>
      <trkpt lat="-21.20192" lon="55.57237">
        <ele>1582.9479980469</ele>
        <time>2013-01-07T09:51:50Z</time>
      </trkpt>
      <trkpt lat="-21.20195" lon="55.57239">
        <ele>1583.4287109375</ele>
        <time>2013-01-07T09:51:53Z</time>
      </trkpt>
      <trkpt lat="-21.20196" lon="55.57243">
        <ele>1583.4287109375</ele>
        <time>2013-01-07T09:51:56Z</time>
      </trkpt>
      <trkpt lat="-21.20198" lon="55.57245">
        <ele>1583.4287109375</ele>
        <time>2013-01-07T09:51:58Z</time>
      </trkpt>
      <trkpt lat="-21.20205" lon="55.57249">
        <ele>1583.9094238281</ele>
        <time>2013-01-07T09:52:04Z</time>
      </trkpt>
      <trkpt lat="-21.20216" lon="55.5726">
        <ele>1583.4287109375</ele>
        <time>2013-01-07T09:52:14Z</time>
      </trkpt>
      <trkpt lat="-21.20232" lon="55.57274">
        <ele>1584.8708496094</ele>
        <time>2013-01-07T09:52:30Z</time>
      </trkpt>
      <trkpt lat="-21.20237" lon="55.57277">
        <ele>1584.8708496094</ele>
        <time>2013-01-07T09:52:33Z</time>
      </trkpt>
      <trkpt lat="-21.2024" lon="55.5728">
        <ele>1584.3901367188</ele>
        <time>2013-01-07T09:52:38Z</time>
      </trkpt>
      <trkpt lat="-21.20245" lon="55.57286">
        <ele>1585.3513183594</ele>
        <time>2013-01-07T09:52:43Z</time>
      </trkpt>
      <trkpt lat="-21.20248" lon="55.57288">
        <ele>1583.9094238281</ele>
        <time>2013-01-07T09:52:46Z</time>
      </trkpt>
      <trkpt lat="-21.20258" lon="55.57297">
        <ele>1583.4287109375</ele>
        <time>2013-01-07T09:52:57Z</time>
      </trkpt>
      <trkpt lat="-21.20267" lon="55.57306">
        <ele>1583.9094238281</ele>
        <time>2013-01-07T09:53:08Z</time>
      </trkpt>
      <trkpt lat="-21.20269" lon="55.57309">
        <ele>1581.5061035156</ele>
        <time>2013-01-07T09:53:11Z</time>
      </trkpt>
      <trkpt lat="-21.20275" lon="55.57317">
        <ele>1581.5061035156</ele>
        <time>2013-01-07T09:53:18Z</time>
      </trkpt>
      <trkpt lat="-21.20279" lon="55.57321">
        <ele>1581.0256347656</ele>
        <time>2013-01-07T09:53:22Z</time>
      </trkpt>
      <trkpt lat="-21.20281" lon="55.57323">
        <ele>1581.5061035156</ele>
        <time>2013-01-07T09:53:24Z</time>
      </trkpt>
      <trkpt lat="-21.20289" lon="55.5733">
        <ele>1584.3901367188</ele>
        <time>2013-01-07T09:53:31Z</time>
      </trkpt>
      <trkpt lat="-21.20299" lon="55.57341">
        <ele>1582.4675292969</ele>
        <time>2013-01-07T09:53:44Z</time>
      </trkpt>
      <trkpt lat="-21.20302" lon="55.57345">
        <ele>1582.4675292969</ele>
        <time>2013-01-07T09:53:51Z</time>
      </trkpt>
      <trkpt lat="-21.20308" lon="55.57347">
        <ele>1581.9868164062</ele>
        <time>2013-01-07T09:53:57Z</time>
      </trkpt>
      <trkpt lat="-21.20327" lon="55.57332">
        <ele>1581.5061035156</ele>
        <time>2013-01-07T09:54:14Z</time>
      </trkpt>
      <trkpt lat="-21.20342" lon="55.57329">
        <ele>1580.544921875</ele>
        <time>2013-01-07T09:54:24Z</time>
      </trkpt>
      <trkpt lat="-21.20349" lon="55.57323">
        <ele>1580.544921875</ele>
        <time>2013-01-07T09:54:30Z</time>
      </trkpt>
      <trkpt lat="-21.20353" lon="55.57319">
        <ele>1579.5832519531</ele>
        <time>2013-01-07T09:54:35Z</time>
      </trkpt>
      <trkpt lat="-21.2036" lon="55.57312">
        <ele>1579.5832519531</ele>
        <time>2013-01-07T09:54:43Z</time>
      </trkpt>
      <trkpt lat="-21.2037" lon="55.573">
        <ele>1578.6220703125</ele>
        <time>2013-01-07T09:54:57Z</time>
      </trkpt>
      <trkpt lat="-21.20371" lon="55.57292">
        <ele>1578.6220703125</ele>
        <time>2013-01-07T09:55:15Z</time>
      </trkpt>
      <trkpt lat="-21.20371" lon="55.57289">
        <ele>1578.6220703125</ele>
        <time>2013-01-07T09:55:18Z</time>
      </trkpt>
      <trkpt lat="-21.20372" lon="55.57284">
        <ele>1578.6220703125</ele>
        <time>2013-01-07T09:55:35Z</time>
      </trkpt>
      <trkpt lat="-21.20376" lon="55.57278">
        <ele>1578.1413574219</ele>
        <time>2013-01-07T09:55:58Z</time>
      </trkpt>
    </trkseg>
  </trk>
</gpx>